# Wetter Temperatur Luftdruck Luftfeuchtigkeit Sichtweite Windgeschwindigkeit Windrichtung Zeit
1 Rain 14 1014 87 10000 5.7 180 19:59 17.10.2019
2 Rain 14 1014 87 10000 5.7 180 19:59 17.10.2019
3 Rain 14 1014 87 10000 5.1 180 19:40 17.10.2019
4 Rain 14 1014 87 10000 5.1 180 19:20 17.10.2019
5 Rain 14 1014 87 10000 5.1 180 19:20 17.10.2019
6 Rain 14 1014 87 10000 5.1 180 19:20 17.10.2019
7 Rain 14 1014 87 10000 4.6 180 18:58 17.10.2019
8 Rain 15 1014 87 7000 4.1 170 18:38 17.10.2019
9 Rain 15 1014 87 10000 2.1 200 18:20 17.10.2019
10 Rain 16 1014 82 10000 4.6 190 17:43 17.10.2019
11 Rain 16 1014 82 10000 2.6 220 17:24 17.10.2019
12 Rain 17 1014 72 10000 4.1 200 16:58 17.10.2019
13 Rain 18 1013 68 10000 3.6 200 16:39 17.10.2019
14 Clouds 18 1013 59 10000 2.1 210 16:18 17.10.2019
15 Clouds 18 1013 59 10000 2.1 210 15:56 17.10.2019
16 Clouds 19 1013 55 10000 2.6 220 15:38 17.10.2019
17 Clouds 19 1013 59 10000 1.5 0 15:20 17.10.2019
18 Clouds 19 1014 55 10000 4.6 210 14:56 17.10.2019
19 Clouds 19 1014 55 10000 4.6 210 14:37 17.10.2019
20 Clouds 19 1014 52 10000 4.6 200 14:19 17.10.2019
21 Clouds 19 1014 55 10000 5.1 210 13:39 17.10.2019
22 Clouds 19 1014 55 10000 5.1 210 13:39 17.10.2019
23 Clouds 19 1014 59 10000 4.1 150 13:20 17.10.2019
24 Clouds 19 1015 55 10000 5.1 210 12:57 17.10.2019
25 Clouds 18 1015 59 10000 5.7 210 12:37 17.10.2019
26 Clouds 17 1015 63 10000 5.1 200 12:19 17.10.2019
27 Clouds 16 1015 63 10000 3.6 200 11:42 17.10.2019
28 Clouds 16 1015 63 10000 3.6 200 11:42 17.10.2019
29 Clouds 16 1015 82 10000 2.1 240 11:22 17.10.2019
30 Clouds 15 1015 63 10000 4.6 200 10:59 17.10.2019
31 Drizzle 15 1015 67 10000 5.1 200 10:41 17.10.2019
32 Clouds 14 1015 76 10000 3.1 130 10:19 17.10.2019
33 Clouds 13 1015 63 10000 4.1 190 09:56 17.10.2019
34 Clouds 13 1015 67 10000 4.1 190 09:37 17.10.2019
35 Clouds 12 1015 82 10000 2.6 160 09:19 17.10.2019
36 Clouds 12 1015 76 10000 3.1 190 08:48 17.10.2019
37 Clouds 11 1015 76 10000 3.1 190 08:27 17.10.2019
38 Drizzle 11 1014 76 10000 3.6 190 07:59 17.10.2019
39 -273 0 0 0 0 0 07:41 17.10.2019
40 Rain 11 1015 87 10000 1.5 150 07:21 17.10.2019
41 Rain 11 1015 81 10000 2.1 140 06:51 17.10.2019
42 Rain 12 1015 76 10000 1.5 110 06:31 17.10.2019
43 Clouds 11 1015 76 10000 1 0 05:59 17.10.2019
44 Rain 11 1015 81 10000 2.6 190 05:40 17.10.2019
45 Rain 11 1015 81 10000 2.6 190 05:19 17.10.2019
46 Clouds 11 1014 71 10000 1.5 0 04:48 17.10.2019
47 Clouds 11 1014 71 10000 4.1 170 03:46 17.10.2019
48 Clouds 11 1014 81 10000 2.6 220 01:57 17.10.2019
49 Clouds 11 1014 71 10000 4.1 200 00:42 17.10.2019
50 Clear 10 1014 71 10000 4.1 200 00:21 17.10.2019
51 Clear 10 1014 76 10000 3.1 230 23:59 16.10.2019
52 Clear 10 1014 81 10000 2.6 230 23:41 16.10.2019
53 Clear 10 1014 81 10000 2.6 230 23:41 16.10.2019
54 Clear 10 1014 81 10000 2.6 230 23:19 16.10.2019
55 Clear 10 1014 81 10000 2.6 230 22:54 16.10.2019
56 Clear 11 1014 81 10000 2.6 250 22:36 16.10.2019
57 Clear 11 1014 81 10000 2.1 220 22:18 16.10.2019
58 Clear 11 1014 81 10000 2.1 220 21:55 16.10.2019
59 Clear 11 1014 81 10000 2.1 220 21:54 16.10.2019
60 Clear 11 1014 81 10000 2.1 220 21:54 16.10.2019
61 Clouds 11 1014 87 10000 2.1 230 21:36 16.10.2019
62 Clear 12 1014 76 10000 3.1 220 21:18 16.10.2019
63 Clear 12 1014 76 10000 3.1 220 20:55 16.10.2019
64 Clear 12 1014 76 10000 3.6 230 20:37 16.10.2019
65 Clear 13 1014 76 10000 3.6 230 20:19 16.10.2019
66 Clear 13 1013 55 10000 3.6 150 19:40 16.10.2019
67 Clear 13 1013 55 10000 3.6 150 19:40 16.10.2019
68 Clear 14 1013 62 10000 3.1 220 19:21 16.10.2019
69 Clear 14 1013 62 10000 3.1 220 19:21 16.10.2019
70 Clear 14 1013 51 10000 2.6 160 18:58 16.10.2019
71 Clear 14 1013 48 10000 3.1 160 18:38 16.10.2019
72 Clear 16 1013 48 10000 3.1 180 18:18 16.10.2019
73 Clear 16 1013 48 10000 3.1 180 18:18 16.10.2019
74 Clear 16 1013 48 10000 3.1 180 17:55 16.10.2019
75 Clear 17 1013 45 10000 3.6 190 17:37 16.10.2019
76 -273 0 0 0 0 0 17:37 16.10.2019
77 Clear 17 1013 45 10000 6.7 200 17:19 16.10.2019
78 Clear 17 1014 45 10000 5.1 180 16:56 16.10.2019
79 Clear 18 1014 45 10000 4.6 170 16:38 16.10.2019
80 Clear 18 1013 45 10000 5.1 170 16:19 16.10.2019
81 -273 0 0 0 0 0 15:41 16.10.2019
82 Clear 18 1014 48 10000 5.1 190 15:41 16.10.2019
83 Clear 17 1014 48 10000 4.6 160 15:19 16.10.2019
84 Clear 17 1015 48 10000 6.2 190 14:59 16.10.2019
85 Clear 18 1015 48 10000 6.2 190 14:40 16.10.2019
86 Clouds 17 1014 52 10000 4.1 160 14:21 16.10.2019
87 Clear 17 1015 51 10000 6.7 190 13:59 16.10.2019
88 Clear 17 1015 52 10000 5.1 180 13:41 16.10.2019
89 Clear 17 1015 51 10000 7.2 200 13:22 16.10.2019
90 Clear 16 1015 59 10000 5.7 170 12:44 16.10.2019
91 Clear 15 1016 63 10000 5.1 170 12:20 16.10.2019
92 Clear 15 1016 55 10000 6.7 200 11:58 16.10.2019
93 Clouds 14 1016 67 10000 6.2 170 11:40 16.10.2019
94 Clouds 13 1016 71 10000 5.7 180 11:18 16.10.2019
95 Clear 12 1016 67 10000 5.1 200 10:37 16.10.2019
96 Clear 12 1016 81 10000 5.1 170 10:19 16.10.2019
97 Clear 11 1016 81 10000 4.1 170 09:41 16.10.2019
98 Clouds 10 1016 76 10000 4.1 180 09:22 16.10.2019
99 Clouds 9 1016 87 10000 4.1 170 08:58 16.10.2019
100 Clouds 9 1016 76 10000 4.1 180 08:40 16.10.2019
101 Clouds 9 1016 87 10000 5.7 170 08:22 16.10.2019
102 Clouds 9 1016 87 10000 4.1 170 07:45 16.10.2019
103 Clouds 9 1016 87 10000 3.1 180 07:24 16.10.2019
104 Clouds 9 1016 87 10000 3.6 170 06:57 16.10.2019
105 Clouds 9 1016 87 10000 3.6 170 06:57 16.10.2019
106 Clouds 9 1016 87 10000 3.6 170 06:35 16.10.2019
107 Clouds 9 1016 87 10000 3.6 160 05:44 16.10.2019
108 Clouds 10 1015 93 10000 5.1 190 02:58 16.10.2019
109 Clouds 10 1015 93 10000 4.6 190 02:38 16.10.2019
110 Clouds 10 1015 93 10000 4.1 190 01:19 16.10.2019
111 Clouds 11 1015 87 10000 3.6 170 00:47 16.10.2019
112 Rain 11 1015 87 10000 2.6 160 00:27 16.10.2019
113 Rain 11 1015 81 10000 4.1 200 23:41 15.10.2019
114 Rain 11 1014 81 10000 3.6 220 23:22 15.10.2019
115 Rain 11 1014 81 10000 3.6 220 23:22 15.10.2019
116 -273 0 0 0 0 0 22:56 15.10.2019
117 Rain 11 1013 93 10000 1 0 22:38 15.10.2019
118 Rain 11 1013 93 10000 1 0 22:20 15.10.2019
119 Rain 11 1012 100 10000 1.5 190 21:56 15.10.2019
120 Rain 11 1012 100 10000 1.5 190 21:55 15.10.2019
121 Rain 12 1012 93 7000 3.1 220 21:37 15.10.2019
122 Rain 12 1012 93 7000 3.1 220 21:19 15.10.2019
123 Rain 12 1011 93 10000 4.6 180 20:55 15.10.2019
124 Rain 12 1011 93 10000 5.7 170 20:37 15.10.2019
125 Rain 12 1011 93 10000 5.7 170 20:19 15.10.2019
126 Rain 12 1011 93 8000 4.1 200 19:56 15.10.2019
127 Rain 13 1010 93 10000 3.1 180 19:37 15.10.2019
128 Rain 12 1010 93 10000 5.1 180 19:19 15.10.2019
129 Rain 13 1009 100 8000 3.6 180 18:44 15.10.2019
130 -273 0 0 0 0 0 18:26 15.10.2019
131 Rain 13 1009 93 10000 3.1 200 17:55 15.10.2019
132 Rain 13 1009 93 10000 3.1 200 17:55 15.10.2019
133 Drizzle 13 1009 93 10000 3.6 200 17:37 15.10.2019
134 Rain 14 1009 93 10000 2.1 160 17:19 15.10.2019
135 Rain 14 1009 93 10000 2.1 160 17:19 15.10.2019
136 Rain 14 1009 93 10000 2.1 170 16:45 15.10.2019
137 Rain 14 1009 93 10000 4.1 180 16:22 15.10.2019
138 Rain 14 1009 87 10000 4.1 210 15:58 15.10.2019
139 Rain 14 1009 87 10000 4.1 210 15:58 15.10.2019
140 Rain 15 1009 93 10000 2.6 160 15:40 15.10.2019
141 Rain 15 1009 93 10000 2.6 160 15:40 15.10.2019
142 Rain 15 1009 87 10000 1.5 150 15:20 15.10.2019
143 Clouds 15 1008 77 10000 2.6 180 14:57 15.10.2019
144 Clouds 16 1008 82 10000 2.1 200 14:37 15.10.2019
145 Rain 16 1009 72 10000 6.2 230 14:19 15.10.2019
146 Clouds 16 1008 59 10000 5.1 210 13:44 15.10.2019
147 Clouds 16 1008 59 10000 5.1 220 13:21 15.10.2019
148 Clouds 17 1008 77 10000 4.1 210 12:59 15.10.2019
149 Clouds 17 1008 77 10000 4.1 210 12:59 15.10.2019
150 Clouds 17 1008 77 10000 3.6 200 12:39 15.10.2019
151 Clouds 16 1008 77 10000 1 0 12:20 15.10.2019
152 Clouds 16 1008 82 10000 1.5 170 11:44 15.10.2019
153 Clouds 16 1008 87 10000 0.5 60 11:21 15.10.2019
154 Clear 15 1008 82 10000 3.1 190 10:58 15.10.2019
155 Clear 15 1008 87 10000 2.6 210 10:39 15.10.2019
156 Clear 14 1008 87 10000 0.5 0 10:19 15.10.2019
157 Clear 14 1007 93 10000 2.6 220 09:57 15.10.2019
158 Clear 14 1007 87 10000 1 0 09:37 15.10.2019
159 Clear 13 1007 87 10000 1 180 09:19 15.10.2019
160 Clear 12 1007 100 10000 1.5 150 08:42 15.10.2019
161 Clear 12 1006 93 10000 1.5 0 08:21 15.10.2019
162 Clear 12 1006 93 10000 1.5 0 08:21 15.10.2019
163 Clear 12 1006 93 10000 2.1 110 07:56 15.10.2019
164 Clear 12 1006 87 10000 1.86 180.062 07:38 15.10.2019
165 Clear 12 1006 87 10000 1.86 180.062 07:19 15.10.2019
166 Clear 12 1006 93 10000 1.5 0 06:44 15.10.2019
167 Clear 12 1007 93 10000 1 0 06:26 15.10.2019
168 Fog 12 1007 93 10000 0.5 0 05:41 15.10.2019
169 Fog 12 1007 93 10000 1.5 60 05:23 15.10.2019
170 Clear 13 1008 100 10000 0.5 0 04:32 15.10.2019
171 Clear 13 1009 93 10000 1 0 03:37 15.10.2019
172 Clear 13 1009 93 10000 1 0 03:37 15.10.2019
173 Clear 14 1009 93 10000 1 0 02:42 15.10.2019
174 Clear 14 1010 87 10000 1 130 01:49 15.10.2019
175 Clear 14 1010 87 10000 1.91 198.075 01:22 15.10.2019
176 Clear 14 1010 82 10000 1 0 00:49 15.10.2019
177 Clear 15 1010 82 10000 2.1 240 00:22 15.10.2019
178 Clear 15 1010 82 10000 1 0 23:45 14.10.2019
179 Clear 15 1010 82 10000 1 0 23:21 14.10.2019
180 Clear 15 1011 82 10000 1 0 22:59 14.10.2019
181 Clear 15 1010 77 10000 1.5 230 22:38 14.10.2019
182 Clear 15 1010 77 10000 1.5 230 22:19 14.10.2019
183 Clear 16 1011 68 10000 3.1 250 21:56 14.10.2019
184 Clear 16 1010 68 10000 4.1 220 21:37 14.10.2019
185 Clear 16 1010 68 10000 4.1 220 21:19 14.10.2019
186 Clear 16 1010 68 10000 2.1 240 20:55 14.10.2019
187 Clear 17 1010 87 10000 2.34 255.149 20:37 14.10.2019
188 Clear 17 1010 77 10000 1 0 20:18 14.10.2019
189 Clouds 18 1010 68 10000 3.1 270 19:42 14.10.2019
190 Clear 18 1010 72 10000 2.1 280 19:23 14.10.2019
191 Clear 20 1010 64 10000 2.34 255.149 18:59 14.10.2019
192 Clear 21 1010 60 10000 2.1 310 18:39 14.10.2019
193 Clear 22 1010 50 10000 2.6 230 18:20 14.10.2019
194 Clear 22 1010 50 10000 2.6 230 18:20 14.10.2019
195 Clear 22 1010 50 10000 2.6 230 18:20 14.10.2019
196 Clear 22 1010 50 10000 2.6 230 18:20 14.10.2019
197 Clear 22 1010 60 10000 2.1 340 17:58 14.10.2019
198 Clear 23 1010 53 10000 1 0 17:39 14.10.2019
199 Clear 23 1010 44 10000 4.6 180 17:21 14.10.2019
200 Clear 24 1011 53 10000 1.5 0 16:44 14.10.2019
201 Clear 24 1011 53 10000 2.1 200 16:21 14.10.2019
202 Clear 24 1011 53 10000 2.1 200 15:57 14.10.2019
203 Clear 24 1012 50 10000 3.1 230 15:38 14.10.2019
204 Clear 24 1012 47 10000 3.6 160 15:20 14.10.2019
205 Clear 24 1013 57 10000 2.6 240 14:43 14.10.2019
206 Clear 23 1013 47 10000 3.1 160 14:24 14.10.2019
207 Clear 24 1013 50 10000 2.6 170 13:56 14.10.2019
208 Clear 23 1014 53 10000 2.6 220 13:37 14.10.2019
209 Clear 23 1014 60 10000 2.6 230 13:18 14.10.2019
210 Clear 21 1015 60 10000 2.1 230 12:40 14.10.2019
211 Clear 21 1015 60 10000 2.1 230 12:40 14.10.2019
212 Clear 20 1015 64 10000 2.6 250 12:19 14.10.2019
213 Clear 20 1015 64 10000 2.6 250 12:19 14.10.2019
214 Clear 19 1015 60 10000 1.5 310 11:47 14.10.2019
215 Clear 19 1015 60 10000 1.5 310 11:27 14.10.2019
216 Clear 18 1015 72 10000 0.5 0 10:59 14.10.2019
217 Clear 17 1015 77 10000 0.5 0 10:40 14.10.2019
218 Clear 16 1015 77 10000 3.1 180 10:20 14.10.2019
219 Clear 15 1015 82 10000 0.5 0 09:56 14.10.2019
220 Clear 14 1015 87 10000 1 0 09:38 14.10.2019
221 Clear 13 1015 93 10000 1 10 09:19 14.10.2019
222 Clear 12 1015 93 10000 0.5 0 08:45 14.10.2019
223 Clear 12 1015 100 10000 2.5 214.136 08:22 14.10.2019
224 Clear 12 1015 100 10000 1 0 07:43 14.10.2019
225 Clear 12 1015 93 10000 1 0 07:19 14.10.2019
226 Clear 12 1015 93 10000 1 0 06:54 14.10.2019
227 Clear 12 1015 93 10000 1 0 06:27 14.10.2019
228 Clear 12 1016 100 10000 1 160 05:50 14.10.2019
229 Clear 13 1016 87 10000 1 0 04:50 14.10.2019
230 Clear 13 1016 87 10000 1.5 0 03:48 14.10.2019
231 Clear 14 1016 87 10000 1.5 0 03:21 14.10.2019
232 Clear 14 1015 68 10000 2.1 150 01:46 14.10.2019
233 Clear 14 1017 87 10000 1.5 130 01:18 14.10.2019
234 Clear 15 1017 93 10000 1.5 220 00:36 14.10.2019
235 Clear 16 1017 87 10000 2.1 220 00:18 14.10.2019
236 Clear 15 1016 93 10000 2.6 230 23:40 13.10.2019
237 Clear 16 1015 68 10000 2.1 60 23:19 13.10.2019
238 Clear 16 1015 68 10000 2.1 60 22:54 13.10.2019
239 Clear 16 1016 93 10000 1 230 22:36 13.10.2019
240 Clear 16 1014 60 10000 2.6 190 22:18 13.10.2019
241 Clear 16 1014 60 10000 2.6 190 22:18 13.10.2019
242 Clear 16 1015 87 10000 1.5 190 21:55 13.10.2019
243 Clear 16 1014 60 10000 2.6 200 21:36 13.10.2019
244 Clear 17 1014 56 10000 3.6 210 21:18 13.10.2019
245 Clear 17 1014 56 10000 3.6 210 20:55 13.10.2019
246 Clear 18 1014 49 10000 4.1 200 20:36 13.10.2019
247 Clear 18 1013 53 10000 4.1 190 20:18 13.10.2019
248 Clear 19 1013 56 10000 4.1 190 19:40 13.10.2019
249 Clear 20 1013 56 10000 4.1 190 19:22 13.10.2019
250 Clear 20 1013 49 10000 4.1 190 18:59 13.10.2019
251 Clear 21 1013 39 10000 6.2 190 18:39 13.10.2019
252 Clear 23 1013 39 10000 6.2 190 18:20 13.10.2019
253 Clear 23 1013 36 10000 5.7 200 17:59 13.10.2019
254 Clear 23 1013 36 10000 5.1 210 17:41 13.10.2019
255 Clear 24 1013 39 10000 4.6 200 17:22 13.10.2019
256 Clear 24 1013 39 10000 6.7 200 16:43 13.10.2019
257 Clear 25 1013 39 10000 6.7 200 16:19 13.10.2019
258 Clear 25 1013 37 10000 6.2 220 15:57 13.10.2019
259 Clear 25 1013 37 10000 6.2 220 15:57 13.10.2019
260 Clear 25 1013 35 10000 7.7 190 15:39 13.10.2019
261 Clear 25 1013 39 10000 7.2 180 15:20 13.10.2019
262 Clear 25 1013 39 10000 7.2 180 14:57 13.10.2019
263 Clear 24 1013 42 10000 5.7 170 14:39 13.10.2019
264 Clear 24 1014 42 10000 7.2 170 14:20 13.10.2019
265 Clear 25 1014 42 10000 7.2 170 13:55 13.10.2019
266 Clear 24 1014 44 10000 7.2 180 13:37 13.10.2019
267 Clear 24 1014 44 10000 7.2 180 13:37 13.10.2019
268 Clear 24 1014 50 10000 5.1 170 13:18 13.10.2019
269 Clear 24 1014 50 10000 5.1 170 13:18 13.10.2019
270 Clear 23 1014 50 10000 5.1 170 12:55 13.10.2019
271 Clear 23 1014 50 10000 5.1 170 12:55 13.10.2019
272 Clear 23 1014 50 10000 5.1 170 12:55 13.10.2019
273 Clear 22 1014 53 10000 4.6 160 12:36 13.10.2019
274 Clear 21 1014 56 10000 5.7 170 12:18 13.10.2019
275 Clear 20 1014 56 10000 5.7 170 11:55 13.10.2019
276 Clear 20 1015 60 10000 3.1 180 11:36 13.10.2019
277 Clear 19 1015 64 10000 1.5 0 11:18 13.10.2019
278 Clear 19 1015 68 10000 2.6 190 10:41 13.10.2019
279 Clear 18 1015 68 10000 2.6 190 10:22 13.10.2019
280 Clear 18 1015 68 10000 2.6 190 10:22 13.10.2019
281 Clear 16 1014 77 10000 3.1 190 09:41 13.10.2019
282 Clear 14 1014 77 10000 3.1 190 09:21 13.10.2019
283 Clear 14 1014 77 10000 2.6 160 08:58 13.10.2019
284 Clear 14 1014 77 10000 2.6 170 08:38 13.10.2019
285 Clear 13 1014 77 10000 3.6 170 08:19 13.10.2019
286 Clear 14 1014 93 10000 4.71 209.445 07:46 13.10.2019
287 Clear 14 1014 93 10000 4.71 209.445 07:21 13.10.2019
288 Clear 14 1015 82 10000 1.5 0 06:41 13.10.2019
289 Clear 14 1015 82 10000 1.5 0 06:41 13.10.2019
290 Clear 14 1015 77 10000 0.5 0 05:46 13.10.2019
291 Clear 15 1015 72 10000 5.1 180 04:46 13.10.2019
292 Clear 15 1015 77 10000 4.1 170 03:51 13.10.2019
293 Clear 15 1015 87 10000 1 0 02:42 13.10.2019
294 Clear 15 1015 87 10000 1 0 01:54 13.10.2019
295 Clear 15 1015 87 10000 3.6 190 01:30 13.10.2019
296 Clear 15 1015 77 10000 2.1 210 00:47 13.10.2019
297 Clear 15 1015 77 10000 2.1 130 00:21 13.10.2019
298 Clear 15 1015 77 10000 2.1 130 23:57 12.10.2019
299 Clear 16 1015 72 10000 1.5 150 23:39 12.10.2019
300 Clear 16 1015 72 10000 3.1 160 23:19 12.10.2019
301 Clear 16 1016 93 10000 1.5 0 22:57 12.10.2019
302 Clear 16 1015 82 10000 4.1 190 22:38 12.10.2019
303 Clear 16 1015 77 10000 2.1 210 22:20 12.10.2019
304 Clear 16 1015 77 10000 2.1 210 21:55 12.10.2019
305 Clear 16 1015 72 10000 2.6 150 21:37 12.10.2019
306 Clear 17 1015 72 10000 4.6 190 21:18 12.10.2019
307 Clear 17 1015 72 10000 4.6 190 21:18 12.10.2019
308 Clear 18 1015 68 10000 7.2 180 20:40 12.10.2019
309 Clear 18 1015 68 10000 7.2 180 20:22 12.10.2019
310 Clear 18 1015 64 10000 3.1 190 19:39 12.10.2019
311 Clear 18 1015 64 10000 3.1 190 19:39 12.10.2019
312 Clear 18 1015 64 10000 5.1 210 19:20 12.10.2019
313 Clear 18 1015 64 10000 5.1 210 18:59 12.10.2019
314 Clear 18 1015 64 10000 4.1 190 18:40 12.10.2019
315 -273 0 0 0 0 0 18:40 12.10.2019
316 Rain 19 1015 64 10000 4.1 190 18:22 12.10.2019
317 Rain 20 1015 56 10000 4.6 190 17:43 12.10.2019
318 Rain 20 1015 56 10000 4.6 220 17:19 12.10.2019
319 Rain 21 1015 56 10000 4.6 220 16:55 12.10.2019
320 Clear 21 1016 56 10000 5.7 220 16:36 12.10.2019
321 Clear 21 1016 56 10000 5.7 220 16:36 12.10.2019
322 Clear 21 1015 53 10000 5.7 210 16:18 12.10.2019
323 Clear 22 1015 53 10000 8.2 240 15:44 12.10.2019
324 Clear 22 1015 53 10000 8.2 240 15:25 12.10.2019
325 Clear 22 1015 64 10000 1.5 290 14:55 12.10.2019
326 Clear 22 1015 64 10000 2.1 330 14:37 12.10.2019
327 Clear 22 1015 56 10000 2.1 250 14:18 12.10.2019
328 Clear 22 1015 53 10000 2.6 160 13:43 12.10.2019
329 Clear 22 1015 53 10000 2.6 160 13:43 12.10.2019
330 Clear 22 1015 53 10000 2.6 160 13:25 12.10.2019
331 -273 0 0 0 0 0 12:40 12.10.2019
332 Clear 19 1016 56 10000 3.1 180 12:22 12.10.2019
333 Clear 19 1016 59 10000 4.1 170 11:59 12.10.2019
334 Clear 18 1017 63 10000 3.6 180 11:40 12.10.2019
335 Clear 17 1016 67 10000 3.1 170 11:22 12.10.2019
336 Clear 16 1016 67 10000 3.1 170 10:56 12.10.2019
337 Clear 16 1016 76 10000 4.1 170 10:36 12.10.2019
338 Clear 14 1016 76 10000 1.5 160 10:18 12.10.2019
339 Clear 14 1016 76 10000 1.5 160 09:54 12.10.2019
340 Clear 12 1016 76 10000 2.1 170 09:36 12.10.2019
341 Clear 10 1016 81 10000 2.1 140 09:18 12.10.2019
342 Clear 11 1016 81 10000 2.1 140 09:18 12.10.2019
343 Clear 9 1016 87 10000 1.5 150 08:40 12.10.2019
344 Clear 9 1016 87 10000 1.5 150 08:20 12.10.2019
345 Clear 9 1016 87 10000 1.5 240 07:35 12.10.2019
346 Clear 9 1016 87 10000 1.5 240 07:35 12.10.2019
347 Clear 9 1016 81 10000 3.1 160 06:57 12.10.2019
348 Clear 9 1015 81 10000 5.7 170 05:48 12.10.2019
349 Clear 9 1015 81 10000 5.7 170 05:24 12.10.2019
350 Clear 10 1016 81 10000 4.6 190 04:24 12.10.2019
351 Clear 10 1016 81 10000 1.5 0 03:41 12.10.2019
352 Clear 10 1016 87 10000 1.5 0 01:56 12.10.2019
353 Clear 11 1016 81 10000 1.5 0 01:29 12.10.2019
354 Clear 11 1016 76 10000 1 0 00:43 12.10.2019
355 Clear 11 1016 76 10000 1 0 00:19 12.10.2019
356 Clear 11 1016 76 10000 2.1 130 23:40 11.10.2019
357 Clear 11 1016 76 10000 2.1 130 23:20 11.10.2019
358 Clear 11 1016 71 10000 2.1 120 22:56 11.10.2019
359 Clear 11 1016 81 10000 1.5 0 22:37 11.10.2019
360 Clear 12 1016 81 10000 1.5 190 22:18 11.10.2019
361 Clear 12 1016 76 10000 1 170 21:40 11.10.2019
362 Clear 12 1016 76 10000 1 170 21:21 11.10.2019
363 Clear 13 1016 81 10000 0.5 0 20:54 11.10.2019
364 Clear 13 1016 71 10000 1.5 0 20:36 11.10.2019
365 Clear 14 1016 63 10000 2.6 150 20:18 11.10.2019
366 Clear 13 1016 72 10000 1.5 230 19:54 11.10.2019
367 Clear 14 1016 63 10000 2.6 150 19:36 11.10.2019
368 Clear 15 1016 59 10000 3.1 160 19:18 11.10.2019
369 Clear 15 1016 59 10000 3.1 160 19:18 11.10.2019
370 Clear 16 1016 55 10000 3.6 170 18:39 11.10.2019
371 Clear 17 1016 52 10000 4.1 180 18:19 11.10.2019
372 Clear 18 1016 52 10000 4.1 180 17:59 11.10.2019
373 Clear 18 1016 52 10000 4.1 180 17:38 11.10.2019
374 Clear 19 1017 56 10000 4.6 180 17:19 11.10.2019
375 Clear 19 1017 56 10000 4.6 180 16:59 11.10.2019
376 Clear 19 1017 56 10000 4.6 190 16:39 11.10.2019
377 Clear 19 1017 56 10000 5.7 180 16:19 11.10.2019
378 Clear 19 1017 52 10000 5.1 170 15:57 11.10.2019
379 Clear 20 1017 56 10000 6.2 170 15:37 11.10.2019
380 Clear 19 1018 56 10000 6.2 210 15:18 11.10.2019
381 Clear 19 1018 56 10000 6.2 200 14:44 11.10.2019
382 Clear 19 1018 60 10000 5.7 170 14:25 11.10.2019
383 Clear 19 1019 59 10000 6.7 200 13:47 11.10.2019
384 Clear 18 1019 59 10000 6.7 200 13:27 11.10.2019
385 Clouds 18 1019 63 10000 5.1 200 12:59 11.10.2019
386 Clouds 17 1020 63 10000 6.2 200 12:40 11.10.2019
387 Clouds 15 1020 77 10000 3.1 250 12:22 11.10.2019
388 Clouds 15 1020 72 10000 5.7 180 11:59 11.10.2019
389 Clouds 14 1020 72 10000 3.6 260 11:39 11.10.2019
390 Clouds 13 1021 71 10000 6.2 170 11:21 11.10.2019
391 Clouds 14 1021 76 10000 7.2 180 10:56 11.10.2019
392 Clouds 13 1020 71 10000 3.1 200 10:38 11.10.2019
393 Clouds 11 1021 87 10000 1.5 230 10:19 11.10.2019
394 Clouds 10 1021 81 10000 4.1 190 09:54 11.10.2019
395 Clouds 10 1020 87 10000 2.1 170 09:36 11.10.2019
396 Clouds 8 1021 87 10000 1.5 160 09:18 11.10.2019
397 Clouds 7 1021 93 10000 1 0 08:39 11.10.2019
398 Clear 7 1020 93 10000 1 300 08:21 11.10.2019
399 Clear 7 1020 93 10000 1 300 07:59 11.10.2019
400 Clouds 7 1020 100 10000 1.5 0 07:40 11.10.2019
401 Clear 7 1020 100 10000 2.1 220 07:20 11.10.2019
402 Clear 7 1020 100 10000 2.6 190 06:44 11.10.2019
403 Clear 7 1021 100 10000 1 0 06:21 11.10.2019
404 Clouds 7 1021 100 10000 2.1 230 05:37 11.10.2019
405 Clear 7 1021 100 10000 2.1 220 04:59 11.10.2019
406 Clear 7 1021 93 10000 2.6 220 04:24 11.10.2019
407 Clear 8 1022 100 10000 1.5 210 02:18 11.10.2019
408 Clouds 8 1022 100 10000 1 0 00:43 11.10.2019
409 Clouds 8 1022 100 10000 1 0 00:25 11.10.2019
410 Clear 9 1022 93 10000 1 0 23:43 10.10.2019
411 Clear 9 1022 93 10000 1 0 23:21 10.10.2019
412 Clear 9 1022 100 10000 1.5 250 22:57 10.10.2019
413 Clear 9 1021 100 10000 2.6 220 22:38 10.10.2019
414 Clear 9 1022 100 10000 2.1 180 22:20 10.10.2019
415 Clear 10 1022 100 10000 2.1 180 21:57 10.10.2019
416 Clear 10 1021 93 10000 2.1 220 21:38 10.10.2019
417 Clear 11 1021 76 10000 3.6 180 21:20 10.10.2019
418 Clear 11 1021 76 10000 3.6 180 20:42 10.10.2019
419 Clouds 11 1021 93 10000 3.6 190 20:22 10.10.2019
420 Clear 12 1021 82 10000 2.6 190 20:22 10.10.2019
421 Clear 11 1021 82 10000 2.6 190 19:59 10.10.2019
422 Clear 12 1020 76 10000 3.6 200 19:40 10.10.2019
423 Clear 13 1020 72 10000 4.1 200 19:20 10.10.2019
424 Clear 12 1020 82 10000 2.6 220 18:57 10.10.2019
425 Clear 13 1020 72 10000 5.1 200 18:39 10.10.2019
426 Clear 14 1020 67 10000 5.7 200 18:20 10.10.2019
427 Clear 15 1020 62 10000 4.1 220 17:55 10.10.2019
428 Clouds 15 1020 67 10000 5.7 210 17:36 10.10.2019
429 Clouds 15 1020 72 10000 7.2 200 17:18 10.10.2019
430 Clouds 15 1020 72 10000 7.2 200 17:18 10.10.2019
431 Clouds 14 1020 63 10000 6.7 210 16:44 10.10.2019
432 Clear 15 1020 67 10000 4.1 210 16:26 10.10.2019
433 Rain 14 1020 76 10000 5.1 220 15:54 10.10.2019
434 Rain 14 1019 67 10000 7.7 220 15:36 10.10.2019
435 Clouds 15 1019 67 10000 6.7 220 15:18 10.10.2019
436 Clouds 14 1019 67 10000 6.7 220 14:54 10.10.2019
437 Rain 14 1019 67 10000 5.1 230 14:36 10.10.2019
438 Rain 14 1019 72 10000 5.7 210 14:18 10.10.2019
439 Clouds 14 1019 82 10000 4.6 220 13:41 10.10.2019
440 Clouds 14 1019 82 10000 5.1 190 13:23 10.10.2019
441 Clouds 14 1019 82 10000 6.2 200 12:57 10.10.2019
442 Clouds 13 1019 82 10000 5.1 210 12:39 10.10.2019
443 Rain 12 1019 82 10000 4.1 190 12:20 10.10.2019
444 Rain 12 1019 82 10000 4.1 190 11:56 10.10.2019
445 Rain 12 1019 71 10000 5.7 210 11:38 10.10.2019
446 Clouds 12 1018 93 10000 2.6 120 11:19 10.10.2019
447 Rain 12 1018 76 10000 5.1 190 10:44 10.10.2019
448 Rain 12 1018 81 10000 5.1 130 10:26 10.10.2019
449 Rain 11 1017 81 10000 2.6 200 09:56 10.10.2019
450 Rain 11 1017 93 10000 6.2 200 09:38 10.10.2019
451 Rain 11 1017 93 10000 6.2 200 09:38 10.10.2019
452 Rain 11 1017 93 10000 4.6 200 09:19 10.10.2019
453 Rain 11 1017 87 10000 3.1 200 08:56 10.10.2019
454 Rain 11 1016 87 10000 5.7 200 08:37 10.10.2019
455 Rain 11 1015 87 10000 5.1 200 08:18 10.10.2019
456 Rain 11 1015 87 10000 5.1 200 08:18 10.10.2019
457 Rain 11 1015 81 10000 5.1 190 07:42 10.10.2019
458 Clear 11 1015 81 10000 4.6 180 07:20 10.10.2019
459 Clouds 11 1015 81 10000 3.6 170 06:46 10.10.2019
460 Clouds 10 1015 81 10000 3.6 170 06:26 10.10.2019
461 Clear 11 1014 93 10000 5.1 180 05:27 10.10.2019
462 Clouds 10 1015 93 10000 4.6 180 04:39 10.10.2019
463 Rain 11 1015 93 10000 4.6 180 04:21 10.10.2019
464 Rain 10 1015 87 10000 5.7 180 01:43 10.10.2019
465 Rain 10 1015 87 10000 5.7 180 01:43 10.10.2019
466 Rain 10 1015 87 10000 5.7 180 01:24 10.10.2019
467 Rain 10 1015 81 10000 4.1 170 00:54 10.10.2019
468 Clouds 10 1015 87 10000 5.1 180 00:22 10.10.2019
469 Rain 10 1015 93 10000 5.7 170 23:40 09.10.2019
470 Rain 10 1015 93 10000 3.6 190 23:21 09.10.2019
471 Rain 10 1015 93 10000 3.6 190 22:56 09.10.2019
472 Rain 10 1015 87 10000 2.1 170 22:38 09.10.2019
473 Rain 10 1015 87 10000 4.1 170 22:20 09.10.2019
474 Rain 11 1015 87 10000 3.6 170 21:41 09.10.2019
475 Rain 11 1015 87 10000 4.6 180 21:21 09.10.2019
476 Rain 11 1015 87 10000 4.6 180 20:56 09.10.2019
477 Rain 11 1014 87 10000 3.1 150 20:38 09.10.2019
478 Rain 11 1014 87 10000 2.6 170 20:19 09.10.2019
479 Rain 11 1014 87 10000 2.6 170 20:19 09.10.2019
480 Rain 11 1014 87 10000 2.6 170 20:19 09.10.2019
481 Rain 11 1014 87 10000 2.6 170 19:58 09.10.2019
482 Rain 11 1014 87 10000 5.1 220 19:40 09.10.2019
483 Rain 11 1013 87 10000 5.1 210 19:22 09.10.2019
484 Rain 11 1013 87 10000 5.1 210 19:22 09.10.2019
485 Rain 12 1013 82 10000 7.2 190 18:38 09.10.2019
486 Clouds 13 1013 76 10000 7.7 190 18:20 09.10.2019
487 Clouds 12 1013 76 10000 7.7 190 18:20 09.10.2019
488 Rain 12 1013 76 10000 7.2 180 17:58 09.10.2019
489 Rain 12 1013 76 10000 7.2 180 17:58 09.10.2019
490 Rain 13 1013 76 10000 8.7 190 17:37 09.10.2019
491 Rain 13 1013 76 10000 8.7 190 17:37 09.10.2019
492 Rain 12 1013 76 10000 6.2 180 17:19 09.10.2019
493 Rain 12 1013 82 10000 8.2 190 16:56 09.10.2019
494 Rain 12 1013 82 10000 6.2 180 16:56 09.10.2019
495 Rain 12 1013 82 10000 7.2 190 16:37 09.10.2019
496 Rain 12 1013 82 10000 6.7 190 16:19 09.10.2019
497 Rain 12 1013 82 10000 5.7 170 15:55 09.10.2019
498 Rain 12 1013 87 10000 6.7 190 15:37 09.10.2019
499 Rain 12 1013 87 10000 6.7 210 15:18 09.10.2019
500 Rain 12 1012 76 10000 7.2 190 14:44 09.10.2019
501 Rain 12 1012 76 10000 7.2 190 14:44 09.10.2019
502 Clouds 12 1012 76 10000 8.2 180 14:19 09.10.2019
503 Clouds 13 1013 77 10000 6.7 200 13:59 09.10.2019
504 Clouds 13 1013 82 10000 7.7 200 13:38 09.10.2019
505 Rain 13 1013 87 10000 6.2 190 13:18 09.10.2019
506 Rain 12 1013 87 10000 5.1 190 12:44 09.10.2019
507 Rain 12 1013 87 10000 3.6 180 12:23 09.10.2019
508 Rain 12 1012 93 10000 4.1 180 11:58 09.10.2019
509 Rain 12 1013 87 10000 2.1 210 11:40 09.10.2019
510 Rain 12 1013 93 10000 2.6 190 11:20 09.10.2019
511 Rain 12 1013 82 10000 2.1 180 10:59 09.10.2019
512 Rain 12 1012 82 10000 2.6 140 10:40 09.10.2019
513 Rain 12 1013 93 10000 2.1 170 10:19 09.10.2019
514 Rain 12 1013 87 10000 1.5 140 09:43 09.10.2019
515 Rain 11 1014 87 10000 2.6 200 09:20 09.10.2019
516 Rain 11 1014 87 10000 2.6 200 08:58 09.10.2019
517 Rain 11 1014 87 10000 1 0 08:39 09.10.2019
518 Rain 11 1014 81 10000 2.1 210 08:19 09.10.2019
519 Rain 11 1014 81 10000 2.1 210 08:19 09.10.2019
520 Rain 11 1014 93 10000 1.5 250 07:47 09.10.2019
521 Rain 11 1014 93 10000 1.5 250 07:47 09.10.2019
522 Rain 11 1014 93 10000 1.5 250 07:25 09.10.2019
523 Rain 11 1014 93 10000 1.5 200 06:57 09.10.2019
524 Rain 11 1014 87 10000 2.6 190 06:35 09.10.2019
525 Rain 12 1014 87 10000 2.6 170 05:52 09.10.2019
526 Rain 12 1014 82 10000 1 310 04:50 09.10.2019
527 Rain 13 1014 71 10000 2.6 280 03:47 09.10.2019
528 Rain 14 1014 72 10000 5.1 280 02:27 09.10.2019
529 Rain 14 1013 77 10000 3.6 270 01:39 09.10.2019
530 Rain 15 1013 77 10000 2.1 310 01:18 09.10.2019
531 Rain 15 1012 77 10000 4.1 310 00:41 09.10.2019
532 Rain 15 1012 77 10000 4.1 310 00:23 09.10.2019
533 Rain 16 1011 88 8000 2.6 230 23:58 08.10.2019
534 Rain 16 1011 88 10000 2.6 200 23:38 08.10.2019
535 Rain 16 1010 82 9000 3.6 210 23:18 08.10.2019
536 Rain 16 1010 82 9000 3.6 210 23:18 08.10.2019
537 Rain 16 1010 82 9000 3.6 210 22:55 08.10.2019
538 Rain 16 1010 82 10000 3.6 210 22:36 08.10.2019
539 Clouds 16 1010 77 10000 1.5 170 22:18 08.10.2019
540 Clouds 16 1010 77 10000 1.5 170 21:55 08.10.2019
541 Clouds 16 1010 77 10000 1.5 0 21:36 08.10.2019
542 Clouds 16 1010 82 10000 1.5 180 21:18 08.10.2019
543 Clouds 16 1010 82 10000 1.5 180 20:55 08.10.2019
544 Clouds 16 1010 77 10000 4.6 210 20:55 08.10.2019
545 Clouds 16 1010 77 10000 4.6 210 20:36 08.10.2019
546 Clouds 16 1010 82 10000 3.6 190 20:18 08.10.2019
547 Clouds 16 1010 82 10000 3.6 190 19:54 08.10.2019
548 Clouds 16 1010 72 10000 4.1 190 19:36 08.10.2019
549 Clouds 17 1010 72 10000 3.6 190 19:18 08.10.2019
550 Clouds 17 1010 72 10000 3.6 200 18:41 08.10.2019
551 Rain 17 1011 72 10000 6.7 240 18:23 08.10.2019
552 Clouds 17 1011 64 10000 6.7 220 17:57 08.10.2019
553 Clouds 17 1011 68 10000 4.6 190 17:39 08.10.2019
554 Clouds 17 1011 72 10000 4.1 190 17:19 08.10.2019
555 Clouds 17 1011 72 10000 4.1 190 16:56 08.10.2019
556 Clouds 17 1011 67 10000 5.1 200 16:37 08.10.2019
557 Clouds 17 1012 67 10000 5.1 190 16:18 08.10.2019
558 Clouds 17 1012 67 10000 6.7 200 15:38 08.10.2019
559 Clouds 16 1011 63 10000 6.2 180 15:20 08.10.2019
560 Clouds 16 1011 63 10000 6.2 180 15:20 08.10.2019
561 Clouds 16 1012 63 10000 7.2 200 14:56 08.10.2019
562 Clouds 16 1012 67 10000 7.7 190 14:38 08.10.2019
563 Rain 15 1012 68 10000 4.6 180 14:19 08.10.2019
564 Rain 15 1013 67 10000 6.7 220 13:55 08.10.2019
565 Clouds 15 1013 72 10000 7.2 190 13:37 08.10.2019
566 Clouds 15 1014 67 10000 6.7 190 13:18 08.10.2019
567 Clouds 15 1014 67 10000 6.7 190 13:18 08.10.2019
568 Clouds 15 1014 67 10000 6.7 190 13:18 08.10.2019
569 Clouds 15 1014 67 10000 6.7 190 13:18 08.10.2019
570 Clouds 14 1014 71 10000 7.7 200 12:41 08.10.2019
571 Clouds 14 1014 63 10000 5.1 180 12:20 08.10.2019
572 Clouds 14 1014 67 10000 8.7 200 11:58 08.10.2019
573 Clouds 14 1014 62 10000 8.2 190 11:39 08.10.2019
574 Clouds 13 1015 67 10000 7.2 200 11:21 08.10.2019
575 Clouds 13 1015 67 10000 7.7 190 10:42 08.10.2019
576 Clear 12 1015 76 10000 5.1 170 10:23 08.10.2019
577 Clouds 12 1015 67 10000 6.7 190 09:59 08.10.2019
578 Clouds 12 1015 71 10000 5.1 200 09:40 08.10.2019
579 Clouds 11 1016 71 10000 4.6 200 09:22 08.10.2019
580 Clouds 11 1016 71 10000 4.6 200 08:45 08.10.2019
581 Clouds 11 1016 71 10000 4.6 200 08:25 08.10.2019
582 Clouds 10 1016 76 10000 4.6 200 07:58 08.10.2019
583 Clouds 10 1016 87 10000 3.1 170 07:40 08.10.2019
584 Clouds 10 1016 87 10000 2.1 200 07:19 08.10.2019
585 Clear 10 1016 87 10000 2.1 190 06:46 08.10.2019
586 Clear 10 1017 87 10000 3.1 190 06:21 08.10.2019
587 Clouds 10 1017 93 10000 2.6 200 05:43 08.10.2019
588 Clouds 9 1017 93 10000 2.6 200 05:19 08.10.2019
589 Clear 9 1018 100 10000 2.1 210 03:32 08.10.2019
590 Clear 9 1019 93 10000 1.5 200 02:43 08.10.2019
591 Clear 9 1019 93 10000 1.5 200 02:25 08.10.2019
592 Clear 10 1019 87 10000 2.1 220 01:41 08.10.2019
593 Clouds 10 1019 87 10000 2.6 200 00:57 08.10.2019
594 Clouds 10 1019 87 10000 1.5 0 00:25 08.10.2019
595 Clouds 10 1019 87 10000 2.6 180 23:58 07.10.2019
596 Clouds 10 1019 81 10000 1 0 23:38 07.10.2019
597 Clouds 11 1019 81 10000 1 0 23:19 07.10.2019
598 Clouds 11 1019 81 10000 1 0 23:19 07.10.2019
599 Clouds 11 1019 81 10000 1 0 22:55 07.10.2019
600 Clouds 11 1019 81 10000 2.1 310 22:37 07.10.2019
601 Clouds 11 1019 76 10000 1.5 0 22:18 07.10.2019
602 Clouds 11 1019 76 10000 1.5 0 21:54 07.10.2019
603 Clouds 11 1019 76 10000 1.5 270 21:36 07.10.2019
604 Clouds 12 1019 67 10000 3.6 300 21:18 07.10.2019
605 Clear 12 1019 82 10000 2.1 270 20:56 07.10.2019
606 Clear 12 1019 82 10000 2.1 270 20:38 07.10.2019
607 Clouds 12 1019 82 10000 2.1 260 20:18 07.10.2019
608 Clear 12 1019 82 10000 2.1 290 19:54 07.10.2019
609 -273 0 0 0 0 0 19:54 07.10.2019
610 Clouds 12 1019 82 10000 2.1 240 19:36 07.10.2019
611 Clouds 13 1019 76 10000 3.1 230 19:18 07.10.2019
612 Clouds 13 1019 77 10000 1.5 0 18:41 07.10.2019
613 Clouds 14 1019 77 10000 2.1 220 18:19 07.10.2019
614 Clouds 14 1019 77 10000 2.1 220 17:58 07.10.2019
615 Clear 14 1018 77 10000 2.6 200 17:40 07.10.2019
616 Clear 14 1018 77 10000 2.6 200 17:40 07.10.2019
617 Clear 14 1018 77 10000 2.6 200 17:40 07.10.2019
618 Clouds 14 1019 77 10000 2.6 170 17:19 07.10.2019
619 Clear 14 1019 76 10000 2.6 210 16:46 07.10.2019
620 Clouds 14 1019 77 10000 1 0 16:28 07.10.2019
621 Clouds 14 1019 76 10000 2.6 210 15:58 07.10.2019
622 Clouds 14 1019 76 10000 2.1 200 15:40 07.10.2019
623 Clouds 15 1018 72 10000 3.1 180 15:21 07.10.2019
624 Clouds 15 1019 67 10000 1.5 150 14:42 07.10.2019
625 Clouds 15 1019 76 10000 1.5 10 14:23 07.10.2019
626 Clouds 14 1019 67 10000 2.1 160 13:59 07.10.2019
627 Clouds 14 1019 77 10000 2.6 170 13:40 07.10.2019
628 Clouds 14 1019 76 10000 3.1 200 13:18 07.10.2019
629 -273 0 0 0 0 0 12:54 07.10.2019
630 Clouds 14 1019 76 10000 3.6 220 12:36 07.10.2019
631 Clouds 13 1019 71 10000 3.6 190 12:18 07.10.2019
632 Clouds 13 1018 87 10000 1.5 170 11:56 07.10.2019
633 Rain 12 1018 82 10000 4.1 200 11:36 07.10.2019
634 Rain 12 1018 82 10000 4.1 190 11:18 07.10.2019
635 Rain 11 1018 87 10000 4.1 190 10:40 07.10.2019
636 Rain 11 1018 87 10000 3.1 180 10:20 07.10.2019
637 Rain 10 1018 87 10000 2.1 160 09:42 07.10.2019
638 Rain 9 1018 93 5000 2.1 160 09:23 07.10.2019
639 Clouds 9 1017 87 10000 2.1 150 08:55 07.10.2019
640 Clouds 9 1017 93 10000 1.5 140 08:37 07.10.2019
641 Clouds 9 1017 93 10000 3.1 170 08:18 07.10.2019
642 Clear 9 1016 93 10000 1 0 07:40 07.10.2019
643 Clear 9 1016 93 10000 1 0 07:20 07.10.2019
644 Clouds 8 1016 87 10000 1.5 280 06:44 07.10.2019
645 Clouds 8 1016 87 10000 1.5 280 06:23 07.10.2019
646 Clouds 8 1015 93 10000 1.5 190 05:42 07.10.2019
647 Clouds 8 1015 93 10000 1.5 190 05:21 07.10.2019
648 Clear 9 1015 93 10000 0.5 0 04:23 07.10.2019
649 Clear 9 1015 87 10000 2.6 250 03:44 07.10.2019
650 Clear 9 1015 100 10000 1 0 03:19 07.10.2019
651 Clear 9 1015 100 10000 1 0 03:19 07.10.2019
652 Rain 10 1014 100 10000 1 0 02:20 07.10.2019
653 Rain 10 1014 100 10000 1 0 02:20 07.10.2019
654 Rain 10 1014 87 10000 1.5 0 01:50 07.10.2019
655 Rain 10 1014 81 10000 1.5 140 01:21 07.10.2019
656 Rain 10 1014 93 10000 1 0 00:39 07.10.2019
657 Rain 10 1013 87 10000 2.1 160 00:20 07.10.2019
658 Rain 11 1013 87 10000 1 0 23:42 06.10.2019
659 Rain 11 1013 87 10000 1 0 23:42 06.10.2019
660 Rain 11 1013 87 10000 1 0 23:42 06.10.2019
661 Rain 11 1012 71 10000 1 0 23:21 06.10.2019
662 Rain 11 1012 71 10000 1 0 22:59 06.10.2019
663 Rain 11 1011 81 10000 1 0 22:41 06.10.2019
664 Rain 12 1011 76 10000 4.1 10 22:22 06.10.2019
665 Rain 12 1011 76 10000 4.1 10 21:58 06.10.2019
666 Rain 12 1010 93 10000 3.1 300 21:38 06.10.2019
667 Rain 12 1010 93 10000 3.1 300 21:38 06.10.2019
668 Rain 12 1010 93 10000 3.1 300 21:38 06.10.2019
669 Rain 13 1010 93 10000 3.1 300 21:19 06.10.2019
670 Rain 12 1010 93 9000 2.6 200 20:58 06.10.2019
671 Rain 12 1010 87 10000 3.1 180 20:40 06.10.2019
672 Rain 13 1010 87 10000 3.1 170 20:20 06.10.2019
673 Rain 13 1010 87 10000 3.1 170 20:20 06.10.2019
674 Rain 13 1010 87 10000 3.1 170 19:57 06.10.2019
675 Rain 13 1010 82 10000 4.6 170 19:37 06.10.2019
676 Rain 13 1010 82 10000 4.1 190 19:19 06.10.2019
677 Rain 13 1010 82 10000 4.1 190 18:57 06.10.2019
678 Rain 13 1010 77 10000 3.1 170 18:38 06.10.2019
679 Rain 13 1011 87 10000 3.6 200 18:19 06.10.2019
680 Clouds 13 1011 87 10000 3.6 200 18:19 06.10.2019
681 Rain 14 1011 87 10000 3.6 200 17:57 06.10.2019
682 Rain 13 1011 87 10000 3.6 190 17:39 06.10.2019
683 Rain 13 1011 87 10000 3.1 190 17:19 06.10.2019
684 Rain 14 1012 87 10000 3.6 170 16:42 06.10.2019
685 Rain 14 1012 87 10000 3.6 180 16:24 06.10.2019
686 Rain 14 1012 87 10000 3.6 180 15:58 06.10.2019
687 Rain 14 1012 82 10000 3.6 190 15:39 06.10.2019
688 Rain 14 1013 87 10000 3.6 190 15:18 06.10.2019
689 Clouds 13 1013 93 10000 4.1 200 14:43 06.10.2019
690 Clouds 13 1013 82 10000 0.5 0 14:24 06.10.2019
691 Drizzle 13 1014 87 10000 4.1 210 13:58 06.10.2019
692 Rain 13 1014 87 10000 3.6 200 13:39 06.10.2019
693 Rain 13 1014 93 10000 2.6 220 13:20 06.10.2019
694 Rain 13 1014 93 10000 2.6 220 13:20 06.10.2019
695 Rain 13 1014 87 10000 2.1 180 12:57 06.10.2019
696 Rain 13 1014 87 10000 3.1 210 12:39 06.10.2019
697 Rain 12 1015 93 9000 2.1 180 12:20 06.10.2019
698 Rain 12 1015 93 9000 2.1 180 11:57 06.10.2019
699 Rain 12 1015 93 8000 2.6 210 11:38 06.10.2019
700 Rain 12 1015 87 10000 2.1 180 11:20 06.10.2019
701 Clouds 12 1016 87 10000 3.6 220 10:44 06.10.2019
702 Clouds 12 1016 87 10000 3.6 220 10:44 06.10.2019
703 Clouds 11 1016 87 10000 1.5 200 10:26 06.10.2019
704 Clouds 11 1016 87 10000 2.6 200 09:58 06.10.2019
705 Clouds 11 1016 93 10000 2.1 150 09:39 06.10.2019
706 Clouds 10 1016 93 8000 1.5 190 09:18 06.10.2019
707 Mist 10 1016 100 10000 0.5 0 08:43 06.10.2019
708 Clouds 10 1016 100 10000 0.5 0 08:21 06.10.2019
709 Clouds 9 1016 87 10000 1 0 07:56 06.10.2019
710 Clouds 9 1016 87 10000 1 0 07:56 06.10.2019
711 Rain 9 1016 87 10000 1.89 199.334 07:33 06.10.2019
712 Clouds 10 1016 87 10000 1 0 06:20 06.10.2019
713 Rain 10 1017 87 10000 1.5 180 05:34 06.10.2019
714 Rain 10 1017 93 10000 1 190 03:56 06.10.2019
715 Clouds 9 1017 87 10000 1.5 210 02:46 06.10.2019
716 Clouds 10 1017 87 10000 1.5 210 02:27 06.10.2019
717 Clouds 10 1018 93 10000 1 0 01:46 06.10.2019
718 Clouds 10 1018 87 10000 0.5 0 01:27 06.10.2019
719 Rain 10 1018 87 10000 1 360 00:57 06.10.2019
720 Rain 10 1018 93 10000 1.5 0 00:28 06.10.2019
721 Rain 10 1018 87 10000 1.5 340 23:45 05.10.2019
722 Rain 10 1018 87 10000 3.1 10 23:23 05.10.2019
723 Rain 10 1018 87 10000 3.1 30 22:59 05.10.2019
724 Clouds 10 1018 87 10000 2.1 360 22:40 05.10.2019
725 Clouds 11 1018 81 10000 1 0 22:21 05.10.2019
726 Clouds 11 1018 81 10000 1 0 21:57 05.10.2019
727 Rain 11 1018 93 10000 2.1 320 21:39 05.10.2019
728 Rain 11 1017 93 10000 2.1 330 21:20 05.10.2019
729 Rain 11 1017 93 10000 2.1 330 20:56 05.10.2019
730 Drizzle 11 1017 93 10000 2.6 350 20:38 05.10.2019
731 Drizzle 11 1017 81 10000 2.1 40 20:19 05.10.2019
732 Drizzle 11 1017 81 10000 3.6 20 19:38 05.10.2019
733 Rain 12 1017 81 10000 2.6 10 19:20 05.10.2019
734 Rain 12 1017 93 10000 1.5 360 18:57 05.10.2019
735 Rain 12 1017 76 10000 3.1 20 18:39 05.10.2019
736 Rain 12 1017 76 10000 3.1 20 18:39 05.10.2019
737 Rain 12 1017 93 10000 3.1 20 18:20 05.10.2019
738 Rain 13 1016 93 10000 3.1 20 17:55 05.10.2019
739 Rain 13 1016 76 10000 3.6 20 17:37 05.10.2019
740 Rain 13 1016 76 10000 4.1 10 17:18 05.10.2019
741 Rain 13 1016 76 10000 4.1 10 16:42 05.10.2019
742 Rain 13 1015 82 10000 5.7 30 16:21 05.10.2019
743 Rain 13 1015 67 10000 2.6 360 15:57 05.10.2019
744 Rain 13 1015 82 10000 4.6 10 15:39 05.10.2019
745 Rain 13 1014 72 10000 2.6 340 15:21 05.10.2019
746 Drizzle 13 1014 72 10000 4.1 340 14:57 05.10.2019
747 Drizzle 13 1015 93 10000 5.1 20 14:38 05.10.2019
748 Clouds 13 1015 93 10000 5.7 20 14:20 05.10.2019
749 Rain 13 1015 87 10000 2.6 350 13:42 05.10.2019
750 Rain 13 1014 93 10000 3.1 350 13:22 05.10.2019
751 Rain 13 1014 87 6000 2.6 270 12:46 05.10.2019
752 Rain 13 1014 87 10000 2.6 220 12:21 05.10.2019
753 Rain 13 1014 87 10000 2.6 220 12:21 05.10.2019
754 Rain 13 1014 87 10000 2.6 220 11:59 05.10.2019
755 Rain 13 1014 93 9000 2.1 210 11:39 05.10.2019
756 Rain 13 1013 87 10000 2.6 200 11:19 05.10.2019
757 Rain 13 1013 93 10000 2.6 200 10:45 05.10.2019
758 Rain 13 1013 93 10000 2.6 200 10:26 05.10.2019
759 Rain 13 1012 87 10000 2.6 200 10:26 05.10.2019
760 Rain 13 1012 87 10000 2.1 230 09:59 05.10.2019
761 Rain 12 1012 87 10000 3.6 210 09:39 05.10.2019
762 Rain 12 1012 87 10000 3.6 210 09:39 05.10.2019
763 Clouds 12 1011 87 10000 3.6 210 09:20 05.10.2019
764 Clouds 12 1011 87 10000 2.1 200 08:40 05.10.2019
765 Clouds 12 1011 93 10000 2.1 210 08:20 05.10.2019
766 Clouds 12 1011 93 10000 2.1 210 07:58 05.10.2019
767 Clouds 12 1011 87 10000 4.17 205.458 07:37 05.10.2019
768 Rain 11 1011 93 10000 1 200 07:19 05.10.2019
769 Rain 11 1011 87 10000 3.6 180 06:28 05.10.2019
770 Rain 11 1011 87 10000 2.1 200 05:51 05.10.2019
771 Rain 11 1011 87 10000 1.5 250 04:33 05.10.2019
772 Rain 12 1011 82 10000 3.6 190 03:29 05.10.2019
773 Clouds 11 1011 82 10000 5.1 180 01:52 05.10.2019
774 Rain 12 1011 82 10000 5.7 180 01:23 05.10.2019
775 Rain 12 1011 76 10000 5.1 190 00:44 05.10.2019
776 Clouds 12 1011 76 10000 5.1 190 00:25 05.10.2019
777 Rain 12 1011 76 10000 3.1 160 23:45 04.10.2019
778 Rain 12 1011 76 10000 3.1 160 23:26 04.10.2019
779 Rain 12 1011 82 10000 3.6 170 22:59 04.10.2019
780 Rain 12 1011 76 10000 4.1 170 22:40 04.10.2019
781 Rain 12 1011 76 10000 4.1 170 22:22 04.10.2019
782 Clouds 12 1011 67 10000 5.1 200 21:58 04.10.2019
783 Clouds 12 1011 82 10000 6.2 210 21:39 04.10.2019
784 Clouds 12 1010 82 10000 5.1 190 21:21 04.10.2019
785 Clouds 12 1010 82 10000 5.1 190 20:57 04.10.2019
786 Clouds 12 1010 76 10000 3.6 190 20:39 04.10.2019
787 Clouds 12 1010 82 10000 4.6 210 20:20 04.10.2019
788 Clouds 12 1010 82 10000 4.6 210 20:20 04.10.2019
789 Clouds 12 1010 76 10000 3.1 200 19:49 04.10.2019
790 Clouds 12 1010 76 10000 3.1 200 19:30 04.10.2019
791 Clouds 12 1010 76 10000 3.1 200 19:30 04.10.2019
792 Clouds 12 1010 76 10000 4.1 210 18:59 04.10.2019
793 Clouds 12 1009 76 10000 4.1 210 18:39 04.10.2019
794 Clouds 13 1009 76 10000 5.1 220 18:19 04.10.2019
795 Clouds 13 1009 76 10000 5.1 220 17:57 04.10.2019
796 Clear 13 1009 76 10000 3.6 210 17:38 04.10.2019
797 Clouds 13 1009 55 10000 4.6 210 17:20 04.10.2019
798 Clouds 13 1010 59 10000 5.7 200 16:55 04.10.2019
799 Clouds 13 1009 87 10000 5.7 230 16:36 04.10.2019
800 Clouds 13 1010 93 10000 5.1 230 16:18 04.10.2019
801 Clouds 12 1010 72 10000 3.1 220 15:55 04.10.2019
802 Clouds 12 1009 82 10000 5.1 230 15:37 04.10.2019
803 Drizzle 12 1009 82 10000 4.6 210 15:18 04.10.2019
804 Drizzle 12 1009 82 10000 5.7 210 14:42 04.10.2019
805 Drizzle 11 1011 93 4000 2.1 130 14:22 04.10.2019
806 Clouds 12 1009 82 10000 6.2 210 13:59 04.10.2019
807 Drizzle 11 1009 82 10000 6.2 200 13:41 04.10.2019
808 Drizzle 11 1009 76 10000 6.2 200 13:19 04.10.2019
809 Drizzle 11 1009 76 10000 6.2 200 13:19 04.10.2019
810 Rain 11 1010 81 10000 7.2 200 12:46 04.10.2019
811 Rain 11 1010 81 10000 7.2 200 12:46 04.10.2019
812 Rain 11 1010 81 10000 7.2 200 12:46 04.10.2019
813 Rain 10 1010 81 10000 7.2 200 12:28 04.10.2019
814 Rain 10 1010 81 10000 5.7 190 11:58 04.10.2019
815 Rain 10 1010 76 10000 6.7 190 11:40 04.10.2019
816 Rain 10 1010 76 10000 6.7 190 11:40 04.10.2019
817 Rain 10 1010 76 10000 2.1 190 11:20 04.10.2019
818 Rain 10 1011 81 10000 4.6 170 10:40 04.10.2019
819 Rain 9 1011 87 10000 4.1 180 10:20 04.10.2019
820 Rain 10 1011 81 10000 4.1 190 09:45 04.10.2019
821 Rain 9 1011 81 10000 4.1 190 09:27 04.10.2019
822 Clear 9 1012 71 10000 4.1 200 08:56 04.10.2019
823 Clear 9 1012 71 10000 4.1 200 08:38 04.10.2019
824 Clear 8 1011 76 10000 2.6 200 08:19 04.10.2019
825 Clouds 8 1012 81 10000 2.6 190 07:44 04.10.2019
826 Clear 8 1013 81 10000 3.1 200 07:22 04.10.2019
827 Clear 8 1013 81 10000 3.1 190 06:44 04.10.2019
828 Clear 8 1013 81 10000 3.1 190 06:44 04.10.2019
829 Clear 7 1013 81 10000 3.1 190 06:25 04.10.2019
830 Clear 7 1013 81 10000 3.1 190 06:25 04.10.2019
831 Clear 7 1014 87 10000 1.5 0 05:42 04.10.2019
832 Clear 7 1014 81 10000 2.1 190 05:18 04.10.2019
833 Clear 7 1015 81 10000 2.1 170 03:50 04.10.2019
834 Clear 7 1015 81 10000 1.5 220 02:54 04.10.2019
835 Clear 7 1016 76 10000 3.1 270 02:18 04.10.2019
836 Clear 7 1016 76 10000 2.1 250 01:42 04.10.2019
837 Clear 8 1016 76 10000 2.1 260 01:23 04.10.2019
838 Clear 9 1017 76 10000 1.5 260 23:59 03.10.2019
839 Clear 9 1017 71 10000 2.1 270 23:37 03.10.2019
840 Clear 9 1017 76 10000 2.6 280 23:18 03.10.2019
841 Clear 9 1017 76 10000 2.6 280 23:18 03.10.2019
842 Clear 9 1017 76 10000 2.6 280 22:56 03.10.2019
843 Clear 9 1018 76 10000 1.5 290 22:38 03.10.2019
844 Clear 9 1018 76 10000 1.5 290 22:38 03.10.2019
845 Clear 9 1018 76 10000 1.5 270 22:20 03.10.2019
846 Clear 9 1018 76 10000 1.5 270 21:56 03.10.2019
847 Clear 9 1018 76 10000 0.61 276.831 21:37 03.10.2019
848 Clear 9 1018 76 10000 1 0 21:19 03.10.2019
849 Clear 9 1018 76 10000 1 0 20:56 03.10.2019
850 Clear 9 1018 62 10000 1 350 20:37 03.10.2019
851 Clear 9 1018 62 10000 1 350 20:37 03.10.2019
852 Clear 9 1018 62 10000 1 0 20:19 03.10.2019
853 Clear 10 1018 58 10000 0.5 0 19:54 03.10.2019
854 Clear 10 1018 58 10000 0.5 0 19:36 03.10.2019
855 Clear 10 1017 54 10000 1.5 90 19:18 03.10.2019
856 Clear 12 1018 50 10000 1.5 90 18:40 03.10.2019
857 Clear 13 1018 50 10000 2.1 30 18:19 03.10.2019
858 Clear 13 1018 50 10000 2.1 30 18:19 03.10.2019
859 Clear 14 1018 50 10000 2.1 80 17:59 03.10.2019
860 Clear 14 1018 50 10000 2.1 80 17:41 03.10.2019
861 Clear 14 1018 50 10000 2.6 30 17:19 03.10.2019
862 Clear 14 1018 47 10000 2.1 60 16:44 03.10.2019
863 Clear 14 1018 47 10000 2.1 60 16:26 03.10.2019
864 Clouds 14 1019 50 10000 2.1 90 15:57 03.10.2019
865 Clouds 15 1019 47 10000 1.5 0 15:39 03.10.2019
866 Clouds 14 1020 54 10000 1.5 0 15:21 03.10.2019
867 Clear 14 1019 47 10000 1.5 0 14:54 03.10.2019
868 Clouds 14 1020 50 10000 1.5 0 14:36 03.10.2019
869 Clouds 14 1020 54 10000 1 0 14:18 03.10.2019
870 Clouds 14 1020 54 10000 1.5 0 13:41 03.10.2019
871 Clouds 13 1021 58 10000 1 0 13:19 03.10.2019
872 Clouds 12 1021 58 10000 1 0 12:57 03.10.2019
873 Clouds 12 1021 58 10000 1 0 12:38 03.10.2019
874 Clouds 12 1021 62 10000 1.5 170 12:19 03.10.2019
875 Clear 11 1021 71 10000 2.6 230 11:55 03.10.2019
876 Clear 11 1021 71 10000 2.6 230 11:37 03.10.2019
877 Clouds 11 1021 71 10000 2.6 210 11:18 03.10.2019
878 Clear 10 1021 81 10000 2.1 160 10:41 03.10.2019
879 Mist 9 1021 81 10000 1.5 170 10:19 03.10.2019
880 Mist 9 1021 81 10000 1.5 170 09:59 03.10.2019
881 Mist 8 1021 87 10000 0.36 68.758 09:40 03.10.2019
882 Fog 7 1021 81 10000 3.1 250 09:22 03.10.2019
883 Fog 7 1021 87 10000 2.1 150 08:59 03.10.2019
884 Rain 6 1020 93 10000 2.1 230 08:40 03.10.2019
885 Rain 6 1020 93 10000 2.1 230 08:22 03.10.2019
886 Fog 5 1020 87 10000 3.1 240 07:41 03.10.2019
887 Fog 5 1020 87 10000 3.1 240 07:41 03.10.2019
888 Rain 6 1020 87 10000 3.1 250 07:20 03.10.2019
889 Rain 6 1020 87 10000 3.1 250 06:52 03.10.2019
890 Rain 6 1020 87 10000 3.1 240 06:26 03.10.2019
891 Fog 6 1020 87 10000 1 0 05:47 03.10.2019
892 Fog 7 1020 87 10000 1 0 05:25 03.10.2019
893 Clear 7 1020 87 10000 2.1 270 04:40 03.10.2019
894 Clear 7 1020 87 10000 1 0 03:36 03.10.2019
895 Clouds 7 1020 75 10000 0.5 0 03:18 03.10.2019
896 Clouds 7 1021 71 10000 1 0 02:20 03.10.2019
897 Clear 8 1020 71 10000 1.5 0 01:37 03.10.2019
898 Clear 8 1020 76 10000 1.5 300 00:52 03.10.2019
899 Clear 8 1020 76 10000 1.5 300 00:31 03.10.2019
900 Clouds 8 1019 71 10000 1.5 0 23:44 02.10.2019
901 Clouds 9 1019 71 10000 1.5 0 23:25 02.10.2019
902 Clouds 9 1018 66 10000 2.6 340 22:57 02.10.2019
903 Clouds 9 1018 66 10000 2.6 340 22:39 02.10.2019
904 Rain 9 1018 66 10000 1.5 40 22:18 02.10.2019
905 Rain 9 1017 62 10000 3.1 310 21:55 02.10.2019
906 Rain 9 1017 62 10000 3.1 310 21:36 02.10.2019
907 Rain 10 1016 66 10000 2.6 300 21:18 02.10.2019
908 Rain 10 1016 66 10000 2.6 300 20:55 02.10.2019
909 Rain 10 1016 66 10000 2.6 300 20:55 02.10.2019
910 Rain 10 1016 66 10000 2.6 300 20:54 02.10.2019
911 Clouds 10 1016 76 10000 2.1 340 20:36 02.10.2019
912 Clouds 10 1016 76 10000 2.1 340 20:36 02.10.2019
913 Clear 10 1015 76 10000 2.1 260 20:18 02.10.2019
914 Clouds 10 1015 87 10000 2.6 180 19:43 02.10.2019
915 Clouds 10 1015 71 10000 2.1 320 19:22 02.10.2019
916 Clouds 11 1014 66 10000 2.1 310 18:58 02.10.2019
917 Clouds 11 1014 76 10000 1.5 170 18:39 02.10.2019
918 Clouds 11 1014 62 10000 2.6 340 18:21 02.10.2019
919 Rain 11 1014 62 10000 3.6 360 17:57 02.10.2019
920 Rain 11 1014 62 10000 3.6 360 17:57 02.10.2019
921 Rain 11 1014 62 10000 3.6 360 17:57 02.10.2019
922 Rain 11 1014 93 10000 1 140 17:38 02.10.2019
923 Rain 11 1014 93 10000 1 140 17:38 02.10.2019
924 Rain 12 1013 67 10000 4.1 10 17:20 02.10.2019
925 Rain 11 1012 71 10000 5.1 320 16:56 02.10.2019
926 Rain 11 1012 71 10000 5.1 320 16:36 02.10.2019
927 Rain 12 1012 71 10000 5.1 320 16:18 02.10.2019
928 Rain 12 1011 67 10000 6.7 330 15:55 02.10.2019
929 Rain 13 1010 72 10000 8.2 340 15:36 02.10.2019
930 Rain 14 1010 72 10000 8.2 340 15:18 02.10.2019
931 Rain 15 1009 63 10000 4.1 280 14:43 02.10.2019
932 Rain 15 1009 67 10000 4.6 300 14:22 02.10.2019
933 Drizzle 16 1009 77 10000 3.1 320 13:48 02.10.2019
934 Rain 16 1008 63 10000 1.5 210 13:29 02.10.2019
935 Rain 16 1008 68 10000 3.6 190 12:59 02.10.2019
936 Rain 16 1008 68 10000 3.6 190 12:39 02.10.2019
937 Rain 16 1008 68 10000 3.6 190 12:39 02.10.2019
938 Rain 16 1008 77 10000 3.1 220 12:21 02.10.2019
939 Clouds 16 1008 77 10000 3.1 190 11:55 02.10.2019
940 Rain 15 1008 82 10000 3.1 200 11:36 02.10.2019
941 Rain 15 1008 82 10000 3.1 200 11:18 02.10.2019
942 Rain 14 1007 87 10000 3.1 200 10:38 02.10.2019
943 Rain 14 1007 87 10000 3.1 200 10:18 02.10.2019
944 Clouds 14 1007 93 10000 2.1 200 09:40 02.10.2019
945 Clouds 14 1007 93 10000 2.1 200 09:20 02.10.2019
946 Rain 13 1006 93 10000 1.5 190 08:55 02.10.2019
947 Clouds 13 1006 93 10000 1.5 210 08:36 02.10.2019
948 Clouds 13 1006 93 10000 1.5 210 08:18 02.10.2019
949 Rain 13 1006 93 10000 2.6 220 07:39 02.10.2019
950 Rain 13 1006 93 10000 2.6 220 07:21 02.10.2019
951 Rain 13 1006 93 10000 1.5 0 06:48 02.10.2019
952 Rain 13 1005 93 10000 1 0 05:56 02.10.2019
953 Rain 14 1005 93 10000 0.5 0 05:25 02.10.2019
954 Rain 14 1005 93 10000 1.5 200 04:58 02.10.2019
955 Rain 14 1005 93 10000 3.6 190 03:53 02.10.2019
956 Rain 14 1005 93 10000 4.6 200 03:19 02.10.2019
957 Rain 14 1005 93 9000 4.1 200 02:25 02.10.2019
958 Rain 15 1005 93 10000 3.6 190 01:56 02.10.2019
959 Rain 15 1005 87 10000 5.1 180 00:52 02.10.2019
960 Rain 15 1005 87 10000 6.2 180 00:29 02.10.2019
961 Rain 15 1005 77 10000 6.2 180 23:55 01.10.2019
962 Rain 15 1005 77 10000 4.6 170 23:36 01.10.2019
963 Rain 15 1005 77 10000 4.6 170 23:18 01.10.2019
964 Rain 15 1005 72 10000 3.1 160 22:57 01.10.2019
965 Rain 16 1005 77 10000 2.1 160 22:37 01.10.2019
966 Rain 16 1005 77 10000 2.1 160 22:18 01.10.2019
967 Rain 16 1005 82 10000 5.1 160 21:42 01.10.2019
968 Rain 16 1005 82 10000 5.7 170 21:22 01.10.2019
969 Rain 16 1005 82 10000 5.7 170 21:22 01.10.2019
970 Rain 16 1005 77 10000 5.7 170 20:58 01.10.2019
971 Rain 16 1005 72 10000 4.1 180 20:39 01.10.2019
972 Rain 17 1005 72 10000 4.1 180 20:20 01.10.2019
973 Rain 17 1005 72 10000 4.1 180 20:20 01.10.2019
974 Rain 17 1006 68 10000 3.1 160 19:57 01.10.2019
975 Rain 17 1005 68 10000 4.1 230 19:39 01.10.2019
976 Rain 17 1005 68 10000 4.1 230 19:21 01.10.2019
977 Rain 17 1004 64 10000 3.6 210 18:56 01.10.2019
978 Rain 18 1006 64 10000 5.7 220 18:38 01.10.2019
979 Rain 19 1006 64 10000 5.7 220 18:19 01.10.2019
980 Clear 21 1006 60 10000 4.6 220 17:43 01.10.2019
981 Rain 20 1006 53 10000 6.2 230 17:21 01.10.2019
982 Rain 20 1006 53 10000 3.6 240 16:59 01.10.2019
983 Rain 21 1007 68 10000 3.1 270 16:41 01.10.2019
984 Rain 21 1007 68 10000 3.1 270 16:22 01.10.2019
985 Clouds 21 1006 56 10000 5.1 230 15:49 01.10.2019
986 Clouds 21 1006 60 10000 3.1 210 15:25 01.10.2019
987 Clouds 21 1006 60 10000 4.1 190 14:58 01.10.2019
988 Clouds 21 1007 60 10000 6.7 210 14:40 01.10.2019
989 Clouds 20 1007 60 10000 6.7 210 14:20 01.10.2019
990 Rain 20 1007 60 10000 6.2 200 13:56 01.10.2019
991 Clouds 20 1008 60 10000 6.2 240 13:37 01.10.2019
992 Clouds 20 1008 60 10000 6.2 240 13:37 01.10.2019
993 Clouds 20 1008 60 10000 6.2 240 13:18 01.10.2019
994 Rain 20 1008 64 10000 1.5 0 12:55 01.10.2019
995 Rain 20 1008 64 10000 1.5 0 12:55 01.10.2019
996 Clear 20 1008 64 10000 2.1 360 12:37 01.10.2019
997 Clear 19 1008 64 10000 2.1 360 12:18 01.10.2019
998 Rain 18 1008 68 10000 2.1 330 11:55 01.10.2019
999 Clear 18 1010 63 10000 4.1 160 11:36 01.10.2019
1000 Clear 18 1010 63 10000 4.1 160 11:36 01.10.2019
1001 Clear 17 1010 63 10000 4.1 160 11:18 01.10.2019
1002 Rain 17 1009 77 10000 1 0 10:46 01.10.2019
1003 Clear 15 1009 76 10000 2.1 250 10:27 01.10.2019
1004 Rain 14 1009 82 10000 3.1 200 09:45 01.10.2019
1005 Clear 13 1009 87 10000 1.5 250 09:26 01.10.2019
1006 Clouds 11 1009 87 10000 2.1 210 08:45 01.10.2019
1007 Clear 11 1010 87 10000 2.6 210 08:27 01.10.2019
1008 Clear 10 1010 93 10000 3.6 200 07:56 01.10.2019
1009 Clear 10 1010 93 10000 2.1 220 07:38 01.10.2019
1010 Clear 10 1010 93 10000 2.1 220 07:19 01.10.2019
1011 Clear 10 1011 93 10000 0.5 0 06:41 01.10.2019
1012 Clear 10 1011 93 10000 0.5 0 06:18 01.10.2019
1013 Clear 10 1011 93 10000 1 0 05:43 01.10.2019
1014 Clear 10 1012 87 10000 1.5 260 04:42 01.10.2019
1015 Clear 10 1012 93 10000 1 0 03:49 01.10.2019
1016 Clear 10 1013 87 10000 1.5 210 02:20 01.10.2019
1017 Clear 11 1013 87 10000 2.1 200 01:56 01.10.2019
1018 Clear 11 1014 81 10000 2.1 180 00:53 01.10.2019
1019 Clear 11 1014 87 10000 2.1 240 00:26 01.10.2019
1020 Clear 11 1014 87 10000 3.6 240 23:55 30.09.2019
1021 Clear 11 1015 81 10000 3.1 220 23:37 30.09.2019
1022 Clear 11 1015 81 10000 3.1 220 23:18 30.09.2019
1023 Clear 11 1015 76 10000 2.6 250 22:42 30.09.2019
1024 Clear 12 1015 76 10000 2.6 270 22:23 30.09.2019
1025 Clear 12 1015 76 10000 2.6 260 21:56 30.09.2019
1026 Clear 13 1015 76 10000 2.6 250 21:37 30.09.2019
1027 Clear 13 1015 76 10000 2.6 250 21:19 30.09.2019
1028 Clear 13 1015 71 10000 3.1 280 20:55 30.09.2019
1029 Clear 13 1015 71 10000 3.1 280 20:55 30.09.2019
1030 Clear 14 1015 67 10000 2.6 270 20:37 30.09.2019
1031 Clear 14 1015 67 10000 2.6 270 20:19 30.09.2019
1032 Clear 15 1015 63 10000 2.6 240 19:56 30.09.2019
1033 Clear 16 1015 59 10000 2.6 230 19:38 30.09.2019
1034 Clear 16 1015 59 10000 2.6 230 19:18 30.09.2019
1035 Clear 17 1015 52 10000 3.1 240 18:42 30.09.2019
1036 Clear 18 1015 48 10000 3.6 250 18:22 30.09.2019
1037 Clear 18 1015 45 10000 4.1 260 17:59 30.09.2019
1038 Clear 18 1015 45 10000 3.6 260 17:40 30.09.2019
1039 Clear 18 1015 45 10000 3.6 260 17:21 30.09.2019
1040 Clouds 19 1016 45 10000 4.6 270 16:56 30.09.2019
1041 Clouds 19 1016 45 10000 4.6 270 16:56 30.09.2019
1042 Clear 19 1016 45 10000 4.1 240 16:37 30.09.2019
1043 Clear 19 1016 45 10000 4.1 240 16:19 30.09.2019
1044 Clear 19 1016 42 10000 4.6 250 15:56 30.09.2019
1045 Clear 19 1016 45 10000 3.6 250 15:37 30.09.2019
1046 Clear 19 1016 45 10000 3.6 250 15:19 30.09.2019
1047 Clouds 19 1016 42 10000 4.1 260 14:57 30.09.2019
1048 Clouds 19 1017 45 10000 3.6 270 14:37 30.09.2019
1049 Clouds 19 1017 45 10000 3.6 270 14:18 30.09.2019
1050 Clouds 19 1017 48 10000 4.6 240 13:55 30.09.2019
1051 Clouds 18 1017 48 10000 5.7 260 13:36 30.09.2019
1052 Clouds 18 1017 48 10000 5.7 260 13:18 30.09.2019
1053 Clouds 17 1017 52 10000 5.7 230 12:41 30.09.2019
1054 Clouds 17 1017 52 10000 5.7 230 12:21 30.09.2019
1055 Clouds 16 1016 55 10000 5.1 240 11:44 30.09.2019
1056 Clouds 16 1016 55 10000 5.1 240 11:23 30.09.2019
1057 Clear 16 1016 55 10000 5.7 250 10:59 30.09.2019
1058 Clear 16 1015 51 10000 5.7 280 10:40 30.09.2019
1059 Clear 16 1015 51 10000 5.7 280 10:19 30.09.2019
1060 Clear 15 1015 55 10000 6.7 280 09:58 30.09.2019
1061 Clear 15 1015 55 10000 6.7 280 09:58 30.09.2019
1062 Clear 15 1015 59 10000 6.7 270 09:39 30.09.2019
1063 Clear 14 1015 59 10000 6.7 270 09:20 30.09.2019
1064 Clear 14 1014 59 10000 6.7 260 08:47 30.09.2019
1065 Clouds 14 1014 62 10000 5.7 250 08:28 30.09.2019
1066 Clouds 14 1014 62 10000 3.6 240 07:46 30.09.2019
1067 Clouds 14 1014 63 10000 3.6 220 07:28 30.09.2019
1068 Rain 14 1013 63 10000 3.1 240 06:56 30.09.2019
1069 Rain 15 1013 67 10000 4.6 230 06:34 30.09.2019
1070 Rain 15 1013 67 10000 4.6 230 06:34 30.09.2019
1071 Rain 15 1013 72 10000 2.6 210 05:48 30.09.2019
1072 Clouds 15 1012 67 10000 3.6 250 04:53 30.09.2019
1073 Clouds 17 1009 63 10000 5.1 0 02:48 30.09.2019
1074 Rain 18 1007 64 10000 6.2 200 01:39 30.09.2019
1075 Rain 18 1007 72 10000 4.6 190 00:43 30.09.2019
1076 Rain 19 1007 60 10000 6.2 230 00:23 30.09.2019
1077 Clouds 19 1006 56 10000 9.8 220 23:56 29.09.2019
1078 Clouds 19 1006 53 10000 9.8 220 23:38 29.09.2019
1079 Clouds 19 1006 53 10000 9.8 220 23:19 29.09.2019
1080 Rain 19 1006 53 10000 8.7 210 22:42 29.09.2019
1081 Rain 19 1006 53 10000 10.3 210 22:23 29.09.2019
1082 Rain 19 1006 60 10000 7.7 200 21:58 29.09.2019
1083 Clouds 19 1006 64 10000 3.6 190 21:38 29.09.2019
1084 Rain 19 1006 60 10000 7.2 190 21:19 29.09.2019
1085 Rain 18 1006 60 10000 7.2 190 20:57 29.09.2019
1086 Rain 18 1006 60 10000 7.2 190 20:57 29.09.2019
1087 Rain 18 1007 63 10000 3.6 210 20:39 29.09.2019
1088 Rain 18 1007 63 10000 3.6 210 20:19 29.09.2019
1089 Rain 18 1007 63 10000 3.6 210 20:19 29.09.2019
1090 Rain 18 1006 68 10000 4.6 210 19:54 29.09.2019
1091 Rain 18 1006 63 10000 6.2 230 19:36 29.09.2019
1092 Rain 18 1006 63 10000 6.2 230 19:18 29.09.2019
1093 Rain 19 1007 59 10000 6.7 210 18:54 29.09.2019
1094 Rain 20 1007 55 10000 3.6 270 18:36 29.09.2019
1095 Clouds 20 1007 55 10000 3.6 270 18:18 29.09.2019
1096 Clouds 21 1006 43 10000 5.7 210 17:54 29.09.2019
1097 Clouds 21 1007 40 10000 7.7 230 17:36 29.09.2019
1098 Clouds 22 1007 40 10000 7.7 230 17:18 29.09.2019
1099 Clouds 22 1007 23 10000 7.2 240 16:41 29.09.2019
1100 Clouds 23 1007 23 10000 7.2 240 16:20 29.09.2019
1101 Clear 23 1007 26 10000 5.7 200 15:58 29.09.2019
1102 Clear 23 1008 23 10000 6.7 220 15:37 29.09.2019
1103 Clear 23 1008 23 10000 6.7 220 15:19 29.09.2019
1104 Clear 23 1008 29 10000 5.1 230 14:58 29.09.2019
1105 Clear 22 1009 31 10000 7.7 230 14:38 29.09.2019
1106 Clear 23 1009 31 10000 7.7 230 14:19 29.09.2019
1107 Clear 22 1009 36 10000 3.1 180 13:56 29.09.2019
1108 Clear 22 1009 36 10000 4.6 230 13:37 29.09.2019
1109 Clear 22 1009 36 10000 4.6 230 13:18 29.09.2019
1110 Clear 21 1010 43 10000 3.1 180 12:56 29.09.2019
1111 Clear 20 1010 52 10000 3.6 160 12:38 29.09.2019
1112 Clear 19 1010 52 10000 3.6 160 12:20 29.09.2019
1113 Clear 18 1011 63 10000 3.6 160 11:41 29.09.2019
1114 Clear 17 1011 63 10000 3.6 160 11:20 29.09.2019
1115 Clear 17 1012 63 10000 4.6 160 10:58 29.09.2019
1116 Clear 17 1012 72 10000 3.6 180 10:40 29.09.2019
1117 Clear 17 1012 72 10000 3.6 180 10:40 29.09.2019
1118 Clear 15 1012 72 10000 3.6 180 10:21 29.09.2019
1119 Clear 15 1012 72 10000 3.6 180 10:21 29.09.2019
1120 Clear 14 1012 71 10000 3.1 190 09:59 29.09.2019
1121 Clear 14 1012 71 10000 3.1 190 09:41 29.09.2019
1122 Clear 11 1012 87 10000 3.1 200 09:19 29.09.2019
1123 Clear 10 1013 87 10000 3.1 200 08:43 29.09.2019
1124 Clear 10 1013 93 10000 2.1 230 08:22 29.09.2019
1125 Clear 10 1013 93 10000 2.1 180 07:45 29.09.2019
1126 Clear 9 1014 93 10000 2.1 230 07:27 29.09.2019
1127 Clear 9 1014 93 10000 2.1 250 06:57 29.09.2019
1128 Clear 9 1014 93 10000 2.1 180 06:34 29.09.2019
1129 Clear 9 1016 93 10000 2.6 210 04:54 29.09.2019
1130 Clear 10 1016 93 10000 3.1 210 04:24 29.09.2019
1131 Clear 10 1016 93 10000 3.1 210 03:47 29.09.2019
1132 Clear 11 1017 87 10000 2.1 210 02:28 29.09.2019
1133 Clear 11 1017 93 10000 1.5 250 01:46 29.09.2019
1134 Clear 11 1018 87 10000 2.1 250 01:23 29.09.2019
1135 Clear 12 1018 82 10000 4.1 210 00:41 29.09.2019
1136 Clear 12 1018 82 10000 4.1 210 00:19 29.09.2019
1137 Clear 12 1018 82 10000 2.6 210 23:40 28.09.2019
1138 Clear 13 1018 82 10000 2.6 210 23:21 28.09.2019
1139 Clouds 13 1018 87 10000 2.1 210 22:56 28.09.2019
1140 Clear 13 1018 82 10000 2.6 190 22:37 28.09.2019
1141 Clear 13 1018 82 10000 2.6 190 22:19 28.09.2019
1142 Clear 13 1018 72 10000 2.1 230 21:54 28.09.2019
1143 Clear 14 1018 67 10000 3.1 200 21:36 28.09.2019
1144 Clear 14 1018 67 10000 3.1 200 21:18 28.09.2019
1145 Clear 15 1018 63 10000 4.6 210 20:54 28.09.2019
1146 Clear 15 1018 59 10000 3.1 230 20:36 28.09.2019
1147 Clear 15 1018 59 10000 3.1 230 20:36 28.09.2019
1148 Clear 15 1018 59 10000 3.1 230 20:18 28.09.2019
1149 Clear 15 1018 59 10000 3.1 230 20:18 28.09.2019
1150 Clouds 15 1018 55 10000 4.6 220 19:42 28.09.2019
1151 Clouds 15 1018 55 10000 4.6 220 19:42 28.09.2019
1152 Clear 16 1018 59 10000 4.6 240 19:22 28.09.2019
1153 Clear 16 1018 55 10000 5.1 230 18:59 28.09.2019
1154 Clear 17 1018 55 10000 5.1 240 18:41 28.09.2019
1155 Clear 18 1018 55 10000 5.1 240 18:21 28.09.2019
1156 Clear 18 1018 55 10000 5.1 240 18:21 28.09.2019
1157 Clear 18 1018 52 10000 6.7 220 17:57 28.09.2019
1158 Clear 18 1018 55 10000 5.1 250 17:39 28.09.2019
1159 Clear 18 1018 55 10000 5.1 250 17:21 28.09.2019
1160 Clear 19 1018 55 10000 5.7 250 16:49 28.09.2019
1161 Clear 19 1018 49 10000 7.2 240 16:29 28.09.2019
1162 Clear 19 1018 49 10000 6.2 240 15:59 28.09.2019
1163 Clear 19 1018 46 10000 6.7 220 15:39 28.09.2019
1164 Clear 19 1018 46 10000 6.7 220 15:39 28.09.2019
1165 Clear 19 1018 46 10000 6.7 220 15:21 28.09.2019
1166 Clear 19 1018 49 10000 7.7 220 14:54 28.09.2019
1167 Clear 19 1018 52 10000 6.2 230 14:36 28.09.2019
1168 Clear 19 1018 52 10000 6.2 230 14:18 28.09.2019
1169 Clear 18 1019 49 10000 5.1 250 13:43 28.09.2019
1170 Clouds 18 1019 55 10000 6.2 240 13:20 28.09.2019
1171 Clouds 18 1019 55 10000 4.1 240 12:57 28.09.2019
1172 Clouds 17 1019 63 10000 4.6 190 12:37 28.09.2019
1173 Clouds 17 1019 63 10000 4.6 190 12:18 28.09.2019
1174 Clouds 17 1019 68 10000 5.1 180 11:41 28.09.2019
1175 Clear 16 1019 77 10000 6.2 180 11:20 28.09.2019
1176 Clouds 16 1019 87 10000 6.7 190 10:56 28.09.2019
1177 Clouds 15 1018 87 10000 5.1 190 10:38 28.09.2019
1178 Clouds 15 1018 87 10000 5.1 190 10:18 28.09.2019
1179 Rain 15 1018 93 10000 2.1 210 09:41 28.09.2019
1180 Rain 14 1018 93 10000 2.1 210 09:22 28.09.2019
1181 Rain 13 1018 100 10000 2.6 210 08:48 28.09.2019
1182 Clouds 13 1018 100 10000 2.6 210 08:29 28.09.2019
1183 Rain 13 1018 93 10000 3.6 210 07:59 28.09.2019
1184 Rain 13 1018 93 10000 3.6 210 07:41 28.09.2019
1185 Rain 13 1017 93 10000 2.6 250 07:19 28.09.2019
1186 Rain 13 1017 87 10000 1.5 240 06:45 28.09.2019
1187 Rain 13 1017 100 10000 1 0 06:25 28.09.2019
1188 Rain 13 1017 93 10000 2.1 230 05:41 28.09.2019
1189 Rain 14 1017 93 10000 2.1 230 05:19 28.09.2019
1190 Rain 14 1017 93 8000 4.1 210 04:37 28.09.2019
1191 Rain 14 1017 93 10000 2.6 210 03:45 28.09.2019
1192 Drizzle 14 1016 93 10000 2.6 210 03:20 28.09.2019
1193 Clouds 14 1016 93 10000 3.6 190 02:43 28.09.2019
1194 Clouds 14 1016 93 10000 3.6 180 02:25 28.09.2019
1195 Clouds 14 1016 82 10000 5.1 180 01:46 28.09.2019
1196 Rain 14 1016 93 10000 1.5 200 01:24 28.09.2019
1197 Rain 15 1015 93 10000 3.1 190 00:49 28.09.2019
1198 Rain 15 1015 93 10000 4.6 180 00:30 28.09.2019
1199 Rain 15 1015 100 10000 4.6 180 23:55 27.09.2019
1200 Rain 15 1015 93 10000 4.6 170 23:36 27.09.2019
1201 Rain 15 1015 93 10000 4.6 170 23:18 27.09.2019
1202 Rain 15 1015 93 10000 4.6 170 22:41 27.09.2019
1203 Rain 15 1015 93 10000 3.1 170 22:19 27.09.2019
1204 Rain 15 1015 93 10000 5.1 180 21:55 27.09.2019
1205 Rain 15 1015 87 10000 3.6 200 21:37 27.09.2019
1206 Rain 15 1015 87 10000 3.6 200 21:18 27.09.2019
1207 Rain 15 1014 87 10000 4.1 200 20:55 27.09.2019
1208 Rain 16 1014 87 9000 2.6 200 20:36 27.09.2019
1209 Rain 16 1014 87 9000 2.6 200 20:18 27.09.2019
1210 Rain 16 1014 77 10000 3.1 190 19:42 27.09.2019
1211 Rain 16 1014 77 10000 3.1 190 19:23 27.09.2019
1212 Rain 16 1014 77 10000 4.1 200 18:58 27.09.2019
1213 Rain 16 1014 77 10000 3.1 190 18:39 27.09.2019
1214 Rain 17 1014 77 10000 3.1 190 18:20 27.09.2019
1215 Rain 17 1014 77 10000 3.1 190 18:20 27.09.2019
1216 Rain 17 1014 77 10000 1.5 0 17:54 27.09.2019
1217 Rain 17 1014 77 10000 2.6 230 17:36 27.09.2019
1218 Rain 17 1014 77 10000 2.6 230 17:18 27.09.2019
1219 Rain 18 1014 72 10000 3.6 250 16:42 27.09.2019
1220 Rain 18 1013 77 10000 5.1 230 16:20 27.09.2019
1221 Clouds 18 1014 68 10000 6.7 230 15:58 27.09.2019
1222 Rain 18 1014 68 10000 6.7 230 15:39 27.09.2019
1223 Rain 18 1013 64 10000 6.2 220 15:19 27.09.2019
1224 Rain 18 1013 72 10000 6.2 210 14:56 27.09.2019
1225 Rain 18 1013 68 10000 4.6 200 14:38 27.09.2019
1226 Rain 18 1013 68 10000 4.6 200 14:18 27.09.2019
1227 Rain 18 1013 68 10000 2.1 210 13:56 27.09.2019
1228 Rain 19 1013 72 10000 3.6 260 13:38 27.09.2019
1229 Rain 19 1013 72 10000 3.6 260 13:18 27.09.2019
1230 Rain 19 1013 63 10000 5.1 240 12:43 27.09.2019
1231 Rain 19 1013 63 10000 5.1 240 12:22 27.09.2019
1232 Clouds 19 1013 63 10000 5.1 220 11:55 27.09.2019
1233 Rain 19 1013 60 10000 4.1 250 11:37 27.09.2019
1234 Rain 18 1013 60 10000 4.1 250 11:19 27.09.2019
1235 Clouds 18 1013 64 10000 3.6 250 10:41 27.09.2019
1236 Clouds 17 1013 68 10000 1 0 10:21 27.09.2019
1237 Clear 16 1013 72 10000 2.6 120 09:56 27.09.2019
1238 Clouds 16 1014 77 10000 2.1 160 09:37 27.09.2019
1239 Clouds 15 1014 77 10000 2.1 160 09:18 27.09.2019
1240 Clouds 15 1014 82 10000 1 0 08:41 27.09.2019
1241 Clear 15 1013 82 10000 1.5 150 08:20 27.09.2019
1242 Clear 15 1013 82 10000 1.5 150 08:20 27.09.2019
1243 Clear 15 1013 82 10000 1.5 150 08:20 27.09.2019
1244 Clouds 14 1014 87 10000 1.5 0 07:49 27.09.2019
1245 Clouds 15 1014 82 10000 2.6 140 07:26 27.09.2019
1246 Clouds 14 1014 82 10000 2.1 180 06:46 27.09.2019
1247 Clouds 14 1014 82 10000 2.6 190 06:28 27.09.2019
1248 Clouds 14 1014 82 10000 2.6 170 05:54 27.09.2019
1249 Clouds 14 1014 87 10000 3.1 180 05:33 27.09.2019
1250 Clear 14 1014 87 10000 3.6 180 04:24 27.09.2019
1251 Clear 14 1015 87 10000 2.6 170 03:38 27.09.2019
1252 Clear 16 1015 82 10000 4.6 170 01:55 27.09.2019
1253 Clouds 16 1015 82 10000 4.1 180 01:30 27.09.2019
1254 Clouds 16 1015 82 10000 4.1 180 01:30 27.09.2019
1255 Clouds 16 1016 82 10000 3.6 190 00:40 27.09.2019
1256 Clouds 16 1016 82 10000 3.6 170 23:57 26.09.2019
1257 Clear 16 1015 82 10000 3.6 170 23:39 26.09.2019
1258 Clear 16 1015 82 10000 3.6 170 23:19 26.09.2019
1259 Clouds 17 1015 77 10000 3.6 170 22:58 26.09.2019
1260 Clouds 16 1015 77 10000 2.1 160 22:39 26.09.2019
1261 Clouds 16 1015 77 10000 2.1 160 22:18 26.09.2019
1262 Clouds 16 1015 77 10000 2.6 190 21:59 26.09.2019
1263 Clouds 16 1015 72 10000 2.6 170 21:38 26.09.2019
1264 Rain 17 1015 72 10000 2.6 170 21:19 26.09.2019
1265 Rain 17 1015 72 10000 2.6 170 21:19 26.09.2019
1266 Rain 17 1015 68 10000 4.1 170 20:58 26.09.2019
1267 Rain 17 1015 72 10000 3.6 190 20:40 26.09.2019
1268 Rain 17 1015 72 10000 3.6 190 20:21 26.09.2019
1269 Rain 17 1015 68 10000 5.7 200 19:59 26.09.2019
1270 Clouds 17 1014 72 10000 4.6 200 19:39 26.09.2019
1271 Clouds 17 1014 72 10000 4.6 200 19:18 26.09.2019
1272 Clouds 18 1014 77 10000 4.1 200 18:56 26.09.2019
1273 Clouds 18 1014 77 10000 5.1 200 18:37 26.09.2019
1274 Clouds 18 1014 77 10000 5.1 200 18:18 26.09.2019
1275 Clouds 18 1014 72 10000 4.6 200 17:38 26.09.2019
1276 Clouds 18 1014 72 10000 4.6 200 17:38 26.09.2019
1277 Clouds 18 1014 72 10000 4.6 200 17:38 26.09.2019
1278 Clouds 18 1014 72 10000 4.6 200 17:19 26.09.2019
1279 Clouds 18 1014 68 10000 5.1 190 16:57 26.09.2019
1280 Clouds 18 1014 73 10000 5.7 180 16:39 26.09.2019
1281 Clouds 18 1014 73 10000 5.7 180 16:20 26.09.2019
1282 Clouds 18 1014 68 10000 6.2 170 15:56 26.09.2019
1283 Clouds 18 1014 72 10000 6.2 180 15:37 26.09.2019
1284 Clouds 18 1014 72 10000 6.2 180 15:18 26.09.2019
1285 Rain 18 1014 72 10000 7.2 180 14:41 26.09.2019
1286 Rain 18 1014 72 10000 7.2 180 14:23 26.09.2019
1287 Rain 18 1014 77 10000 6.7 180 13:58 26.09.2019
1288 Rain 18 1014 77 10000 7.2 180 13:40 26.09.2019
1289 Rain 18 1014 77 10000 7.2 180 13:19 26.09.2019
1290 Rain 18 1014 77 10000 6.2 180 12:56 26.09.2019
1291 Clouds 17 1014 77 10000 5.1 180 12:38 26.09.2019
1292 Clouds 16 1014 77 10000 5.1 180 12:19 26.09.2019
1293 Clouds 16 1014 82 10000 4.1 190 11:42 26.09.2019
1294 Rain 16 1014 82 10000 4.1 190 11:21 26.09.2019
1295 Rain 16 1014 82 10000 4.1 190 11:21 26.09.2019
1296 -273 0 0 0 0 0 10:55 26.09.2019
1297 Rain 15 1014 87 10000 1 0 10:37 26.09.2019
1298 Rain 15 1014 87 10000 1 0 10:19 26.09.2019
1299 Rain 15 1013 87 10000 5.37 191.496 09:43 26.09.2019
1300 Rain 15 1013 87 10000 5.37 191.496 09:43 26.09.2019
1301 Rain 14 1013 93 10000 0.5 0 09:25 26.09.2019
1302 Rain 14 1013 93 10000 4.46 181.994 08:56 26.09.2019
1303 Rain 14 1013 93 10000 0.5 290 08:38 26.09.2019
1304 Rain 14 1013 93 10000 0.5 290 08:19 26.09.2019
1305 Rain 14 1012 93 10000 4.83 184.548 07:41 26.09.2019
1306 Rain 14 1012 93 10000 4.83 184.548 07:20 26.09.2019
1307 Rain 14 1012 93 10000 4.83 184.548 07:20 26.09.2019
1308 Rain 14 1012 93 10000 4.83 184.548 06:43 26.09.2019
1309 Rain 14 1012 100 10000 1 0 06:25 26.09.2019
1310 Rain 14 1012 100 10000 1 0 05:44 26.09.2019
1311 Rain 14 1012 93 10000 1 0 05:24 26.09.2019
1312 Rain 13 1012 100 10000 5.58 183.912 02:51 26.09.2019
1313 Clouds 14 1012 93 10000 1 0 01:53 26.09.2019
1314 Clouds 14 1012 93 10000 1 0 01:53 26.09.2019
1315 Clouds 14 1012 93 10000 1 0 01:53 26.09.2019
1316 Clouds 13 1012 93 10000 1 0 01:28 26.09.2019
1317 Clear 13 1012 93 10000 1 0 00:55 26.09.2019
1318 Clouds 13 1012 93 10000 0.5 0 00:37 26.09.2019
1319 Clear 13 1011 87 10000 1 0 23:58 25.09.2019
1320 Clear 14 1011 82 10000 2.1 190 23:39 25.09.2019
1321 Clear 14 1011 82 10000 2.1 190 23:18 25.09.2019
1322 Rain 14 1011 82 10000 1.5 0 22:42 25.09.2019
1323 Clear 14 1011 82 10000 2.6 200 22:20 25.09.2019
1324 Rain 14 1011 82 10000 3.6 180 21:57 25.09.2019
1325 Clouds 14 1011 82 10000 1.5 0 21:39 25.09.2019
1326 Clouds 15 1011 82 10000 1.5 0 21:19 25.09.2019
1327 Clear 15 1011 77 10000 3.1 180 20:58 25.09.2019
1328 Clear 15 1011 77 10000 3.1 180 20:40 25.09.2019
1329 Clear 15 1011 72 10000 3.1 180 20:22 25.09.2019
1330 Rain 15 1011 72 10000 2.1 190 19:55 25.09.2019
1331 Rain 15 1011 67 10000 4.1 220 19:36 25.09.2019
1332 Rain 15 1011 67 10000 4.1 220 19:18 25.09.2019
1333 -273 0 0 0 0 0 18:55 25.09.2019
1334 Clouds 15 1010 63 10000 5.1 220 18:37 25.09.2019
1335 Rain 16 1010 63 10000 5.1 220 18:18 25.09.2019
1336 Rain 17 1010 63 10000 4.6 200 17:39 25.09.2019
1337 Rain 16 1010 63 10000 4.6 200 17:19 25.09.2019
1338 Rain 16 1010 63 10000 5.1 220 16:56 25.09.2019
1339 Clouds 16 1010 63 10000 1.5 250 16:36 25.09.2019
1340 Clouds 16 1010 63 10000 1.5 250 16:18 25.09.2019
1341 Clouds 17 1010 59 10000 4.1 220 15:41 25.09.2019
1342 Clouds 17 1010 59 10000 4.1 220 15:23 25.09.2019
1343 Clouds 17 1010 59 10000 4.1 210 14:57 25.09.2019
1344 Clouds 17 1010 59 10000 4.1 210 14:57 25.09.2019
1345 Clouds 17 1011 59 10000 5.1 190 14:39 25.09.2019
1346 Rain 17 1011 59 10000 5.1 190 14:21 25.09.2019
1347 Rain 17 1011 59 10000 4.1 210 13:56 25.09.2019
1348 Rain 18 1011 59 10000 4.1 220 13:38 25.09.2019
1349 Rain 17 1011 59 10000 4.1 220 13:19 25.09.2019
1350 Rain 17 1011 67 10000 3.6 250 12:42 25.09.2019
1351 Rain 17 1011 67 10000 3.6 250 12:23 25.09.2019
1352 Clouds 17 1011 67 10000 5.1 240 11:59 25.09.2019
1353 Clouds 16 1011 67 10000 4.1 230 11:40 25.09.2019
1354 Clouds 16 1011 67 10000 4.1 230 11:19 25.09.2019
1355 Clear 15 1011 87 10000 3.1 160 10:45 25.09.2019
1356 Rain 15 1011 87 10000 3.6 170 10:26 25.09.2019
1357 Rain 15 1011 87 10000 3.1 190 09:58 25.09.2019
1358 Rain 14 1011 87 10000 1.5 190 09:38 25.09.2019
1359 Rain 14 1011 87 10000 1.5 190 09:20 25.09.2019
1360 Rain 14 1011 93 10000 1 0 08:55 25.09.2019
1361 Rain 13 1011 100 10000 1.5 200 08:37 25.09.2019
1362 Rain 13 1011 100 10000 1.5 200 08:18 25.09.2019
1363 Rain 13 1010 93 10000 1 0 07:40 25.09.2019
1364 Rain 13 1010 93 10000 1 0 07:22 25.09.2019
1365 Rain 13 1010 100 10000 2.1 220 06:45 25.09.2019
1366 Rain 14 1010 93 8000 2.1 250 06:23 25.09.2019
1367 Rain 14 1011 93 10000 1.5 230 05:39 25.09.2019
1368 Rain 14 1010 87 10000 1.5 210 04:57 25.09.2019
1369 Clouds 14 1010 93 10000 3.1 180 02:32 25.09.2019
1370 Clear 15 1010 87 10000 3.6 160 01:19 25.09.2019
1371 Clouds 15 1010 82 10000 3.6 220 00:37 25.09.2019
1372 Clouds 15 1010 82 10000 3.6 220 00:18 25.09.2019
1373 Rain 14 1010 93 10000 5.1 180 23:41 24.09.2019
1374 Rain 14 1010 93 10000 5.1 180 23:21 24.09.2019
1375 Clouds 14 1010 93 10000 6.2 180 22:56 24.09.2019
1376 Clouds 14 1010 93 10000 6.2 180 22:56 24.09.2019
1377 Rain 14 1010 93 10000 6.2 170 22:38 24.09.2019
1378 Rain 15 1010 93 10000 6.2 170 22:18 24.09.2019
1379 Rain 15 1010 93 10000 5.1 180 21:55 24.09.2019
1380 Rain 15 1010 93 10000 4.6 170 21:36 24.09.2019
1381 Rain 14 1010 93 10000 4.6 170 21:18 24.09.2019
1382 Clouds 14 1010 87 10000 5.7 180 20:55 24.09.2019
1383 Rain 14 1010 87 10000 5.7 180 20:37 24.09.2019
1384 Rain 14 1010 87 10000 5.7 180 20:18 24.09.2019
1385 Rain 14 1010 87 10000 5.7 180 19:42 24.09.2019
1386 Rain 15 1010 87 10000 5.1 180 19:20 24.09.2019
1387 Rain 15 1010 87 10000 5.1 180 19:20 24.09.2019
1388 Rain 15 1010 87 10000 6.7 180 18:57 24.09.2019
1389 Rain 16 1010 82 10000 2.6 150 18:39 24.09.2019
1390 Rain 16 1010 82 10000 2.6 150 18:20 24.09.2019
1391 Clouds 16 1010 77 10000 2.6 140 17:57 24.09.2019
1392 Clouds 16 1010 77 10000 2.6 160 17:38 24.09.2019
1393 Clouds 17 1010 77 10000 2.6 160 17:19 24.09.2019
1394 Rain 16 1010 72 10000 2.6 160 16:42 24.09.2019
1395 Rain 17 1011 72 10000 2.6 160 16:21 24.09.2019
1396 Rain 17 1011 67 10000 4.6 180 15:59 24.09.2019
1397 Rain 17 1011 67 10000 4.6 180 15:41 24.09.2019
1398 Clear 16 1011 72 10000 3.1 210 15:22 24.09.2019
1399 Clear 16 1011 72 10000 3.1 210 15:22 24.09.2019
1400 Clear 16 1011 67 10000 4.1 170 14:40 24.09.2019
1401 Clear 16 1012 67 10000 4.6 190 14:19 24.09.2019
1402 Clear 16 1012 67 10000 4.6 180 13:45 24.09.2019
1403 Clear 16 1012 77 10000 1.5 180 13:24 24.09.2019
1404 Clear 15 1013 82 10000 2.6 190 12:59 24.09.2019
1405 Clear 15 1013 87 10000 2.6 170 12:39 24.09.2019
1406 Clear 14 1013 87 10000 2.6 170 12:18 24.09.2019
1407 Clear 14 1014 87 10000 1.5 150 11:43 24.09.2019
1408 Clear 13 1014 87 10000 1.5 150 11:22 24.09.2019
1409 Clear 13 1014 82 10000 1.5 180 10:58 24.09.2019
1410 Clear 13 1015 87 10000 1.5 190 10:38 24.09.2019
1411 Clear 13 1015 87 10000 1.5 190 10:19 24.09.2019
1412 Clear 12 1015 87 10000 1.5 0 09:46 24.09.2019
1413 Clear 12 1015 87 10000 1 220 09:27 24.09.2019
1414 Clear 11 1015 87 10000 3.1 210 08:58 24.09.2019
1415 Clear 10 1015 87 10000 2.1 170 08:40 24.09.2019
1416 Clear 10 1015 87 10000 2.1 170 08:22 24.09.2019
1417 Clear 9 1015 87 10000 2.1 170 07:57 24.09.2019
1418 Fog 9 1015 93 10000 2.1 210 07:38 24.09.2019
1419 Fog 9 1015 93 10000 2.1 210 07:19 24.09.2019
1420 Clear 9 1016 87 10000 3.6 210 06:37 24.09.2019
1421 Clear 9 1016 87 10000 3.6 210 06:18 24.09.2019
1422 Clear 9 1016 87 10000 1.5 0 05:21 24.09.2019
1423 Clear 10 1017 93 10000 1.5 240 03:46 24.09.2019
1424 Clear 10 1017 87 10000 3.1 230 03:25 24.09.2019
1425 Clear 10 1018 81 10000 2.6 250 02:44 24.09.2019
1426 Clear 11 1018 87 10000 3.1 260 01:41 24.09.2019
1427 Clear 11 1018 82 10000 3.6 270 00:41 24.09.2019
1428 Clear 12 1018 82 10000 3.6 270 00:22 24.09.2019
1429 Clear 12 1018 82 10000 1.5 230 23:42 23.09.2019
1430 Clear 12 1018 82 10000 1.5 230 23:23 23.09.2019
1431 Clear 13 1018 82 10000 1 0 22:41 23.09.2019
1432 Clear 13 1018 82 10000 1 0 22:22 23.09.2019
1433 Clear 13 1018 82 10000 0.5 0 21:59 23.09.2019
1434 Clear 13 1018 77 10000 2.1 230 21:41 23.09.2019
1435 Clear 13 1018 77 10000 2.1 230 21:41 23.09.2019
1436 Clear 14 1018 77 10000 2.1 230 21:22 23.09.2019
1437 Clouds 15 1018 67 10000 0.5 0 20:59 23.09.2019
1438 Clouds 15 1018 67 10000 1.5 0 20:40 23.09.2019
1439 Clouds 15 1018 67 10000 1.5 0 20:19 23.09.2019
1440 Clear 15 1017 67 10000 2.6 250 19:55 23.09.2019
1441 Clear 15 1017 63 10000 3.1 240 19:37 23.09.2019
1442 Clear 16 1017 63 10000 3.1 240 19:19 23.09.2019
1443 Clear 16 1017 63 10000 3.1 240 19:19 23.09.2019
1444 Clear 17 1017 59 10000 2.1 280 18:42 23.09.2019
1445 Clear 18 1017 59 10000 2.1 280 18:20 23.09.2019
1446 Clear 18 1017 63 10000 2.1 300 17:59 23.09.2019
1447 Clear 19 1017 55 10000 3.1 240 17:39 23.09.2019
1448 Clear 19 1017 55 10000 3.1 240 17:20 23.09.2019
1449 Clear 19 1017 52 10000 4.6 240 16:58 23.09.2019
1450 Clear 19 1017 49 10000 3.1 250 16:37 23.09.2019
1451 Clear 19 1017 49 10000 3.1 250 16:18 23.09.2019
1452 Clear 19 1017 52 10000 3.1 250 15:57 23.09.2019
1453 Rain 20 1017 49 10000 4.6 240 15:38 23.09.2019
1454 Rain 19 1017 49 10000 4.6 240 15:19 23.09.2019
1455 Clouds 19 1017 56 10000 2.1 350 14:40 23.09.2019
1456 Clouds 19 1017 56 10000 2.1 350 14:40 23.09.2019
1457 Clouds 19 1017 56 10000 2.1 350 14:40 23.09.2019
1458 Clouds 19 1017 56 10000 2.1 350 14:21 23.09.2019
1459 Clouds 18 1017 59 10000 1.5 0 13:59 23.09.2019
1460 Clouds 18 1017 63 10000 1.5 0 13:39 23.09.2019
1461 Clouds 18 1017 63 10000 1.5 0 13:18 23.09.2019
1462 Clouds 17 1017 72 10000 1.5 0 12:56 23.09.2019
1463 Clouds 17 1018 77 10000 1.5 110 12:37 23.09.2019
1464 Clouds 16 1018 77 10000 1.5 110 12:19 23.09.2019
1465 Clouds 15 1018 87 10000 1.5 0 11:44 23.09.2019
1466 Clouds 15 1018 87 10000 1.5 0 11:26 23.09.2019
1467 Clouds 15 1018 87 10000 2.1 140 10:55 23.09.2019
1468 Clouds 14 1018 93 10000 1 0 10:37 23.09.2019
1469 Clouds 14 1018 93 10000 1 0 10:19 23.09.2019
1470 Rain 14 1017 93 10000 2.1 180 09:40 23.09.2019
1471 Rain 14 1017 93 10000 1 0 09:21 23.09.2019
1472 Rain 14 1016 93 10000 2.6 190 08:57 23.09.2019
1473 Rain 13 1016 100 10000 1.5 0 08:38 23.09.2019
1474 Rain 13 1016 100 10000 1.5 0 08:18 23.09.2019
1475 Rain 13 1016 100 10000 1.5 0 08:18 23.09.2019
1476 Clouds 13 1016 100 10000 2.1 200 07:33 23.09.2019
1477 Rain 13 1015 100 10000 2.1 180 06:52 23.09.2019
1478 Rain 13 1015 100 10000 2.6 190 06:19 23.09.2019
1479 Rain 13 1016 100 10000 4.38 193.912 05:23 23.09.2019
1480 Rain 13 1016 93 10000 1.5 220 04:56 23.09.2019
1481 Rain 13 1015 93 7000 2.1 310 03:56 23.09.2019
1482 Rain 15 1013 72 10000 3.6 0 01:25 23.09.2019
1483 Rain 16 1012 82 6000 4.1 290 00:24 23.09.2019
1484 Rain 17 1011 77 10000 4.1 290 23:58 22.09.2019
1485 Rain 17 1011 77 10000 4.1 290 23:58 22.09.2019
1486 Rain 17 1011 77 7000 3.1 270 23:39 22.09.2019
1487 Rain 17 1011 77 7000 3.1 270 23:21 22.09.2019
1488 Rain 18 1011 82 10000 2.1 190 22:54 22.09.2019
1489 Rain 18 1010 82 10000 4.6 260 22:36 22.09.2019
1490 Rain 18 1010 82 10000 4.6 260 22:18 22.09.2019
1491 Rain 18 1010 88 10000 3.1 260 21:42 22.09.2019
1492 Rain 19 1009 82 10000 4.1 260 21:20 22.09.2019
1493 Rain 19 1009 93 9000 2.6 260 20:45 22.09.2019
1494 Rain 19 1009 93 7000 2.6 320 20:27 22.09.2019
1495 Rain 20 1010 77 7000 6.2 240 19:59 22.09.2019
1496 Rain 20 1009 60 10000 1 0 19:40 22.09.2019
1497 Rain 21 1009 60 10000 1 0 19:20 22.09.2019
1498 Rain 22 1008 60 10000 2.1 360 18:57 22.09.2019
1499 Rain 22 1008 60 10000 2.1 360 18:57 22.09.2019
1500 Rain 23 1009 53 10000 2.1 360 18:38 22.09.2019
1501 Rain 23 1009 53 10000 2.1 360 18:18 22.09.2019
1502 Rain 24 1008 50 10000 2.1 360 17:47 22.09.2019
1503 Rain 24 1009 47 10000 1.5 50 17:27 22.09.2019
1504 Rain 25 1009 47 10000 1 0 16:58 22.09.2019
1505 Clear 25 1009 47 10000 1 0 16:40 22.09.2019
1506 Clear 25 1009 50 10000 1.5 0 16:20 22.09.2019
1507 Clear 25 1009 50 10000 1.5 0 15:46 22.09.2019
1508 Clear 24 1009 53 10000 1.5 0 15:26 22.09.2019
1509 Clear 24 1010 56 10000 1.5 0 14:57 22.09.2019
1510 Clear 24 1010 60 10000 1.5 0 14:39 22.09.2019
1511 Clear 24 1010 60 10000 1.5 0 14:21 22.09.2019
1512 Clear 24 1011 60 10000 2.1 20 13:45 22.09.2019
1513 Clear 23 1011 64 10000 2.1 10 13:26 22.09.2019
1514 Clouds 22 1011 53 10000 2.6 100 12:58 22.09.2019
1515 Clear 22 1012 68 10000 1.5 350 12:40 22.09.2019
1516 Clear 20 1012 68 10000 1.5 350 12:21 22.09.2019
1517 Clear 20 1012 68 10000 1.5 350 12:21 22.09.2019
1518 Clouds 20 1012 72 10000 1 0 11:56 22.09.2019
1519 Clear 19 1012 77 10000 1 0 11:38 22.09.2019
1520 Clear 18 1012 77 10000 1 0 11:19 22.09.2019
1521 Clear 17 1012 77 10000 1.5 0 10:43 22.09.2019
1522 Clouds 16 1012 82 10000 1.5 350 10:20 22.09.2019
1523 Clear 16 1012 82 10000 1 340 09:56 22.09.2019
1524 Rain 15 1012 87 10000 1.23 215.581 09:37 22.09.2019
1525 Rain 14 1012 87 10000 2.19 192.991 09:19 22.09.2019
1526 Clear 14 1012 87 10000 2.72 202.299 08:43 22.09.2019
1527 Clear 13 1012 87 10000 1 360 08:23 22.09.2019
1528 Clear 13 1012 87 10000 1 360 08:23 22.09.2019
1529 Clear 13 1012 87 10000 1.5 10 07:52 22.09.2019
1530 Rain 13 1012 93 10000 0.5 30 07:33 22.09.2019
1531 Clear 12 1012 93 10000 2.72 202.299 06:59 22.09.2019
1532 Clear 12 1012 93 10000 1 20 06:38 22.09.2019
1533 Clear 12 1013 82 10000 1 0 05:22 22.09.2019
1534 Clear 12 1013 87 10000 2.6 190 02:59 22.09.2019
1535 Clear 12 1013 82 10000 3.6 190 02:36 22.09.2019
1536 Clear 12 1013 82 10000 3.6 190 02:18 22.09.2019
1537 Clear 12 1013 76 10000 1.5 0 00:57 22.09.2019
1538 Clear 13 1013 72 10000 2.1 0 00:33 22.09.2019
1539 Clear 13 1014 67 10000 4.1 270 23:57 21.09.2019
1540 Clear 13 1015 67 10000 3.6 260 23:39 21.09.2019
1541 Clear 14 1015 67 10000 3.6 260 22:59 21.09.2019
1542 Clear 14 1015 67 10000 4.1 260 22:39 21.09.2019
1543 Clear 14 1015 67 10000 4.1 260 22:20 21.09.2019
1544 Clear 15 1015 67 10000 4.6 280 21:42 21.09.2019
1545 Clear 16 1015 72 10000 1.5 300 21:20 21.09.2019
1546 Clear 17 1015 72 10000 1 0 20:58 21.09.2019
1547 Clear 17 1015 72 10000 1 0 20:58 21.09.2019
1548 Clear 17 1015 72 10000 1 300 20:38 21.09.2019
1549 Clear 17 1015 72 10000 1 300 20:38 21.09.2019
1550 Clear 17 1015 72 10000 1 300 20:19 21.09.2019
1551 Clear 17 1015 72 10000 1 300 20:19 21.09.2019
1552 Clear 18 1015 55 10000 1.5 360 19:47 21.09.2019
1553 Clear 19 1015 49 10000 2.1 10 19:23 21.09.2019
1554 Clear 20 1015 46 10000 2.6 30 18:55 21.09.2019
1555 Clear 20 1015 46 10000 2.1 30 18:37 21.09.2019
1556 Clear 22 1015 46 10000 2.1 30 18:18 21.09.2019
1557 Clear 23 1016 43 10000 2.1 40 17:40 21.09.2019
1558 Clear 23 1016 43 10000 2.1 40 17:20 21.09.2019
1559 Clear 24 1016 43 10000 2.6 30 16:43 21.09.2019
1560 Clear 24 1016 40 10000 1.5 0 16:24 21.09.2019
1561 Clear 23 1017 43 10000 1.5 0 15:56 21.09.2019
1562 Clear 24 1017 43 10000 1.5 90 15:38 21.09.2019
1563 Clear 23 1017 43 10000 1.5 90 15:19 21.09.2019
1564 Clear 22 1018 40 10000 1 0 14:43 21.09.2019
1565 Clear 22 1018 40 10000 1.5 80 14:24 21.09.2019
1566 Clear 22 1018 42 10000 1.5 0 13:42 21.09.2019
1567 Clear 21 1019 45 10000 1.5 60 13:23 21.09.2019
1568 Clear 20 1019 45 10000 1.5 0 12:57 21.09.2019
1569 Clear 19 1020 45 10000 1 0 12:38 21.09.2019
1570 Clear 18 1020 45 10000 1 0 12:20 21.09.2019
1571 Clear 18 1020 45 10000 1 0 11:51 21.09.2019
1572 Clear 16 1021 47 10000 1 0 11:25 21.09.2019
1573 Clear 15 1021 54 10000 1 0 10:56 21.09.2019
1574 Clear 14 1021 58 10000 1 0 10:38 21.09.2019
1575 Clear 13 1021 58 10000 1 0 10:20 21.09.2019
1576 Clear 13 1021 66 10000 1 0 09:55 21.09.2019
1577 Clear 12 1021 62 10000 1.37 190.398 09:37 21.09.2019
1578 Clear 10 1021 62 10000 0.66 222.797 09:18 21.09.2019
1579 Clear 9 1021 70 10000 1 0 08:43 21.09.2019
1580 Clear 9 1021 70 10000 1 0 08:43 21.09.2019
1581 Clear 7 1021 81 10000 0.63 231.925 07:59 21.09.2019
1582 Clear 7 1021 81 10000 1 240 07:40 21.09.2019
1583 Clear 7 1021 81 10000 1 240 07:20 21.09.2019
1584 Clear 7 1021 75 10000 0.5 0 06:36 21.09.2019
1585 Clear 7 1021 70 10000 0.13 319.154 05:51 21.09.2019
1586 Clear 8 1021 70 10000 1 0 04:39 21.09.2019
1587 Clear 8 1021 66 10000 1 0 03:35 21.09.2019
1588 Clear 8 1022 61 10000 1.5 290 02:25 21.09.2019
1589 Clear 8 1021 66 10000 2.6 290 01:49 21.09.2019
1590 Clear 8 1022 57 10000 4.1 280 01:25 21.09.2019
1591 Clear 10 1022 58 10000 3.6 270 00:25 21.09.2019
1592 Clear 10 1022 58 10000 1.5 0 23:57 20.09.2019
1593 Clear 10 1022 62 10000 1.5 0 23:30 20.09.2019
1594 Clear 10 1022 62 10000 1.5 0 23:30 20.09.2019
1595 Clear 10 1023 54 10000 1.5 280 22:56 20.09.2019
1596 Clear 11 1023 54 10000 1 0 22:38 20.09.2019
1597 Clear 11 1023 54 10000 1 0 22:20 20.09.2019
1598 Clear 12 1023 50 10000 2.6 320 21:55 20.09.2019
1599 Clear 13 1023 47 10000 2.6 310 21:37 20.09.2019
1600 Clear 14 1023 47 10000 2.6 310 21:18 20.09.2019
1601 Clear 14 1023 50 10000 3.1 350 20:41 20.09.2019
1602 Clear 15 1023 50 10000 3.1 350 20:21 20.09.2019
1603 Clear 16 1023 42 10000 2.1 330 19:57 20.09.2019
1604 Clear 17 1023 39 10000 2.1 10 19:38 20.09.2019
1605 Clear 17 1023 39 10000 2.1 10 19:19 20.09.2019
1606 Clear 18 1023 32 10000 4.1 20 18:40 20.09.2019
1607 Clear 20 1023 32 10000 4.1 20 18:20 20.09.2019
1608 Clear 20 1023 34 10000 4.6 10 17:58 20.09.2019
1609 Clear 20 1023 32 10000 3.6 20 17:39 20.09.2019
1610 Clear 20 1023 32 10000 3.6 20 17:21 20.09.2019
1611 Clear 21 1023 32 10000 4.1 20 16:41 20.09.2019
1612 Clear 21 1024 32 10000 4.1 360 16:19 20.09.2019
1613 Clear 20 1024 34 10000 3.1 360 15:43 20.09.2019
1614 Clear 20 1024 34 10000 3.1 360 15:24 20.09.2019
1615 Clear 20 1024 37 10000 5.7 10 14:59 20.09.2019
1616 Clear 20 1025 37 10000 3.6 10 14:41 20.09.2019
1617 Clear 20 1025 37 10000 3.6 10 14:41 20.09.2019
1618 Clear 19 1025 36 10000 3.1 20 14:18 20.09.2019
1619 Clear 19 1025 39 10000 4.1 360 13:47 20.09.2019
1620 Clear 18 1026 38 10000 2.6 20 13:28 20.09.2019
1621 Clear 17 1026 38 10000 2.6 20 12:57 20.09.2019
1622 Clear 17 1026 44 10000 2.6 20 12:37 20.09.2019
1623 Clear 16 1026 44 10000 2.6 20 12:18 20.09.2019
1624 Clear 15 1027 47 10000 2.6 10 11:49 20.09.2019
1625 Clear 14 1027 50 10000 2.6 10 11:21 20.09.2019
1626 Clear 13 1027 54 10000 3.1 20 10:43 20.09.2019
1627 Clear 13 1027 54 10000 3.1 20 10:43 20.09.2019
1628 Clear 12 1027 54 10000 3.6 10 10:24 20.09.2019
1629 Clear 10 1027 57 10000 3.6 360 09:59 20.09.2019
1630 Clear 9 1027 61 10000 2.1 350 09:38 20.09.2019
1631 Clear 8 1027 61 10000 2.1 350 09:18 20.09.2019
1632 Clear 7 1027 66 10000 2.6 340 08:43 20.09.2019
1633 Clear 6 1027 70 10000 1 0 08:25 20.09.2019
1634 Clear 5 1026 70 10000 1 0 07:47 20.09.2019
1635 Clear 5 1026 70 10000 1.5 280 07:28 20.09.2019
1636 Clear 5 1026 70 10000 2.1 340 06:45 20.09.2019
1637 Clear 5 1026 70 10000 2.1 340 06:45 20.09.2019
1638 Clear 5 1026 65 10000 2.6 340 06:27 20.09.2019
1639 Clear 6 1026 70 10000 2.6 330 05:57 20.09.2019
1640 Clear 7 1026 61 10000 3.1 360 03:51 20.09.2019
1641 Clear 7 1027 61 10000 3.1 360 03:25 20.09.2019
1642 Clear 8 1027 57 10000 2.1 350 01:45 20.09.2019
1643 Clear 8 1027 61 10000 3.6 10 01:27 20.09.2019
1644 Clear 9 1027 57 10000 4.1 360 00:32 20.09.2019
1645 Clear 10 1027 57 10000 4.6 360 23:46 19.09.2019
1646 Clear 10 1027 54 10000 4.6 10 23:24 19.09.2019
1647 Clear 10 1027 54 10000 4.6 10 22:57 19.09.2019
1648 Clear 10 1027 50 10000 5.1 10 22:38 19.09.2019
1649 Clear 11 1027 50 10000 5.1 10 22:20 19.09.2019
1650 Clear 11 1027 50 10000 5.1 10 21:56 19.09.2019
1651 Clear 11 1026 50 10000 4.1 10 21:38 19.09.2019
1652 Clear 12 1026 50 10000 4.1 10 21:19 19.09.2019
1653 Clear 13 1026 47 10000 5.1 10 20:43 19.09.2019
1654 Clear 13 1026 47 10000 5.1 10 20:23 19.09.2019
1655 Clear 14 1026 47 10000 4.6 10 19:57 19.09.2019
1656 Clear 15 1026 44 10000 6.7 10 19:39 19.09.2019
1657 Clear 15 1026 44 10000 6.7 10 19:21 19.09.2019
1658 Clear 16 1025 42 10000 7.7 10 18:56 19.09.2019
1659 Clear 16 1025 42 10000 7.7 10 18:56 19.09.2019
1660 Clear 17 1025 42 10000 7.7 10 18:38 19.09.2019
1661 Clear 17 1025 42 10000 7.7 10 18:19 19.09.2019
1662 Clear 18 1025 39 10000 7.7 10 17:42 19.09.2019
1663 Clear 18 1025 39 10000 7.7 10 17:23 19.09.2019
1664 Clear 18 1025 39 10000 7.7 10 16:59 19.09.2019
1665 Clear 18 1026 42 10000 6.7 10 16:39 19.09.2019
1666 Clear 18 1026 42 10000 6.7 10 16:19 19.09.2019
1667 Clear 18 1026 39 10000 6.2 20 15:39 19.09.2019
1668 Clear 18 1026 39 10000 6.2 20 15:21 19.09.2019
1669 Clear 18 1026 39 10000 6.2 20 15:21 19.09.2019
1670 Clear 18 1026 39 10000 6.2 20 14:57 19.09.2019
1671 Clear 18 1026 39 10000 5.1 20 14:38 19.09.2019
1672 Clear 18 1026 39 10000 5.1 20 14:18 19.09.2019
1673 Clear 18 1027 42 10000 6.2 10 13:40 19.09.2019
1674 Clear 18 1027 42 10000 6.2 10 13:20 19.09.2019
1675 Clear 18 1027 39 10000 6.2 10 12:58 19.09.2019
1676 Clear 17 1027 44 10000 5.1 20 12:36 19.09.2019
1677 Clear 16 1027 44 10000 5.1 20 12:18 19.09.2019
1678 Clear 15 1027 54 10000 7.2 360 11:41 19.09.2019
1679 Clear 14 1027 54 10000 7.2 360 11:21 19.09.2019
1680 Clear 13 1027 54 10000 5.1 10 10:57 19.09.2019
1681 Clear 12 1027 62 10000 6.2 10 10:37 19.09.2019
1682 Clear 12 1027 62 10000 6.2 10 10:18 19.09.2019
1683 Clear 11 1027 66 10000 6.7 10 09:54 19.09.2019
1684 Clouds 10 1026 62 10000 6.7 10 09:36 19.09.2019
1685 Clouds 9 1026 62 10000 6.7 10 09:18 19.09.2019
1686 Clear 8 1026 66 10000 6.2 360 08:41 19.09.2019
1687 Clear 7 1026 66 10000 6.2 360 08:22 19.09.2019
1688 Clouds 6 1025 93 10000 2.1 320 07:43 19.09.2019
1689 Clouds 6 1025 93 10000 1 310 07:43 19.09.2019
1690 Clouds 6 1025 93 10000 2.1 320 07:22 19.09.2019
1691 Clouds 6 1024 93 10000 2.1 310 06:48 19.09.2019
1692 Clear 6 1024 93 10000 2.1 300 06:28 19.09.2019
1693 Clear 7 1025 61 10000 5.1 10 05:52 19.09.2019
1694 Clear 7 1024 93 10000 1.5 300 05:31 19.09.2019
1695 Clear 8 1024 87 10000 2.1 340 03:54 19.09.2019
1696 Clear 8 1025 57 10000 4.1 360 03:18 19.09.2019
1697 Clear 9 1024 58 10000 4.1 360 01:34 19.09.2019
1698 Clear 9 1025 58 10000 4.1 10 00:51 19.09.2019
1699 Clear 10 1024 58 10000 4.6 10 00:26 19.09.2019
1700 Clear 10 1024 58 10000 4.6 10 00:26 19.09.2019
1701 Clear 11 1024 54 10000 4.6 360 23:43 18.09.2019
1702 Clear 11 1024 54 10000 4.1 360 23:23 18.09.2019
1703 Clear 11 1024 54 10000 4.1 360 23:23 18.09.2019
1704 Clear 11 1024 54 10000 4.6 10 22:55 18.09.2019
1705 Clear 12 1024 50 10000 5.1 360 22:37 18.09.2019
1706 Clear 12 1024 50 10000 5.1 360 22:18 18.09.2019
1707 Clear 12 1024 50 10000 5.7 360 21:56 18.09.2019
1708 Clear 12 1024 50 10000 5.1 10 21:37 18.09.2019
1709 Clear 13 1024 50 10000 5.1 10 21:18 18.09.2019
1710 Clear 14 1023 54 10000 4.6 360 20:56 18.09.2019
1711 Clear 14 1023 47 10000 4.6 10 20:37 18.09.2019
1712 Clear 14 1023 47 10000 4.6 10 20:19 18.09.2019
1713 Clear 15 1022 44 10000 5.7 20 19:55 18.09.2019
1714 Clear 15 1022 39 10000 6.2 10 19:37 18.09.2019
1715 Clear 16 1022 39 10000 6.2 10 19:18 18.09.2019
1716 Clear 17 1022 39 10000 5.1 20 18:54 18.09.2019
1717 Clear 17 1022 39 10000 5.1 20 18:54 18.09.2019
1718 Clear 18 1022 36 10000 6.2 20 18:36 18.09.2019
1719 Clear 18 1022 36 10000 6.2 20 18:18 18.09.2019
1720 Clear 18 1022 37 10000 5.1 10 17:41 18.09.2019
1721 Clear 19 1022 37 10000 5.1 10 17:19 18.09.2019
1722 Clear 19 1022 37 10000 7.7 10 16:59 18.09.2019
1723 Clear 19 1022 37 10000 7.7 10 16:41 18.09.2019
1724 Clear 18 1022 42 10000 6.2 20 16:22 18.09.2019
1725 Clear 19 1022 40 10000 6.2 20 15:57 18.09.2019
1726 Clear 19 1022 45 10000 6.2 20 15:39 18.09.2019
1727 Clear 19 1022 45 10000 6.2 20 15:20 18.09.2019
1728 Clear 19 1023 45 10000 6.2 20 14:58 18.09.2019
1729 Clear 19 1023 48 10000 7.2 10 14:40 18.09.2019
1730 Clear 19 1023 48 10000 7.2 10 14:21 18.09.2019
1731 Clear 18 1023 48 10000 6.2 20 13:58 18.09.2019
1732 Clear 18 1023 51 10000 6.7 10 13:38 18.09.2019
1733 Clear 18 1023 51 10000 6.7 10 13:18 18.09.2019
1734 Clear 18 1023 55 10000 6.2 10 12:45 18.09.2019
1735 Clear 17 1023 55 10000 6.2 10 12:27 18.09.2019
1736 Clear 16 1023 58 10000 5.7 360 11:41 18.09.2019
1737 Clear 16 1023 58 10000 5.7 360 11:41 18.09.2019
1738 Clear 15 1023 58 10000 5.7 360 11:20 18.09.2019
1739 Clear 14 1023 58 10000 6.2 360 10:58 18.09.2019
1740 Clear 14 1024 62 10000 5.7 10 10:40 18.09.2019
1741 Clear 13 1024 62 10000 5.7 10 10:20 18.09.2019
1742 Clear 12 1023 66 10000 6.2 10 09:58 18.09.2019
1743 Clear 12 1023 66 10000 5.7 10 09:37 18.09.2019
1744 Clear 11 1023 66 10000 5.7 10 09:19 18.09.2019
1745 Clear 10 1023 71 10000 6.2 10 08:41 18.09.2019
1746 Clear 9 1023 71 10000 4.6 360 08:23 18.09.2019
1747 Clear 9 1023 76 10000 5.1 350 07:53 18.09.2019
1748 Clear 9 1023 76 10000 5.1 360 07:35 18.09.2019
1749 Clear 9 1023 71 10000 5.7 360 06:59 18.09.2019
1750 Clouds 9 1023 71 10000 6.2 360 06:38 18.09.2019
1751 Clouds 10 1023 71 10000 5.1 10 05:46 18.09.2019
1752 Clouds 10 1023 66 10000 5.1 360 04:52 18.09.2019
1753 Clouds 11 1022 62 10000 4.6 360 02:54 18.09.2019
1754 Clouds 12 1022 62 10000 4.1 350 02:28 18.09.2019
1755 Clear 12 1022 62 10000 4.6 350 01:21 18.09.2019
1756 Clear 12 1022 71 10000 3.6 350 00:49 18.09.2019
1757 Clear 13 1022 71 10000 3.1 360 00:21 18.09.2019
1758 Clear 13 1022 71 10000 4.6 10 23:45 17.09.2019
1759 Clear 14 1021 81 10000 2.6 250 23:22 17.09.2019
1760 Clear 14 1021 82 10000 1 0 22:43 17.09.2019
1761 Clear 14 1021 82 10000 2.1 300 22:24 17.09.2019
1762 Clear 14 1021 87 10000 1.5 310 21:55 17.09.2019
1763 Clear 15 1020 82 10000 2.1 340 21:37 17.09.2019
1764 Clear 16 1020 82 10000 2.1 340 21:19 17.09.2019
1765 Clear 16 1020 82 10000 1.5 290 20:58 17.09.2019
1766 Clear 17 1020 77 10000 1.5 350 20:40 17.09.2019
1767 Clear 17 1020 77 10000 1.5 350 20:22 17.09.2019
1768 Clear 18 1020 63 10000 2.1 40 19:58 17.09.2019
1769 Clear 18 1020 63 10000 2.1 40 19:58 17.09.2019
1770 Clear 18 1020 64 10000 3.1 50 19:39 17.09.2019
1771 Clear 19 1020 64 10000 3.1 50 19:20 17.09.2019
1772 Clear 19 1019 64 10000 3.6 40 18:57 17.09.2019
1773 Clear 19 1019 60 10000 3.6 20 18:38 17.09.2019
1774 Clear 20 1019 60 10000 3.6 20 18:20 17.09.2019
1775 Clear 21 1019 60 10000 3.1 40 17:46 17.09.2019
1776 Clear 21 1019 60 10000 3.1 40 17:20 17.09.2019
1777 Clear 21 1019 64 10000 2.6 30 16:59 17.09.2019
1778 Clouds 21 1020 68 10000 2.6 50 16:40 17.09.2019
1779 Clouds 21 1020 68 10000 2.6 50 16:22 17.09.2019
1780 Clouds 21 1020 68 10000 2.6 50 16:22 17.09.2019
1781 Clouds 21 1020 72 10000 2.1 40 15:40 17.09.2019
1782 Clouds 21 1020 72 10000 2.1 40 15:21 17.09.2019
1783 Clouds 21 1020 72 10000 2.1 40 15:21 17.09.2019
1784 Clouds 21 1020 72 10000 2.1 40 15:21 17.09.2019
1785 Clouds 21 1020 68 10000 2.1 40 14:58 17.09.2019
1786 Clouds 21 1020 68 10000 2.1 40 14:40 17.09.2019
1787 Clouds 21 1020 72 10000 5.1 10 14:21 17.09.2019
1788 Clouds 21 1021 72 10000 5.1 30 13:59 17.09.2019
1789 Clouds 21 1021 72 10000 5.1 30 13:40 17.09.2019
1790 Clouds 21 1020 68 10000 5.7 30 13:22 17.09.2019
1791 Clouds 20 1020 72 10000 3.6 50 12:43 17.09.2019
1792 Clouds 20 1020 72 10000 3.6 50 12:20 17.09.2019
1793 Clouds 19 1020 68 10000 3.6 20 11:58 17.09.2019
1794 Clouds 19 1020 72 10000 3.1 50 11:40 17.09.2019
1795 Clouds 19 1020 72 10000 3.1 50 11:18 17.09.2019
1796 Clouds 19 1020 72 10000 3.1 50 11:18 17.09.2019
1797 Clouds 18 1020 77 10000 3.1 50 10:42 17.09.2019
1798 Clear 17 1020 77 10000 3.1 30 10:22 17.09.2019
1799 Clouds 16 1020 72 10000 1 0 09:58 17.09.2019
1800 Clear 16 1020 72 10000 1.5 0 09:40 17.09.2019
1801 Clear 15 1020 72 10000 1.5 0 09:20 17.09.2019
1802 Clear 15 1020 72 10000 1.11 339.396 08:44 17.09.2019
1803 Fog 14 1019 76 10000 1 260 08:25 17.09.2019
1804 Clear 13 1020 81 10000 1 0 07:55 17.09.2019
1805 Clouds 13 1019 81 10000 1.45 354.849 07:36 17.09.2019
1806 Clouds 13 1019 81 10000 1.45 354.849 07:18 17.09.2019
1807 Clear 13 1019 81 10000 1 0 06:45 17.09.2019
1808 Clear 14 1019 81 10000 1 0 06:19 17.09.2019
1809 Clear 14 1019 82 10000 0.5 0 05:35 17.09.2019
1810 Clear 14 1019 82 10000 1.89 359.606 04:26 17.09.2019
1811 Clear 15 1018 72 10000 1.18 353.617 02:55 17.09.2019
1812 Clear 15 1018 72 10000 1 240 02:35 17.09.2019
1813 Clear 16 1019 59 10000 1 0 01:24 17.09.2019
1814 Clear 17 1019 63 10000 1.5 310 00:32 17.09.2019
1815 Clear 18 1019 63 10000 1.65 338.044 23:38 16.09.2019
1816 Clear 18 1019 63 10000 1.65 338.044 23:18 16.09.2019
1817 Clear 18 1019 63 10000 1.65 338.044 23:18 16.09.2019
1818 Clear 19 1019 59 10000 1 0 22:43 16.09.2019
1819 Clear 20 1019 60 10000 1.5 220 22:25 16.09.2019
1820 Clear 20 1019 68 10000 1 0 21:59 16.09.2019
1821 Clear 20 1018 73 10000 1.5 290 21:40 16.09.2019
1822 Clear 21 1018 73 10000 1.5 290 21:22 16.09.2019
1823 Clear 22 1018 73 10000 2.6 350 20:59 16.09.2019
1824 Clear 22 1018 69 10000 2.1 330 20:40 16.09.2019
1825 Clear 22 1018 69 10000 2.1 330 20:20 16.09.2019
1826 Clear 22 1017 64 10000 2.1 360 19:57 16.09.2019
1827 Clear 24 1017 61 10000 3.1 20 19:38 16.09.2019
1828 Clear 24 1017 61 10000 3.1 20 19:18 16.09.2019
1829 Clear 25 1017 57 10000 2.6 20 18:46 16.09.2019
1830 Clear 26 1017 57 10000 3.1 20 18:27 16.09.2019
1831 Clear 26 1017 54 10000 2.6 40 17:57 16.09.2019
1832 Clear 26 1017 54 10000 2.6 40 17:57 16.09.2019
1833 Clear 27 1018 51 10000 2.6 40 17:38 16.09.2019
1834 Clear 27 1018 51 10000 2.6 40 17:20 16.09.2019
1835 Clear 28 1017 51 10000 2.1 50 16:54 16.09.2019
1836 -273 0 0 0 0 0 16:36 16.09.2019
1837 Clear 27 1018 54 10000 2.1 70 16:18 16.09.2019
1838 Clear 27 1018 51 10000 1.5 50 15:54 16.09.2019
1839 Clear 27 1018 54 10000 2.1 70 15:36 16.09.2019
1840 Clear 27 1018 54 10000 2.1 70 15:18 16.09.2019
1841 Clear 27 1019 54 10000 2.1 90 14:40 16.09.2019
1842 Clear 26 1019 57 10000 2.1 50 14:22 16.09.2019
1843 Clear 27 1019 61 10000 1.5 70 13:57 16.09.2019
1844 Clear 26 1020 61 10000 1 0 13:38 16.09.2019
1845 Clear 26 1020 61 10000 1 0 13:19 16.09.2019
1846 Clear 25 1020 60 10000 1.5 0 12:40 16.09.2019
1847 Clear 24 1020 60 10000 1.5 0 12:22 16.09.2019
1848 Clear 23 1020 68 10000 1.5 0 11:54 16.09.2019
1849 Clear 23 1020 68 10000 2.1 40 11:36 16.09.2019
1850 Clear 22 1020 68 10000 2.1 40 11:18 16.09.2019
1851 Clear 21 1021 72 10000 1 0 10:38 16.09.2019
1852 Clear 19 1021 72 10000 1 0 10:19 16.09.2019
1853 Clear 19 1021 77 10000 1.5 360 09:57 16.09.2019
1854 Clear 18 1021 88 10000 1 320 09:38 16.09.2019
1855 Clear 17 1021 88 10000 1 320 09:18 16.09.2019
1856 Clear 16 1021 87 10000 1 350 08:42 16.09.2019
1857 Clear 15 1020 93 10000 0.5 0 08:24 16.09.2019
1858 Clear 15 1020 100 10000 1.5 350 07:56 16.09.2019
1859 Clear 14 1020 93 10000 1.5 0 07:37 16.09.2019
1860 Clear 14 1020 93 10000 1.5 0 07:18 16.09.2019
1861 Clear 14 1020 93 10000 1 0 06:43 16.09.2019
1862 Clear 15 1020 93 10000 1 0 06:25 16.09.2019
1863 Clear 15 1020 87 10000 2.1 190 05:44 16.09.2019
1864 Clear 15 1020 87 10000 2.6 210 05:26 16.09.2019
1865 Clear 15 1021 82 10000 3.1 200 03:52 16.09.2019
1866 Clear 16 1021 72 10000 4.6 270 01:57 16.09.2019
1867 Clear 17 1022 72 10000 3.1 280 00:44 16.09.2019
1868 Clear 17 1022 72 10000 3.1 280 00:25 16.09.2019
1869 Clear 18 1021 72 10000 4.6 270 23:42 15.09.2019
1870 Clear 18 1021 68 10000 4.6 270 23:21 15.09.2019
1871 Clear 18 1021 68 10000 4.6 270 22:56 15.09.2019
1872 Clear 18 1021 73 10000 3.6 280 22:36 15.09.2019
1873 Clear 19 1021 73 10000 3.6 280 22:18 15.09.2019
1874 Clear 19 1021 77 10000 3.1 280 21:55 15.09.2019
1875 Clear 20 1021 77 10000 1.5 0 21:36 15.09.2019
1876 Clear 21 1021 77 10000 1.5 0 21:18 15.09.2019
1877 Clear 21 1021 73 10000 1 0 20:42 15.09.2019
1878 Clear 22 1021 69 10000 1.5 330 20:24 15.09.2019
1879 Clear 22 1021 64 10000 2.6 350 19:46 15.09.2019
1880 Clear 24 1021 57 10000 2.1 10 19:26 15.09.2019
1881 Clear 25 1021 51 10000 2.1 40 18:55 15.09.2019
1882 Clear 26 1021 51 10000 1.5 40 18:36 15.09.2019
1883 Clear 27 1021 51 10000 1.5 40 18:18 15.09.2019
1884 Clear 26 1021 51 10000 2.1 50 17:41 15.09.2019
1885 Clear 27 1021 51 10000 1.5 70 17:21 15.09.2019
1886 Clear 27 1022 48 10000 2.1 100 16:56 15.09.2019
1887 Clear 27 1022 48 10000 2.1 70 16:38 15.09.2019
1888 Clear 27 1022 48 10000 2.1 70 16:20 15.09.2019
1889 Clear 27 1023 51 10000 1.5 100 15:41 15.09.2019
1890 Clear 27 1023 51 10000 1.5 100 15:21 15.09.2019
1891 Clear 26 1023 54 10000 2.1 0 14:59 15.09.2019
1892 Clear 27 1023 54 10000 1.5 0 14:41 15.09.2019
1893 Clear 27 1023 54 10000 1.5 0 14:23 15.09.2019
1894 Clear 27 1024 57 10000 1.5 0 13:55 15.09.2019
1895 Clear 26 1024 57 10000 1.5 0 13:37 15.09.2019
1896 Clear 26 1024 57 10000 1.5 0 13:18 15.09.2019
1897 Clear 25 1025 60 10000 3.1 170 12:40 15.09.2019
1898 Clear 23 1025 60 10000 3.1 170 12:22 15.09.2019
1899 Clear 23 1025 60 10000 1.5 140 11:54 15.09.2019
1900 Clear 22 1025 68 10000 1.5 0 11:36 15.09.2019
1901 Clear 21 1025 68 10000 1.5 0 11:18 15.09.2019
1902 Clear 20 1025 68 10000 1 0 10:41 15.09.2019
1903 Clear 19 1025 68 10000 1 0 10:22 15.09.2019
1904 Clear 18 1025 77 10000 0.5 0 09:57 15.09.2019
1905 Clear 18 1025 82 10000 1 0 09:37 15.09.2019
1906 Clear 16 1025 82 10000 1 0 09:18 15.09.2019
1907 Clear 15 1025 93 10000 1 360 08:44 15.09.2019
1908 Fog 14 1025 93 10000 1 0 08:25 15.09.2019
1909 Clear 13 1025 100 10000 1.17 212.674 07:48 15.09.2019
1910 Clear 13 1025 93 10000 2.1 190 07:25 15.09.2019
1911 Clear 13 1025 93 10000 1.5 190 06:39 15.09.2019
1912 Fog 15 1026 87 10000 2.1 250 03:25 15.09.2019
1913 Clear 15 1026 77 10000 3.1 280 02:32 15.09.2019
1914 Clear 15 1026 77 10000 3.1 260 01:39 15.09.2019
1915 Clear 15 1026 77 10000 3.1 260 01:39 15.09.2019
1916 Clear 16 1026 77 10000 3.1 260 01:19 15.09.2019
1917 Clear 16 1027 82 10000 4.1 270 00:41 15.09.2019
1918 Clear 16 1027 82 10000 4.1 270 00:21 15.09.2019
1919 Clear 17 1027 82 10000 4.1 270 23:58 14.09.2019
1920 Clear 17 1027 82 10000 4.1 270 23:39 14.09.2019
1921 Clear 17 1027 82 10000 4.1 270 23:21 14.09.2019
1922 Clear 17 1027 82 10000 3.6 270 22:59 14.09.2019
1923 Clear 18 1027 77 10000 3.6 270 22:40 14.09.2019
1924 Clear 18 1027 77 10000 3.6 270 22:40 14.09.2019
1925 Clear 18 1027 77 10000 3.6 270 22:19 14.09.2019
1926 Clear 18 1027 77 10000 3.6 270 22:19 14.09.2019
1927 Clear 18 1027 82 10000 2.6 280 21:55 14.09.2019
1928 Clear 18 1027 82 10000 1 0 21:36 14.09.2019
1929 Clear 19 1027 82 10000 1 0 21:18 14.09.2019
1930 Clear 20 1027 77 10000 1 0 20:40 14.09.2019
1931 Clear 20 1027 77 10000 1 0 20:40 14.09.2019
1932 Clear 21 1027 77 10000 1 0 20:22 14.09.2019
1933 Clear 20 1027 68 10000 1 0 19:59 14.09.2019
1934 Clear 20 1027 68 10000 1 0 19:59 14.09.2019
1935 Clear 21 1027 60 10000 1 0 19:40 14.09.2019
1936 Clear 22 1027 60 10000 1 0 19:20 14.09.2019
1937 Clear 23 1027 60 10000 2.1 40 18:42 14.09.2019
1938 Clear 24 1027 60 10000 2.1 40 18:22 14.09.2019
1939 Clear 24 1027 60 10000 3.1 10 17:59 14.09.2019
1940 Clear 24 1027 57 10000 4.1 10 17:39 14.09.2019
1941 Clear 24 1027 57 10000 4.1 10 17:21 14.09.2019
1942 Clear 24 1027 57 10000 4.1 10 17:21 14.09.2019
1943 Clear 24 1027 57 10000 4.1 10 17:21 14.09.2019
1944 Clear 24 1027 57 10000 4.1 10 17:21 14.09.2019
1945 Clear 25 1027 57 10000 3.1 20 16:44 14.09.2019
1946 Clear 25 1028 57 10000 2.6 360 16:24 14.09.2019
1947 Clear 24 1028 60 10000 2.6 50 15:56 14.09.2019
1948 Clear 24 1028 60 10000 2.6 50 15:56 14.09.2019
1949 Clear 24 1028 60 10000 2.6 0 15:38 14.09.2019
1950 Clear 24 1028 60 10000 2.6 0 15:18 14.09.2019
1951 Clear 24 1028 60 10000 2.6 50 14:43 14.09.2019
1952 Clear 23 1029 64 10000 3.1 360 14:19 14.09.2019
1953 Clear 23 1029 64 10000 3.6 20 13:48 14.09.2019
1954 Clouds 23 1029 60 10000 2.6 360 13:23 14.09.2019
1955 Clear 22 1030 64 10000 2.1 80 12:58 14.09.2019
1956 Clear 21 1030 68 10000 2.1 80 12:37 14.09.2019
1957 Clear 21 1030 68 10000 2.1 80 12:18 14.09.2019
1958 Mist 19 1031 72 10000 2.1 30 11:40 14.09.2019
1959 Mist 18 1031 72 10000 2.1 30 11:19 14.09.2019
1960 Mist 18 1031 72 10000 3.6 30 10:38 14.09.2019
1961 Mist 17 1031 72 10000 3.6 30 10:20 14.09.2019
1962 Fog 16 1031 82 10000 3.1 10 09:57 14.09.2019
1963 Clear 16 1031 82 10000 2.1 360 09:39 14.09.2019
1964 Mist 15 1031 82 10000 2.1 360 09:19 14.09.2019
1965 Mist 15 1031 82 10000 1.5 0 08:46 14.09.2019
1966 Mist 14 1030 87 10000 2.1 310 08:23 14.09.2019
1967 Clear 14 1030 87 10000 2.6 320 07:47 14.09.2019
1968 Clear 14 1030 87 10000 2.1 320 07:28 14.09.2019
1969 Clear 13 1030 87 10000 2.1 310 06:52 14.09.2019
1970 Clear 13 1030 87 10000 2.1 310 06:52 14.09.2019
1971 Clear 14 1030 87 10000 2.1 320 06:28 14.09.2019
1972 Clear 14 1030 87 10000 3.1 360 05:26 14.09.2019
1973 Clear 14 1030 87 10000 1.5 330 03:46 14.09.2019
1974 Clear 15 1031 82 10000 1.5 280 02:54 14.09.2019
1975 Clear 15 1031 82 10000 2.6 300 01:54 14.09.2019
1976 Clear 16 1031 82 10000 2.6 280 01:23 14.09.2019
1977 Clear 16 1031 82 10000 1.5 310 00:59 14.09.2019
1978 Clouds 16 1031 82 10000 1.5 320 00:39 14.09.2019
1979 Clouds 16 1031 82 10000 1.5 320 00:39 14.09.2019
1980 Clouds 17 1031 82 10000 1.5 320 00:21 14.09.2019
1981 Clouds 17 1031 82 10000 1.5 320 00:21 14.09.2019
1982 Clear 17 1031 77 10000 2.6 330 23:38 13.09.2019
1983 Clear 17 1031 77 10000 2.6 330 23:19 13.09.2019
1984 Clear 18 1031 77 10000 3.1 350 22:59 13.09.2019
1985 Clear 18 1031 77 10000 3.6 360 22:39 13.09.2019
1986 Clear 18 1031 77 10000 3.6 360 22:20 13.09.2019
1987 Clear 18 1031 77 10000 3.6 10 21:56 13.09.2019
1988 Clear 19 1031 72 10000 3.1 10 21:37 13.09.2019
1989 Clear 19 1031 72 10000 3.1 10 21:19 13.09.2019
1990 Clear 20 1031 72 10000 3.6 10 20:55 13.09.2019
1991 Clear 20 1030 64 10000 3.1 20 20:36 13.09.2019
1992 Clear 20 1030 64 10000 3.1 20 20:18 13.09.2019
1993 Clear 21 1030 53 10000 3.6 40 19:43 13.09.2019
1994 Clear 22 1030 53 10000 3.6 40 19:21 13.09.2019
1995 Clear 23 1030 50 10000 2.6 40 18:58 13.09.2019
1996 Clear 23 1030 50 10000 3.6 40 18:37 13.09.2019
1997 Clear 24 1030 50 10000 3.6 40 18:19 13.09.2019
1998 Clear 25 1030 53 10000 3.6 40 17:44 13.09.2019
1999 Clear 25 1030 53 10000 3.6 20 17:21 13.09.2019
2000 Clear 25 1030 53 10000 3.1 40 16:59 13.09.2019
2001 Clear 25 1030 57 10000 3.1 50 16:39 13.09.2019
2002 Clear 25 1030 57 10000 3.1 50 16:18 13.09.2019
2003 Clear 25 1031 60 10000 2.6 60 15:42 13.09.2019
2004 Clouds 25 1031 57 10000 3.6 40 15:23 13.09.2019
2005 Clouds 25 1031 60 10000 2.6 30 14:55 13.09.2019
2006 Clouds 25 1031 60 10000 2.6 30 14:55 13.09.2019
2007 Clouds 25 1031 60 10000 2.6 30 14:55 13.09.2019
2008 Clouds 24 1032 60 10000 3.1 60 14:36 13.09.2019
2009 Clouds 24 1032 60 10000 3.1 60 14:18 13.09.2019
2010 Clear 24 1032 60 10000 2.6 30 13:41 13.09.2019
2011 Clear 24 1032 60 10000 2.6 50 13:22 13.09.2019
2012 Clear 23 1032 68 10000 3.1 40 12:45 13.09.2019
2013 Clear 22 1032 64 10000 3.1 60 12:25 13.09.2019
2014 Clear 22 1032 68 10000 1.5 40 11:57 13.09.2019
2015 Clear 20 1032 68 10000 1.5 0 11:20 13.09.2019
2016 Clear 20 1032 72 10000 1 0 10:59 13.09.2019
2017 Clear 19 1032 72 10000 1 0 10:37 13.09.2019
2018 Clear 18 1032 72 10000 1 0 10:18 13.09.2019
2019 Clear 17 1032 72 10000 1 0 09:43 13.09.2019
2020 Clear 15 1032 82 10000 1.5 120 09:21 13.09.2019
2021 Clear 14 1032 82 10000 1.5 0 08:58 13.09.2019
2022 Clear 14 1032 87 10000 1.5 0 08:39 13.09.2019
2023 Clear 13 1032 87 10000 1.5 0 08:20 13.09.2019
2024 Clear 12 1032 93 10000 1.5 230 07:43 13.09.2019
2025 Clear 12 1032 87 10000 2.6 200 07:24 13.09.2019
2026 Clear 12 1032 93 10000 3.1 200 06:39 13.09.2019
2027 Clear 12 1031 87 10000 1.5 180 05:43 13.09.2019
2028 Clear 12 1031 93 10000 0.14 61.728 04:39 13.09.2019
2029 Clear 13 1031 93 10000 0.14 61.728 03:37 13.09.2019
2030 Clear 14 1032 82 10000 2.1 210 02:20 13.09.2019
2031 Clear 14 1031 82 10000 0.18 302.447 01:42 13.09.2019
2032 Clear 14 1031 82 10000 0.77 357.085 01:21 13.09.2019
2033 Clear 14 1031 77 10000 0.5 220 00:37 13.09.2019
2034 Clear 15 1031 72 10000 1 0 23:57 12.09.2019
2035 Clear 15 1031 72 10000 1 200 23:35 12.09.2019
2036 Clear 15 1031 72 10000 0.64 346.248 22:59 12.09.2019
2037 Clear 16 1031 72 10000 0.64 346.248 22:41 12.09.2019
2038 Clear 16 1031 63 10000 3.6 280 22:23 12.09.2019
2039 Clear 17 1031 63 10000 4.1 280 21:57 12.09.2019
2040 Clear 17 1030 68 10000 1.5 270 21:37 12.09.2019
2041 Clear 18 1030 68 10000 1.5 270 21:19 12.09.2019
2042 Clear 18 1030 68 10000 1.5 270 21:19 12.09.2019
2043 Clear 19 1030 64 10000 1 0 20:55 12.09.2019
2044 Clear 20 1030 60 10000 1.5 330 20:37 12.09.2019
2045 Clear 20 1030 60 10000 1.5 330 20:19 12.09.2019
2046 Clear 21 1030 46 10000 2.1 190 19:41 12.09.2019
2047 Clear 22 1030 44 10000 2.6 190 19:20 12.09.2019
2048 Clear 22 1030 38 10000 2.1 180 18:58 12.09.2019
2049 Clear 24 1030 39 10000 3.1 170 18:37 12.09.2019
2050 Clear 25 1030 39 10000 3.1 170 18:18 12.09.2019
2051 Clear 25 1030 39 10000 2.6 200 17:54 12.09.2019
2052 Clear 25 1030 39 10000 2.6 170 17:36 12.09.2019
2053 Clear 25 1030 39 10000 2.6 170 17:18 12.09.2019
2054 Clear 25 1030 36 10000 1.5 0 16:41 12.09.2019
2055 Clear 25 1030 36 10000 1.5 0 16:21 12.09.2019
2056 Clear 25 1030 38 10000 2.1 0 15:43 12.09.2019
2057 Clear 25 1030 38 10000 2.1 90 15:24 12.09.2019
2058 Clear 24 1031 38 10000 2.1 110 14:58 12.09.2019
2059 Clear 24 1031 38 10000 1.5 0 14:39 12.09.2019
2060 Clear 24 1031 38 10000 1.5 0 14:20 12.09.2019
2061 Clear 24 1031 43 10000 1.5 0 13:39 12.09.2019
2062 Clear 23 1031 43 10000 1.5 0 13:21 12.09.2019
2063 Clear 23 1031 43 10000 1.5 0 12:49 12.09.2019
2064 Clear 21 1031 46 10000 1.5 0 12:20 12.09.2019
2065 Clear 21 1031 52 10000 1 0 11:58 12.09.2019
2066 Clear 20 1031 59 10000 1.5 170 11:40 12.09.2019
2067 Rain 20 1031 59 10000 1.5 170 11:21 12.09.2019
2068 Clear 19 1031 59 10000 2.6 160 10:56 12.09.2019
2069 Clear 18 1031 63 10000 2.1 180 10:37 12.09.2019
2070 Clear 17 1031 63 10000 2.1 180 10:18 12.09.2019
2071 Clear 15 1030 71 10000 3.1 170 09:43 12.09.2019
2072 Clear 14 1030 71 10000 3.1 170 09:20 12.09.2019
2073 Clear 13 1030 81 10000 2.6 180 08:45 12.09.2019
2074 Clear 12 1030 87 10000 3.1 180 08:25 12.09.2019
2075 Clear 11 1030 87 10000 2.1 180 07:56 12.09.2019
2076 Clear 11 1029 87 10000 2.1 170 07:38 12.09.2019
2077 Clear 11 1029 87 10000 2.1 170 07:18 12.09.2019
2078 Clear 11 1029 87 10000 2.1 180 06:46 12.09.2019
2079 Clear 11 1029 87 10000 1.5 180 06:19 12.09.2019
2080 Clear 11 1029 87 10000 1 160 05:47 12.09.2019
2081 Clear 11 1029 87 10000 2.1 170 05:27 12.09.2019
2082 Clear 12 1029 71 10000 3.1 180 03:59 12.09.2019
2083 Clear 13 1028 59 10000 3.6 250 01:47 12.09.2019
2084 Clear 13 1028 62 10000 2.6 250 01:28 12.09.2019
2085 Clear 13 1028 62 10000 3.1 270 00:50 12.09.2019
2086 Clear 14 1028 67 10000 3.6 260 00:31 12.09.2019
2087 Clear 14 1028 71 10000 1.5 0 23:55 11.09.2019
2088 Clear 15 1028 76 10000 0.39 189.148 23:36 11.09.2019
2089 Clear 15 1028 76 10000 0.39 189.148 23:18 11.09.2019
2090 Clear 15 1027 82 10000 1.5 240 22:55 11.09.2019
2091 Clear 16 1027 72 10000 1.5 230 22:36 11.09.2019
2092 Clear 16 1027 72 10000 1.5 230 22:18 11.09.2019
2093 Clear 16 1027 77 10000 1 240 21:41 11.09.2019
2094 Clear 16 1027 77 10000 1 240 21:23 11.09.2019
2095 Rain 17 1026 77 10000 0.5 0 20:56 11.09.2019
2096 Rain 17 1026 77 10000 0.5 0 20:38 11.09.2019
2097 Rain 17 1026 77 10000 0.5 0 20:19 11.09.2019
2098 Rain 17 1026 77 10000 0.5 0 20:19 11.09.2019
2099 Rain 17 1026 77 10000 0.5 0 20:19 11.09.2019
2100 Clear 17 1026 55 10000 1.5 210 19:57 11.09.2019
2101 Clear 17 1026 59 10000 2.1 200 19:39 11.09.2019
2102 Clear 18 1026 59 10000 2.1 200 19:19 11.09.2019
2103 Clear 17 1025 56 10000 1.5 190 18:55 11.09.2019
2104 Clear 18 1025 52 10000 1.5 190 18:37 11.09.2019
2105 Clear 20 1025 52 10000 1.5 190 18:18 11.09.2019
2106 -273 0 0 0 0 0 17:41 11.09.2019
2107 Clear 20 1025 52 10000 2.1 190 17:22 11.09.2019
2108 Clear 20 1025 52 10000 1.5 200 16:59 11.09.2019
2109 Clear 20 1025 49 10000 0.5 0 16:40 11.09.2019
2110 Clear 21 1025 49 10000 0.5 0 16:21 11.09.2019
2111 Clear 20 1025 49 10000 0.71 158.229 15:47 11.09.2019
2112 Clear 21 1025 49 10000 0.5 0 15:24 11.09.2019
2113 Clear 21 1025 52 10000 1 0 14:59 11.09.2019
2114 Clear 21 1025 52 10000 1 0 14:41 11.09.2019
2115 Clear 21 1025 52 10000 1.5 0 14:21 11.09.2019
2116 Clear 21 1024 52 10000 1 0 13:59 11.09.2019
2117 Clear 21 1024 52 10000 1.5 0 13:37 11.09.2019
2118 Clear 21 1024 52 10000 1.5 0 13:19 11.09.2019
2119 Clear 20 1024 55 10000 1 0 12:43 11.09.2019
2120 Clear 19 1024 59 10000 1.5 100 12:22 11.09.2019
2121 Clear 19 1024 55 10000 1.5 0 11:58 11.09.2019
2122 Clear 18 1024 59 10000 1.5 0 11:39 11.09.2019
2123 Clear 18 1024 59 10000 1.5 0 11:39 11.09.2019
2124 Clear 17 1024 59 10000 1.5 0 11:21 11.09.2019
2125 Clear 16 1024 63 10000 1 0 10:55 11.09.2019
2126 Clear 16 1024 63 10000 1 0 10:37 11.09.2019
2127 Clear 15 1024 63 10000 1 0 10:18 11.09.2019
2128 Clear 13 1024 76 10000 2.1 180 09:38 11.09.2019
2129 Clear 12 1024 76 10000 2.1 180 09:19 11.09.2019
2130 Clear 10 1023 81 10000 0.5 220 08:42 11.09.2019
2131 Clear 10 1023 81 10000 0.5 220 08:22 11.09.2019
2132 Fog 9 1023 87 10000 1 170 07:59 11.09.2019
2133 Fog 9 1023 87 10000 1 0 07:39 11.09.2019
2134 Fog 8 1023 87 10000 1 0 07:21 11.09.2019
2135 Clear 9 1022 87 10000 1 0 06:46 11.09.2019
2136 Clear 9 1022 87 10000 1 0 06:24 11.09.2019
2137 Clear 9 1021 81 10000 1 0 05:36 11.09.2019
2138 Clear 9 1021 76 10000 2.6 270 04:59 11.09.2019
2139 Clear 10 1021 76 10000 2.6 280 04:22 11.09.2019
2140 Clear 10 1021 93 10000 1.5 210 03:29 11.09.2019
2141 Clear 10 1021 71 10000 4.6 270 02:37 11.09.2019
2142 Clear 11 1021 71 10000 4.1 270 01:33 11.09.2019
2143 Clear 11 1020 71 10000 4.1 270 00:46 11.09.2019
2144 Clear 11 1020 71 10000 3.6 270 00:20 11.09.2019
2145 Clear 12 1020 71 10000 4.1 280 23:41 10.09.2019
2146 Clear 12 1020 71 10000 4.1 280 23:41 10.09.2019
2147 Clear 12 1020 71 10000 4.1 280 23:22 10.09.2019
2148 Clear 13 1020 67 10000 4.1 270 22:57 10.09.2019
2149 Clear 13 1020 67 10000 3.6 280 22:38 10.09.2019
2150 Clear 13 1020 67 10000 3.6 280 22:19 10.09.2019
2151 Clear 14 1019 67 10000 3.6 280 21:55 10.09.2019
2152 Clear 14 1019 67 10000 3.6 280 21:55 10.09.2019
2153 Clear 13 1019 71 10000 2.1 290 21:37 10.09.2019
2154 Clear 15 1019 71 10000 2.1 290 21:18 10.09.2019
2155 Clear 15 1019 71 10000 2.1 320 20:57 10.09.2019
2156 Clear 16 1018 63 10000 2.1 330 20:38 10.09.2019
2157 Clear 16 1018 63 10000 2.1 330 20:19 10.09.2019
2158 Clear 17 1018 55 10000 2.1 20 19:55 10.09.2019
2159 Clear 18 1018 48 10000 3.1 20 19:37 10.09.2019
2160 Clear 18 1018 48 10000 3.1 20 19:37 10.09.2019
2161 Clear 18 1018 48 10000 3.1 20 19:18 10.09.2019
2162 Clear 19 1017 45 10000 3.1 30 18:46 10.09.2019
2163 Clear 19 1017 49 10000 3.6 20 18:23 10.09.2019
2164 Clear 20 1017 45 10000 3.1 30 17:59 10.09.2019
2165 Clear 20 1017 40 10000 3.1 40 17:41 10.09.2019
2166 Clear 20 1017 40 10000 3.1 40 17:21 10.09.2019
2167 Clear 20 1017 43 10000 2.1 30 16:58 10.09.2019
2168 Clear 21 1017 46 10000 2.1 40 16:39 10.09.2019
2169 Clear 21 1017 46 10000 2.1 40 16:20 10.09.2019
2170 Clear 21 1017 43 10000 2.6 30 15:57 10.09.2019
2171 Clear 21 1017 46 10000 3.1 30 15:39 10.09.2019
2172 Clear 20 1017 46 10000 3.1 30 15:20 10.09.2019
2173 Clear 20 1017 55 10000 1.5 50 14:41 10.09.2019
2174 Clear 20 1017 55 10000 1.5 50 14:22 10.09.2019
2175 Clear 20 1017 55 10000 2.6 10 13:54 10.09.2019
2176 Clear 19 1017 55 10000 1.5 40 13:36 10.09.2019
2177 Clear 19 1017 55 10000 1.5 40 13:36 10.09.2019
2178 Clear 19 1017 55 10000 1.5 40 13:18 10.09.2019
2179 Clear 18 1017 59 10000 2.6 50 12:42 10.09.2019
2180 Clear 17 1017 59 10000 2.6 50 12:24 10.09.2019
2181 Clear 17 1017 67 10000 3.1 30 11:56 10.09.2019
2182 Clear 16 1017 67 10000 2.6 40 11:38 10.09.2019
2183 Clear 16 1017 67 10000 2.6 40 11:20 10.09.2019
2184 Clear 14 1016 71 10000 2.6 10 10:39 10.09.2019
2185 Clear 13 1016 71 10000 2.6 10 10:19 10.09.2019
2186 Clear 13 1016 71 10000 2.6 10 10:19 10.09.2019
2187 Clear 12 1016 71 10000 2.1 20 09:55 10.09.2019
2188 Clear 12 1016 76 10000 2.1 360 09:37 10.09.2019
2189 Clear 10 1016 87 10000 1 0 09:18 10.09.2019
2190 Fog 10 1016 87 10000 0.5 0 08:43 10.09.2019
2191 Fog 9 1016 87 10000 0.5 0 08:24 10.09.2019
2192 Fog 9 1016 87 10000 0.5 0 08:24 10.09.2019
2193 Clear 9 1015 93 10000 1.5 330 07:44 10.09.2019
2194 Clear 9 1015 93 10000 1.5 330 07:26 10.09.2019
2195 Clear 9 1015 93 10000 1.5 330 07:26 10.09.2019
2196 Clear 9 1015 93 10000 1.5 350 06:53 10.09.2019
2197 Clear 9 1015 93 10000 1 0 06:35 10.09.2019
2198 Clear 9 1015 93 10000 1 220 05:24 10.09.2019
2199 Clear 9 1015 81 10000 0.5 0 03:50 10.09.2019
2200 Clear 10 1015 71 10000 3.1 270 02:23 10.09.2019
2201 Clear 10 1015 71 10000 3.1 270 02:23 10.09.2019
2202 Clear 10 1015 71 10000 3.1 270 02:23 10.09.2019
2203 Clear 10 1015 76 10000 5.1 270 01:57 10.09.2019
2204 Clear 10 1015 76 10000 5.1 270 01:57 10.09.2019
2205 Clear 10 1015 76 10000 4.1 270 01:39 10.09.2019
2206 Clear 10 1015 76 10000 3.6 280 00:54 10.09.2019
2207 Clear 10 1015 76 10000 4.1 270 00:25 10.09.2019
2208 Clear 10 1015 76 10000 3.1 270 23:47 09.09.2019
2209 Clear 11 1015 76 10000 3.1 270 23:20 09.09.2019
2210 Clear 11 1015 76 10000 3.6 270 22:57 09.09.2019
2211 Clear 11 1015 81 10000 3.6 270 22:39 09.09.2019
2212 Clear 11 1015 81 10000 3.6 270 22:20 09.09.2019
2213 Clear 11 1015 81 10000 2.1 270 21:57 09.09.2019
2214 Clear 12 1015 81 10000 1.5 270 21:39 09.09.2019
2215 Clear 12 1015 81 10000 1.5 270 21:20 09.09.2019
2216 Clear 12 1015 81 10000 1.5 270 21:20 09.09.2019
2217 Clear 12 1015 76 10000 1 0 20:56 09.09.2019
2218 Clear 13 1015 71 10000 1.5 0 20:37 09.09.2019
2219 Clear 13 1015 71 10000 1.5 0 20:19 09.09.2019
2220 Clear 13 1015 62 10000 1 340 19:58 09.09.2019
2221 Clear 14 1015 67 10000 1.5 340 19:39 09.09.2019
2222 Clear 15 1015 67 10000 1.5 340 19:19 09.09.2019
2223 Clear 16 1015 51 10000 1 0 18:58 09.09.2019
2224 Clouds 16 1015 55 10000 1.5 350 18:40 09.09.2019
2225 Clouds 17 1015 55 10000 1.5 350 18:21 09.09.2019
2226 Clear 17 1015 55 10000 1.5 350 17:58 09.09.2019
2227 Clear 17 1015 55 10000 2.1 340 17:40 09.09.2019
2228 Clear 17 1015 55 10000 2.1 340 17:21 09.09.2019
2229 Clear 17 1015 48 10000 1 0 16:56 09.09.2019
2230 Clear 17 1015 55 10000 1.5 0 16:38 09.09.2019
2231 Clear 17 1015 55 10000 1.5 0 16:19 09.09.2019
2232 Clear 17 1015 51 10000 3.1 220 15:56 09.09.2019
2233 Clear 17 1015 51 10000 3.1 220 15:56 09.09.2019
2234 Clear 17 1016 55 10000 3.1 200 15:37 09.09.2019
2235 Clear 17 1016 55 10000 3.1 200 15:37 09.09.2019
2236 Clouds 16 1016 58 10000 2.6 160 15:18 09.09.2019
2237 Clouds 16 1016 58 10000 2.6 160 14:55 09.09.2019
2238 Clear 16 1016 62 10000 4.1 180 14:37 09.09.2019
2239 Clear 17 1016 62 10000 4.1 180 14:19 09.09.2019
2240 Clouds 16 1017 72 10000 4.6 200 13:44 09.09.2019
2241 Clouds 16 1017 72 10000 4.6 200 13:20 09.09.2019
2242 Clouds 16 1016 59 10000 1 0 12:58 09.09.2019
2243 Clouds 16 1017 59 10000 1 0 12:38 09.09.2019
2244 Clouds 15 1017 59 10000 1 0 12:20 09.09.2019
2245 Clouds 14 1017 67 10000 2.1 60 11:47 09.09.2019
2246 Clouds 14 1017 67 10000 2.1 60 11:47 09.09.2019
2247 Clouds 13 1017 72 10000 2.1 100 11:23 09.09.2019
2248 Clouds 13 1017 76 10000 2.1 140 10:59 09.09.2019
2249 Clouds 13 1018 76 10000 1.5 150 10:41 09.09.2019
2250 Clouds 13 1018 76 10000 1.5 150 10:41 09.09.2019
2251 Clouds 12 1018 76 10000 1.5 150 10:21 09.09.2019
2252 Clouds 12 1017 87 10000 1.5 140 09:57 09.09.2019
2253 Clouds 12 1017 87 10000 1.5 140 09:57 09.09.2019
2254 Clouds 11 1017 93 10000 1.5 120 09:38 09.09.2019
2255 Clouds 11 1017 93 10000 1.5 120 09:19 09.09.2019
2256 Clouds 10 1017 93 10000 1 0 08:39 09.09.2019
2257 Clouds 10 1017 93 10000 1 0 08:20 09.09.2019
2258 Clear 10 1017 87 10000 1 0 07:47 09.09.2019
2259 Clear 10 1017 87 10000 1 0 07:23 09.09.2019
2260 Clouds 10 1017 93 10000 2.1 210 06:58 09.09.2019
2261 Clear 10 1017 93 10000 2.1 200 06:40 09.09.2019
2262 Clear 10 1017 93 10000 2.6 150 04:56 09.09.2019
2263 Clear 10 1017 93 10000 2.6 150 04:56 09.09.2019
2264 Rain 10 1017 100 10000 1 0 02:59 09.09.2019
2265 Rain 10 1017 100 10000 1 0 02:39 09.09.2019
2266 Clear 11 1017 87 10000 1.5 200 00:50 09.09.2019
2267 Rain 11 1018 87 10000 2.6 190 00:22 09.09.2019
2268 Rain 11 1018 93 10000 2.6 180 23:46 08.09.2019
2269 Clouds 11 1018 93 10000 2.6 180 23:26 08.09.2019
2270 Clear 11 1018 93 10000 2.6 200 22:57 08.09.2019
2271 Rain 11 1018 93 10000 1.5 160 22:38 08.09.2019
2272 Rain 11 1018 93 10000 1.5 160 22:20 08.09.2019
2273 Rain 11 1018 93 10000 1.5 180 21:55 08.09.2019
2274 Rain 11 1018 93 10000 1.5 130 21:36 08.09.2019
2275 Rain 11 1018 93 10000 2.1 180 21:18 08.09.2019
2276 Rain 12 1017 87 10000 2.6 220 20:40 08.09.2019
2277 Rain 12 1017 87 10000 2.6 220 20:22 08.09.2019
2278 Rain 12 1017 87 10000 1.5 180 19:59 08.09.2019
2279 Rain 12 1017 87 10000 2.6 190 19:39 08.09.2019
2280 Rain 12 1017 87 10000 2.6 190 19:21 08.09.2019
2281 Rain 12 1017 87 10000 2.1 190 18:58 08.09.2019
2282 Rain 12 1017 87 10000 1.5 0 18:38 08.09.2019
2283 Rain 13 1017 87 10000 1.5 0 18:19 08.09.2019
2284 Rain 13 1017 87 10000 1.5 0 18:19 08.09.2019
2285 Rain 13 1017 93 10000 1 0 17:57 08.09.2019
2286 Rain 13 1017 87 10000 2.6 40 17:37 08.09.2019
2287 Rain 13 1017 87 10000 2.6 40 17:18 08.09.2019
2288 Rain 13 1017 77 10000 3.1 350 16:45 08.09.2019
2289 Rain 13 1017 77 10000 3.1 350 16:23 08.09.2019
2290 Rain 13 1016 67 10000 1.5 0 15:59 08.09.2019
2291 Rain 13 1017 67 10000 1.5 330 15:41 08.09.2019
2292 Rain 13 1017 72 10000 4.6 60 15:21 08.09.2019
2293 Rain 13 1017 72 10000 1.5 300 14:58 08.09.2019
2294 Rain 13 1017 72 10000 1 0 14:39 08.09.2019
2295 Rain 13 1017 72 10000 1 0 14:20 08.09.2019
2296 Rain 13 1017 76 10000 1.5 0 13:57 08.09.2019
2297 Rain 14 1017 82 10000 1.5 280 13:38 08.09.2019
2298 Rain 13 1017 82 10000 1.5 0 13:19 08.09.2019
2299 Rain 13 1018 87 10000 1 310 12:43 08.09.2019
2300 Rain 13 1018 87 10000 1 310 12:24 08.09.2019
2301 Rain 13 1018 87 10000 1 310 12:24 08.09.2019
2302 Rain 13 1018 82 10000 1 0 11:59 08.09.2019
2303 Rain 12 1018 82 10000 1.99 60.727 11:40 08.09.2019
2304 Rain 13 1018 82 10000 1.99 60.727 11:20 08.09.2019
2305 Rain 13 1018 87 10000 1.99 60.727 10:58 08.09.2019
2306 Rain 12 1018 87 10000 1 0 10:40 08.09.2019
2307 Rain 12 1018 87 10000 1 0 10:22 08.09.2019
2308 Rain 12 1018 87 10000 1.5 200 09:40 08.09.2019
2309 Rain 11 1018 87 10000 1.5 200 09:21 08.09.2019
2310 Rain 11 1018 93 10000 1.5 0 08:57 08.09.2019
2311 Rain 11 1017 93 10000 1.5 230 08:39 08.09.2019
2312 Rain 11 1017 93 10000 1.5 230 08:18 08.09.2019
2313 Clouds 11 1018 87 10000 1.5 280 07:41 08.09.2019
2314 Clouds 11 1018 87 10000 1.5 280 07:21 08.09.2019
2315 Clouds 11 1018 87 10000 1.5 250 06:54 08.09.2019
2316 Rain 11 1018 87 10000 2.6 240 06:34 08.09.2019
2317 Rain 11 1018 93 10000 1.5 240 05:40 08.09.2019
2318 Rain 11 1018 93 10000 1.5 0 04:58 08.09.2019
2319 Rain 11 1018 93 10000 1.5 260 03:23 08.09.2019
2320 Clear 11 1019 93 10000 2.6 260 02:48 08.09.2019
2321 Rain 12 1019 93 10000 2.1 280 01:54 08.09.2019
2322 Rain 12 1019 93 10000 1 0 01:26 08.09.2019
2323 Rain 12 1019 87 10000 0.5 0 00:47 08.09.2019
2324 Rain 12 1019 87 10000 0.5 0 00:29 08.09.2019
2325 Rain 12 1020 93 10000 1 0 23:57 07.09.2019
2326 Rain 12 1020 93 10000 2.78 327.242 23:37 07.09.2019
2327 Rain 12 1020 93 10000 2.78 327.242 23:18 07.09.2019
2328 Rain 12 1020 93 10000 1 0 22:43 07.09.2019
2329 Rain 13 1020 93 10000 1 0 22:23 07.09.2019
2330 Rain 13 1020 93 7000 1 0 21:56 07.09.2019
2331 Rain 13 1019 93 10000 2.1 20 21:38 07.09.2019
2332 Rain 14 1019 93 10000 2.1 20 21:19 07.09.2019
2333 Rain 15 1019 82 5000 1.5 0 20:39 07.09.2019
2334 Rain 14 1019 82 5000 1.5 0 20:21 07.09.2019
2335 Clouds 14 1018 63 10000 3.6 280 19:56 07.09.2019
2336 Clouds 14 1018 67 10000 4.6 20 19:38 07.09.2019
2337 Clouds 15 1018 67 10000 4.6 20 19:19 07.09.2019
2338 Clouds 15 1018 63 10000 3.1 20 18:58 07.09.2019
2339 Clouds 15 1017 63 10000 2.6 100 18:39 07.09.2019
2340 Clouds 17 1017 63 10000 2.6 100 18:20 07.09.2019
2341 Rain 18 1017 68 10000 1 0 17:58 07.09.2019
2342 Rain 18 1017 68 10000 1 0 17:58 07.09.2019
2343 Rain 18 1017 68 10000 1 0 17:58 07.09.2019
2344 Clear 18 1017 45 10000 2.6 150 17:39 07.09.2019
2345 Clear 19 1017 45 10000 2.6 150 17:18 07.09.2019
2346 Clear 20 1017 45 10000 1.5 210 16:56 07.09.2019
2347 Clear 20 1018 45 10000 2.1 130 16:38 07.09.2019
2348 Clear 19 1018 45 10000 2.1 130 16:18 07.09.2019
2349 Clear 19 1018 45 10000 2.6 190 15:44 07.09.2019
2350 Clear 19 1018 45 10000 2.6 190 15:25 07.09.2019
2351 Clear 19 1018 52 10000 1.5 0 14:56 07.09.2019
2352 Clear 19 1019 48 10000 1.5 160 14:36 07.09.2019
2353 Clear 19 1019 48 10000 1.5 160 14:18 07.09.2019
2354 Clear 19 1019 48 10000 2.6 180 13:56 07.09.2019
2355 Clear 18 1019 45 10000 1.5 100 13:37 07.09.2019
2356 Clear 18 1019 45 10000 1.5 100 13:18 07.09.2019
2357 Clear 17 1020 59 10000 2.1 120 12:43 07.09.2019
2358 Clear 16 1020 59 10000 2.1 120 12:24 07.09.2019
2359 Clear 16 1020 67 10000 2.1 140 11:41 07.09.2019
2360 Clear 16 1020 67 10000 2.1 140 11:22 07.09.2019
2361 Clear 15 1020 72 10000 1.5 0 10:59 07.09.2019
2362 Clear 15 1020 72 10000 1.5 180 10:38 07.09.2019
2363 Clear 14 1020 72 10000 1.5 180 10:19 07.09.2019
2364 Clear 14 1020 67 10000 1.5 180 09:43 07.09.2019
2365 Clear 13 1020 67 10000 1.5 180 09:24 07.09.2019
2366 Clear 12 1020 76 10000 0.5 0 08:57 07.09.2019
2367 Clear 12 1020 71 10000 0.5 200 08:37 07.09.2019
2368 Clear 11 1020 71 10000 0.5 200 08:19 07.09.2019
2369 Clear 11 1020 76 10000 1 0 07:45 07.09.2019
2370 Clear 11 1020 76 10000 1 0 07:24 07.09.2019
2371 Clear 11 1020 87 10000 1.5 230 06:45 07.09.2019
2372 Clear 10 1020 87 10000 1.5 230 06:19 07.09.2019
2373 Clear 10 1020 76 10000 3.1 230 04:45 07.09.2019
2374 Clear 10 1020 58 10000 2.1 260 04:19 07.09.2019
2375 Clouds 11 1021 62 10000 2.6 270 02:44 07.09.2019
2376 Clear 11 1021 62 10000 3.1 270 01:44 07.09.2019
2377 Clear 12 1021 62 10000 3.1 270 01:18 07.09.2019
2378 Clear 13 1021 62 10000 3.6 270 00:39 07.09.2019
2379 Clear 13 1021 62 10000 2.6 260 00:19 07.09.2019
2380 Clear 13 1021 59 10000 2.6 250 23:40 06.09.2019
2381 Clear 13 1021 59 10000 2.6 250 23:21 06.09.2019
2382 Clear 13 1021 59 10000 2.6 250 23:21 06.09.2019
2383 Clear 13 1021 59 10000 2.1 260 22:57 06.09.2019
2384 Clear 14 1021 63 10000 2.1 250 22:37 06.09.2019
2385 Clear 14 1021 63 10000 2.1 250 22:19 06.09.2019
2386 Clear 14 1021 67 10000 3.1 260 21:57 06.09.2019
2387 Clear 15 1021 72 10000 3.1 270 21:39 06.09.2019
2388 Clear 15 1021 72 10000 3.1 270 21:20 06.09.2019
2389 Clear 16 1021 72 10000 1 0 20:57 06.09.2019
2390 Clear 16 1021 67 10000 1.5 280 20:38 06.09.2019
2391 Clear 16 1021 67 10000 1.5 280 20:19 06.09.2019
2392 -273 0 0 0 0 0 19:55 06.09.2019
2393 Clear 17 1021 48 10000 1.5 0 19:37 06.09.2019
2394 Clear 17 1021 45 10000 1.5 60 19:18 06.09.2019
2395 Clouds 17 1021 45 10000 2.6 70 18:41 06.09.2019
2396 Clouds 18 1021 45 10000 2.6 70 18:23 06.09.2019
2397 Clear 18 1021 45 10000 2.1 50 17:58 06.09.2019
2398 Clouds 18 1021 67 10000 1.5 280 17:58 06.09.2019
2399 Clear 19 1021 45 10000 2.1 50 17:37 06.09.2019
2400 Clear 18 1021 45 10000 2.1 50 17:19 06.09.2019
2401 Clear 19 1021 45 10000 3.1 360 16:39 06.09.2019
2402 Clear 18 1022 45 10000 3.6 20 16:19 06.09.2019
2403 Clouds 18 1022 45 10000 2.6 30 15:42 06.09.2019
2404 Clouds 19 1022 45 10000 2.6 30 15:24 06.09.2019
2405 Clouds 18 1022 45 10000 4.1 20 14:57 06.09.2019
2406 Clear 18 1022 45 10000 4.6 20 14:39 06.09.2019
2407 Clear 17 1022 45 10000 4.6 20 14:18 06.09.2019
2408 Clear 17 1023 52 10000 3.1 40 13:42 06.09.2019
2409 Clear 16 1023 59 10000 2.6 40 13:20 06.09.2019
2410 Clear 16 1023 55 10000 4.6 360 12:38 06.09.2019
2411 Clear 15 1023 55 10000 4.6 360 12:20 06.09.2019
2412 Clear 15 1024 59 10000 3.6 20 11:57 06.09.2019
2413 Clear 15 1024 67 10000 4.1 10 11:39 06.09.2019
2414 Rain 14 1024 67 10000 4.1 10 11:20 06.09.2019
2415 Rain 13 1024 67 10000 4.1 20 10:42 06.09.2019
2416 Clear 13 1024 67 10000 4.1 20 10:22 06.09.2019
2417 Clear 12 1024 76 10000 4.1 20 09:58 06.09.2019
2418 Clear 12 1024 71 10000 4.6 10 09:37 06.09.2019
2419 Clear 12 1024 71 10000 4.6 10 09:18 06.09.2019
2420 Clear 11 1024 71 10000 4.6 10 08:44 06.09.2019
2421 Clear 11 1024 71 10000 4.6 10 08:26 06.09.2019
2422 Clear 11 1024 71 10000 4.1 10 07:51 06.09.2019
2423 Clear 11 1024 71 10000 5.1 10 07:28 06.09.2019
2424 Clouds 11 1024 71 10000 5.1 10 06:59 06.09.2019
2425 Clear 11 1023 71 10000 4.6 360 06:41 06.09.2019
2426 Clear 12 1023 71 10000 4.1 360 05:47 06.09.2019
2427 Clouds 12 1023 67 10000 4.6 360 04:55 06.09.2019
2428 Clear 12 1024 67 10000 4.1 360 04:25 06.09.2019
2429 Clear 12 1024 76 10000 3.1 10 02:46 06.09.2019
2430 Clouds 12 1024 82 10000 2.71 7.648 00:58 06.09.2019
2431 Clouds 12 1024 82 10000 1 0 00:22 06.09.2019
2432 Clear 13 1023 76 10000 1 0 23:42 05.09.2019
2433 Clear 13 1023 76 10000 1 0 23:22 05.09.2019
2434 Clouds 13 1023 72 10000 1.5 270 22:46 05.09.2019
2435 Clear 13 1023 72 10000 2.6 200 22:27 05.09.2019
2436 Clear 14 1023 67 10000 0.5 0 21:58 05.09.2019
2437 Rain 14 1023 63 10000 2.61 5.019 21:39 05.09.2019
2438 Rain 15 1023 63 10000 1.22 59.318 21:20 05.09.2019
2439 Rain 15 1023 55 10000 0.5 0 20:58 05.09.2019
2440 Rain 15 1022 52 10000 2.1 330 20:40 05.09.2019
2441 Rain 15 1022 52 10000 2.1 330 20:21 05.09.2019
2442 Rain 16 1022 48 10000 2.6 350 19:58 05.09.2019
2443 Rain 16 1022 48 10000 3.1 330 19:39 05.09.2019
2444 Rain 17 1022 52 10000 2.6 340 19:20 05.09.2019
2445 Clear 17 1021 52 10000 3.1 310 18:45 05.09.2019
2446 Clear 17 1021 52 10000 3.1 310 18:27 05.09.2019
2447 Clear 18 1021 52 10000 4.1 330 17:59 05.09.2019
2448 Clear 18 1021 45 10000 4.1 350 17:40 05.09.2019
2449 Clear 18 1021 45 10000 4.1 350 17:40 05.09.2019
2450 Clear 18 1021 45 10000 4.1 350 17:22 05.09.2019
2451 Clear 18 1021 45 10000 2.1 280 16:58 05.09.2019
2452 Clear 18 1021 45 10000 2.6 260 16:40 05.09.2019
2453 Clear 18 1021 45 10000 2.6 260 16:19 05.09.2019
2454 Clouds 18 1021 48 10000 3.6 330 15:41 05.09.2019
2455 Clouds 17 1021 48 10000 3.6 330 15:20 05.09.2019
2456 Clear 17 1021 52 10000 1.5 0 14:59 05.09.2019
2457 Clear 17 1021 52 10000 3.6 350 14:40 05.09.2019
2458 Clear 17 1021 52 10000 3.6 350 14:20 05.09.2019
2459 Clouds 17 1021 55 10000 1.5 290 13:44 05.09.2019
2460 Clouds 16 1021 55 10000 1.5 290 13:23 05.09.2019
2461 Clear 16 1021 52 10000 1 0 12:58 05.09.2019
2462 Clear 16 1021 59 10000 1.5 0 12:38 05.09.2019
2463 Clear 16 1021 59 10000 1.5 0 12:20 05.09.2019
2464 Clear 15 1021 59 10000 1.5 290 11:43 05.09.2019
2465 Clear 15 1021 59 10000 1.5 290 11:20 05.09.2019
2466 Rain 14 1020 63 10000 2.1 360 10:43 05.09.2019
2467 Rain 14 1020 63 10000 2.1 360 10:23 05.09.2019
2468 Clouds 14 1020 63 10000 2.1 300 10:23 05.09.2019
2469 Clouds 15 1020 63 10000 2.1 300 09:59 05.09.2019
2470 Clear 14 1020 62 10000 4.1 300 09:40 05.09.2019
2471 Clear 14 1020 62 10000 4.1 300 09:20 05.09.2019
2472 Rain 14 1019 67 10000 4.6 290 08:46 05.09.2019
2473 Rain 14 1019 67 10000 4.6 290 08:28 05.09.2019
2474 Rain 14 1019 67 10000 4.6 290 08:28 05.09.2019
2475 Rain 14 1018 77 10000 1.5 330 07:56 05.09.2019
2476 Rain 14 1018 77 10000 2.6 310 07:37 05.09.2019
2477 Rain 14 1018 82 10000 2.1 340 07:19 05.09.2019
2478 Rain 14 1018 82 10000 3.6 320 06:44 05.09.2019
2479 Rain 14 1018 82 10000 3.6 320 06:22 05.09.2019
2480 Rain 13 1017 87 9000 2.1 300 05:42 05.09.2019
2481 Rain 13 1017 87 9000 2.1 300 05:23 05.09.2019
2482 Rain 14 1017 63 10000 5.1 280 04:30 05.09.2019
2483 Clear 14 1017 59 10000 3.6 300 03:46 05.09.2019
2484 Clear 14 1016 59 10000 1.5 260 02:57 05.09.2019
2485 Clear 14 1016 59 10000 5.1 280 02:28 05.09.2019
2486 Clear 15 1016 52 10000 4.1 290 01:54 05.09.2019
2487 Clear 15 1016 55 10000 1 0 00:56 05.09.2019
2488 Clear 15 1016 52 10000 3.1 280 00:37 05.09.2019
2489 Clear 16 1016 52 10000 3.6 270 00:18 05.09.2019
2490 Clear 16 1016 52 10000 3.6 270 23:40 04.09.2019
2491 Clear 17 1016 52 10000 3.6 270 23:22 04.09.2019
2492 Clear 17 1015 52 10000 2.6 270 22:47 04.09.2019
2493 Clear 17 1015 49 10000 2.6 270 22:20 04.09.2019
2494 Clear 17 1015 49 10000 2.6 270 21:57 04.09.2019
2495 Clear 18 1015 52 10000 3.6 270 21:38 04.09.2019
2496 Clear 19 1015 52 10000 3.6 270 21:19 04.09.2019
2497 Clear 19 1015 52 10000 3.1 220 20:55 04.09.2019
2498 Clear 20 1015 49 10000 3.1 210 20:36 04.09.2019
2499 Clear 21 1015 36 10000 1.5 250 20:18 04.09.2019
2500 Clear 23 1015 34 10000 2.6 280 19:40 04.09.2019
2501 Clear 23 1015 34 10000 2.6 280 19:40 04.09.2019
2502 Clear 23 1015 31 10000 4.6 290 19:21 04.09.2019
2503 Clear 23 1015 31 10000 4.6 290 18:55 04.09.2019
2504 Clear 24 1014 28 10000 3.1 280 18:36 04.09.2019
2505 Clear 26 1014 32 10000 3.1 120 18:18 04.09.2019
2506 Clear 26 1015 34 10000 3.1 130 17:41 04.09.2019
2507 Clear 26 1015 34 10000 3.1 130 17:22 04.09.2019
2508 Clear 26 1015 36 10000 3.1 130 16:56 04.09.2019
2509 Clear 26 1015 36 10000 2.6 130 16:38 04.09.2019
2510 Clear 26 1015 36 10000 2.6 130 16:19 04.09.2019
2511 Clear 26 1016 36 10000 3.1 150 15:41 04.09.2019
2512 Clear 25 1016 36 10000 3.1 150 15:22 04.09.2019
2513 Clear 25 1016 38 10000 3.1 140 14:58 04.09.2019
2514 Clear 25 1017 41 10000 2.6 170 14:39 04.09.2019
2515 Clear 25 1017 41 10000 2.6 170 14:21 04.09.2019
2516 Clear 25 1017 44 10000 2.6 160 13:59 04.09.2019
2517 Clear 25 1017 44 10000 2.6 190 13:39 04.09.2019
2518 Clear 24 1017 44 10000 2.6 190 13:21 04.09.2019
2519 Clear 23 1018 49 10000 1 0 12:44 04.09.2019
2520 Clear 22 1018 49 10000 1 0 12:26 04.09.2019
2521 Clear 21 1019 49 10000 1.5 0 11:58 04.09.2019
2522 Clear 21 1019 56 10000 1 0 11:39 04.09.2019
2523 Clear 20 1019 56 10000 1 0 11:21 04.09.2019
2524 Clear 19 1019 55 10000 1 0 10:56 04.09.2019
2525 Clear 18 1020 59 10000 1 0 10:38 04.09.2019
2526 Clear 18 1020 59 10000 1 0 10:38 04.09.2019
2527 Clear 17 1020 63 10000 1 0 10:19 04.09.2019
2528 Clear 16 1020 67 10000 1.5 190 09:45 04.09.2019
2529 Clear 15 1020 67 10000 1.5 190 09:21 04.09.2019
2530 Clear 12 1020 81 10000 2.1 230 08:43 04.09.2019
2531 Clear 12 1020 81 10000 2.1 230 08:24 04.09.2019
2532 Clear 11 1020 81 10000 1 200 07:59 04.09.2019
2533 Clear 11 1020 81 10000 0.5 0 07:37 04.09.2019
2534 Clear 10 1020 87 10000 1.31 204.787 06:59 04.09.2019
2535 Clear 11 1020 81 10000 1.31 204.787 06:39 04.09.2019
2536 Clear 11 1021 76 10000 1 210 04:56 04.09.2019
2537 Clear 11 1021 76 10000 1.5 250 04:24 04.09.2019
2538 Clear 12 1021 67 10000 2.6 240 03:21 04.09.2019
2539 Clear 13 1022 67 10000 2.1 250 01:21 04.09.2019
2540 Clear 13 1023 87 10000 1 200 00:46 04.09.2019
2541 Clear 13 1023 87 10000 1 200 00:27 04.09.2019
2542 Clear 13 1023 93 10000 1 240 23:53 03.09.2019
2543 Clear 14 1023 59 10000 4.1 260 23:27 03.09.2019
2544 Clear 14 1023 59 10000 3.1 260 22:57 03.09.2019
2545 Clear 15 1023 59 10000 4.1 270 22:39 03.09.2019
2546 Clear 15 1023 59 10000 4.1 270 22:21 03.09.2019
2547 Clear 16 1023 59 10000 4.1 280 21:56 03.09.2019
2548 Clear 17 1023 59 10000 3.6 280 21:36 03.09.2019
2549 Clear 18 1023 63 10000 2.1 280 21:18 03.09.2019
2550 Clear 19 1022 49 10000 1.5 360 20:42 03.09.2019
2551 Clear 20 1022 49 10000 1.5 360 20:24 03.09.2019
2552 Clear 19 1022 49 10000 1.5 360 20:24 03.09.2019
2553 Clear 19 1022 49 10000 1.5 360 20:24 03.09.2019
2554 -273 0 0 0 0 0 19:56 03.09.2019
2555 Clear 21 1023 43 10000 2.1 60 19:37 03.09.2019
2556 Clear 21 1023 31 10000 1 0 19:18 03.09.2019
2557 Clear 21 1023 38 10000 1 0 18:44 03.09.2019
2558 Clear 23 1023 38 10000 1 0 18:26 03.09.2019
2559 Clear 24 1023 38 10000 1 0 17:59 03.09.2019
2560 Clear 23 1023 38 10000 2.1 60 17:40 03.09.2019
2561 Clear 24 1023 38 10000 2.1 60 17:19 03.09.2019
2562 Clear 24 1023 36 10000 2.1 50 16:58 03.09.2019
2563 Clear 24 1024 33 10000 1.5 80 16:38 03.09.2019
2564 Clear 24 1024 33 10000 1.5 80 16:19 03.09.2019
2565 Clear 24 1024 40 10000 1.5 0 15:41 03.09.2019
2566 Clear 23 1024 40 10000 1.5 0 15:21 03.09.2019
2567 Clear 23 1024 38 10000 1.5 0 14:58 03.09.2019
2568 Clear 23 1024 38 10000 1.5 0 14:40 03.09.2019
2569 Clear 23 1024 38 10000 1.5 0 14:20 03.09.2019
2570 Clear 23 1025 40 10000 1.5 350 13:57 03.09.2019
2571 Clear 23 1025 40 10000 1.5 350 13:57 03.09.2019
2572 Clear 23 1025 43 10000 1.5 0 13:37 03.09.2019
2573 Clear 23 1025 43 10000 1.5 0 13:37 03.09.2019
2574 Clear 23 1025 40 10000 2.1 110 13:19 03.09.2019
2575 Clear 23 1025 40 10000 2.1 110 13:19 03.09.2019
2576 Clear 22 1025 40 10000 2.1 110 12:55 03.09.2019
2577 Clear 21 1025 49 10000 1.5 160 12:37 03.09.2019
2578 Clear 20 1025 49 10000 1.5 160 12:19 03.09.2019
2579 Clear 19 1026 55 10000 1.5 140 11:39 03.09.2019
2580 Clear 19 1026 55 10000 1.5 140 11:39 03.09.2019
2581 Clear 19 1026 55 10000 1.5 140 11:21 03.09.2019
2582 Clear 18 1026 63 10000 1.5 160 10:56 03.09.2019
2583 Clear 17 1026 63 10000 2.1 180 10:38 03.09.2019
2584 Clear 17 1026 63 10000 2.1 180 10:19 03.09.2019
2585 Clear 15 1026 72 10000 2.1 190 09:44 03.09.2019
2586 Clear 14 1026 72 10000 2.1 190 09:25 03.09.2019
2587 Clear 13 1026 76 10000 2.1 200 08:54 03.09.2019
2588 Clear 11 1025 76 10000 2.1 240 08:36 03.09.2019
2589 Clear 11 1025 76 10000 2.1 240 08:18 03.09.2019
2590 Clear 10 1025 76 10000 1 0 07:40 03.09.2019
2591 Clear 10 1025 76 10000 1 0 07:21 03.09.2019
2592 Clear 10 1025 71 10000 2.6 280 06:44 03.09.2019
2593 Clear 10 1025 76 10000 1 0 05:52 03.09.2019
2594 Clear 11 1024 62 10000 2.6 270 03:35 03.09.2019
2595 Clear 11 1024 58 10000 4.1 280 02:43 03.09.2019
2596 Clear 11 1024 58 10000 4.1 280 02:23 03.09.2019
2597 Clear 12 1024 62 10000 3.6 260 01:48 03.09.2019
2598 Clear 12 1025 62 10000 3.1 270 01:29 03.09.2019
2599 Clear 13 1025 67 10000 3.1 250 00:40 03.09.2019
2600 Clear 13 1025 62 10000 4.1 240 00:20 03.09.2019
2601 Clear 14 1024 58 10000 3.6 270 23:40 02.09.2019
2602 Clear 14 1024 58 10000 3.6 270 23:20 02.09.2019
2603 Clear 13 1024 58 10000 3.1 260 22:56 02.09.2019
2604 Clear 13 1024 59 10000 4.6 270 22:38 02.09.2019
2605 Clear 14 1024 59 10000 4.6 270 22:19 02.09.2019
2606 Clear 15 1024 59 10000 3.6 270 21:57 02.09.2019
2607 Clear 15 1024 63 10000 3.6 280 21:38 02.09.2019
2608 Clear 17 1024 63 10000 3.6 280 21:20 02.09.2019
2609 Clear 17 1023 59 10000 2.6 290 20:58 02.09.2019
2610 Clear 18 1023 59 10000 1.5 0 20:39 02.09.2019
2611 Clear 18 1023 59 10000 1.5 0 20:18 02.09.2019
2612 Clear 17 1023 45 10000 1 0 19:56 02.09.2019
2613 Clear 18 1023 40 10000 3.1 30 19:38 02.09.2019
2614 Clear 19 1022 35 10000 2.1 50 19:19 02.09.2019
2615 Clear 19 1022 37 10000 3.1 50 18:40 02.09.2019
2616 Clear 19 1022 37 10000 3.1 50 18:40 02.09.2019
2617 Clear 19 1022 37 10000 3.1 50 18:40 02.09.2019
2618 Clear 20 1022 37 10000 3.1 50 18:22 02.09.2019
2619 Clear 21 1022 40 10000 3.6 40 17:57 02.09.2019
2620 Clear 21 1022 40 10000 4.1 30 17:39 02.09.2019
2621 Clear 20 1022 40 10000 4.1 30 17:20 02.09.2019
2622 Clear 20 1022 40 10000 3.1 60 16:54 02.09.2019
2623 Clear 21 1022 40 10000 3.1 40 16:36 02.09.2019
2624 Clear 21 1022 43 10000 3.1 30 16:18 02.09.2019
2625 Clear 20 1022 40 10000 5.1 20 15:44 02.09.2019
2626 Clear 20 1022 40 10000 5.1 20 15:22 02.09.2019
2627 Clear 21 1022 43 10000 3.1 30 14:56 02.09.2019
2628 Clear 21 1022 46 10000 2.6 50 14:37 02.09.2019
2629 Clear 21 1022 46 10000 2.6 50 14:19 02.09.2019
2630 Clear 21 1022 46 10000 4.6 40 13:45 02.09.2019
2631 Clear 20 1022 46 10000 4.6 40 13:25 02.09.2019
2632 Clear 21 1022 43 10000 4.1 30 12:58 02.09.2019
2633 Clear 20 1023 56 10000 4.6 40 12:40 02.09.2019
2634 Clear 19 1023 56 10000 4.6 40 12:22 02.09.2019
2635 Clear 18 1023 56 10000 4.1 30 11:55 02.09.2019
2636 Clear 18 1023 59 10000 5.1 30 11:37 02.09.2019
2637 Clear 18 1023 59 10000 5.1 30 11:19 02.09.2019
2638 Clear 18 1022 59 10000 3.6 30 10:42 02.09.2019
2639 Clear 17 1022 59 10000 3.6 30 10:22 02.09.2019
2640 Clouds 17 1022 63 10000 3.6 20 09:59 02.09.2019
2641 Clear 17 1022 59 10000 3.6 10 09:39 02.09.2019
2642 Clear 17 1022 59 10000 3.6 10 09:20 02.09.2019
2643 Clear 16 1021 72 10000 1.5 350 08:43 02.09.2019
2644 Clear 16 1021 72 10000 1.5 350 08:22 02.09.2019
2645 Clear 16 1021 72 10000 1.5 350 08:22 02.09.2019
2646 Clear 15 1021 67 10000 1.5 360 07:57 02.09.2019
2647 Clear 15 1020 67 10000 2.6 360 07:38 02.09.2019
2648 Clear 15 1020 67 10000 2.6 360 07:20 02.09.2019
2649 Clouds 15 1020 72 10000 2.6 10 06:43 02.09.2019
2650 Clear 15 1020 72 10000 2.6 20 05:54 02.09.2019
2651 Clouds 15 1020 67 10000 1.5 50 05:26 02.09.2019
2652 Clouds 15 1020 72 10000 1 0 04:50 02.09.2019
2653 Clear 17 1019 68 10000 1 300 02:30 02.09.2019
2654 Clear 18 1019 68 10000 2.6 350 01:43 02.09.2019
2655 Clear 18 1019 68 10000 3.1 20 00:46 02.09.2019
2656 Clear 18 1019 68 10000 3.1 20 00:26 02.09.2019
2657 Clear 18 1018 68 10000 2.6 340 23:39 01.09.2019
2658 Clear 18 1018 68 10000 2.6 340 23:20 01.09.2019
2659 Clear 18 1018 68 10000 1.5 0 22:57 01.09.2019
2660 Clear 18 1018 60 10000 1.5 0 22:39 01.09.2019
2661 Clear 18 1018 64 10000 2.1 310 22:18 01.09.2019
2662 Clear 18 1018 64 10000 2.1 310 21:54 01.09.2019
2663 Clouds 19 1017 64 10000 1 0 21:36 01.09.2019
2664 Clear 20 1017 64 10000 1.5 0 21:18 01.09.2019
2665 Clear 20 1017 64 10000 1.5 0 20:55 01.09.2019
2666 Clouds 20 1016 64 10000 1.5 20 20:36 01.09.2019
2667 Clear 21 1015 60 10000 2.1 50 20:18 01.09.2019
2668 Clear 21 1015 56 10000 2.6 300 19:41 01.09.2019
2669 Clear 21 1015 53 10000 3.6 340 19:21 01.09.2019
2670 Clear 21 1015 53 10000 3.6 340 18:57 01.09.2019
2671 Clear 22 1015 50 10000 2.6 320 18:38 01.09.2019
2672 Clear 23 1015 47 10000 2.1 290 18:20 01.09.2019
2673 Clear 23 1015 47 10000 2.1 290 17:55 01.09.2019
2674 Clear 23 1015 47 10000 2.6 280 17:36 01.09.2019
2675 Clear 23 1015 47 10000 2.6 280 17:36 01.09.2019
2676 Clear 24 1015 47 10000 2.6 280 17:18 01.09.2019
2677 Clouds 24 1015 44 10000 4.1 310 16:39 01.09.2019
2678 Clouds 23 1015 50 10000 2.6 310 16:18 01.09.2019
2679 Clouds 24 1015 50 10000 3.1 310 15:46 01.09.2019
2680 Clouds 24 1015 50 10000 3.1 310 15:26 01.09.2019
2681 Clouds 24 1015 50 10000 3.6 300 14:56 01.09.2019
2682 Clouds 24 1015 50 10000 4.6 290 14:37 01.09.2019
2683 Clouds 24 1015 50 10000 4.6 290 14:19 01.09.2019
2684 Clouds 24 1015 50 10000 2.1 290 13:42 01.09.2019
2685 Clouds 24 1015 50 10000 2.1 290 13:24 01.09.2019
2686 Clear 23 1015 53 10000 1.5 0 12:59 01.09.2019
2687 Clouds 23 1015 53 10000 2.1 290 12:40 01.09.2019
2688 Clouds 23 1015 53 10000 2.1 290 12:40 01.09.2019
2689 Clouds 22 1015 53 10000 2.1 290 12:21 01.09.2019
2690 Clouds 22 1015 53 10000 2.1 290 12:21 01.09.2019
2691 Clear 22 1015 53 10000 2.1 0 11:40 01.09.2019
2692 Clear 22 1015 53 10000 2.1 0 11:20 01.09.2019
2693 Clear 21 1015 56 10000 1 0 10:58 01.09.2019
2694 Clear 21 1015 68 10000 1 0 10:40 01.09.2019
2695 Clear 21 1015 68 10000 1 0 10:21 01.09.2019
2696 Rain 20 1015 72 10000 1 0 09:43 01.09.2019
2697 Rain 19 1015 72 10000 1 0 09:25 01.09.2019
2698 Clear 20 1015 68 10000 2.6 250 08:44 01.09.2019
2699 Clear 19 1015 68 10000 2.6 250 08:24 01.09.2019
2700 Clear 19 1014 68 10000 3.1 240 07:51 01.09.2019
2701 Clear 19 1014 68 10000 3.1 240 07:51 01.09.2019
2702 Clear 19 1014 68 10000 4.6 250 07:33 01.09.2019
2703 Clear 18 1014 64 10000 3.6 270 06:47 01.09.2019
2704 Clear 19 1014 64 10000 3.6 270 06:26 01.09.2019
2705 Clear 19 1014 68 10000 3.1 260 05:56 01.09.2019
2706 Clear 19 1014 68 10000 3.1 260 05:56 01.09.2019
2707 Clear 19 1012 88 10000 1 0 04:31 01.09.2019
2708 Clear 20 1013 77 10000 2.1 220 03:42 01.09.2019
2709 Clear 21 1013 68 10000 1.5 0 02:57 01.09.2019
2710 Rain 21 1012 77 10000 3.1 280 02:26 01.09.2019
2711 Rain 22 1012 68 10000 2.6 0 01:50 01.09.2019
2712 Rain 21 1012 68 10000 2.6 0 01:50 01.09.2019
2713 Rain 22 1012 60 10000 4.1 250 01:23 01.09.2019
2714 Rain 21 1012 53 10000 4.6 260 00:46 01.09.2019
2715 Rain 22 1012 53 10000 4.6 260 00:22 01.09.2019
2716 Clear 21 1011 68 10000 1 0 23:54 31.08.2019
2717 Clear 21 1011 68 10000 2.1 230 23:36 31.08.2019
2718 Clear 22 1011 64 10000 1.5 240 23:18 31.08.2019
2719 Clear 22 1011 64 10000 1.5 240 23:18 31.08.2019
2720 Clear 22 1011 60 10000 3.1 260 22:44 31.08.2019
2721 Clear 22 1011 60 10000 3.1 260 22:25 31.08.2019
2722 Clear 23 1011 57 10000 3.1 260 21:57 31.08.2019
2723 Clear 23 1011 57 10000 2.6 270 21:38 31.08.2019
2724 Clear 24 1011 57 10000 2.6 270 21:19 31.08.2019
2725 Clear 24 1011 57 10000 2.1 260 20:47 31.08.2019
2726 Clear 26 1011 61 10000 2.1 250 20:29 31.08.2019
2727 Clear 26 1011 45 10000 1.5 210 19:57 31.08.2019
2728 Clear 27 1011 40 10000 2.6 160 19:39 31.08.2019
2729 Clear 27 1011 40 10000 2.6 160 19:39 31.08.2019
2730 Clear 28 1011 43 10000 4.6 150 19:20 31.08.2019
2731 Clear 29 1011 43 10000 4.6 140 18:40 31.08.2019
2732 Clear 30 1011 43 10000 4.6 140 18:21 31.08.2019
2733 Clear 30 1011 38 10000 4.1 150 17:58 31.08.2019
2734 Clear 30 1011 38 10000 4.1 150 17:37 31.08.2019
2735 Clear 30 1011 38 10000 4.1 150 17:37 31.08.2019
2736 Clear 30 1011 38 10000 4.1 150 17:19 31.08.2019
2737 Clear 30 1012 43 10000 2.6 190 16:59 31.08.2019
2738 Clear 31 1012 46 10000 3.1 190 16:40 31.08.2019
2739 Clear 31 1012 46 10000 3.1 190 16:21 31.08.2019
2740 Clear 30 1013 43 10000 2.6 170 15:58 31.08.2019
2741 Clear 30 1013 45 10000 2.6 0 15:37 31.08.2019
2742 Clear 30 1013 45 10000 2.6 0 15:18 31.08.2019
2743 Clear 30 1014 51 10000 3.1 160 14:41 31.08.2019
2744 Clear 30 1014 51 10000 3.1 160 14:22 31.08.2019
2745 Clear 30 1015 51 10000 2.6 170 13:42 31.08.2019
2746 Clear 29 1015 54 10000 3.1 190 13:23 31.08.2019
2747 Clear 29 1015 54 10000 3.1 190 12:59 31.08.2019
2748 Clear 28 1016 57 10000 2.6 150 12:40 31.08.2019
2749 Clear 27 1016 57 10000 2.6 150 12:21 31.08.2019
2750 Clear 26 1016 65 10000 2.1 130 11:56 31.08.2019
2751 Clear 26 1016 61 10000 1.5 140 11:38 31.08.2019
2752 Clear 25 1016 61 10000 1.5 140 11:20 31.08.2019
2753 Clear 24 1017 69 10000 1.5 180 10:43 31.08.2019
2754 Clear 23 1017 69 10000 1.5 180 10:19 31.08.2019
2755 Clear 22 1017 73 10000 1.5 200 09:59 31.08.2019
2756 Clear 21 1017 77 10000 2.1 210 09:39 31.08.2019
2757 Clear 20 1017 77 10000 2.1 210 09:21 31.08.2019
2758 Clear 19 1017 82 10000 0.94 212.07 08:44 31.08.2019
2759 Clear 18 1017 82 10000 0.94 212.07 08:26 31.08.2019
2760 Fog 17 1017 88 10000 0.5 0 07:42 31.08.2019
2761 Fog 17 1017 88 10000 0.5 0 07:23 31.08.2019
2762 Fog 17 1017 82 10000 0.5 0 06:56 31.08.2019
2763 Clear 17 1017 88 10000 1 0 06:21 31.08.2019
2764 Clear 17 1017 82 10000 1 0 05:34 31.08.2019
2765 Clear 17 1018 77 10000 1 0 04:45 31.08.2019
2766 Clear 17 1018 77 10000 1 0 04:27 31.08.2019
2767 Clear 18 1018 72 10000 3.6 270 03:42 31.08.2019
2768 Clear 19 1018 68 10000 3.6 260 02:20 31.08.2019
2769 Clear 19 1019 68 10000 5.1 270 01:42 31.08.2019
2770 Clear 19 1019 68 10000 5.1 270 01:23 31.08.2019
2771 Clear 19 1019 64 10000 5.1 270 00:44 31.08.2019
2772 Clear 19 1019 64 10000 5.1 270 00:44 31.08.2019
2773 -273 0 0 0 0 0 00:25 31.08.2019
2774 Clear 20 1019 68 10000 4.6 270 23:48 30.08.2019
2775 Clear 21 1020 68 10000 4.6 280 23:19 30.08.2019
2776 Clear 21 1020 68 10000 4.6 280 22:57 30.08.2019
2777 Clear 21 1020 68 10000 4.1 270 22:37 30.08.2019
2778 Clear 21 1020 68 10000 4.1 270 22:19 30.08.2019
2779 Clear 22 1020 64 10000 4.6 270 21:56 30.08.2019
2780 Clear 22 1019 69 10000 4.1 280 21:36 30.08.2019
2781 Clear 24 1019 69 10000 2.1 290 21:18 30.08.2019
2782 Clear 24 1019 69 10000 2.1 290 21:18 30.08.2019
2783 Clear 24 1019 69 10000 2.1 290 20:55 30.08.2019
2784 Clear 25 1019 65 10000 3.1 280 20:37 30.08.2019
2785 Clear 25 1019 54 10000 2.1 10 20:18 30.08.2019
2786 Clear 25 1019 51 10000 2.6 10 19:41 30.08.2019
2787 Clear 26 1019 51 10000 2.6 10 19:22 30.08.2019
2788 Clear 27 1019 48 10000 2.6 10 18:59 30.08.2019
2789 Clear 27 1019 45 10000 1 0 18:41 30.08.2019
2790 Clear 28 1019 45 10000 1 0 18:23 30.08.2019
2791 Clear 28 1020 48 10000 1.5 70 17:56 30.08.2019
2792 Clear 28 1020 48 10000 1.5 70 17:38 30.08.2019
2793 Clear 28 1020 48 10000 1.5 70 17:19 30.08.2019
2794 Clear 29 1020 45 10000 2.1 50 16:48 30.08.2019
2795 Clear 29 1020 48 10000 2.1 70 16:29 30.08.2019
2796 Clear 29 1021 51 10000 2.1 60 15:58 30.08.2019
2797 Clear 29 1021 51 10000 2.1 80 15:38 30.08.2019
2798 Clear 28 1021 51 10000 2.1 80 15:19 30.08.2019
2799 Clear 28 1021 51 10000 2.1 80 15:19 30.08.2019
2800 Clear 28 1022 54 10000 1.5 0 14:44 30.08.2019
2801 Clear 28 1022 54 10000 1.5 0 14:25 30.08.2019
2802 Clear 28 1022 54 10000 2.6 90 13:56 30.08.2019
2803 Clear 28 1022 57 10000 2.1 80 13:37 30.08.2019
2804 Clear 27 1022 57 10000 2.1 80 13:19 30.08.2019
2805 Clear 26 1023 61 10000 2.1 60 12:42 30.08.2019
2806 Clear 26 1023 61 10000 2.1 60 12:42 30.08.2019
2807 Clear 25 1023 61 10000 2.1 60 12:23 30.08.2019
2808 Clear 24 1023 61 10000 2.6 20 11:55 30.08.2019
2809 Clear 24 1023 60 10000 2.6 40 11:37 30.08.2019
2810 Clear 24 1023 60 10000 2.6 40 11:18 30.08.2019
2811 Clear 22 1023 69 10000 1 0 10:37 30.08.2019
2812 Clear 22 1023 69 10000 1 0 10:19 30.08.2019
2813 Mist 21 1023 77 10000 1 20 09:42 30.08.2019
2814 Mist 20 1023 77 10000 1 20 09:20 30.08.2019
2815 Mist 19 1023 88 10000 1.5 0 08:59 30.08.2019
2816 Mist 18 1023 88 10000 1 0 08:41 30.08.2019
2817 Mist 18 1023 88 10000 1 0 08:22 30.08.2019
2818 Fog 17 1022 88 10000 0.5 0 07:45 30.08.2019
2819 Fog 17 1022 88 10000 0.5 0 07:25 30.08.2019
2820 Fog 17 1022 93 10000 1.33 336.637 06:49 30.08.2019
2821 Fog 17 1022 93 10000 1.33 336.637 06:30 30.08.2019
2822 Clear 17 1022 93 10000 1 0 05:59 30.08.2019
2823 Clear 17 1022 93 10000 1.5 0 04:59 30.08.2019
2824 Clear 18 1022 88 10000 1 0 03:56 30.08.2019
2825 Clear 18 1022 88 10000 1 0 03:56 30.08.2019
2826 Clear 18 1021 82 10000 2.1 290 03:37 30.08.2019
2827 Clear 18 1021 82 10000 4.1 280 02:37 30.08.2019
2828 Clear 19 1022 82 10000 2.6 260 01:40 30.08.2019
2829 Clear 19 1022 88 10000 1 0 00:47 30.08.2019
2830 Clouds 20 1021 83 10000 3.1 270 00:19 30.08.2019
2831 Clouds 20 1021 83 10000 3.1 270 23:47 29.08.2019
2832 Clouds 20 1021 83 10000 3.1 270 23:22 29.08.2019
2833 Clouds 20 1021 83 10000 3.1 270 23:22 29.08.2019
2834 Clouds 20 1021 83 10000 3.1 270 23:22 29.08.2019
2835 Clear 21 1021 83 10000 2.1 270 22:45 29.08.2019
2836 Clear 21 1021 83 10000 2.1 270 22:27 29.08.2019
2837 Clear 21 1021 83 10000 2.1 270 22:27 29.08.2019
2838 Clear 21 1020 83 10000 4.1 280 21:59 29.08.2019
2839 Clear 22 1020 83 10000 2.6 260 21:41 29.08.2019
2840 Clear 23 1020 83 10000 2.6 260 21:21 29.08.2019
2841 Clear 23 1020 78 10000 3.1 260 20:59 29.08.2019
2842 Clear 24 1020 83 10000 2.6 270 20:40 29.08.2019
2843 Clear 24 1019 73 10000 1.5 220 20:19 29.08.2019
2844 -273 0 0 0 0 0 19:56 29.08.2019
2845 Thunderstorm 25 1019 69 10000 0.5 0 19:38 29.08.2019
2846 Thunderstorm 25 1019 57 10000 2.6 140 19:19 29.08.2019
2847 Clear 25 1019 61 10000 1 0 18:41 29.08.2019
2848 Clear 27 1019 61 10000 1.5 350 18:20 29.08.2019
2849 Thunderstorm 27 1019 61 10000 4.1 320 17:56 29.08.2019
2850 Thunderstorm 27 1019 61 10000 4.1 320 17:36 29.08.2019
2851 Thunderstorm 27 1019 57 10000 4.1 310 17:18 29.08.2019
2852 Thunderstorm 27 1019 54 10000 5.7 320 16:43 29.08.2019
2853 Thunderstorm 28 1019 69 10000 4.6 300 16:24 29.08.2019
2854 Thunderstorm 28 1019 69 10000 4.6 300 15:58 29.08.2019
2855 Thunderstorm 29 1019 54 10000 1.5 0 15:37 29.08.2019
2856 Thunderstorm 29 1019 54 10000 1.5 0 15:19 29.08.2019
2857 Thunderstorm 29 1019 54 10000 1.5 0 15:19 29.08.2019
2858 Clear 29 1019 51 10000 1 0 14:45 29.08.2019
2859 Clear 29 1019 51 10000 1 0 14:22 29.08.2019
2860 Clear 29 1019 51 10000 1.5 360 13:58 29.08.2019
2861 Clear 28 1019 54 10000 2.6 90 13:39 29.08.2019
2862 Clear 28 1019 54 10000 2.6 90 13:20 29.08.2019
2863 Clear 28 1020 57 10000 1.5 60 12:58 29.08.2019
2864 Clear 28 1020 61 10000 1.5 0 12:39 29.08.2019
2865 Clear 27 1020 61 10000 1.5 0 12:21 29.08.2019
2866 Clear 26 1019 61 10000 1.5 0 11:58 29.08.2019
2867 Clear 26 1019 65 10000 1 0 11:38 29.08.2019
2868 Clear 25 1019 65 10000 1 0 11:19 29.08.2019
2869 Clear 24 1019 73 10000 1.5 0 10:44 29.08.2019
2870 Clear 23 1019 73 10000 1.5 0 10:25 29.08.2019
2871 Clear 22 1019 73 10000 1 0 09:54 29.08.2019
2872 Clear 22 1018 73 10000 0.5 0 09:36 29.08.2019
2873 Clear 21 1018 82 10000 1.5 220 09:18 29.08.2019
2874 Clear 19 1018 88 10000 0.5 0 08:40 29.08.2019
2875 Clear 19 1018 88 10000 0.5 0 08:22 29.08.2019
2876 Clear 19 1018 88 10000 1.5 200 07:50 29.08.2019
2877 Clear 19 1018 93 10000 1.5 220 07:27 29.08.2019
2878 Clear 19 1017 82 10000 2.6 180 06:53 29.08.2019
2879 Clear 19 1017 88 10000 1.5 210 06:32 29.08.2019
2880 Clear 19 1017 88 10000 2.6 170 05:43 29.08.2019
2881 Clear 19 1017 82 10000 2.6 200 04:51 29.08.2019
2882 Clear 19 1017 82 10000 3.1 190 04:30 29.08.2019
2883 Clear 19 1017 82 10000 1.5 210 03:35 29.08.2019
2884 Clear 20 1017 68 10000 3.6 240 01:53 29.08.2019
2885 Clear 20 1017 72 10000 2.6 220 01:34 29.08.2019
2886 Clear 20 1017 68 10000 3.6 270 00:46 29.08.2019
2887 Clear 21 1017 68 10000 3.6 270 00:21 29.08.2019
2888 Clear 20 1017 64 10000 3.6 270 23:56 28.08.2019
2889 Clear 21 1017 64 10000 3.6 250 23:38 28.08.2019
2890 Clear 21 1017 64 10000 3.6 250 23:19 28.08.2019
2891 Clear 22 1016 64 10000 3.6 260 22:39 28.08.2019
2892 Clear 22 1016 60 10000 2.6 270 22:19 28.08.2019
2893 Clear 23 1016 60 10000 2.6 270 21:59 28.08.2019
2894 Clear 23 1016 64 10000 3.1 270 21:41 28.08.2019
2895 Clear 24 1016 64 10000 3.1 270 21:22 28.08.2019
2896 Clear 24 1015 60 10000 3.1 260 20:56 28.08.2019
2897 Clear 25 1015 64 10000 3.6 270 20:38 28.08.2019
2898 Clear 25 1015 65 10000 4.1 270 20:19 28.08.2019
2899 Clear 26 1015 65 10000 3.6 270 19:42 28.08.2019
2900 Clear 27 1015 65 10000 3.6 270 19:21 28.08.2019
2901 Clear 28 1015 61 10000 2.6 260 18:57 28.08.2019
2902 Clear 28 1015 58 10000 2.6 310 18:37 28.08.2019
2903 Clouds 29 1015 61 10000 2.6 270 18:19 28.08.2019
2904 Clouds 29 1015 61 10000 3.6 270 17:38 28.08.2019
2905 Rain 29 1015 65 10000 4.1 280 17:19 28.08.2019
2906 Clouds 30 1016 37 10000 1.5 320 16:45 28.08.2019
2907 Clouds 30 1016 37 10000 1.5 320 16:23 28.08.2019
2908 Clouds 30 1016 37 10000 2.1 330 15:59 28.08.2019
2909 Clouds 30 1016 61 10000 5.7 290 15:38 28.08.2019
2910 Clouds 30 1016 61 10000 5.7 290 15:20 28.08.2019
2911 Thunderstorm 30 1016 42 10000 1.5 0 14:57 28.08.2019
2912 Thunderstorm 30 1016 42 10000 2.6 110 14:38 28.08.2019
2913 Thunderstorm 30 1016 42 10000 2.6 110 14:20 28.08.2019
2914 Clear 29 1016 42 10000 2.6 160 13:58 28.08.2019
2915 Clouds 29 1016 48 10000 2.6 110 13:38 28.08.2019
2916 Clear 29 1016 54 10000 2.6 130 13:19 28.08.2019
2917 Clear 27 1017 54 10000 2.6 160 12:42 28.08.2019
2918 Clear 27 1017 54 10000 2.6 160 12:24 28.08.2019
2919 Clear 26 1017 57 10000 2.6 160 11:57 28.08.2019
2920 Clear 25 1017 65 10000 2.1 170 11:38 28.08.2019
2921 Clear 24 1017 65 10000 2.1 170 11:20 28.08.2019
2922 Clear 24 1017 69 10000 3.6 190 10:55 28.08.2019
2923 Clear 23 1017 69 10000 0.5 0 10:37 28.08.2019
2924 Clear 23 1017 69 10000 0.5 0 10:18 28.08.2019
2925 Clear 22 1017 69 10000 1.5 0 09:41 28.08.2019
2926 Clear 22 1017 69 10000 1.5 0 09:41 28.08.2019
2927 Clear 21 1017 69 10000 1.5 0 09:20 28.08.2019
2928 Clear 21 1017 82 10000 1 0 08:40 28.08.2019
2929 Rain 21 1017 82 10000 1 0 08:21 28.08.2019
2930 Rain 20 1017 77 10000 1.5 0 07:57 28.08.2019
2931 Rain 20 1017 73 10000 1.5 110 07:36 28.08.2019
2932 Clear 20 1017 73 10000 1.5 110 07:18 28.08.2019
2933 Clear 20 1016 73 10000 1.5 240 06:40 28.08.2019
2934 Rain 20 1016 73 10000 1 0 05:47 28.08.2019
2935 -273 0 0 0 0 0 03:55 28.08.2019
2936 Clear 20 1017 68 10000 2.1 170 01:53 28.08.2019
2937 Clear 21 1016 60 10000 0.5 0 01:30 28.08.2019
2938 Clear 21 1016 56 10000 3.1 170 00:42 28.08.2019
2939 Clear 21 1016 56 10000 3.1 170 00:21 28.08.2019
2940 Clear 22 1016 53 10000 2.6 270 23:40 27.08.2019
2941 Clear 22 1016 53 10000 2.6 270 23:22 27.08.2019
2942 Clear 22 1016 53 10000 2.6 270 23:22 27.08.2019
2943 Clear 22 1016 56 10000 2.1 250 22:57 27.08.2019
2944 Clear 22 1016 53 10000 3.1 260 22:38 27.08.2019
2945 Clear 22 1016 53 10000 3.1 260 22:20 27.08.2019
2946 Clear 22 1016 53 10000 3.1 260 21:56 27.08.2019
2947 Clear 23 1015 57 10000 3.1 270 21:37 27.08.2019
2948 Clear 24 1015 57 10000 3.1 270 21:18 27.08.2019
2949 Clear 24 1015 60 10000 2.6 260 20:55 27.08.2019
2950 Clear 25 1015 57 10000 3.1 280 20:37 27.08.2019
2951 Clear 25 1015 48 10000 2.6 230 20:18 27.08.2019
2952 Clear 26 1014 42 10000 3.1 160 19:42 27.08.2019
2953 Clear 27 1014 42 10000 3.1 160 19:24 27.08.2019
2954 Clear 28 1014 40 10000 3.6 160 18:55 27.08.2019
2955 Clear 28 1015 40 10000 3.6 150 18:36 27.08.2019
2956 Clear 30 1015 35 10000 4.1 160 18:18 27.08.2019
2957 Clear 30 1015 43 10000 3.6 170 17:42 27.08.2019
2958 Clear 30 1015 43 10000 3.6 170 17:23 27.08.2019
2959 Clear 30 1015 45 10000 3.6 170 16:49 27.08.2019
2960 Clear 30 1015 40 10000 2.6 190 16:28 27.08.2019
2961 Clear 30 1016 40 10000 2.6 160 15:59 27.08.2019
2962 Clear 30 1016 42 10000 2.6 170 15:40 27.08.2019
2963 Clear 30 1016 42 10000 2.6 170 15:22 27.08.2019
2964 Clear 30 1016 37 10000 3.1 180 14:59 27.08.2019
2965 Clear 29 1016 48 10000 2.6 140 14:41 27.08.2019
2966 Clear 29 1016 48 10000 2.6 140 14:22 27.08.2019
2967 Clear 29 1017 51 10000 2.1 170 13:43 27.08.2019
2968 Clear 29 1017 51 10000 2.1 170 13:24 27.08.2019
2969 Clear 28 1017 48 10000 3.1 180 12:56 27.08.2019
2970 Clear 28 1017 48 10000 3.1 180 12:37 27.08.2019
2971 Clear 27 1017 48 10000 3.1 180 12:18 27.08.2019
2972 Clear 26 1017 61 10000 1 0 11:43 27.08.2019
2973 Clear 25 1017 61 10000 1 0 11:25 27.08.2019
2974 Clear 23 1017 69 10000 2.1 180 10:46 27.08.2019
2975 Clear 23 1017 69 10000 2.1 180 10:22 27.08.2019
2976 Clear 22 1017 68 10000 1.5 0 09:59 27.08.2019
2977 Clear 21 1017 73 10000 1.5 0 09:39 27.08.2019
2978 Clear 20 1017 73 10000 1.5 0 09:20 27.08.2019
2979 Clear 19 1017 77 10000 1 180 08:55 27.08.2019
2980 Clear 19 1017 77 10000 2.1 160 08:37 27.08.2019
2981 Clear 18 1017 77 10000 2.1 160 08:18 27.08.2019
2982 Clear 17 1017 88 10000 2.1 180 07:40 27.08.2019
2983 Clear 16 1017 88 10000 2.1 180 07:19 27.08.2019
2984 Clear 16 1017 77 10000 2.6 170 06:54 27.08.2019
2985 Clear 16 1016 77 10000 3.1 200 06:26 27.08.2019
2986 Clear 17 1016 82 10000 3.1 200 05:47 27.08.2019
2987 Clear 17 1016 72 10000 1.5 0 04:44 27.08.2019
2988 Clear 17 1016 68 10000 3.1 240 03:39 27.08.2019
2989 Clear 18 1016 60 10000 4.6 240 02:23 27.08.2019
2990 Clear 18 1017 64 10000 3.1 230 01:44 27.08.2019
2991 Clear 18 1017 64 10000 3.1 230 01:22 27.08.2019
2992 Clear 19 1017 64 10000 3.6 260 00:44 27.08.2019
2993 Clear 19 1017 64 10000 3.6 260 00:24 27.08.2019
2994 Clear 20 1017 60 10000 4.1 260 23:39 26.08.2019
2995 Clear 20 1017 60 10000 4.1 260 23:21 26.08.2019
2996 Clear 20 1017 64 10000 4.1 270 22:41 26.08.2019
2997 Clear 21 1017 64 10000 4.1 270 22:20 26.08.2019
2998 Clear 21 1017 64 10000 3.6 270 21:59 26.08.2019
2999 Clear 22 1016 64 10000 3.6 270 21:38 26.08.2019
3000 Clear 23 1016 69 10000 2.6 280 21:20 26.08.2019
3001 Clear 24 1016 54 10000 0.62 43.701 20:57 26.08.2019
3002 Clear 25 1016 54 10000 0.62 43.701 20:38 26.08.2019
3003 Clear 25 1016 45 10000 1.5 360 20:19 26.08.2019
3004 Clouds 26 1016 42 10000 1.5 350 19:44 26.08.2019
3005 Clouds 27 1016 42 10000 0.5 0 19:20 26.08.2019
3006 Clear 28 1016 40 10000 2.1 90 18:59 26.08.2019
3007 Clouds 28 1016 42 10000 1.5 0 18:38 26.08.2019
3008 Clear 29 1016 40 10000 2.1 40 18:20 26.08.2019
3009 Clear 29 1016 42 10000 2.6 40 17:55 26.08.2019
3010 Clear 30 1016 42 10000 2.6 40 17:37 26.08.2019
3011 Clouds 30 1016 40 10000 2.6 30 17:18 26.08.2019
3012 Clouds 30 1016 42 10000 3.1 30 16:55 26.08.2019
3013 Clouds 30 1016 42 10000 3.1 30 16:37 26.08.2019
3014 Clouds 30 1017 43 10000 2.1 0 16:18 26.08.2019
3015 Clouds 30 1017 42 10000 2.6 40 15:41 26.08.2019
3016 Clear 29 1017 48 10000 2.6 0 15:21 26.08.2019
3017 Clear 29 1018 51 10000 2.1 330 14:45 26.08.2019
3018 Clear 28 1018 51 10000 1.5 0 14:23 26.08.2019
3019 Clear 28 1018 54 10000 2.1 10 13:59 26.08.2019
3020 Clear 29 1018 54 10000 2.1 10 13:38 26.08.2019
3021 Clear 28 1018 51 10000 1.5 0 13:19 26.08.2019
3022 Clear 27 1018 54 10000 0.5 0 12:43 26.08.2019
3023 Clear 26 1019 57 10000 1 0 12:24 26.08.2019
3024 Clear 25 1019 57 10000 0.5 0 11:56 26.08.2019
3025 Clear 25 1019 57 10000 0.5 0 11:36 26.08.2019
3026 Clear 24 1019 64 10000 1 0 11:18 26.08.2019
3027 Clear 23 1019 68 10000 2.1 220 10:42 26.08.2019
3028 Clear 22 1019 68 10000 2.6 220 10:21 26.08.2019
3029 Clear 21 1019 77 10000 1.5 200 09:57 26.08.2019
3030 Clear 21 1019 77 10000 1.5 200 09:38 26.08.2019
3031 Clear 19 1019 77 10000 1.5 0 09:19 26.08.2019
3032 Clear 18 1019 88 10000 1.18 196.052 08:42 26.08.2019
3033 Clear 16 1019 93 10000 0.5 180 08:23 26.08.2019
3034 Clear 15 1019 87 10000 2.1 200 07:59 26.08.2019
3035 Clear 15 1019 87 10000 1 110 07:41 26.08.2019
3036 Clear 15 1018 77 10000 0.5 0 07:22 26.08.2019
3037 Clear 15 1018 72 10000 1 0 06:45 26.08.2019
3038 Clear 15 1018 72 10000 0.5 0 06:24 26.08.2019
3039 Clear 15 1018 68 10000 1.5 0 05:49 26.08.2019
3040 Clear 16 1018 72 10000 4.1 230 04:28 26.08.2019
3041 Clear 17 1019 87 10000 1.5 180 02:55 26.08.2019
3042 Clear 17 1019 93 10000 1 230 01:39 26.08.2019
3043 Clear 17 1019 93 10000 0.48 250.514 01:18 26.08.2019
3044 Clear 18 1019 93 10000 1.5 190 00:38 26.08.2019
3045 Clear 18 1019 93 10000 1 200 00:19 26.08.2019
3046 Clear 19 1019 88 10000 0.51 343.204 23:42 25.08.2019
3047 Clear 19 1019 82 10000 1.5 210 23:19 25.08.2019
3048 Clear 19 1019 82 10000 1.5 0 22:56 25.08.2019
3049 Clear 20 1019 64 10000 4.6 270 22:38 25.08.2019
3050 Clear 20 1019 82 10000 1.5 240 22:20 25.08.2019
3051 Clear 20 1018 69 10000 3.6 280 21:57 25.08.2019
3052 Clear 21 1018 69 10000 3.6 280 21:37 25.08.2019
3053 Clear 22 1018 73 10000 2.1 280 21:18 25.08.2019
3054 Clear 24 1018 54 10000 1.5 360 20:40 25.08.2019
3055 Clear 24 1018 45 10000 1.5 40 20:20 25.08.2019
3056 Clear 25 1018 51 10000 1.5 50 19:58 25.08.2019
3057 Clear 26 1018 51 10000 1.5 50 19:39 25.08.2019
3058 Clear 27 1018 48 10000 1.5 50 19:19 25.08.2019
3059 Clear 27 1018 48 10000 1.5 50 18:58 25.08.2019
3060 Clear 27 1018 45 10000 2.1 60 18:39 25.08.2019
3061 Clear 28 1018 45 10000 2.1 60 18:21 25.08.2019
3062 Clear 29 1018 45 10000 1.5 80 17:43 25.08.2019
3063 Clear 29 1018 45 10000 1.5 50 17:25 25.08.2019
3064 Clear 29 1018 45 10000 1.5 50 16:59 25.08.2019
3065 Clear 29 1018 42 10000 1.5 0 16:37 25.08.2019
3066 Clear 29 1018 45 10000 1.5 0 16:18 25.08.2019
3067 Clear 29 1018 51 10000 2.1 50 15:43 25.08.2019
3068 Clear 29 1018 48 10000 2.1 90 15:25 25.08.2019
3069 Clear 29 1019 54 10000 1.5 0 14:43 25.08.2019
3070 Clear 29 1019 54 10000 1.5 0 14:43 25.08.2019
3071 Clear 28 1019 54 10000 2.6 100 14:24 25.08.2019
3072 Clear 28 1019 54 10000 2.6 100 13:57 25.08.2019
3073 Clear 28 1019 57 10000 1 0 13:38 25.08.2019
3074 Clear 27 1019 61 10000 1.5 70 13:19 25.08.2019
3075 Clear 27 1019 65 10000 1 0 12:48 25.08.2019
3076 Clear 25 1019 65 10000 1 0 12:26 25.08.2019
3077 Clear 25 1019 65 10000 1 0 11:59 25.08.2019
3078 Clear 24 1019 64 10000 1.5 0 11:40 25.08.2019
3079 Clear 23 1019 73 10000 1.5 80 11:21 25.08.2019
3080 Clear 23 1019 73 10000 0.5 0 10:58 25.08.2019
3081 Clear 23 1019 73 10000 0.5 0 10:39 25.08.2019
3082 Clear 22 1019 73 10000 1.92 203.535 10:20 25.08.2019
3083 Clear 22 1019 73 10000 1.92 203.535 10:20 25.08.2019
3084 Clear 22 1019 73 10000 1.92 203.535 10:20 25.08.2019
3085 -273 0 0 0 0 0 09:55 25.08.2019
3086 Clear 20 1019 77 10000 1 0 09:37 25.08.2019
3087 Clear 19 1019 82 10000 1 0 09:18 25.08.2019
3088 Fog 17 1019 82 10000 2.6 210 08:42 25.08.2019
3089 Clear 16 1019 88 10000 0.5 0 08:21 25.08.2019
3090 Clear 15 1019 93 10000 1.5 140 07:35 25.08.2019
3091 Clear 15 1019 93 10000 1.5 180 06:51 25.08.2019
3092 Clear 15 1019 87 10000 1 210 05:47 25.08.2019
3093 Clear 16 1018 93 10000 0.5 280 04:35 25.08.2019
3094 Clear 16 1018 82 10000 2.6 240 03:31 25.08.2019
3095 Clear 16 1018 77 10000 2.6 260 02:39 25.08.2019
3096 Clear 17 1019 93 10000 1 0 01:28 25.08.2019
3097 Clear 17 1018 77 10000 4.1 260 00:40 25.08.2019
3098 Clear 18 1019 77 10000 4.1 260 00:20 25.08.2019
3099 Clear 18 1019 73 10000 4.1 260 23:51 24.08.2019
3100 Clear 19 1019 73 10000 4.1 260 23:22 24.08.2019
3101 Clear 19 1019 73 10000 4.1 260 23:22 24.08.2019
3102 Clear 19 1019 73 10000 4.1 260 22:56 24.08.2019
3103 Clear 19 1019 77 10000 3.6 260 22:38 24.08.2019
3104 Clear 19 1019 73 10000 3.6 280 22:19 24.08.2019
3105 Clear 20 1018 88 10000 1.5 120 21:56 24.08.2019
3106 Clear 20 1018 88 10000 1.5 120 21:37 24.08.2019
3107 Clear 21 1018 73 10000 1 140 21:19 24.08.2019
3108 Clear 23 1018 61 10000 0.5 340 20:55 24.08.2019
3109 Clear 23 1018 61 10000 0.5 340 20:37 24.08.2019
3110 Clear 24 1018 57 10000 1.5 350 20:18 24.08.2019
3111 Clear 24 1018 54 10000 2.1 360 19:55 24.08.2019
3112 Clear 25 1018 54 10000 2.1 360 19:37 24.08.2019
3113 Clear 25 1018 54 10000 2.1 340 19:18 24.08.2019
3114 Clear 26 1019 44 10000 1.5 0 18:41 24.08.2019
3115 Clear 27 1018 51 10000 2.1 20 18:21 24.08.2019
3116 Clear 27 1018 51 10000 2.1 20 18:21 24.08.2019
3117 Clear 27 1019 47 10000 1 0 17:44 24.08.2019
3118 Clear 27 1019 50 10000 1.5 50 17:24 24.08.2019
3119 Clear 27 1019 51 10000 1.5 0 16:51 24.08.2019
3120 Clear 27 1019 54 10000 1.5 0 16:21 24.08.2019
3121 Clear 27 1019 50 10000 1 0 15:59 24.08.2019
3122 Clear 27 1019 54 10000 2.1 360 15:41 24.08.2019
3123 Clear 27 1020 54 10000 1.5 360 15:23 24.08.2019
3124 Clear 26 1020 54 10000 1.5 70 14:44 24.08.2019
3125 Clear 26 1020 61 10000 2.1 30 14:23 24.08.2019
3126 Clear 26 1020 61 10000 2.1 30 13:59 24.08.2019
3127 Clear 26 1020 61 10000 2.1 30 13:59 24.08.2019
3128 Clear 25 1020 60 10000 1 0 13:40 24.08.2019
3129 Clear 25 1020 60 10000 1.5 90 13:21 24.08.2019
3130 Clear 25 1020 60 10000 1.5 90 12:58 24.08.2019
3131 Clear 24 1021 64 10000 1 0 12:39 24.08.2019
3132 Clear 23 1021 64 10000 1 0 12:20 24.08.2019
3133 Clear 23 1021 73 10000 1.5 0 11:45 24.08.2019
3134 Clear 22 1021 68 10000 1 0 11:23 24.08.2019
3135 Clear 21 1021 77 10000 1.5 0 10:53 24.08.2019
3136 Clear 20 1021 77 10000 1 0 10:24 24.08.2019
3137 Clear 19 1021 77 10000 1 0 09:58 24.08.2019
3138 Clear 19 1021 72 10000 0.5 0 09:38 24.08.2019
3139 Clear 17 1021 77 10000 0.36 352.416 09:18 24.08.2019
3140 Clear 15 1021 87 10000 0.5 0 08:41 24.08.2019
3141 Clear 14 1021 93 10000 1.5 320 08:23 24.08.2019
3142 Clear 14 1021 87 10000 1 0 07:50 24.08.2019
3143 Clear 14 1021 87 10000 1 0 07:28 24.08.2019
3144 Fog 13 1021 87 10000 0.36 352.416 06:31 24.08.2019
3145 Clear 14 1021 87 10000 0.94 323.677 05:57 24.08.2019
3146 Clear 14 1021 87 10000 0.94 323.677 05:35 24.08.2019
3147 Clear 14 1021 87 10000 3.6 270 03:40 24.08.2019
3148 Clear 15 1021 82 10000 3.1 280 02:39 24.08.2019
3149 Clear 16 1021 82 10000 3.1 270 01:53 24.08.2019
3150 Clear 16 1021 82 10000 1 0 01:22 24.08.2019
3151 Clear 16 1021 82 10000 1.5 280 00:45 24.08.2019
3152 Clear 17 1021 82 10000 1 280 00:21 24.08.2019
3153 Clear 17 1021 77 10000 1 0 23:44 23.08.2019
3154 Clear 17 1021 72 10000 1.5 350 23:19 23.08.2019
3155 Clear 18 1021 64 10000 2.1 320 22:44 23.08.2019
3156 Clear 18 1021 68 10000 2.1 310 22:24 23.08.2019
3157 Clear 19 1021 60 10000 2.1 310 21:55 23.08.2019
3158 Clear 19 1021 60 10000 2.1 310 21:37 23.08.2019
3159 Clear 21 1021 64 10000 2.1 330 21:18 23.08.2019
3160 Clear 22 1021 60 10000 2.6 360 20:50 23.08.2019
3161 Clear 23 1021 60 10000 2.6 360 20:32 23.08.2019
3162 Clear 24 1021 50 10000 1.5 60 19:46 23.08.2019
3163 Clear 24 1021 44 10000 3.6 350 19:19 23.08.2019
3164 Clear 24 1021 47 10000 4.6 350 18:55 23.08.2019
3165 Clear 25 1021 47 10000 4.6 350 18:37 23.08.2019
3166 Clear 25 1021 47 10000 5.1 360 18:18 23.08.2019
3167 Clear 26 1021 44 10000 4.6 360 17:41 23.08.2019
3168 Clear 26 1021 45 10000 3.6 10 17:23 23.08.2019
3169 Clear 26 1022 44 10000 3.6 360 16:49 23.08.2019
3170 Clear 26 1022 53 10000 2.6 0 16:30 23.08.2019
3171 Clouds 26 1022 57 10000 2.6 10 15:59 23.08.2019
3172 Clear 26 1022 47 10000 4.1 360 15:40 23.08.2019
3173 Clear 26 1022 47 10000 3.1 350 15:21 23.08.2019
3174 Clear 25 1023 57 10000 1.5 0 14:56 23.08.2019
3175 Clear 25 1023 54 10000 2.6 360 14:38 23.08.2019
3176 Clear 24 1023 53 10000 2.6 340 14:20 23.08.2019
3177 Clear 25 1023 57 10000 1.5 0 13:42 23.08.2019
3178 Clear 24 1024 60 10000 2.1 0 13:23 23.08.2019
3179 Clouds 23 1024 60 10000 1.5 80 13:00 23.08.2019
3180 Clear 23 1024 60 10000 1.5 0 12:41 23.08.2019
3181 Clear 22 1024 60 10000 2.1 310 12:22 23.08.2019
3182 Clear 21 1024 68 10000 2.6 40 11:58 23.08.2019
3183 Clear 21 1025 64 10000 2.1 360 11:39 23.08.2019
3184 Clear 20 1025 68 10000 2.1 360 11:19 23.08.2019
3185 Clear 20 1025 72 10000 2.6 20 10:57 23.08.2019
3186 Clear 19 1025 77 10000 1 0 10:39 23.08.2019
3187 Clear 18 1025 82 10000 1 0 10:19 23.08.2019
3188 Clear 17 1025 88 10000 2.1 360 09:44 23.08.2019
3189 Clear 16 1025 87 10000 1 0 09:25 23.08.2019
3190 Fog 15 1025 93 10000 1 0 08:46 23.08.2019
3191 Clear 14 1025 93 10000 1.71 359.597 08:22 23.08.2019
3192 Fog 13 1025 87 10000 1 0 08:00 23.08.2019
3193 Fog 12 1024 93 10000 1.5 330 07:41 23.08.2019
3194 Fog 12 1025 93 10000 1 250 07:23 23.08.2019
3195 Clear 12 1024 87 10000 1 0 06:43 23.08.2019
3196 Clear 12 1024 93 10000 1 0 06:22 23.08.2019
3197 Clear 13 1024 82 10000 2.6 300 05:45 23.08.2019
3198 Clear 13 1024 82 10000 2.6 280 05:25 23.08.2019
3199 Clear 14 1024 82 10000 2.1 270 03:59 23.08.2019
3200 Clear 14 1025 82 10000 0.9 350.998 02:39 23.08.2019
3201 Clear 14 1025 82 10000 1.5 250 02:21 23.08.2019
3202 Clear 15 1025 82 10000 1 0 01:36 23.08.2019
3203 Clear 16 1025 77 10000 3.6 260 00:43 23.08.2019
3204 Clear 16 1025 82 10000 1 210 00:18 23.08.2019
3205 Clear 17 1025 77 10000 3.1 250 23:43 22.08.2019
3206 Clear 17 1024 77 10000 3.6 250 23:22 22.08.2019
3207 Clouds 18 1024 72 10000 3.6 270 22:54 22.08.2019
3208 Clouds 18 1024 72 10000 3.6 270 22:36 22.08.2019
3209 Clear 18 1024 77 10000 3.6 270 22:18 22.08.2019
3210 Clear 19 1024 72 10000 3.1 280 21:41 22.08.2019
3211 Clear 20 1024 72 10000 2.6 280 21:23 22.08.2019
3212 Clear 20 1024 72 10000 2.6 280 21:23 22.08.2019
3213 Clear 20 1024 72 10000 2.6 280 20:59 22.08.2019
3214 Clear 20 1023 60 10000 1.5 360 20:41 22.08.2019
3215 Clear 21 1023 53 10000 2.6 360 20:20 22.08.2019
3216 Clear 22 1023 53 10000 1.5 0 19:59 22.08.2019
3217 Clear 22 1023 50 10000 3.6 10 19:40 22.08.2019
3218 Clear 22 1023 47 10000 4.1 360 19:21 22.08.2019
3219 Clear 23 1023 47 10000 4.1 350 18:59 22.08.2019
3220 Clear 23 1023 47 10000 4.1 350 18:40 22.08.2019
3221 Clear 24 1023 50 10000 4.1 340 18:20 22.08.2019
3222 Clear 24 1023 50 10000 1 0 17:57 22.08.2019
3223 Clear 24 1023 50 10000 1 0 17:57 22.08.2019
3224 Clouds 24 1024 57 10000 3.1 80 17:39 22.08.2019
3225 Clear 24 1023 50 10000 2.1 0 17:19 22.08.2019
3226 Clear 25 1023 47 10000 3.1 20 16:56 22.08.2019
3227 Clear 24 1023 47 10000 3.1 20 16:37 22.08.2019
3228 Clear 25 1023 50 10000 4.1 350 16:19 22.08.2019
3229 Clear 25 1023 50 10000 4.1 350 16:19 22.08.2019
3230 Clear 25 1023 50 10000 4.1 350 16:19 22.08.2019
3231 Clear 25 1023 50 10000 4.1 350 16:19 22.08.2019
3232 Clear 24 1024 50 10000 3.1 360 15:42 22.08.2019
3233 Clear 24 1024 50 10000 3.1 360 15:42 22.08.2019
3234 Clear 24 1024 50 10000 3.1 360 15:42 22.08.2019
3235 Clear 24 1024 50 10000 3.1 360 15:42 22.08.2019
3236 Clear 24 1024 50 10000 4.1 350 15:24 22.08.2019
3237 Clear 24 1024 57 10000 2.1 0 14:59 22.08.2019
3238 Clear 24 1024 53 10000 3.6 20 14:41 22.08.2019
3239 Clear 23 1024 53 10000 3.6 30 14:22 22.08.2019
3240 Clear 23 1024 53 10000 3.6 360 13:59 22.08.2019
3241 Clear 23 1024 53 10000 3.6 360 13:40 22.08.2019
3242 Clear 23 1024 53 10000 4.1 360 13:20 22.08.2019
3243 Clear 22 1024 56 10000 3.6 10 12:56 22.08.2019
3244 Clear 22 1024 56 10000 3.6 10 12:38 22.08.2019
3245 Clear 21 1025 64 10000 3.1 30 12:19 22.08.2019
3246 Clear 20 1025 68 10000 2.6 30 11:42 22.08.2019
3247 Clear 20 1025 68 10000 2.6 30 11:42 22.08.2019
3248 Clear 19 1025 72 10000 1.5 340 11:21 22.08.2019
3249 Clear 19 1025 68 10000 3.1 360 10:58 22.08.2019
3250 Clear 18 1025 77 10000 1.5 0 10:40 22.08.2019
3251 Clear 17 1025 77 10000 1.5 0 10:22 22.08.2019
3252 Clear 16 1025 72 10000 3.1 360 09:57 22.08.2019
3253 Clear 15 1025 82 10000 1 0 09:39 22.08.2019
3254 Clear 15 1025 87 10000 1 0 09:20 22.08.2019
3255 Clear 14 1025 77 10000 2.6 10 08:56 22.08.2019
3256 Clear 13 1025 87 10000 0.5 0 08:38 22.08.2019
3257 Clear 13 1025 87 10000 0.5 0 08:38 22.08.2019
3258 Clear 12 1025 82 10000 1.5 0 08:20 22.08.2019
3259 Clear 11 1024 87 10000 1.5 320 07:40 22.08.2019
3260 Fog 11 1024 81 10000 2.1 320 07:20 22.08.2019
3261 Fog 11 1024 81 10000 2.1 320 06:52 22.08.2019
3262 Clear 11 1024 93 10000 1 0 06:24 22.08.2019
3263 Clear 11 1024 87 10000 1 0 05:45 22.08.2019
3264 Clear 11 1024 100 10000 0.5 0 04:38 22.08.2019
3265 Clear 12 1024 82 10000 1.5 270 02:50 22.08.2019
3266 Clear 12 1024 82 10000 1.5 270 02:50 22.08.2019
3267 Clear 13 1024 82 10000 1.5 270 02:32 22.08.2019
3268 -273 0 0 0 0 0 01:25 22.08.2019
3269 Clear 13 1025 82 10000 1 0 00:45 22.08.2019
3270 Clear 14 1025 77 10000 1.5 310 00:27 22.08.2019
3271 Clear 15 1025 77 10000 1.5 320 23:54 21.08.2019
3272 Clear 15 1025 77 10000 1.5 320 23:36 21.08.2019
3273 Clear 16 1025 82 10000 1.5 330 23:18 21.08.2019
3274 Clear 15 1025 77 10000 1.5 340 22:55 21.08.2019
3275 Clear 15 1025 77 10000 1.5 340 22:36 21.08.2019
3276 Clear 16 1025 87 10000 2.6 350 22:18 21.08.2019
3277 Clear 17 1025 77 10000 2.1 340 21:55 21.08.2019
3278 Clear 17 1025 77 10000 2.1 340 21:55 21.08.2019
3279 Clear 17 1025 77 10000 2.1 340 21:36 21.08.2019
3280 Clear 18 1025 77 10000 2.6 350 21:18 21.08.2019
3281 Clear 19 1025 64 10000 2.6 360 20:42 21.08.2019
3282 Clear 19 1025 64 10000 2.6 360 20:42 21.08.2019
3283 Clear 19 1024 52 10000 4.6 100 20:23 21.08.2019
3284 Clear 20 1025 49 10000 2.1 70 19:56 21.08.2019
3285 Clear 20 1025 49 10000 2.1 70 19:38 21.08.2019
3286 Clear 21 1025 46 10000 3.1 70 19:20 21.08.2019
3287 Clouds 21 1025 56 10000 3.6 110 18:43 21.08.2019
3288 Clear 22 1025 41 10000 3.1 60 18:23 21.08.2019
3289 Clear 22 1025 41 10000 2.6 100 17:57 21.08.2019
3290 Clear 22 1025 41 10000 2.6 100 17:38 21.08.2019
3291 Clear 22 1025 49 10000 3.1 30 17:20 21.08.2019
3292 Clear 22 1025 50 10000 3.1 30 16:54 21.08.2019
3293 Clear 22 1025 50 10000 3.1 30 16:36 21.08.2019
3294 Clear 23 1025 53 10000 3.1 20 16:18 21.08.2019
3295 Clear 22 1026 60 10000 3.6 20 15:42 21.08.2019
3296 Clear 22 1026 60 10000 3.6 340 15:22 21.08.2019
3297 Clear 22 1026 60 10000 3.6 20 14:58 21.08.2019
3298 Clear 22 1027 64 10000 3.6 20 14:39 21.08.2019
3299 Clear 21 1027 64 10000 3.6 20 14:21 21.08.2019
3300 Clear 21 1027 64 10000 3.6 20 13:58 21.08.2019
3301 Clear 21 1027 64 10000 3.6 20 13:40 21.08.2019
3302 Clear 20 1027 68 10000 3.1 10 13:19 21.08.2019
3303 Clouds 19 1028 72 10000 3.6 10 12:57 21.08.2019
3304 Clouds 19 1028 72 10000 3.6 10 12:38 21.08.2019
3305 Clouds 18 1028 82 10000 3.6 20 12:18 21.08.2019
3306 Clouds 17 1028 82 10000 2.6 360 11:43 21.08.2019
3307 Clouds 16 1028 93 10000 1.5 0 11:23 21.08.2019
3308 Clouds 16 1028 93 10000 1.5 60 10:58 21.08.2019
3309 Clouds 16 1028 93 10000 1.5 60 10:38 21.08.2019
3310 Mist 14 1028 100 6000 2.1 340 10:20 21.08.2019
3311 Fog 13 1028 87 10000 2.1 340 09:57 21.08.2019
3312 Fog 14 1029 100 400 1.5 0 09:39 21.08.2019
3313 Fog 13 1029 100 200 0.5 0 09:20 21.08.2019
3314 Fog 12 1029 100 200 1 0 08:48 21.08.2019
3315 Fog 12 1028 93 10000 0.5 0 08:25 21.08.2019
3316 Fog 11 1029 93 10000 0.5 0 07:45 21.08.2019
3317 Fog 11 1029 93 10000 0.5 0 07:26 21.08.2019
3318 Fog 11 1028 93 10000 2.6 240 06:51 21.08.2019
3319 Fog 11 1028 93 10000 2.6 240 06:33 21.08.2019
3320 Fog 11 1028 93 6000 2.6 220 05:57 21.08.2019
3321 Fog 11 1028 93 10000 3.1 250 05:28 21.08.2019
3322 Fog 11 1028 93 10000 2.1 210 04:42 21.08.2019
3323 Rain 12 1028 87 10000 2.6 200 02:40 21.08.2019
3324 Fog 12 1028 93 10000 1.5 210 01:34 21.08.2019
3325 Rain 13 1028 93 10000 1.5 220 00:42 21.08.2019
3326 Rain 13 1028 93 10000 1.5 180 00:21 21.08.2019
3327 Clear 13 1028 93 10000 1.5 220 23:45 20.08.2019
3328 Clear 13 1027 87 10000 2.6 200 23:20 20.08.2019
3329 Rain 14 1027 87 10000 2.6 200 22:59 20.08.2019
3330 Rain 14 1027 87 10000 1.5 190 22:40 20.08.2019
3331 Rain 14 1027 82 10000 2.1 160 22:22 20.08.2019
3332 Rain 14 1027 87 10000 2.6 200 21:58 20.08.2019
3333 Rain 14 1027 87 10000 2.6 200 21:39 20.08.2019
3334 Rain 14 1027 87 10000 2.6 200 21:39 20.08.2019
3335 Rain 14 1027 82 10000 2.6 180 21:20 20.08.2019
3336 Rain 14 1027 82 10000 2.6 180 20:59 20.08.2019
3337 Rain 14 1027 87 10000 2.1 190 20:41 20.08.2019
3338 Rain 14 1026 93 10000 2.6 200 20:23 20.08.2019
3339 Rain 14 1026 100 10000 2.6 210 19:41 20.08.2019
3340 Rain 14 1026 87 10000 1.5 230 19:22 20.08.2019
3341 Rain 14 1026 87 10000 1.5 180 18:58 20.08.2019
3342 Rain 15 1025 87 10000 1 0 18:40 20.08.2019
3343 Rain 15 1026 82 10000 1 140 18:19 20.08.2019
3344 Rain 15 1026 82 10000 1 140 17:58 20.08.2019
3345 Rain 15 1026 82 10000 1.44 190.355 17:39 20.08.2019
3346 Rain 15 1026 82 10000 1.44 190.355 17:20 20.08.2019
3347 Rain 15 1026 82 10000 1.44 190.355 17:20 20.08.2019
3348 Rain 15 1025 77 10000 1.44 190.355 16:46 20.08.2019
3349 Rain 15 1025 77 10000 1.44 190.355 16:26 20.08.2019
3350 Rain 16 1025 82 10000 1 0 15:58 20.08.2019
3351 Rain 16 1024 82 10000 1.5 0 15:40 20.08.2019
3352 Rain 16 1024 82 10000 1.5 0 15:18 20.08.2019
3353 Rain 16 1024 72 10000 1 0 14:44 20.08.2019
3354 Rain 16 1024 72 10000 1 0 14:22 20.08.2019
3355 Rain 16 1024 72 10000 1 0 14:22 20.08.2019
3356 Rain 16 1023 72 10000 1 0 13:58 20.08.2019
3357 Rain 17 1023 68 10000 2.1 20 13:39 20.08.2019
3358 Rain 17 1023 68 10000 2.1 20 13:21 20.08.2019
3359 Rain 17 1023 68 10000 2.6 20 12:55 20.08.2019
3360 Rain 17 1023 68 10000 2.6 350 12:36 20.08.2019
3361 Rain 17 1023 68 10000 2.6 350 12:18 20.08.2019
3362 Rain 17 1023 72 10000 0.5 0 11:42 20.08.2019
3363 Rain 17 1023 72 10000 0.5 0 11:22 20.08.2019
3364 Rain 17 1022 77 10000 1 330 10:57 20.08.2019
3365 Rain 17 1022 77 10000 1 0 10:39 20.08.2019
3366 Rain 17 1022 77 10000 1 0 10:39 20.08.2019
3367 Rain 16 1022 77 10000 1 0 10:20 20.08.2019
3368 Clouds 16 1022 82 10000 0.5 0 09:58 20.08.2019
3369 Clouds 16 1022 77 10000 1 0 09:40 20.08.2019
3370 Clouds 16 1022 77 10000 1 0 09:40 20.08.2019
3371 Clouds 16 1022 77 10000 1 0 09:21 20.08.2019
3372 Clouds 16 1022 77 10000 1 0 09:21 20.08.2019
3373 Clouds 16 1021 82 10000 2.1 300 08:42 20.08.2019
3374 Clouds 16 1021 82 10000 2.1 300 08:23 20.08.2019
3375 Clouds 16 1021 82 10000 1 300 07:57 20.08.2019
3376 Clouds 16 1021 87 10000 1.5 330 07:38 20.08.2019
3377 Clouds 16 1021 87 10000 1.5 330 07:20 20.08.2019
3378 Clear 16 1021 82 10000 1.5 260 06:43 20.08.2019
3379 Clear 16 1021 82 10000 1.3 12.793 06:20 20.08.2019
3380 Clouds 15 1021 87 10000 1 0 05:42 20.08.2019
3381 Clouds 16 1021 93 10000 1 0 04:26 20.08.2019
3382 Clouds 16 1021 88 10000 1.21 0.19 02:50 20.08.2019
3383 Clouds 17 1021 93 10000 1 330 01:53 20.08.2019
3384 Clouds 17 1021 88 10000 1.46 351.781 01:21 20.08.2019
3385 Clear 17 1021 93 10000 1.5 350 00:45 20.08.2019
3386 Clear 17 1021 93 10000 1.5 350 00:25 20.08.2019
3387 Clear 17 1020 88 10000 1 0 23:50 19.08.2019
3388 Clear 17 1020 88 10000 1.5 230 23:19 19.08.2019
3389 Clear 17 1020 88 10000 1.5 230 22:59 19.08.2019
3390 Clear 17 1020 88 10000 2.1 210 22:41 19.08.2019
3391 Clear 17 1020 88 10000 2.1 210 22:21 19.08.2019
3392 Clear 17 1020 88 10000 3.6 180 21:58 19.08.2019
3393 Clear 18 1019 82 10000 2.1 190 21:39 19.08.2019
3394 Clear 18 1019 82 10000 2.1 190 21:20 19.08.2019
3395 Clear 18 1019 77 10000 2.6 170 20:57 19.08.2019
3396 Clear 19 1019 77 10000 3.6 180 20:38 19.08.2019
3397 Clear 19 1019 77 10000 3.6 180 20:19 19.08.2019
3398 Clear 19 1018 77 10000 3.6 170 19:55 19.08.2019
3399 Clear 19 1018 68 10000 4.6 190 19:36 19.08.2019
3400 Clear 20 1018 64 10000 4.1 200 19:18 19.08.2019
3401 Rain 20 1018 68 10000 5.7 160 18:42 19.08.2019
3402 Rain 20 1018 68 10000 5.7 160 18:24 19.08.2019
3403 Rain 20 1018 64 10000 5.1 160 17:58 19.08.2019
3404 Rain 20 1018 60 10000 5.1 160 17:40 19.08.2019
3405 Rain 21 1018 60 10000 5.1 160 17:19 19.08.2019
3406 Rain 21 1018 64 10000 3.6 150 16:56 19.08.2019
3407 Rain 20 1018 64 10000 2.1 190 16:37 19.08.2019
3408 Rain 21 1018 60 10000 1.5 0 16:18 19.08.2019
3409 Rain 21 1018 57 10000 2.1 10 15:45 19.08.2019
3410 Clouds 21 1018 60 10000 2.1 270 15:20 19.08.2019
3411 Clouds 21 1018 69 10000 2.1 130 14:58 19.08.2019
3412 Clouds 22 1018 56 10000 1 0 14:38 19.08.2019
3413 Clouds 22 1018 53 10000 1 0 14:20 19.08.2019
3414 Rain 22 1017 60 10000 1.5 0 13:57 19.08.2019
3415 Clouds 21 1017 64 10000 1 0 13:37 19.08.2019
3416 Haze 22 1018 64 10000 2.1 60 13:19 19.08.2019
3417 Clouds 21 1018 68 10000 2.6 40 12:44 19.08.2019
3418 Clouds 21 1018 73 10000 2.1 40 12:24 19.08.2019
3419 Clouds 21 1018 73 10000 1 0 11:59 19.08.2019
3420 Clouds 20 1018 73 10000 2.6 30 11:37 19.08.2019
3421 Clouds 20 1017 73 10000 2.6 30 11:19 19.08.2019
3422 Clouds 20 1017 83 10000 2.1 50 10:40 19.08.2019
3423 Clouds 19 1017 82 10000 3.1 350 10:19 19.08.2019
3424 Clouds 19 1017 82 10000 1.5 0 09:59 19.08.2019
3425 Clouds 19 1017 82 10000 2.1 280 09:41 19.08.2019
3426 Rain 19 1017 88 10000 1.5 240 09:21 19.08.2019
3427 Rain 18 1017 93 10000 1 0 08:55 19.08.2019
3428 Rain 18 1017 93 10000 1 0 08:36 19.08.2019
3429 Rain 18 1016 93 10000 2.45 171.433 08:18 19.08.2019
3430 Rain 18 1016 93 10000 1 0 07:42 19.08.2019
3431 Rain 18 1016 93 10000 2.1 270 07:24 19.08.2019
3432 Rain 18 1015 93 7000 0.5 0 06:43 19.08.2019
3433 Rain 18 1016 93 10000 0.5 0 06:24 19.08.2019
3434 Rain 18 1015 93 10000 2.1 160 04:54 19.08.2019
3435 Rain 18 1015 88 10000 1.5 140 04:23 19.08.2019
3436 Rain 18 1015 93 10000 2.1 190 03:20 19.08.2019
3437 Rain 18 1015 93 10000 4.1 180 01:48 19.08.2019
3438 Rain 18 1014 88 10000 4.1 170 01:21 19.08.2019
3439 Rain 18 1013 88 10000 1 0 00:43 19.08.2019
3440 Rain 18 1014 88 7000 1.5 0 00:23 19.08.2019
3441 Rain 18 1014 93 6000 3.6 160 23:42 18.08.2019
3442 Rain 18 1014 93 10000 1.5 0 23:21 18.08.2019
3443 Rain 19 1011 77 7000 2.6 360 22:42 18.08.2019
3444 Rain 21 1012 64 10000 6.7 290 22:22 18.08.2019
3445 Rain 21 1012 64 10000 6.7 290 21:59 18.08.2019
3446 Thunderstorm 24 1010 57 10000 3.6 270 21:41 18.08.2019
3447 Rain 25 1010 54 10000 2.1 270 21:22 18.08.2019
3448 Rain 25 1010 54 10000 2.1 270 20:59 18.08.2019
3449 Clear 27 1010 61 10000 2.1 280 20:41 18.08.2019
3450 Clear 28 1010 57 10000 2.6 250 20:23 18.08.2019
3451 Clear 28 1010 65 10000 2.1 220 19:54 18.08.2019
3452 Clear 28 1010 65 10000 2.1 220 19:54 18.08.2019
3453 Clear 28 1010 65 10000 2.1 220 19:36 18.08.2019
3454 Clear 29 1010 61 10000 3.1 190 19:18 18.08.2019
3455 Clear 29 1009 54 10000 3.1 170 18:41 18.08.2019
3456 Clear 30 1009 51 10000 3.6 150 18:23 18.08.2019
3457 Clear 28 1009 45 10000 5.1 240 17:57 18.08.2019
3458 Rain 28 1009 51 10000 3.1 200 17:39 18.08.2019
3459 Rain 28 1009 48 10000 4.1 190 17:19 18.08.2019
3460 Rain 28 1009 54 10000 4.1 250 16:56 18.08.2019
3461 Rain 28 1009 54 10000 4.1 250 16:38 18.08.2019
3462 Rain 28 1009 51 10000 5.7 280 16:19 18.08.2019
3463 Thunderstorm 29 1009 42 10000 3.1 210 15:55 18.08.2019
3464 Thunderstorm 29 1009 42 10000 3.1 210 15:37 18.08.2019
3465 Clear 30 1009 42 10000 6.2 230 15:19 18.08.2019
3466 Clear 30 1009 37 10000 7.2 240 14:40 18.08.2019
3467 Clear 30 1009 38 10000 5.7 240 14:20 18.08.2019
3468 Clear 30 1009 38 10000 5.7 240 13:59 18.08.2019
3469 Clear 30 1009 38 10000 5.7 240 13:59 18.08.2019
3470 Clear 29 1009 35 10000 2.6 190 13:41 18.08.2019
3471 Clear 29 1009 45 10000 4.1 160 13:22 18.08.2019
3472 Clear 28 1009 45 10000 4.1 160 12:58 18.08.2019
3473 Clear 28 1009 45 10000 4.6 180 12:39 18.08.2019
3474 Clear 27 1009 51 10000 5.1 180 12:20 18.08.2019
3475 Clear 26 1009 61 10000 5.7 190 11:43 18.08.2019
3476 Clear 26 1009 61 10000 5.7 190 11:43 18.08.2019
3477 Clear 25 1009 57 10000 3.6 180 11:23 18.08.2019
3478 Clear 25 1009 57 10000 3.6 180 10:58 18.08.2019
3479 Clear 23 1009 64 10000 2.6 180 10:40 18.08.2019
3480 Clear 23 1011 69 10000 3.1 160 10:19 18.08.2019
3481 Clear 21 1010 73 10000 2.6 190 09:43 18.08.2019
3482 Clear 20 1010 77 10000 2.6 200 09:20 18.08.2019
3483 Clear 18 1010 88 10000 1.5 200 08:44 18.08.2019
3484 Clear 17 1010 87 10000 1 0 08:25 18.08.2019
3485 Clear 16 1010 87 10000 1 0 07:58 18.08.2019
3486 Clear 16 1010 93 10000 0.5 0 07:39 18.08.2019
3487 Clear 16 1010 93 10000 0.5 0 07:21 18.08.2019
3488 Clear 16 1011 93 10000 1 0 05:45 18.08.2019
3489 Clear 16 1011 93 10000 1 200 04:25 18.08.2019
3490 Clear 17 1012 93 10000 1.5 220 03:20 18.08.2019
3491 Clear 17 1012 93 10000 1.5 200 02:43 18.08.2019
3492 Clear 17 1012 93 10000 1 240 02:18 18.08.2019
3493 Clear 17 1012 93 10000 0.5 0 01:29 18.08.2019
3494 Clear 18 1012 93 10000 1.51 174.723 00:43 18.08.2019
3495 Clear 18 1012 88 10000 1 0 00:24 18.08.2019
3496 Clear 19 1012 88 10000 1 0 23:58 17.08.2019
3497 Clear 19 1012 88 10000 1 0 23:58 17.08.2019
3498 Clear 19 1012 88 10000 1 340 23:39 17.08.2019
3499 Rain 19 1012 88 10000 0.5 330 23:21 17.08.2019
3500 Clear 19 1012 88 10000 0.5 330 22:59 17.08.2019
3501 Clear 19 1012 88 10000 1.5 350 22:41 17.08.2019
3502 Rain 19 1012 82 10000 1.5 360 22:23 17.08.2019
3503 Clear 19 1012 82 10000 2.6 10 21:56 17.08.2019
3504 Clear 19 1012 82 10000 2.6 10 21:38 17.08.2019
3505 Clear 20 1012 88 10000 3.1 10 21:20 17.08.2019
3506 Clear 20 1012 77 10000 3.6 10 20:39 17.08.2019
3507 Rain 21 1013 82 10000 2.6 340 20:21 17.08.2019
3508 Rain 21 1013 83 10000 1.5 350 19:57 17.08.2019
3509 Rain 21 1013 83 10000 1.5 350 19:39 17.08.2019
3510 Rain 21 1013 77 10000 1.5 350 19:20 17.08.2019
3511 Rain 21 1013 83 10000 1.5 0 18:41 17.08.2019
3512 Rain 21 1013 78 10000 2.6 360 18:19 17.08.2019
3513 Rain 22 1013 78 10000 2.6 360 17:58 17.08.2019
3514 Rain 22 1013 73 10000 1.5 20 17:40 17.08.2019
3515 Rain 23 1013 69 10000 1.5 0 17:21 17.08.2019
3516 Rain 23 1013 69 10000 1.5 0 17:21 17.08.2019
3517 Clear 23 1013 69 10000 1.5 0 16:55 17.08.2019
3518 Clear 23 1013 69 10000 1.5 0 16:36 17.08.2019
3519 Clear 23 1013 69 10000 1.5 0 16:18 17.08.2019
3520 Clear 23 1013 68 10000 1.5 0 15:41 17.08.2019
3521 Clear 23 1013 68 10000 2.1 160 15:21 17.08.2019
3522 Clear 23 1014 64 10000 3.1 170 14:57 17.08.2019
3523 Clear 23 1014 64 10000 3.1 170 14:36 17.08.2019
3524 Clear 22 1014 68 10000 4.1 190 14:18 17.08.2019
3525 Clear 22 1014 68 10000 2.1 200 13:42 17.08.2019
3526 Clear 22 1014 68 10000 2.1 190 13:19 17.08.2019
3527 Clear 22 1015 72 10000 2.1 210 12:42 17.08.2019
3528 Drizzle 21 1015 68 10000 1.5 210 12:20 17.08.2019
3529 Rain 21 1015 68 10000 1.5 210 11:58 17.08.2019
3530 Rain 21 1014 72 10000 2.1 170 11:38 17.08.2019
3531 Rain 20 1014 72 10000 2.1 200 11:19 17.08.2019
3532 Clear 19 1014 72 10000 2.1 180 10:40 17.08.2019
3533 Rain 19 1014 77 10000 1.5 210 10:21 17.08.2019
3534 Rain 19 1014 77 10000 1.5 210 09:57 17.08.2019
3535 Rain 18 1014 77 10000 5.56 188.5 09:37 17.08.2019
3536 Rain 17 1014 82 10000 1.5 0 09:18 17.08.2019
3537 Clear 17 1014 82 10000 2.1 240 08:46 17.08.2019
3538 Clear 16 1013 82 10000 2.6 190 08:20 17.08.2019
3539 Clear 16 1014 77 10000 3.46 202.537 07:42 17.08.2019
3540 Clear 16 1013 77 10000 2.6 200 07:20 17.08.2019
3541 Clear 15 1014 77 10000 3.1 190 06:21 17.08.2019
3542 Clear 15 1014 82 10000 2.6 220 04:36 17.08.2019
3543 Clear 15 1014 87 10000 2.1 200 04:18 17.08.2019
3544 Clear 16 1014 77 10000 2.6 230 02:38 17.08.2019
3545 Clear 16 1015 77 10000 1.5 190 01:39 17.08.2019
3546 Clear 16 1015 77 10000 1.5 0 01:19 17.08.2019
3547 Clear 16 1015 77 10000 2.6 200 00:46 17.08.2019
3548 Clear 17 1015 72 10000 1.5 250 00:21 17.08.2019
3549 Clear 17 1015 68 10000 3.1 260 23:44 16.08.2019
3550 Clear 17 1015 68 10000 3.1 260 23:24 16.08.2019
3551 Clear 16 1015 68 10000 2.1 240 22:43 16.08.2019
3552 Clear 17 1015 64 10000 3.1 270 22:20 16.08.2019
3553 Clear 17 1015 64 10000 2.6 280 21:59 16.08.2019
3554 Clear 17 1015 64 10000 2.6 280 21:39 16.08.2019
3555 Clear 19 1015 60 10000 1.5 260 21:19 16.08.2019
3556 Clear 20 1015 44 10000 2.1 130 20:43 16.08.2019
3557 Clear 20 1015 44 10000 2.1 130 20:43 16.08.2019
3558 Clear 22 1015 47 10000 2.1 200 20:20 16.08.2019
3559 Clear 22 1015 47 10000 3.1 220 19:59 16.08.2019
3560 Clear 22 1015 47 10000 3.1 220 19:39 16.08.2019
3561 Clear 23 1015 47 10000 2.1 200 19:19 16.08.2019
3562 Clear 23 1015 47 10000 2.1 200 19:19 16.08.2019
3563 Clear 23 1016 47 10000 2.1 190 18:42 16.08.2019
3564 Clear 24 1016 47 10000 1.5 230 18:23 16.08.2019
3565 Clear 24 1016 44 10000 1.5 250 17:48 16.08.2019
3566 Clouds 24 1016 47 10000 2.1 90 17:30 16.08.2019
3567 Clouds 24 1016 47 10000 2.1 90 17:30 16.08.2019
3568 Clear 25 1017 47 10000 2.1 0 16:59 16.08.2019
3569 Clear 24 1017 47 10000 2.1 0 16:41 16.08.2019
3570 Clear 24 1017 47 10000 2.1 220 16:20 16.08.2019
3571 Clear 24 1017 50 10000 2.6 200 15:56 16.08.2019
3572 Clear 24 1017 50 10000 2.6 200 15:38 16.08.2019
3573 Clear 24 1018 53 10000 3.1 220 15:19 16.08.2019
3574 Clear 24 1018 53 10000 2.1 0 14:57 16.08.2019
3575 Clear 23 1018 53 10000 2.1 0 14:38 16.08.2019
3576 Clear 23 1018 53 10000 3.1 200 14:18 16.08.2019
3577 Clear 23 1018 53 10000 2.1 190 13:41 16.08.2019
3578 Clouds 23 1019 56 10000 2.6 230 13:22 16.08.2019
3579 Clouds 23 1019 56 10000 2.6 230 13:22 16.08.2019
3580 Clouds 23 1019 60 10000 3.1 200 12:55 16.08.2019
3581 Clouds 23 1019 60 10000 3.1 200 12:37 16.08.2019
3582 Clouds 22 1019 60 10000 2.6 220 12:18 16.08.2019
3583 Clouds 21 1020 68 10000 2.6 190 11:41 16.08.2019
3584 Clear 20 1020 68 10000 2.6 180 11:23 16.08.2019
3585 Clear 20 1020 72 10000 2.6 200 10:43 16.08.2019
3586 Clear 19 1020 77 10000 2.6 200 10:22 16.08.2019
3587 Clear 18 1020 77 10000 3.6 180 09:56 16.08.2019
3588 Clear 17 1020 77 10000 3.6 180 09:37 16.08.2019
3589 Clear 16 1021 82 10000 1.5 150 09:18 16.08.2019
3590 Clear 15 1020 82 10000 1.5 0 08:41 16.08.2019
3591 Clear 14 1020 82 10000 1 0 08:21 16.08.2019
3592 Clear 14 1020 93 10000 1 0 07:53 16.08.2019
3593 Clear 13 1020 93 10000 2.6 200 07:32 16.08.2019
3594 Clear 13 1020 93 10000 1.5 250 06:57 16.08.2019
3595 Rain 13 1020 93 10000 1.5 250 06:31 16.08.2019
3596 Clear 13 1019 87 10000 1.5 130 05:41 16.08.2019
3597 Clear 14 1020 87 10000 1 0 04:28 16.08.2019
3598 Rain 14 1020 87 10000 1 0 02:40 16.08.2019
3599 Rain 15 1020 82 10000 3.1 270 01:33 16.08.2019
3600 Clear 15 1020 77 10000 1.5 0 00:59 16.08.2019
3601 Clouds 15 1020 77 10000 1.5 0 00:40 16.08.2019
3602 Rain 16 1019 77 10000 0.5 0 00:21 16.08.2019
3603 Rain 16 1019 72 10000 1.5 0 23:45 15.08.2019
3604 Rain 16 1019 77 10000 1.5 340 23:22 15.08.2019
3605 Clear 15 1019 77 10000 1.5 340 22:58 15.08.2019
3606 Clear 16 1019 72 10000 1.5 290 22:39 15.08.2019
3607 Clouds 16 1018 77 10000 2.1 300 22:20 15.08.2019
3608 Clouds 17 1018 68 7000 6.2 300 21:55 15.08.2019
3609 Clouds 16 1018 68 7000 6.2 300 21:37 15.08.2019
3610 Rain 18 1017 56 10000 3.1 260 21:18 15.08.2019
3611 Clear 18 1017 56 10000 4.1 250 20:43 15.08.2019
3612 Clear 18 1017 88 10000 2.6 160 20:22 15.08.2019
3613 Clear 18 1016 82 10000 2.6 180 19:58 15.08.2019
3614 Clear 18 1016 82 10000 2.6 180 19:39 15.08.2019
3615 Clear 18 1016 82 10000 4.1 180 19:21 15.08.2019
3616 Clear 18 1016 82 10000 4.1 180 19:21 15.08.2019
3617 Clear 19 1016 88 10000 5.1 210 18:47 15.08.2019
3618 Clear 19 1016 77 10000 4.1 200 18:23 15.08.2019
3619 Rain 20 1016 56 10000 3.6 270 17:58 15.08.2019
3620 Clear 20 1015 64 10000 4.6 200 17:38 15.08.2019
3621 Rain 21 1015 64 10000 5.7 210 17:19 15.08.2019
3622 Rain 21 1015 60 10000 4.1 200 16:57 15.08.2019
3623 Rain 21 1015 68 10000 5.1 200 16:38 15.08.2019
3624 Clear 21 1015 64 10000 5.7 220 16:20 15.08.2019
3625 Clear 22 1015 64 10000 5.1 220 15:39 15.08.2019
3626 Clear 22 1015 72 10000 5.1 210 15:20 15.08.2019
3627 Clouds 21 1015 72 10000 4.6 210 14:57 15.08.2019
3628 Clouds 21 1015 72 10000 4.6 210 14:38 15.08.2019
3629 Clouds 20 1016 72 10000 4.6 200 14:19 15.08.2019
3630 Rain 20 1016 82 10000 3.6 200 13:56 15.08.2019
3631 Rain 20 1016 82 10000 3.6 200 13:38 15.08.2019
3632 Rain 19 1016 82 10000 5.7 240 13:19 15.08.2019
3633 Rain 19 1015 68 10000 6.7 200 12:40 15.08.2019
3634 Rain 19 1015 64 10000 6.2 210 12:20 15.08.2019
3635 Rain 19 1015 68 10000 5.1 220 11:59 15.08.2019
3636 Clouds 19 1015 60 10000 6.7 210 11:39 15.08.2019
3637 Clouds 19 1015 60 10000 6.2 200 11:20 15.08.2019
3638 Clouds 19 1015 60 10000 4.6 200 10:59 15.08.2019
3639 Clouds 19 1015 60 10000 4.6 200 10:37 15.08.2019
3640 Clouds 18 1014 68 10000 4.1 190 10:18 15.08.2019
3641 Clouds 17 1015 68 10000 4.1 210 09:44 15.08.2019
3642 Clouds 16 1015 72 10000 3.1 190 09:22 15.08.2019
3643 Rain 15 1015 67 10000 3.1 190 08:55 15.08.2019
3644 Rain 15 1015 67 10000 3.1 190 08:36 15.08.2019
3645 Rain 14 1014 67 10000 4.1 160 08:18 15.08.2019
3646 Clear 14 1015 82 10000 3.6 200 07:41 15.08.2019
3647 Clear 14 1015 82 10000 4.1 190 07:21 15.08.2019
3648 Clouds 13 1015 77 10000 2.6 210 06:53 15.08.2019
3649 Clouds 13 1015 77 10000 2.6 210 06:31 15.08.2019
3650 Clear 13 1015 82 10000 3.6 230 05:39 15.08.2019
3651 Clear 13 1015 76 10000 2.1 220 05:21 15.08.2019
3652 Clear 13 1015 82 10000 2.6 200 04:30 15.08.2019
3653 Clear 13 1016 76 10000 2.6 240 03:30 15.08.2019
3654 Clear 13 1016 82 10000 2.1 230 02:35 15.08.2019
3655 Clear 14 1016 82 10000 1.5 220 01:49 15.08.2019
3656 Clear 14 1016 67 10000 3.1 260 01:27 15.08.2019
3657 Clear 14 1016 67 10000 3.1 260 00:39 15.08.2019
3658 Clear 14 1016 67 10000 3.1 260 00:20 15.08.2019
3659 Clear 14 1017 72 10000 3.1 270 23:57 14.08.2019
3660 Clear 15 1017 72 10000 3.1 270 23:37 14.08.2019
3661 Clear 15 1017 67 10000 3.6 270 23:19 14.08.2019
3662 Clear 15 1017 67 10000 3.6 270 22:56 14.08.2019
3663 Clear 15 1017 67 10000 3.6 270 22:38 14.08.2019
3664 Clear 16 1017 72 10000 3.6 270 22:19 14.08.2019
3665 Clear 16 1017 56 10000 2.6 120 21:55 14.08.2019
3666 Clear 17 1017 56 10000 2.6 120 21:36 14.08.2019
3667 Clear 19 1017 68 10000 2.1 270 21:18 14.08.2019
3668 Clear 20 1017 56 10000 1 0 20:41 14.08.2019
3669 Clear 20 1017 49 10000 1.86 125.459 20:21 14.08.2019
3670 Clouds 20 1017 36 10000 1 0 19:56 14.08.2019
3671 Clouds 23 1017 36 10000 1 0 19:37 14.08.2019
3672 Clouds 23 1017 36 10000 1 0 19:19 14.08.2019
3673 Clear 24 1017 43 10000 1.5 0 18:56 14.08.2019
3674 Clear 24 1017 43 10000 1.5 0 18:38 14.08.2019
3675 Clear 24 1017 43 10000 1 0 18:19 14.08.2019
3676 Clear 24 1018 40 10000 1 0 17:56 14.08.2019
3677 Clear 24 1018 40 10000 1 0 17:37 14.08.2019
3678 Clear 24 1018 40 10000 1 0 17:37 14.08.2019
3679 Clear 23 1018 43 10000 2.6 230 17:18 14.08.2019
3680 Clear 24 1018 40 10000 2.1 0 16:42 14.08.2019
3681 Clear 23 1018 43 10000 2.1 230 16:20 14.08.2019
3682 Clear 23 1019 40 10000 1.5 0 15:55 14.08.2019
3683 Clear 23 1019 40 10000 1.5 0 15:55 14.08.2019
3684 Clear 23 1019 40 10000 1.5 0 15:36 14.08.2019
3685 Clear 22 1019 43 10000 2.1 0 15:18 14.08.2019
3686 Clear 22 1019 46 10000 2.1 140 14:41 14.08.2019
3687 Clear 22 1019 43 10000 3.1 220 14:19 14.08.2019
3688 Clouds 21 1020 46 10000 1.5 110 13:59 14.08.2019
3689 Clear 21 1020 40 10000 2.1 0 13:40 14.08.2019
3690 Clear 21 1020 43 10000 2.6 200 13:22 14.08.2019
3691 Clear 21 1020 46 10000 2.1 220 12:56 14.08.2019
3692 Clear 21 1020 46 10000 2.1 220 12:38 14.08.2019
3693 Clear 20 1020 49 10000 2.6 170 12:20 14.08.2019
3694 Clear 19 1020 59 10000 2.6 190 11:46 14.08.2019
3695 Clear 18 1021 59 10000 2.6 230 11:23 14.08.2019
3696 Clear 18 1021 63 10000 1.5 120 10:59 14.08.2019
3697 Clear 17 1021 67 10000 2.1 190 10:39 14.08.2019
3698 Clear 16 1021 67 10000 2.1 200 10:21 14.08.2019
3699 Clear 15 1021 72 10000 1 0 09:45 14.08.2019
3700 Clear 14 1021 67 10000 1.5 0 09:22 14.08.2019
3701 Clear 13 1021 82 10000 1.5 0 08:49 14.08.2019
3702 Clear 12 1021 76 10000 2.1 190 08:30 14.08.2019
3703 Clear 11 1020 81 10000 2.6 190 07:58 14.08.2019
3704 Clear 11 1020 81 10000 3.1 210 07:39 14.08.2019
3705 Clear 10 1020 81 10000 2.6 180 07:21 14.08.2019
3706 Clear 11 1020 76 10000 2.1 180 06:43 14.08.2019
3707 Clear 10 1020 81 10000 1.5 0 05:47 14.08.2019
3708 Clear 12 1020 71 10000 3.6 250 04:45 14.08.2019
3709 Clear 12 1020 71 10000 2.6 250 02:56 14.08.2019
3710 Clear 12 1020 71 10000 2.6 250 02:26 14.08.2019
3711 Clear 14 1021 62 10000 1.5 260 01:38 14.08.2019
3712 Clear 14 1020 67 10000 3.1 240 00:54 14.08.2019
3713 Clear 14 1020 62 10000 3.1 250 23:50 13.08.2019
3714 Clear 14 1020 62 10000 3.1 270 23:25 13.08.2019
3715 Clear 14 1020 62 10000 3.1 270 22:59 13.08.2019
3716 Clear 14 1020 59 10000 3.6 280 22:39 13.08.2019
3717 Clear 15 1020 55 10000 2.6 290 22:21 13.08.2019
3718 Clear 15 1020 55 10000 2.6 290 21:58 13.08.2019
3719 Clear 16 1019 52 10000 2.1 280 21:38 13.08.2019
3720 Clear 16 1019 52 10000 2.1 280 21:38 13.08.2019
3721 Clear 18 1019 45 10000 2.1 290 21:19 13.08.2019
3722 Clear 18 1019 45 10000 2.6 300 20:56 13.08.2019
3723 Clear 18 1019 45 10000 2.6 300 20:37 13.08.2019
3724 Clear 19 1019 42 10000 1 90 20:18 13.08.2019
3725 Clear 18 1019 42 10000 0.5 0 19:43 13.08.2019
3726 Clear 19 1019 42 10000 1.5 0 19:22 13.08.2019
3727 Clear 19 1019 43 10000 1 0 18:59 13.08.2019
3728 Clear 20 1019 45 10000 2.6 360 18:40 13.08.2019
3729 Clear 21 1019 46 10000 3.1 340 18:20 13.08.2019
3730 Clear 21 1019 40 10000 2.6 330 17:43 13.08.2019
3731 Clear 21 1019 40 10000 2.1 0 17:22 13.08.2019
3732 Clear 21 1019 43 10000 2.6 0 16:57 13.08.2019
3733 Clear 21 1019 43 10000 2.6 0 16:39 13.08.2019
3734 Clear 21 1019 45 10000 3.1 320 16:21 13.08.2019
3735 Clear 21 1019 46 10000 1.5 0 15:59 13.08.2019
3736 Clouds 21 1020 46 10000 2.6 320 15:38 13.08.2019
3737 Clouds 21 1020 49 10000 3.6 290 15:19 13.08.2019
3738 Clouds 21 1020 49 10000 3.6 290 15:19 13.08.2019
3739 Clouds 21 1020 49 10000 3.6 290 15:19 13.08.2019
3740 Clouds 20 1020 49 10000 1.5 0 14:42 13.08.2019
3741 Clouds 20 1020 52 10000 2.1 320 14:20 13.08.2019
3742 Clouds 20 1020 49 10000 1.5 0 13:57 13.08.2019
3743 Clouds 20 1021 52 10000 2.1 0 13:38 13.08.2019
3744 Clouds 19 1021 55 10000 3.1 340 13:18 13.08.2019
3745 Clouds 19 1021 59 10000 1.5 0 12:56 13.08.2019
3746 Clouds 19 1021 59 10000 1.5 0 12:37 13.08.2019
3747 Clouds 18 1021 67 10000 2.6 320 12:18 13.08.2019
3748 Clouds 18 1021 63 10000 2.6 20 11:42 13.08.2019
3749 Clouds 18 1021 63 10000 3.1 270 11:22 13.08.2019
3750 Clouds 18 1021 72 10000 3.1 250 10:57 13.08.2019
3751 Clouds 17 1021 72 10000 3.1 250 10:38 13.08.2019
3752 Clouds 17 1021 72 10000 3.6 250 10:19 13.08.2019
3753 Clouds 16 1021 77 10000 3.1 230 09:45 13.08.2019
3754 Clouds 16 1021 77 10000 3.1 230 09:45 13.08.2019
3755 Clouds 15 1021 82 10000 2.6 220 09:25 13.08.2019
3756 Clear 14 1020 82 10000 3.1 210 08:57 13.08.2019
3757 Clear 14 1020 82 10000 3.1 210 08:39 13.08.2019
3758 Clouds 13 1020 87 10000 1.5 220 08:20 13.08.2019
3759 Clear 13 1020 93 10000 1.5 190 07:45 13.08.2019
3760 Clear 13 1020 93 10000 1 0 07:23 13.08.2019
3761 Clear 12 1019 93 10000 2.6 350 06:44 13.08.2019
3762 Clear 12 1019 93 10000 1 0 05:53 13.08.2019
3763 Clear 12 1019 87 10000 3.1 190 05:20 13.08.2019
3764 Clear 13 1019 82 10000 2.6 200 02:22 13.08.2019
3765 Clear 13 1019 87 10000 2.6 230 01:38 13.08.2019
3766 Clear 14 1019 82 10000 2.6 250 00:52 13.08.2019
3767 Clear 14 1019 87 10000 2.1 220 00:22 13.08.2019
3768 Clear 15 1019 77 10000 2.1 170 23:44 12.08.2019
3769 Clear 15 1018 77 10000 1.5 0 23:21 12.08.2019
3770 Clear 15 1018 77 10000 2.6 200 22:56 12.08.2019
3771 Clear 15 1018 77 10000 2.6 200 22:38 12.08.2019
3772 Clear 15 1018 72 10000 1.5 0 22:18 12.08.2019
3773 Clear 16 1017 68 10000 2.1 260 21:54 12.08.2019
3774 Clear 16 1017 68 10000 2.1 260 21:36 12.08.2019
3775 Thunderstorm 17 1017 63 10000 5.1 310 21:18 12.08.2019
3776 Thunderstorm 18 1017 59 10000 4.6 280 20:41 12.08.2019
3777 Thunderstorm 19 1016 68 10000 3.1 210 20:21 12.08.2019
3778 Clouds 19 1016 64 10000 4.1 210 19:58 12.08.2019
3779 Clouds 19 1016 64 10000 4.1 210 19:39 12.08.2019
3780 Clear 20 1016 64 10000 3.1 190 19:21 12.08.2019
3781 Clouds 20 1016 60 10000 3.6 180 18:59 12.08.2019
3782 Clouds 20 1016 64 10000 4.6 220 18:40 12.08.2019
3783 Clouds 20 1016 64 10000 3.6 200 18:21 12.08.2019
3784 Clouds 20 1016 60 10000 4.1 210 17:56 12.08.2019
3785 Clouds 20 1016 60 10000 4.1 210 17:38 12.08.2019
3786 Clouds 20 1016 64 10000 3.1 200 17:20 12.08.2019
3787 Clear 20 1016 60 10000 3.6 220 16:55 12.08.2019
3788 Clear 20 1016 60 10000 3.6 220 16:55 12.08.2019
3789 Clear 21 1016 60 10000 3.6 220 16:37 12.08.2019
3790 Clouds 20 1016 64 10000 2.1 200 16:18 12.08.2019
3791 -273 0 0 0 0 0 16:18 12.08.2019
3792 Clouds 19 1017 64 10000 1.5 200 15:42 12.08.2019
3793 -273 0 0 0 0 0 15:41 12.08.2019
3794 Clouds 20 1017 64 10000 2.1 200 15:21 12.08.2019
3795 Clouds 20 1017 64 10000 2.1 200 15:21 12.08.2019
3796 Clouds 19 1018 68 10000 1 0 14:57 12.08.2019
3797 -273 0 0 0 0 0 14:57 12.08.2019
3798 Clouds 19 1018 68 10000 1 0 14:39 12.08.2019
3799 Clouds 19 1018 68 10000 1.5 0 14:20 12.08.2019
3800 Clouds 18 1018 64 10000 1.5 0 13:43 12.08.2019
3801 Clouds 18 1018 72 10000 1 0 13:24 12.08.2019
3802 Rain 17 1018 77 10000 1.5 0 12:59 12.08.2019
3803 Rain 17 1018 77 10000 2.1 80 12:40 12.08.2019
3804 Rain 16 1019 77 10000 1 0 12:18 12.08.2019
3805 Rain 17 1019 77 10000 1 0 12:18 12.08.2019
3806 Drizzle 16 1020 82 10000 1.23 120.179 11:43 12.08.2019
3807 Clouds 16 1019 68 10000 1.5 0 11:25 12.08.2019
3808 Rain 16 1018 72 10000 2.1 120 10:43 12.08.2019
3809 Rain 16 1018 82 10000 1.23 120.179 10:23 12.08.2019
3810 Rain 16 1018 82 10000 1 0 09:57 12.08.2019
3811 Rain 16 1018 82 10000 0.5 0 09:38 12.08.2019
3812 Rain 15 1018 82 10000 0.5 0 09:20 12.08.2019
3813 Rain 15 1018 87 10000 1.5 290 08:58 12.08.2019
3814 Clouds 15 1018 87 10000 0.63 333.639 08:39 12.08.2019
3815 Clouds 15 1018 87 10000 1.5 0 08:21 12.08.2019
3816 Clouds 15 1018 93 10000 1.5 310 07:53 12.08.2019
3817 Clouds 14 1018 93 10000 1.5 310 07:33 12.08.2019
3818 Clouds 14 1018 93 10000 1.5 0 06:53 12.08.2019
3819 Clouds 14 1018 93 10000 1.5 260 05:41 12.08.2019
3820 Rain 15 1018 93 10000 1 0 03:25 12.08.2019
3821 Rain 15 1018 93 10000 1 230 02:41 12.08.2019
3822 Rain 15 1018 93 10000 1 210 01:23 12.08.2019
3823 Rain 15 1018 93 10000 1 210 00:58 12.08.2019
3824 Rain 15 1018 93 8000 1.5 190 00:40 12.08.2019
3825 Rain 15 1018 93 10000 2.1 170 00:20 12.08.2019
3826 Rain 15 1018 93 10000 2.1 170 23:57 11.08.2019
3827 Rain 15 1018 93 10000 2.1 150 23:38 11.08.2019
3828 Rain 15 1018 93 8000 1 0 23:19 11.08.2019
3829 -273 0 0 0 0 0 22:55 11.08.2019
3830 Rain 15 1018 93 10000 1.5 0 22:36 11.08.2019
3831 Rain 15 1018 87 9000 2.1 30 22:18 11.08.2019
3832 Rain 15 1017 93 10000 1.5 0 21:55 11.08.2019
3833 Rain 15 1017 93 10000 1.5 0 21:36 11.08.2019
3834 Rain 16 1017 93 10000 1.5 0 21:18 11.08.2019
3835 Rain 16 1017 93 10000 1.5 0 20:42 11.08.2019
3836 Rain 16 1017 93 10000 1.5 0 20:42 11.08.2019
3837 Rain 16 1017 93 10000 2.1 0 20:23 11.08.2019
3838 Rain 16 1016 88 10000 1.5 90 19:54 11.08.2019
3839 Rain 16 1016 88 10000 1.5 90 19:36 11.08.2019
3840 Rain 16 1016 87 10000 2.1 280 19:18 11.08.2019
3841 Rain 17 1016 87 8000 6.2 300 18:38 11.08.2019
3842 Rain 18 1014 72 10000 5.7 300 18:19 11.08.2019
3843 Rain 21 1013 68 10000 5.1 330 17:54 11.08.2019
3844 Rain 22 1013 68 10000 5.1 330 17:36 11.08.2019
3845 Rain 23 1014 73 10000 4.6 300 17:18 11.08.2019
3846 Clouds 25 1013 64 10000 2.6 340 16:40 11.08.2019
3847 Clouds 26 1012 57 10000 3.6 40 16:22 11.08.2019
3848 Rain 27 1013 64 10000 2.6 10 15:57 11.08.2019
3849 Rain 27 1013 64 10000 2.6 10 15:39 11.08.2019
3850 Clouds 27 1013 53 10000 3.1 40 15:21 11.08.2019
3851 Clear 27 1014 47 10000 2.6 360 14:55 11.08.2019
3852 Clear 27 1014 47 10000 2.6 360 14:37 11.08.2019
3853 Clear 27 1014 47 10000 3.1 10 14:19 11.08.2019
3854 Clear 27 1014 53 10000 2.6 20 13:42 11.08.2019
3855 Clear 27 1015 50 10000 2.1 70 13:23 11.08.2019
3856 Clear 26 1016 57 10000 1.5 70 12:44 11.08.2019
3857 Clear 25 1016 56 10000 1.5 60 12:22 11.08.2019
3858 Clear 24 1017 64 10000 1.5 0 11:42 11.08.2019
3859 Clear 24 1017 64 10000 1 0 11:23 11.08.2019
3860 Clear 23 1017 64 10000 1 0 10:59 11.08.2019
3861 Clear 22 1017 73 10000 1.5 0 10:40 11.08.2019
3862 Clear 21 1017 72 10000 1 0 10:21 11.08.2019
3863 Clear 21 1017 72 10000 1 0 09:56 11.08.2019
3864 Clear 20 1018 64 10000 1 0 09:38 11.08.2019
3865 Clear 19 1018 72 10000 1 0 09:19 11.08.2019
3866 Clear 19 1018 72 10000 1 0 09:19 11.08.2019
3867 Clear 18 1018 72 10000 0.5 0 08:44 11.08.2019
3868 Clear 17 1018 82 10000 2.1 210 08:25 11.08.2019
3869 Clear 16 1018 82 10000 2.6 230 07:54 11.08.2019
3870 Clear 16 1018 77 10000 2.1 140 07:22 11.08.2019
3871 Clear 15 1018 82 10000 1 0 06:41 11.08.2019
3872 Clear 16 1018 87 10000 2.1 200 05:34 11.08.2019
3873 Clear 16 1019 82 10000 2.6 230 03:36 11.08.2019
3874 Clear 17 1019 68 10000 3.1 190 02:46 11.08.2019
3875 Clear 17 1019 77 10000 2.6 210 01:38 11.08.2019
3876 Clear 17 1019 72 10000 2.1 230 01:19 11.08.2019
3877 Clear 17 1019 77 10000 1.5 0 00:43 11.08.2019
3878 Clear 18 1019 68 10000 3.6 270 00:23 11.08.2019
3879 Clear 19 1019 72 10000 3.1 270 23:43 10.08.2019
3880 Clear 19 1018 68 10000 3.6 280 23:24 10.08.2019
3881 Clear 19 1018 60 10000 3.1 210 22:43 10.08.2019
3882 Clear 19 1018 60 10000 2.1 160 22:25 10.08.2019
3883 Clear 19 1018 64 10000 2.1 270 21:58 10.08.2019
3884 Clear 19 1018 64 10000 2.1 270 21:58 10.08.2019
3885 Clear 20 1018 60 10000 2.1 210 21:38 10.08.2019
3886 Clear 22 1017 60 10000 2.6 240 21:19 10.08.2019
3887 Clear 23 1017 57 10000 3.1 220 20:56 10.08.2019
3888 Clear 24 1017 57 10000 3.1 220 20:37 10.08.2019
3889 Clear 24 1017 50 10000 3.1 230 20:18 10.08.2019
3890 Clear 23 1017 47 10000 3.6 240 19:39 10.08.2019
3891 Clear 24 1017 44 10000 4.1 240 19:21 10.08.2019
3892 Clear 25 1017 44 10000 5.7 220 18:41 10.08.2019
3893 Clear 26 1017 39 10000 6.2 220 18:22 10.08.2019
3894 Clear 26 1017 41 10000 5.7 220 17:46 10.08.2019
3895 Clear 26 1017 41 10000 5.7 220 17:25 10.08.2019
3896 Clear 26 1017 41 10000 5.7 210 16:47 10.08.2019
3897 Clear 26 1017 41 10000 5.7 210 16:29 10.08.2019
3898 Clear 26 1017 41 10000 6.2 210 15:59 10.08.2019
3899 Clear 26 1017 44 10000 6.2 210 15:40 10.08.2019
3900 Clear 25 1017 44 10000 6.2 220 15:21 10.08.2019
3901 Clear 24 1017 44 10000 6.2 230 14:43 10.08.2019
3902 Clear 25 1017 44 10000 6.2 230 14:19 10.08.2019
3903 Clear 24 1017 50 10000 5.1 200 13:40 10.08.2019
3904 Clouds 23 1017 64 10000 4.6 150 13:19 10.08.2019
3905 Clouds 22 1019 60 10000 2.6 250 12:43 10.08.2019
3906 Clear 21 1018 68 10000 5.1 170 12:23 10.08.2019
3907 Clear 20 1018 73 10000 4.1 180 11:57 10.08.2019
3908 Clear 20 1018 73 10000 4.1 180 11:39 10.08.2019
3909 Clear 19 1018 82 10000 2.6 140 11:20 10.08.2019
3910 Rain 19 1017 82 10000 3.6 170 10:39 10.08.2019
3911 Clear 18 1017 82 10000 5.1 180 10:20 10.08.2019
3912 Rain 18 1017 88 10000 3.6 170 10:00 10.08.2019
3913 Rain 18 1017 88 10000 3.6 170 09:39 10.08.2019
3914 Rain 18 1016 88 10000 3.6 180 09:21 10.08.2019
3915 Rain 18 1016 88 10000 3.1 190 08:39 10.08.2019
3916 Rain 18 1016 88 10000 3.1 190 08:39 10.08.2019
3917 Clouds 18 1016 93 10000 4.1 180 08:20 10.08.2019
3918 Rain 18 1015 88 10000 3.6 170 07:53 10.08.2019
3919 Rain 18 1015 88 10000 3.6 170 07:28 10.08.2019
3920 Rain 18 1015 88 10000 4.1 200 06:49 10.08.2019
3921 Rain 18 1015 88 10000 3.1 200 06:25 10.08.2019
3922 Rain 20 1014 78 10000 3.1 240 05:24 10.08.2019
3923 Rain 21 1013 88 10000 1.5 230 04:26 10.08.2019
3924 Thunderstorm 22 1013 100 10000 3.1 240 02:54 10.08.2019
3925 Rain 22 1012 100 10000 1.5 360 02:24 10.08.2019
3926 Rain 22 1013 94 3600 3.1 300 01:42 10.08.2019
3927 Rain 22 1012 94 10000 1 0 01:21 10.08.2019
3928 Rain 22 1012 94 10000 2.1 340 00:48 10.08.2019
3929 Rain 23 1011 78 10000 5.7 190 00:22 10.08.2019
3930 Thunderstorm 23 1012 88 8000 4.6 170 23:44 09.08.2019
3931 Rain 24 1012 73 10000 3.1 100 23:24 09.08.2019
3932 Thunderstorm 23 1011 61 10000 2.1 0 22:58 09.08.2019
3933 Thunderstorm 24 1011 61 10000 2.1 0 22:39 09.08.2019
3934 Rain 24 1010 58 10000 3.1 310 22:20 09.08.2019
3935 Rain 25 1010 51 10000 5.1 290 21:55 09.08.2019
3936 Rain 25 1010 51 10000 5.1 290 21:36 09.08.2019
3937 Rain 26 1009 54 10000 4.1 190 21:18 09.08.2019
3938 Clouds 27 1008 54 10000 4.6 190 20:54 09.08.2019
3939 Clouds 28 1008 54 10000 4.6 190 20:36 09.08.2019
3940 Clear 28 1008 58 10000 4.6 190 20:18 09.08.2019
3941 Rain 27 1007 58 10000 4.6 170 19:41 09.08.2019
3942 Rain 29 1007 46 10000 3.1 170 19:19 09.08.2019
3943 Clear 30 1007 46 10000 3.6 160 18:42 09.08.2019
3944 Clear 32 1007 41 10000 3.6 160 18:22 09.08.2019
3945 Clouds 32 1007 49 10000 5.1 190 17:58 09.08.2019
3946 Clear 32 1007 49 10000 2.6 200 17:40 09.08.2019
3947 Clear 32 1008 43 10000 1.5 0 17:22 09.08.2019
3948 Clear 32 1008 43 10000 3.1 200 16:42 09.08.2019
3949 Clear 33 1008 43 10000 3.1 200 16:42 09.08.2019
3950 Clear 33 1008 38 10000 3.6 200 16:23 09.08.2019
3951 Clear 33 1009 38 10000 4.6 210 15:58 09.08.2019
3952 Clear 33 1009 38 10000 4.6 210 15:39 09.08.2019
3953 Clear 32 1009 40 10000 3.1 160 15:20 09.08.2019
3954 Clouds 32 1009 43 10000 3.6 180 14:56 09.08.2019
3955 Clouds 32 1009 43 10000 3.6 180 14:56 09.08.2019
3956 Clear 31 1009 38 10000 4.1 190 14:37 09.08.2019
3957 Clear 31 1010 43 10000 4.1 200 14:19 09.08.2019
3958 Clear 31 1010 48 10000 4.1 220 13:44 09.08.2019
3959 Clear 30 1010 54 10000 2.1 170 13:20 09.08.2019
3960 Clear 29 1010 54 10000 2.1 220 12:47 09.08.2019
3961 Clear 28 1010 57 10000 1.5 0 12:25 09.08.2019
3962 Clouds 28 1010 57 10000 3.6 190 11:59 09.08.2019
3963 Clear 27 1011 57 10000 2.6 210 11:40 09.08.2019
3964 Clear 26 1011 61 10000 3.1 210 11:20 09.08.2019
3965 Clear 25 1011 64 10000 3.6 220 10:41 09.08.2019
3966 Clear 23 1011 64 10000 2.1 200 10:22 09.08.2019
3967 Clouds 22 1011 73 10000 1.5 190 09:59 09.08.2019
3968 Clear 22 1011 73 10000 2.6 220 09:38 09.08.2019
3969 Clear 21 1011 68 10000 2.6 200 09:19 09.08.2019
3970 Clear 20 1011 68 10000 1.5 200 08:44 09.08.2019
3971 Clear 19 1011 72 10000 0.5 0 08:25 09.08.2019
3972 Clouds 18 1012 88 10000 1.5 180 07:56 09.08.2019
3973 Clouds 18 1012 82 10000 1.5 130 07:37 09.08.2019
3974 Clouds 17 1012 82 10000 2.19 223.093 07:19 09.08.2019
3975 Clouds 17 1012 82 10000 1 0 06:44 09.08.2019
3976 Clouds 17 1012 77 10000 0.5 0 06:21 09.08.2019
3977 Clouds 16 1012 77 10000 1.5 220 05:31 09.08.2019
3978 Clear 17 1013 72 10000 3.6 270 02:28 09.08.2019
3979 Clear 18 1013 72 10000 4.1 270 01:24 09.08.2019
3980 Clear 18 1013 72 10000 3.6 270 00:42 09.08.2019
3981 Clear 18 1013 68 10000 4.1 280 00:23 09.08.2019
3982 Clear 18 1013 73 10000 3.6 270 23:57 08.08.2019
3983 Clear 19 1013 73 10000 3.6 270 23:37 08.08.2019
3984 Clear 19 1013 73 10000 3.1 270 23:19 08.08.2019
3985 Clear 19 1013 73 10000 3.6 260 22:55 08.08.2019
3986 Clear 19 1013 73 10000 3.6 260 22:36 08.08.2019
3987 Clear 20 1013 73 10000 4.1 280 22:18 08.08.2019
3988 Clear 20 1012 69 10000 2.6 290 21:42 08.08.2019
3989 Clear 20 1012 69 10000 2.6 290 21:42 08.08.2019
3990 Clouds 22 1012 50 10000 1 0 21:23 08.08.2019
3991 Clouds 23 1012 47 10000 1.5 100 20:57 08.08.2019
3992 Clouds 23 1012 47 10000 1.5 100 20:39 08.08.2019
3993 Clear 25 1012 44 10000 1.5 20 20:19 08.08.2019
3994 Clear 25 1012 47 10000 2.1 340 19:49 08.08.2019
3995 Clear 25 1012 47 10000 1.5 0 19:29 08.08.2019
3996 Clear 26 1013 45 10000 2.1 260 18:59 08.08.2019
3997 Clear 27 1013 45 10000 2.1 260 18:40 08.08.2019
3998 Clear 27 1013 48 10000 2.1 220 18:19 08.08.2019
3999 Clear 27 1013 47 10000 2.1 220 17:42 08.08.2019
4000 Clear 27 1013 42 10000 2.6 180 17:24 08.08.2019
4001 Clouds 27 1013 54 10000 2.1 60 16:59 08.08.2019
4002 Clear 27 1013 44 10000 1.5 0 16:41 08.08.2019
4003 Clear 27 1013 47 10000 2.6 210 16:23 08.08.2019
4004 Clouds 27 1013 54 10000 2.1 0 15:57 08.08.2019
4005 Clouds 27 1013 42 10000 1.5 0 15:38 08.08.2019
4006 Clear 26 1013 44 10000 1.5 0 15:20 08.08.2019
4007 Clear 26 1014 44 10000 2.1 0 14:40 08.08.2019
4008 Clear 26 1014 47 10000 1.5 0 14:21 08.08.2019
4009 Clouds 26 1014 50 10000 2.6 0 13:56 08.08.2019
4010 Clouds 26 1014 50 10000 2.6 0 13:36 08.08.2019
4011 Clouds 25 1014 50 10000 2.1 0 13:18 08.08.2019
4012 Clouds 24 1014 57 10000 2.1 0 12:38 08.08.2019
4013 Clear 23 1014 57 10000 1.5 0 12:19 08.08.2019
4014 Clear 22 1014 69 10000 2.6 210 11:44 08.08.2019
4015 Clear 22 1014 73 10000 3.1 210 11:25 08.08.2019
4016 Clear 21 1014 73 10000 3.1 190 10:56 08.08.2019
4017 Clear 21 1014 73 10000 3.1 190 10:38 08.08.2019
4018 Clear 20 1014 83 10000 3.6 210 10:19 08.08.2019
4019 Clear 19 1014 82 10000 3.1 220 09:42 08.08.2019
4020 Fog 18 1014 88 10000 2.1 180 09:22 08.08.2019
4021 Fog 17 1013 93 10000 2.1 170 08:44 08.08.2019
4022 Fog 16 1014 88 10000 2.1 180 08:22 08.08.2019
4023 Clear 16 1013 93 10000 1.5 180 07:58 08.08.2019
4024 Clear 16 1014 93 10000 1.68 203.172 07:39 08.08.2019
4025 Clouds 15 1013 93 10000 1 190 07:19 08.08.2019
4026 Mist 15 1014 100 2100 1.5 0 06:46 08.08.2019
4027 Fog 15 1013 93 10000 2.1 230 06:18 08.08.2019
4028 Fog 16 1013 93 10000 1 0 05:42 08.08.2019
4029 Fog 16 1013 88 10000 2.1 180 04:43 08.08.2019
4030 Fog 16 1013 93 10000 2.1 160 03:51 08.08.2019
4031 Clear 16 1013 93 10000 1 210 01:59 08.08.2019
4032 Clouds 16 1013 88 10000 2.6 200 01:24 08.08.2019
4033 Clear 17 1013 93 10000 1.5 200 00:25 08.08.2019
4034 Clouds 17 1013 88 10000 2.1 210 23:46 07.08.2019
4035 Clouds 17 1013 93 10000 2.1 170 23:19 07.08.2019
4036 Rain 17 1013 93 10000 2.1 170 22:55 07.08.2019
4037 Rain 17 1012 93 10000 1 0 22:36 07.08.2019
4038 Rain 18 1012 93 10000 1.5 210 22:18 07.08.2019
4039 Rain 18 1012 88 10000 3.1 190 21:54 07.08.2019
4040 Rain 18 1012 88 10000 3.1 190 21:36 07.08.2019
4041 Rain 18 1012 94 10000 1 0 21:18 07.08.2019
4042 Rain 19 1012 88 10000 1 0 20:41 07.08.2019
4043 Rain 19 1011 88 10000 3.9 203.494 20:23 07.08.2019
4044 Rain 19 1011 88 10000 3.9 203.494 20:23 07.08.2019
4045 Rain 20 1011 77 10000 1.5 0 19:57 07.08.2019
4046 Rain 20 1011 77 10000 1.5 0 19:38 07.08.2019
4047 Rain 20 1011 77 10000 1 0 19:20 07.08.2019
4048 Clouds 20 1011 83 10000 2.1 230 18:43 07.08.2019
4049 Rain 20 1011 83 10000 4.1 190 18:21 07.08.2019
4050 Rain 20 1011 83 10000 1.5 0 17:58 07.08.2019
4051 Rain 20 1011 83 10000 1.5 0 17:58 07.08.2019
4052 Rain 20 1011 88 10000 4.6 190 17:39 07.08.2019
4053 Rain 20 1010 93 10000 3.1 200 17:21 07.08.2019
4054 Rain 19 1010 93 10000 3.1 200 17:21 07.08.2019
4055 Rain 19 1010 88 10000 1 0 16:57 07.08.2019
4056 Rain 19 1010 93 10000 3.6 190 16:39 07.08.2019
4057 Rain 19 1011 93 7000 4.6 200 16:20 07.08.2019
4058 Rain 19 1011 93 7000 4.6 190 15:56 07.08.2019
4059 Rain 19 1011 93 7000 4.6 190 15:37 07.08.2019
4060 Rain 19 1011 93 10000 5.1 190 15:19 07.08.2019
4061 Rain 19 1010 94 10000 4.1 180 14:49 07.08.2019
4062 Rain 19 1010 93 10000 2.6 170 14:28 07.08.2019
4063 Rain 19 1010 93 7000 3.1 170 13:56 07.08.2019
4064 Rain 18 1010 93 7000 3.1 170 13:38 07.08.2019
4065 Rain 19 1010 88 8000 4.1 250 13:18 07.08.2019
4066 Rain 18 1010 88 10000 4.1 200 12:55 07.08.2019
4067 Rain 18 1010 88 10000 4.1 200 12:36 07.08.2019
4068 Rain 19 1010 88 10000 2.1 180 12:18 07.08.2019
4069 Rain 19 1010 94 10000 1 0 11:43 07.08.2019
4070 Rain 19 1010 94 10000 1 0 11:20 07.08.2019
4071 Rain 19 1010 94 9000 1 0 10:57 07.08.2019
4072 Rain 19 1010 94 9000 1 0 10:39 07.08.2019
4073 Rain 19 1010 94 10000 5.08 188.317 10:18 07.08.2019
4074 Rain 19 1010 88 10000 1.5 360 09:45 07.08.2019
4075 Rain 19 1009 94 10000 1.5 0 09:22 07.08.2019
4076 Rain 19 1009 88 10000 1.5 320 08:57 07.08.2019
4077 Rain 19 1009 88 10000 1.5 320 08:39 07.08.2019
4078 Clear 19 1009 88 10000 1.5 130 08:20 07.08.2019
4079 Clear 18 1009 93 10000 0.5 0 07:43 07.08.2019
4080 Clear 18 1009 93 10000 1 0 07:21 07.08.2019
4081 Thunderstorm 18 1009 93 10000 0.5 0 06:31 07.08.2019
4082 Rain 18 1009 93 10000 2.1 280 05:56 07.08.2019
4083 Thunderstorm 18 1010 88 10000 3.1 280 04:57 07.08.2019
4084 Clear 19 1010 93 10000 2.45 195.958 03:21 07.08.2019
4085 Rain 19 1011 88 10000 1.5 170 02:50 07.08.2019
4086 Rain 19 1011 93 10000 2.1 220 02:22 07.08.2019
4087 Rain 19 1011 93 10000 3.1 210 01:42 07.08.2019
4088 Rain 19 1012 88 10000 4.1 220 00:52 07.08.2019
4089 Rain 19 1011 93 10000 4.1 220 00:22 07.08.2019
4090 Rain 19 1011 93 5000 4.6 280 23:44 06.08.2019
4091 Rain 19 1012 93 10000 4.6 310 23:23 06.08.2019
4092 Rain 19 1012 93 10000 4.6 310 22:59 06.08.2019
4093 Rain 20 1011 83 10000 2.6 150 22:40 06.08.2019
4094 Rain 20 1011 83 10000 4.1 220 22:20 06.08.2019
4095 Rain 21 1010 83 10000 5.1 200 21:44 06.08.2019
4096 Rain 22 1009 73 10000 5.1 190 21:26 06.08.2019
4097 Thunderstorm 23 1009 73 10000 5.1 190 20:59 06.08.2019
4098 Rain 23 1009 65 10000 6.2 190 20:41 06.08.2019
4099 Clear 24 1008 73 10000 2.1 140 20:23 06.08.2019
4100 Thunderstorm 24 1009 73 10000 2.6 180 19:48 06.08.2019
4101 Thunderstorm 24 1009 57 10000 6.2 180 19:29 06.08.2019
4102 Clear 25 1009 42 10000 3.6 190 18:57 06.08.2019
4103 Clear 26 1009 42 10000 3.6 190 18:38 06.08.2019
4104 Clear 26 1010 42 10000 4.1 200 18:19 06.08.2019
4105 Thunderstorm 26 1010 42 10000 4.1 200 17:56 06.08.2019
4106 Thunderstorm 26 1010 42 10000 4.1 200 17:37 06.08.2019
4107 Thunderstorm 26 1010 45 10000 3.6 200 17:19 06.08.2019
4108 Thunderstorm 27 1010 45 10000 3.1 210 16:43 06.08.2019
4109 Clear 27 1011 45 10000 2.6 170 16:25 06.08.2019
4110 Clouds 27 1011 51 10000 3.1 150 15:58 06.08.2019
4111 Clear 27 1011 48 10000 2.1 240 15:39 06.08.2019
4112 Clear 28 1012 48 10000 4.6 210 15:21 06.08.2019
4113 Clear 27 1012 51 10000 3.6 210 14:54 06.08.2019
4114 Clear 27 1012 51 10000 3.6 210 14:36 06.08.2019
4115 Clear 27 1012 51 10000 4.6 200 14:18 06.08.2019
4116 Clear 27 1012 51 10000 4.1 210 13:45 06.08.2019
4117 Clear 27 1013 57 10000 2.1 150 13:26 06.08.2019
4118 Clear 26 1013 65 10000 2.1 170 12:59 06.08.2019
4119 Clear 26 1013 65 10000 3.1 190 12:40 06.08.2019
4120 Clear 24 1013 69 10000 3.6 200 12:21 06.08.2019
4121 Clear 23 1014 73 10000 4.1 210 11:45 06.08.2019
4122 Clear 23 1014 73 10000 3.1 210 11:20 06.08.2019
4123 Clear 24 1013 73 10000 3.1 200 10:59 06.08.2019
4124 Clear 23 1013 73 10000 3.1 200 10:39 06.08.2019
4125 Clear 22 1013 78 10000 4.1 210 10:21 06.08.2019
4126 Clear 22 1013 78 10000 3.6 210 09:43 06.08.2019
4127 Clear 21 1013 78 10000 2.6 210 09:22 06.08.2019
4128 Clear 20 1013 83 10000 1 0 08:51 06.08.2019
4129 Clear 19 1013 77 10000 2.1 220 08:29 06.08.2019
4130 Clear 19 1013 82 10000 2.6 250 07:59 06.08.2019
4131 Clear 19 1013 93 10000 2.1 220 07:31 06.08.2019
4132 Rain 18 1013 82 10000 3.1 190 06:45 06.08.2019
4133 Rain 18 1013 77 10000 3.1 200 06:24 06.08.2019
4134 Rain 18 1013 77 10000 1.5 230 05:46 06.08.2019
4135 Thunderstorm 19 1013 64 10000 3.1 280 02:58 06.08.2019
4136 Thunderstorm 19 1013 60 10000 2.1 0 01:26 06.08.2019
4137 Thunderstorm 20 1012 57 10000 3.1 270 00:55 06.08.2019
4138 Clear 22 1012 57 10000 3.6 270 00:23 06.08.2019
4139 Clear 22 1012 53 10000 3.1 280 23:21 05.08.2019
4140 Clear 22 1012 53 10000 3.1 280 22:59 05.08.2019
4141 Clear 22 1012 57 10000 3.1 290 22:39 05.08.2019
4142 Clear 22 1012 51 10000 2.1 280 22:21 05.08.2019
4143 Clear 24 1012 48 10000 1.5 240 21:42 05.08.2019
4144 Clear 25 1012 45 10000 3.1 230 21:21 05.08.2019
4145 Clear 26 1012 45 10000 3.1 230 20:58 05.08.2019
4146 Clear 26 1012 45 10000 2.6 230 20:40 05.08.2019
4147 Clear 27 1011 48 10000 2.6 270 20:22 05.08.2019
4148 Clear 27 1011 40 10000 3.6 260 19:59 05.08.2019
4149 Clear 27 1011 40 10000 3.6 260 19:38 05.08.2019
4150 Clear 28 1011 40 10000 3.6 270 19:20 05.08.2019
4151 Clear 28 1011 40 10000 3.6 260 18:42 05.08.2019
4152 Clear 29 1012 40 10000 4.1 270 18:21 05.08.2019
4153 Clear 29 1012 38 10000 4.6 250 17:57 05.08.2019
4154 Clear 29 1012 40 10000 4.6 260 17:39 05.08.2019
4155 Clear 29 1012 40 10000 5.1 270 17:20 05.08.2019
4156 Clear 29 1012 40 10000 5.7 240 16:43 05.08.2019
4157 Clear 29 1012 38 10000 6.7 250 16:23 05.08.2019
4158 Clear 29 1012 38 10000 5.1 230 15:43 05.08.2019
4159 Clear 29 1012 38 10000 4.1 220 15:21 05.08.2019
4160 Clear 29 1012 42 10000 5.7 210 14:54 05.08.2019
4161 Clear 29 1012 42 10000 5.7 210 14:36 05.08.2019
4162 Clear 29 1012 42 10000 3.1 240 14:18 05.08.2019
4163 Clear 29 1012 42 10000 3.6 220 13:40 05.08.2019
4164 Clear 29 1013 39 10000 4.1 220 13:20 05.08.2019
4165 Clear 28 1013 51 10000 3.6 190 12:43 05.08.2019
4166 Clear 27 1013 57 10000 2.6 220 12:19 05.08.2019
4167 Clear 26 1013 60 10000 2.1 210 11:45 05.08.2019
4168 Clear 26 1013 60 10000 2.1 210 11:45 05.08.2019
4169 Clear 25 1013 57 10000 3.1 200 11:26 05.08.2019
4170 Clear 24 1013 56 10000 1 0 10:50 05.08.2019
4171 Clear 24 1013 56 10000 1 0 10:32 05.08.2019
4172 Clear 22 1014 60 10000 1 0 09:57 05.08.2019
4173 Clear 21 1014 60 10000 1 0 09:39 05.08.2019
4174 Clear 21 1014 56 10000 1 130 09:20 05.08.2019
4175 Clear 20 1014 77 10000 1.5 120 08:44 05.08.2019
4176 Clear 19 1014 68 10000 2.6 140 08:25 05.08.2019
4177 Clear 19 1014 77 10000 1.5 0 07:53 05.08.2019
4178 Clear 19 1014 77 10000 1.5 0 07:31 05.08.2019
4179 Clear 19 1013 77 10000 1.5 150 06:58 05.08.2019
4180 Clear 19 1013 77 10000 1.5 0 06:29 05.08.2019
4181 Rain 19 1013 64 10000 2.1 130 05:41 05.08.2019
4182 Clouds 19 1014 64 10000 3.1 210 04:56 05.08.2019
4183 Clear 19 1014 64 10000 2.1 230 03:56 05.08.2019
4184 Clear 19 1014 64 10000 1.5 0 03:20 05.08.2019
4185 Clear 19 1014 60 10000 0.5 0 02:26 05.08.2019
4186 Clear 19 1014 60 10000 1 0 01:32 05.08.2019
4187 Clear 19 1014 56 10000 3.1 270 00:41 05.08.2019
4188 Clear 19 1014 56 10000 3.1 270 00:21 05.08.2019
4189 Clear 20 1014 60 10000 2.6 270 23:56 04.08.2019
4190 Clear 20 1014 60 10000 2.6 270 23:36 04.08.2019
4191 Clear 20 1014 60 10000 1 0 23:18 04.08.2019
4192 Clear 20 1014 64 10000 0.53 298.396 22:54 04.08.2019
4193 Clear 20 1014 64 10000 0.53 298.396 22:36 04.08.2019
4194 Clear 21 1014 60 10000 1 0 22:18 04.08.2019
4195 Clear 22 1014 53 10000 1 20 21:42 04.08.2019
4196 Clear 23 1014 54 10000 1.5 60 21:20 04.08.2019
4197 Clear 25 1013 44 10000 1.5 70 20:44 04.08.2019
4198 Clear 25 1014 44 10000 1.5 0 20:19 04.08.2019
4199 Clear 25 1014 44 10000 1.5 0 19:58 04.08.2019
4200 Clear 26 1014 44 10000 1.5 0 19:38 04.08.2019
4201 Clear 26 1014 42 10000 1 0 19:19 04.08.2019
4202 Clear 27 1014 34 10000 1.5 0 18:42 04.08.2019
4203 Clouds 28 1014 37 10000 1.5 0 18:20 04.08.2019
4204 Clear 28 1014 37 10000 1.5 0 17:45 04.08.2019
4205 Clear 28 1014 37 10000 2.1 80 17:25 04.08.2019
4206 Clear 28 1014 37 10000 2.1 80 16:59 04.08.2019
4207 Clear 29 1014 37 10000 2.1 260 16:39 04.08.2019
4208 Clear 28 1015 34 10000 2.1 260 16:20 04.08.2019
4209 Clear 28 1015 37 10000 3.1 230 15:43 04.08.2019
4210 Clear 28 1015 37 10000 3.1 250 15:22 04.08.2019
4211 Clear 28 1015 36 10000 1.5 0 14:45 04.08.2019
4212 Clear 27 1016 44 10000 1.5 0 14:26 04.08.2019
4213 Clear 27 1016 44 10000 1.5 0 13:47 04.08.2019
4214 Clear 27 1016 44 10000 1.5 0 13:28 04.08.2019
4215 Clear 26 1016 50 10000 1 0 12:59 04.08.2019
4216 Clear 25 1016 44 10000 1 0 12:40 04.08.2019
4217 Clear 24 1017 47 10000 1.5 0 12:22 04.08.2019
4218 Clear 24 1017 50 10000 1 0 11:56 04.08.2019
4219 Clear 24 1017 50 10000 1 0 11:37 04.08.2019
4220 Clear 23 1017 56 10000 1 0 11:18 04.08.2019
4221 Clear 22 1017 60 10000 1.5 0 10:40 04.08.2019
4222 Clear 21 1017 64 10000 1 0 10:19 04.08.2019
4223 Clear 20 1017 68 10000 1.5 0 09:43 04.08.2019
4224 Clear 19 1017 72 10000 1 0 09:22 04.08.2019
4225 Clear 18 1017 72 10000 1.1 350.563 08:43 04.08.2019
4226 Clear 16 1017 72 10000 2.1 280 08:25 04.08.2019
4227 Clear 15 1017 77 10000 2.6 270 07:51 04.08.2019
4228 Clear 14 1016 77 10000 1.5 0 06:56 04.08.2019
4229 Clear 14 1016 77 10000 2.6 280 06:28 04.08.2019
4230 Clear 15 1016 68 10000 4.6 270 03:46 04.08.2019
4231 Clear 15 1016 72 10000 4.1 270 02:41 04.08.2019
4232 Clear 16 1016 68 10000 4.1 280 01:39 04.08.2019
4233 Clear 16 1017 68 10000 4.1 270 01:18 04.08.2019
4234 Clear 17 1017 68 10000 4.1 280 00:41 04.08.2019
4235 Clear 17 1017 64 10000 4.1 280 00:19 04.08.2019
4236 Clear 18 1017 68 10000 3.1 280 23:40 03.08.2019
4237 Clear 18 1017 68 10000 1 0 23:18 03.08.2019
4238 Clear 18 1016 72 10000 1.5 320 22:44 03.08.2019
4239 Clear 19 1016 64 10000 0.5 0 22:21 03.08.2019
4240 Clear 20 1016 53 10000 1.5 340 21:56 03.08.2019
4241 Clear 20 1016 53 10000 1.5 340 21:36 03.08.2019
4242 Clear 20 1016 53 10000 1.5 340 21:36 03.08.2019
4243 Clear 22 1016 50 10000 1.5 20 21:18 03.08.2019
4244 Clear 22 1016 50 10000 1.5 20 21:18 03.08.2019
4245 Clear 22 1016 50 10000 1 0 20:41 03.08.2019
4246 Clear 23 1016 50 10000 1.5 20 20:20 03.08.2019
4247 Clear 23 1016 50 10000 2.1 60 19:42 03.08.2019
4248 Clear 24 1016 47 10000 2.6 50 19:24 03.08.2019
4249 Clear 24 1016 47 10000 2.1 50 18:53 03.08.2019
4250 Clear 25 1016 44 10000 2.6 40 18:27 03.08.2019
4251 Clear 25 1016 47 10000 4.1 30 17:49 03.08.2019
4252 Clear 26 1016 44 10000 2.6 70 17:22 03.08.2019
4253 Clear 26 1016 47 10000 3.1 90 16:57 03.08.2019
4254 Clear 26 1016 44 10000 2.1 0 16:37 03.08.2019
4255 Clear 26 1017 47 10000 3.1 80 16:19 03.08.2019
4256 Clear 25 1017 50 10000 3.1 0 15:43 03.08.2019
4257 Clear 25 1017 47 10000 3.6 340 15:23 03.08.2019
4258 Clear 25 1017 50 10000 3.6 350 14:42 03.08.2019
4259 Clear 25 1017 47 10000 3.1 330 14:21 03.08.2019
4260 Clear 25 1017 53 10000 4.1 330 13:52 03.08.2019
4261 Clear 25 1017 53 10000 4.1 330 13:52 03.08.2019
4262 Clouds 25 1017 47 10000 2.6 40 13:25 03.08.2019
4263 Clouds 25 1017 47 10000 2.6 40 12:59 03.08.2019
4264 Clouds 24 1017 53 10000 3.1 360 12:40 03.08.2019
4265 Clear 22 1017 53 10000 2.1 350 12:22 03.08.2019
4266 Clear 22 1017 60 10000 2.1 330 11:49 03.08.2019
4267 Clear 22 1017 53 10000 2.1 70 11:28 03.08.2019
4268 Clear 21 1017 60 10000 3.6 310 10:42 03.08.2019
4269 Clear 21 1017 64 10000 2.6 300 10:24 03.08.2019
4270 Clear 21 1017 64 10000 2.6 300 10:24 03.08.2019
4271 Clear 20 1017 68 10000 2.1 320 09:45 03.08.2019
4272 Clear 19 1017 72 10000 1.5 0 09:23 03.08.2019
4273 Clear 18 1017 60 10000 1 0 08:56 03.08.2019
4274 Clear 17 1016 77 10000 1 0 08:21 03.08.2019
4275 Clear 16 1016 77 10000 2.1 280 07:37 03.08.2019
4276 Clear 15 1016 77 10000 1 0 06:40 03.08.2019
4277 Clear 16 1016 67 10000 1 0 05:44 03.08.2019
4278 Clear 17 1016 63 10000 2.6 260 02:42 03.08.2019
4279 Clear 17 1016 59 10000 3.1 270 01:54 03.08.2019
4280 Clear 17 1016 59 10000 2.6 260 00:56 03.08.2019
4281 Clear 18 1016 59 10000 2.6 260 00:29 03.08.2019
4282 Clear 18 1015 56 10000 3.1 270 23:41 02.08.2019
4283 Clear 19 1015 52 10000 3.6 280 23:20 02.08.2019
4284 Clear 19 1015 49 10000 3.1 270 22:57 02.08.2019
4285 Clear 19 1015 49 10000 3.1 270 22:39 02.08.2019
4286 Clear 20 1015 49 10000 3.1 270 22:20 02.08.2019
4287 Clear 20 1015 49 10000 3.1 280 21:55 02.08.2019
4288 Clear 20 1015 49 10000 3.1 280 21:37 02.08.2019
4289 Clear 22 1014 41 10000 1.5 280 21:18 02.08.2019
4290 Clear 23 1014 39 10000 1 0 20:42 02.08.2019
4291 Clear 24 1014 53 10000 1.5 220 20:21 02.08.2019
4292 Clear 23 1014 50 10000 2.1 220 19:49 02.08.2019
4293 Rain 23 1014 41 10000 2.1 240 19:29 02.08.2019
4294 Rain 24 1014 36 10000 1 0 18:47 02.08.2019
4295 Rain 25 1014 41 10000 2.1 260 18:29 02.08.2019
4296 Clear 26 1014 39 10000 1 0 17:56 02.08.2019
4297 Clear 26 1014 34 10000 1.5 0 17:38 02.08.2019
4298 Clear 26 1014 41 10000 3.1 210 17:18 02.08.2019
4299 Clear 26 1015 39 10000 2.6 0 16:39 02.08.2019
4300 Clear 27 1015 36 10000 3.1 220 16:20 02.08.2019
4301 Clear 26 1015 41 10000 4.1 230 15:45 02.08.2019
4302 Clear 26 1015 36 10000 2.1 200 15:20 02.08.2019
4303 Clear 26 1015 36 10000 2.1 0 14:57 02.08.2019
4304 Clear 26 1015 36 10000 2.1 0 14:39 02.08.2019
4305 Clear 25 1015 39 10000 1.5 0 14:18 02.08.2019
4306 Clear 26 1015 39 10000 2.1 0 13:42 02.08.2019
4307 Clear 25 1016 47 10000 1.5 0 13:19 02.08.2019
4308 Clear 24 1016 47 10000 2.6 260 12:41 02.08.2019
4309 Clear 23 1016 56 10000 2.1 210 12:19 02.08.2019
4310 Clear 22 1016 64 10000 2.1 190 11:40 02.08.2019
4311 Clear 21 1015 60 10000 0.5 0 11:22 02.08.2019
4312 Rain 20 1015 64 10000 0.5 0 10:44 02.08.2019
4313 Rain 19 1015 68 10000 1.5 0 10:24 02.08.2019
4314 Rain 19 1015 68 10000 1.5 20 09:53 02.08.2019
4315 Clear 18 1015 64 10000 0.5 0 09:30 02.08.2019
4316 Clouds 18 1015 63 10000 0.5 0 08:56 02.08.2019
4317 Clear 17 1015 77 10000 1.5 50 08:26 02.08.2019
4318 Clear 17 1015 63 10000 0.83 95.02 07:59 02.08.2019
4319 Clear 17 1015 68 10000 1 0 07:39 02.08.2019
4320 Clear 16 1014 63 10000 1 0 07:21 02.08.2019
4321 Clear 16 1014 55 10000 2.6 280 06:31 02.08.2019
4322 Clear 16 1015 67 10000 1 0 05:42 02.08.2019
4323 Clear 17 1015 59 10000 3.1 270 03:33 02.08.2019
4324 Clear 18 1015 56 10000 2.1 290 02:37 02.08.2019
4325 Clear 18 1016 56 10000 2.1 280 01:36 02.08.2019
4326 Clear 18 1016 52 10000 1 0 00:31 02.08.2019
4327 Clear 19 1016 64 10000 2.1 320 23:44 01.08.2019
4328 Clear 19 1016 52 10000 1.5 0 23:25 01.08.2019
4329 Clear 19 1016 56 10000 2.1 290 22:44 01.08.2019
4330 Clear 19 1016 56 10000 2.1 270 22:25 01.08.2019
4331 Clear 20 1016 56 10000 1.5 320 21:57 01.08.2019
4332 Clear 20 1016 56 10000 1.5 320 21:39 01.08.2019
4333 Clear 22 1016 41 10000 2.1 320 21:21 01.08.2019
4334 Clear 23 1015 41 10000 1.5 20 20:46 01.08.2019
4335 Clear 23 1015 41 10000 3.1 20 20:23 01.08.2019
4336 Clear 23 1015 41 10000 3.1 20 19:58 01.08.2019
4337 Clear 23 1015 41 10000 3.1 20 19:37 01.08.2019
4338 Clear 24 1015 36 10000 3.6 20 19:18 01.08.2019
4339 Clear 25 1015 31 10000 4.1 20 18:42 01.08.2019
4340 Clear 25 1015 31 10000 4.1 20 18:42 01.08.2019
4341 Clear 26 1015 31 10000 4.1 30 18:23 01.08.2019
4342 Clear 26 1015 31 10000 4.1 30 18:23 01.08.2019
4343 Clear 26 1016 32 10000 3.1 50 17:47 01.08.2019
4344 Clear 26 1016 36 10000 2.6 70 17:29 01.08.2019
4345 Clear 26 1016 36 10000 1.5 0 16:45 01.08.2019
4346 Clear 26 1016 36 10000 2.1 0 16:23 01.08.2019
4347 Clear 26 1017 34 10000 1.5 0 15:54 01.08.2019
4348 -273 0 0 0 0 0 15:36 01.08.2019
4349 Clear 25 1017 39 10000 2.1 0 15:18 01.08.2019
4350 Clear 25 1017 36 10000 3.6 280 14:41 01.08.2019
4351 Clear 24 1017 38 10000 2.6 10 14:19 01.08.2019
4352 Clear 25 1018 41 10000 2.6 310 13:56 01.08.2019
4353 Clear 25 1018 41 10000 2.6 310 13:38 01.08.2019
4354 Clear 24 1018 41 10000 1.5 0 13:20 01.08.2019
4355 Clear 24 1018 43 10000 1.5 0 12:42 01.08.2019
4356 Clear 23 1018 43 10000 2.1 0 12:23 01.08.2019
4357 Clear 22 1019 46 10000 3.1 20 11:43 01.08.2019
4358 Clear 21 1019 49 10000 2.6 10 11:24 01.08.2019
4359 Clear 21 1019 52 10000 2.1 10 10:54 01.08.2019
4360 Clear 20 1019 52 10000 2.1 10 10:36 01.08.2019
4361 Clear 20 1019 46 10000 1.5 0 10:36 01.08.2019
4362 Clear 20 1019 56 10000 1 0 10:18 01.08.2019
4363 Clear 18 1019 59 10000 1.5 0 09:41 01.08.2019
4364 Clear 17 1019 63 10000 2.1 130 09:23 01.08.2019
4365 Clear 16 1020 72 10000 2.1 140 08:46 01.08.2019
4366 Clear 14 1020 77 10000 2.1 200 08:21 01.08.2019
4367 Clear 14 1019 71 10000 3.1 270 07:50 01.08.2019
4368 Clear 13 1019 67 10000 2.1 270 07:26 01.08.2019
4369 Clear 13 1020 67 10000 3.1 270 06:49 01.08.2019
4370 Clear 13 1020 67 10000 3.1 270 06:29 01.08.2019
4371 Clear 13 1019 76 10000 1 260 04:53 01.08.2019
4372 Clear 14 1019 59 10000 1.5 220 02:35 01.08.2019
4373 Clear 15 1019 59 10000 2.6 290 00:49 01.08.2019
4374 Clear 15 1019 59 10000 3.6 270 00:25 01.08.2019
4375 Clear 16 1019 55 10000 3.1 260 23:44 31.07.2019
4376 Clear 16 1019 52 10000 3.6 260 23:21 31.07.2019
4377 Clear 16 1019 52 10000 3.6 260 23:21 31.07.2019
4378 Clear 17 1019 52 10000 3.6 260 22:59 31.07.2019
4379 Clear 16 1019 59 10000 2.6 260 22:41 31.07.2019
4380 Clear 17 1018 55 10000 2.6 270 22:23 31.07.2019
4381 Clear 18 1018 49 10000 2.1 280 21:39 31.07.2019
4382 Clear 21 1018 46 10000 2.1 280 21:21 31.07.2019
4383 Clear 21 1017 40 10000 3.1 300 20:48 31.07.2019
4384 Clear 23 1017 38 10000 3.1 280 20:22 31.07.2019
4385 Clear 23 1017 38 10000 4.1 270 19:48 31.07.2019
4386 Clear 23 1017 46 10000 2.1 230 19:28 31.07.2019
4387 Clear 23 1017 41 10000 3.1 250 18:55 31.07.2019
4388 Clear 24 1017 41 10000 3.1 250 18:37 31.07.2019
4389 Clear 25 1017 41 10000 2.1 230 18:18 31.07.2019
4390 Clear 25 1017 41 10000 3.1 260 17:44 31.07.2019
4391 Clear 25 1017 44 10000 3.1 280 17:20 31.07.2019
4392 Clear 24 1017 47 10000 3.1 280 16:52 31.07.2019
4393 Clear 24 1018 50 10000 2.1 0 16:26 31.07.2019
4394 Clear 24 1018 47 10000 2.6 0 15:58 31.07.2019
4395 Clear 24 1018 47 10000 2.6 0 15:38 31.07.2019
4396 Clear 24 1018 47 10000 3.1 260 15:20 31.07.2019
4397 Clear 23 1018 47 10000 3.6 270 14:42 31.07.2019
4398 Clear 23 1018 49 10000 3.6 280 14:19 31.07.2019
4399 Clear 23 1018 49 10000 2.1 270 13:55 31.07.2019
4400 Clear 23 1018 46 10000 1 0 13:37 31.07.2019
4401 Clear 23 1019 49 10000 2.6 220 13:18 31.07.2019
4402 Rain 22 1019 56 10000 3.6 260 12:40 31.07.2019
4403 Clouds 22 1018 56 10000 2.6 210 12:22 31.07.2019
4404 Clouds 22 1019 50 10000 2.6 0 11:40 31.07.2019
4405 Clouds 21 1019 53 10000 3.6 250 11:21 31.07.2019
4406 Clouds 21 1019 56 10000 1.5 0 10:56 31.07.2019
4407 Clouds 21 1019 56 10000 1.5 0 10:38 31.07.2019
4408 Clear 20 1019 60 10000 1 0 10:19 31.07.2019
4409 Clear 20 1019 60 10000 1.5 200 09:42 31.07.2019
4410 Clear 19 1019 72 10000 3.1 190 09:23 31.07.2019
4411 Clear 18 1018 72 10000 2.6 190 08:44 31.07.2019
4412 Clear 18 1018 82 10000 1.5 0 08:24 31.07.2019
4413 Clear 17 1018 72 10000 2.6 170 07:50 31.07.2019
4414 Clear 17 1018 72 10000 2.6 170 07:31 31.07.2019
4415 Clear 16 1017 88 10000 1.5 80 05:24 31.07.2019
4416 Clear 17 1017 88 10000 1.5 340 04:20 31.07.2019
4417 Clear 18 1017 72 10000 1.5 160 00:41 31.07.2019
4418 Rain 18 1017 88 10000 1.5 160 23:51 30.07.2019
4419 Rain 18 1017 88 10000 1.5 160 23:30 30.07.2019
4420 Rain 18 1016 68 10000 1.5 120 22:59 30.07.2019
4421 Rain 18 1016 53 10000 1 0 22:41 30.07.2019
4422 Rain 19 1016 56 10000 2.1 270 22:21 30.07.2019
4423 Thunderstorm 19 1015 56 10000 1.5 0 21:38 30.07.2019
4424 Clear 20 1015 56 10000 2.1 240 21:19 30.07.2019
4425 Clear 21 1015 56 10000 2.1 240 20:57 30.07.2019
4426 Clouds 22 1014 53 10000 3.1 250 20:38 30.07.2019
4427 Rain 22 1014 57 10000 2.6 80 20:19 30.07.2019
4428 Clear 23 1014 57 10000 2.1 70 19:47 30.07.2019
4429 Rain 23 1014 57 10000 2.1 40 19:29 30.07.2019
4430 Rain 24 1014 57 10000 3.6 10 18:48 30.07.2019
4431 Clear 25 1014 60 10000 4.6 310 18:26 30.07.2019
4432 Clear 26 1014 42 10000 5.1 290 17:58 30.07.2019
4433 Clear 26 1013 50 10000 6.7 250 17:40 30.07.2019
4434 Clear 27 1013 48 10000 5.1 260 17:18 30.07.2019
4435 Clear 28 1013 42 10000 4.6 220 16:46 30.07.2019
4436 Clear 28 1013 42 10000 3.6 230 16:19 30.07.2019
4437 Clear 28 1013 39 10000 2.1 0 15:44 30.07.2019
4438 Clear 28 1013 37 10000 2.1 0 15:22 30.07.2019
4439 Clear 28 1013 32 10000 3.1 240 14:46 30.07.2019
4440 Clear 28 1013 39 10000 2.1 0 14:27 30.07.2019
4441 Clear 28 1013 45 10000 2.1 150 13:59 30.07.2019
4442 Clear 28 1013 45 10000 3.6 250 13:39 30.07.2019
4443 Clear 28 1013 45 10000 3.1 240 13:21 30.07.2019
4444 Clear 27 1013 47 10000 3.1 200 12:46 30.07.2019
4445 Clear 27 1013 44 10000 2.6 150 12:28 30.07.2019
4446 Clear 25 1013 50 10000 2.1 210 11:58 30.07.2019
4447 Clear 26 1014 57 10000 2.6 160 11:38 30.07.2019
4448 Clear 25 1014 53 10000 3.1 210 11:18 30.07.2019
4449 Rain 25 1014 57 10000 3.1 190 10:42 30.07.2019
4450 Clear 23 1014 60 10000 3.1 180 10:21 30.07.2019
4451 Clear 22 1014 69 10000 3.1 200 09:48 30.07.2019
4452 Clear 22 1014 68 10000 2.6 160 09:30 30.07.2019
4453 Clear 20 1014 77 10000 2.1 190 08:47 30.07.2019
4454 Rain 19 1014 77 10000 1.5 0 08:28 30.07.2019
4455 Rain 19 1013 77 10000 2.6 200 07:47 30.07.2019
4456 Rain 19 1013 77 10000 2.6 200 07:47 30.07.2019
4457 Clear 18 1013 77 10000 2.6 200 07:28 30.07.2019
4458 Clear 18 1013 77 10000 2.1 240 06:47 30.07.2019
4459 Clear 18 1013 72 10000 3.6 260 05:56 30.07.2019
4460 Clear 18 1013 72 10000 3.6 260 05:32 30.07.2019
4461 Clear 19 1012 68 10000 3.6 250 01:41 30.07.2019
4462 Clear 19 1012 68 10000 3.6 260 00:45 30.07.2019
4463 Clear 19 1012 68 10000 3.6 270 00:20 30.07.2019
4464 Clear 19 1012 64 10000 3.6 260 23:44 29.07.2019
4465 Clear 20 1012 64 10000 3.6 270 23:26 29.07.2019
4466 Clear 20 1012 64 10000 3.6 270 22:57 29.07.2019
4467 Clear 20 1012 64 10000 3.6 270 22:38 29.07.2019
4468 Clear 21 1011 68 10000 3.1 270 22:20 29.07.2019
4469 Clear 21 1011 60 10000 2.6 280 21:56 29.07.2019
4470 Clear 21 1011 60 10000 2.6 280 21:37 29.07.2019
4471 Clear 23 1011 47 10000 1 0 21:18 29.07.2019
4472 Clear 23 1011 47 10000 1.5 0 20:48 29.07.2019
4473 Clear 24 1010 47 10000 2.6 330 20:24 29.07.2019
4474 Clear 24 1010 44 10000 1.5 0 19:57 29.07.2019
4475 Clear 24 1010 44 10000 3.1 340 19:37 29.07.2019
4476 Clear 25 1010 42 10000 1.5 0 19:19 29.07.2019
4477 Clear 25 1011 44 10000 2.1 0 18:42 29.07.2019
4478 Clear 26 1011 42 10000 1.5 0 18:22 29.07.2019
4479 Clear 26 1011 42 10000 1.5 0 18:22 29.07.2019
4480 Clear 25 1011 41 10000 2.1 330 17:52 29.07.2019
4481 Clear 26 1011 41 10000 2.1 330 17:34 29.07.2019
4482 Clear 26 1011 50 10000 2.6 60 16:59 29.07.2019
4483 Clear 26 1011 44 10000 3.1 360 16:40 29.07.2019
4484 Clear 26 1011 41 10000 2.1 0 16:22 29.07.2019
4485 Rain 25 1011 44 10000 2.1 0 15:52 29.07.2019
4486 Rain 25 1011 44 10000 2.1 0 15:52 29.07.2019
4487 Rain 26 1011 44 10000 2.1 0 15:52 29.07.2019
4488 Rain 25 1011 50 10000 2.6 40 15:33 29.07.2019
4489 Clear 25 1011 53 10000 2.6 70 14:56 29.07.2019
4490 Clear 25 1011 50 10000 2.6 0 14:37 29.07.2019
4491 Clear 24 1012 50 10000 2.1 0 14:19 29.07.2019
4492 Rain 24 1012 53 10000 1.5 0 13:42 29.07.2019
4493 Rain 24 1012 53 10000 2.6 30 13:23 29.07.2019
4494 Clear 23 1012 49 10000 3.1 0 12:42 29.07.2019
4495 Rain 22 1012 60 10000 2.1 40 12:24 29.07.2019
4496 Clouds 22 1012 60 10000 1.5 0 11:44 29.07.2019
4497 Clouds 21 1013 64 10000 1 0 11:22 29.07.2019
4498 Rain 21 1013 68 10000 0.5 0 10:47 29.07.2019
4499 Rain 20 1013 72 10000 0.5 0 10:25 29.07.2019
4500 Rain 20 1013 77 10000 1.5 240 09:51 29.07.2019
4501 Clear 19 1013 68 10000 2.14 24.721 09:30 29.07.2019
4502 Rain 17 1012 82 10000 1 0 08:57 29.07.2019
4503 Rain 17 1012 82 10000 1 0 08:36 29.07.2019
4504 Rain 17 1012 88 10000 1.5 160 08:18 29.07.2019
4505 Clear 15 1012 87 10000 0.33 200.963 07:41 29.07.2019
4506 Rain 15 1012 87 10000 2.6 260 07:20 29.07.2019
4507 Rain 15 1012 93 10000 3.1 200 05:50 29.07.2019
4508 Rain 15 1012 93 10000 1.46 219.231 04:54 29.07.2019
4509 Rain 16 1011 93 10000 1 0 02:28 29.07.2019
4510 Rain 16 1011 93 10000 2.27 196.243 01:46 29.07.2019
4511 Rain 16 1011 88 10000 1.5 230 01:24 29.07.2019
4512 Rain 16 1011 88 10000 1.5 350 00:50 29.07.2019
4513 Rain 16 1011 82 10000 1.5 0 00:22 29.07.2019
4514 Rain 16 1011 82 10000 1.5 0 23:41 28.07.2019
4515 Rain 17 1010 77 10000 1.5 200 23:19 28.07.2019
4516 Rain 17 1010 77 10000 2.1 160 22:42 28.07.2019
4517 Rain 17 1010 77 10000 2.1 170 22:23 28.07.2019
4518 Rain 17 1009 72 10000 2.1 140 21:50 28.07.2019
4519 Rain 17 1009 64 10000 1.5 260 21:20 28.07.2019
4520 Rain 17 1009 68 10000 2.6 240 20:49 28.07.2019
4521 Rain 17 1009 68 10000 2.6 240 20:30 28.07.2019
4522 Rain 17 1008 64 10000 2.1 240 19:57 28.07.2019
4523 Rain 17 1008 64 10000 2.6 280 19:38 28.07.2019
4524 Rain 17 1008 68 10000 3.1 260 19:20 28.07.2019
4525 Rain 17 1007 68 10000 3.6 280 18:45 28.07.2019
4526 Rain 17 1007 68 10000 2.6 270 18:25 28.07.2019
4527 Rain 17 1007 77 10000 2.6 270 17:55 28.07.2019
4528 Rain 17 1007 77 10000 2.6 270 17:37 28.07.2019
4529 Rain 17 1007 77 10000 5.1 270 17:19 28.07.2019
4530 Rain 17 1006 72 10000 6.7 280 16:41 28.07.2019
4531 Rain 17 1006 72 10000 6.7 280 16:41 28.07.2019
4532 Rain 18 1006 72 10000 4.6 300 16:22 28.07.2019
4533 Rain 18 1005 68 10000 3.6 290 15:44 28.07.2019
4534 Rain 18 1005 68 10000 6.2 280 15:25 28.07.2019
4535 Rain 18 1005 68 10000 4.1 280 14:39 28.07.2019
4536 Rain 18 1004 68 10000 4.1 270 14:20 28.07.2019
4537 Rain 18 1004 73 10000 3.1 270 13:56 28.07.2019
4538 Rain 18 1004 73 10000 3.1 270 13:38 28.07.2019
4539 Rain 18 1003 82 10000 2.1 220 13:19 28.07.2019
4540 Rain 18 1003 77 10000 3.1 220 12:42 28.07.2019
4541 Rain 18 1003 82 10000 3.6 230 12:24 28.07.2019
4542 Rain 19 1003 88 10000 1.5 200 11:50 28.07.2019
4543 Rain 19 1003 88 10000 1.5 200 11:29 28.07.2019
4544 Rain 18 1002 88 10000 1.5 200 10:58 28.07.2019
4545 Rain 18 1002 88 10000 1.5 200 10:38 28.07.2019
4546 Rain 18 1002 88 10000 1.5 210 10:18 28.07.2019
4547 Rain 18 1002 88 10000 1 0 09:40 28.07.2019
4548 Rain 18 1002 82 10000 1 0 09:21 28.07.2019
4549 Rain 18 1001 88 10000 1 0 08:42 28.07.2019
4550 Rain 18 1001 82 10000 1.5 310 08:21 28.07.2019
4551 Rain 18 1001 82 10000 2.6 270 07:40 28.07.2019
4552 Rain 18 1001 88 10000 2.6 260 07:22 28.07.2019
4553 Rain 18 1001 88 10000 1 0 06:35 28.07.2019
4554 Rain 18 1001 88 10000 1 360 05:20 28.07.2019
4555 Rain 18 1001 93 7000 1.5 0 02:37 28.07.2019
4556 Rain 19 1001 93 5000 1 230 01:40 28.07.2019
4557 -273 0 0 0 0 0 00:56 28.07.2019
4558 Rain 19 1002 93 2100 1.5 0 00:37 28.07.2019
4559 Rain 19 1002 93 3400 1 0 23:53 27.07.2019
4560 Rain 19 1002 93 3400 1 0 23:28 27.07.2019
4561 Rain 19 1002 88 9000 1 0 22:47 27.07.2019
4562 Rain 19 1002 88 9000 1 0 22:28 27.07.2019
4563 Rain 19 1002 88 10000 1 330 21:59 27.07.2019
4564 Rain 19 1002 88 10000 2.1 340 21:38 27.07.2019
4565 Rain 20 1002 83 10000 1.5 20 21:19 27.07.2019
4566 Rain 20 1002 83 10000 1 0 20:45 27.07.2019
4567 Rain 20 1001 77 10000 1.5 100 20:22 27.07.2019
4568 Thunderstorm 20 1001 77 10000 2.6 130 19:41 27.07.2019
4569 Rain 20 1001 82 10000 2.6 310 19:22 27.07.2019
4570 Rain 21 1002 77 10000 5.1 320 18:49 27.07.2019
4571 Rain 21 1002 77 10000 5.1 320 18:30 27.07.2019
4572 Thunderstorm 22 1001 54 10000 3.6 30 17:52 27.07.2019
4573 Thunderstorm 24 1001 54 10000 1.5 60 17:32 27.07.2019
4574 Thunderstorm 24 1001 54 10000 1.5 60 17:32 27.07.2019
4575 Thunderstorm 25 1001 54 10000 2.1 0 16:57 27.07.2019
4576 Thunderstorm 25 1001 54 10000 2.1 0 16:38 27.07.2019
4577 Rain 25 1002 51 10000 2.6 130 16:19 27.07.2019
4578 Rain 26 1002 48 10000 2.1 0 15:44 27.07.2019
4579 Rain 27 1003 51 10000 3.1 180 15:19 27.07.2019
4580 Thunderstorm 26 1003 54 10000 3.1 130 14:48 27.07.2019
4581 Thunderstorm 26 1003 54 10000 3.1 130 14:29 27.07.2019
4582 Rain 27 1004 57 10000 4.1 180 13:52 27.07.2019
4583 Rain 26 1004 61 10000 3.1 150 13:25 27.07.2019
4584 Clouds 26 1005 65 10000 3.1 150 12:56 27.07.2019
4585 Clouds 25 1005 65 10000 3.1 150 12:37 27.07.2019
4586 Clouds 25 1005 65 10000 2.6 100 12:19 27.07.2019
4587 Clouds 24 1005 73 10000 2.6 120 11:40 27.07.2019
4588 Clouds 24 1005 73 10000 1.5 0 11:21 27.07.2019
4589 Clouds 23 1005 73 10000 2.1 140 10:41 27.07.2019
4590 Clear 22 1005 78 10000 2.1 110 10:22 27.07.2019
4591 Clear 22 1005 78 10000 1.5 220 09:41 27.07.2019
4592 Clear 21 1005 78 10000 0.5 290 09:23 27.07.2019
4593 Clear 21 1005 83 10000 1 0 08:50 27.07.2019
4594 Clear 21 1005 83 10000 1 0 08:31 27.07.2019
4595 Clouds 20 1005 88 10000 1 0 07:56 27.07.2019
4596 Clouds 20 1005 88 10000 1 0 07:34 27.07.2019
4597 Clouds 19 1005 93 10000 1.5 320 06:58 27.07.2019
4598 Clear 19 1005 88 10000 2.6 170 06:37 27.07.2019
4599 Clear 19 1005 88 10000 2.6 140 06:18 27.07.2019
4600 Rain 20 1006 88 10000 2.6 140 05:32 27.07.2019
4601 Clouds 19 1007 82 10000 2.6 240 04:38 27.07.2019
4602 Rain 19 1007 88 10000 4.6 210 03:39 27.07.2019
4603 Rain 20 1007 94 10000 1 0 02:42 27.07.2019
4604 Rain 20 1008 83 10000 2.1 0 01:54 27.07.2019
4605 Rain 20 1008 83 10000 2.1 0 01:31 27.07.2019
4606 Rain 20 1008 83 10000 6.7 260 00:38 27.07.2019
4607 Rain 20 1009 78 10000 6.7 240 00:18 27.07.2019
4608 Rain 20 1008 78 10000 8.7 220 23:41 26.07.2019
4609 Rain 21 1008 64 10000 13.4 180 23:23 26.07.2019
4610 Rain 20 1008 88 8000 5.7 240 22:43 26.07.2019
4611 Thunderstorm 21 1006 48 10000 4.6 240 22:24 26.07.2019
4612 Thunderstorm 24 1006 40 10000 2.6 310 21:51 26.07.2019
4613 Thunderstorm 30 1005 38 10000 2.71 132.214 21:20 26.07.2019
4614 Thunderstorm 30 1005 36 10000 2.1 30 20:52 26.07.2019
4615 Thunderstorm 31 1005 36 10000 2.1 30 20:33 26.07.2019
4616 Clear 32 1006 32 10000 5.7 20 19:56 26.07.2019
4617 Clear 32 1006 32 10000 5.7 20 19:38 26.07.2019
4618 Clear 33 1005 30 10000 5.1 20 19:20 26.07.2019
4619 Clear 33 1005 30 10000 5.1 20 19:20 26.07.2019
4620 Clear 33 1006 30 10000 4.6 10 18:41 26.07.2019
4621 Clear 34 1006 32 10000 4.6 340 18:21 26.07.2019
4622 Clear 35 1006 28 10000 2.1 80 17:57 26.07.2019
4623 Clear 34 1007 32 10000 4.1 360 17:38 26.07.2019
4624 Clear 35 1007 30 10000 3.6 340 17:18 26.07.2019
4625 Clear 35 1007 25 10000 2.6 10 16:55 26.07.2019
4626 Clear 35 1007 32 10000 2.6 0 16:36 26.07.2019
4627 Clear 35 1008 32 10000 2.6 220 16:18 26.07.2019
4628 Clear 34 1008 34 10000 2.6 220 15:44 26.07.2019
4629 Clear 34 1009 36 10000 4.6 230 15:22 26.07.2019
4630 Clear 34 1009 38 10000 5.1 250 14:46 26.07.2019
4631 Clear 34 1010 38 10000 5.7 250 14:25 26.07.2019
4632 Clear 33 1010 30 10000 2.1 0 13:56 26.07.2019
4633 Clear 33 1010 30 10000 2.1 0 13:37 26.07.2019
4634 Clear 33 1011 45 10000 3.1 250 13:19 26.07.2019
4635 Thunderstorm 31 1011 54 10000 3.1 240 12:42 26.07.2019
4636 Rain 30 1011 54 10000 3.6 250 12:19 26.07.2019
4637 Thunderstorm 30 1011 45 10000 3.1 250 11:39 26.07.2019
4638 Thunderstorm 30 1012 45 10000 1.5 0 11:19 26.07.2019
4639 Rain 30 1012 51 10000 2.6 200 10:52 26.07.2019
4640 Rain 30 1012 51 10000 2.6 200 10:34 26.07.2019
4641 Thunderstorm 28 1012 54 10000 1 0 09:55 26.07.2019
4642 Thunderstorm 28 1012 54 10000 1 0 09:34 26.07.2019
4643 Clear 26 1012 61 10000 0.5 0 08:43 26.07.2019
4644 Clear 25 1012 69 10000 1.5 0 08:22 26.07.2019
4645 Clear 24 1012 60 10000 0.5 0 07:58 26.07.2019
4646 Clear 23 1012 60 10000 1.5 250 07:28 26.07.2019
4647 Clear 23 1011 57 10000 2.1 220 06:52 26.07.2019
4648 Clear 23 1012 60 10000 2.1 180 05:23 26.07.2019
4649 Clear 23 1011 54 10000 2.1 210 04:22 26.07.2019
4650 Clear 24 1012 47 10000 2.1 270 02:45 26.07.2019
4651 Clear 24 1012 47 10000 2.6 260 01:43 26.07.2019
4652 Clear 25 1012 48 10000 3.1 280 00:45 26.07.2019
4653 Clear 26 1012 40 10000 1 0 23:57 25.07.2019
4654 Clear 27 1012 38 10000 2.6 320 23:24 25.07.2019
4655 Clear 27 1011 38 10000 3.1 320 22:58 25.07.2019
4656 Clear 27 1011 38 10000 3.1 320 22:39 25.07.2019
4657 Clear 28 1011 43 10000 1.5 310 22:20 25.07.2019
4658 Clear 31 1011 38 10000 2.1 280 21:44 25.07.2019
4659 Clear 32 1011 36 10000 1.5 310 21:22 25.07.2019
4660 Clear 33 1011 34 10000 2.1 20 20:48 25.07.2019
4661 Clear 34 1011 32 10000 3.1 20 20:23 25.07.2019
4662 Clear 34 1011 28 10000 4.1 10 19:54 25.07.2019
4663 Clear 35 1011 28 10000 4.1 10 19:36 25.07.2019
4664 Clear 35 1011 27 10000 5.1 360 19:18 25.07.2019
4665 Clear 35 1011 29 10000 6.2 350 18:39 25.07.2019
4666 Clear 36 1012 29 10000 5.7 360 18:20 25.07.2019
4667 Clear 37 1012 29 10000 4.6 350 17:44 25.07.2019
4668 Clear 37 1012 29 10000 5.7 360 17:24 25.07.2019
4669 Clear 37 1012 27 10000 5.1 10 16:47 25.07.2019
4670 Clear 37 1013 27 10000 2.6 80 16:29 25.07.2019
4671 Clear 37 1013 29 10000 5.1 360 15:58 25.07.2019
4672 Clear 37 1013 29 10000 2.6 70 15:38 25.07.2019
4673 Clear 36 1013 30 10000 5.1 10 15:18 25.07.2019
4674 Clear 36 1013 29 10000 4.6 10 14:41 25.07.2019
4675 Clear 35 1014 34 10000 4.1 20 14:22 25.07.2019
4676 Clear 35 1014 34 10000 4.1 20 14:22 25.07.2019
4677 Clear 36 1014 36 10000 3.6 10 13:44 25.07.2019
4678 Clear 35 1014 36 10000 3.1 20 13:25 25.07.2019
4679 Clear 34 1015 38 10000 3.6 20 12:55 25.07.2019
4680 Clear 33 1015 40 10000 2.1 90 12:28 25.07.2019
4681 Clear 32 1015 43 10000 2.1 30 11:45 25.07.2019
4682 Clear 31 1015 45 10000 3.1 20 11:24 25.07.2019
4683 Clear 30 1016 45 10000 2.6 10 10:55 25.07.2019
4684 Clear 30 1016 45 10000 2.6 10 10:55 25.07.2019
4685 Clear 29 1016 45 10000 2.6 10 10:36 25.07.2019
4686 Clear 28 1016 51 10000 2.6 20 10:18 25.07.2019
4687 Clear 26 1016 54 10000 1 0 09:40 25.07.2019
4688 Clear 26 1016 64 10000 1.5 20 09:18 25.07.2019
4689 Clear 25 1016 60 10000 0.5 0 08:42 25.07.2019
4690 Clear 22 1016 82 10000 0.18 225.669 07:56 25.07.2019
4691 Clear 21 1016 82 10000 0.18 225.669 07:34 25.07.2019
4692 Clear 20 1016 53 10000 2.6 250 06:43 25.07.2019
4693 Clear 20 1015 56 10000 3.1 220 05:39 25.07.2019
4694 Clear 20 1015 56 10000 3.1 230 05:20 25.07.2019
4695 Clear 20 1016 88 10000 0.43 207.946 04:36 25.07.2019
4696 Clear 22 1016 77 10000 0.5 48.055 01:46 25.07.2019
4697 Clear 22 1016 73 10000 0.5 230 01:18 25.07.2019
4698 Clear 25 1015 48 10000 5.1 270 00:20 25.07.2019
4699 Clear 25 1016 69 10000 1 0 23:47 24.07.2019
4700 Clear 25 1016 69 10000 1 0 23:29 24.07.2019
4701 Clear 26 1015 45 10000 4.1 280 22:56 24.07.2019
4702 Clear 26 1015 45 10000 3.6 270 22:56 24.07.2019
4703 Clear 26 1015 45 10000 4.1 280 22:37 24.07.2019
4704 Clear 27 1015 48 10000 2.1 290 22:19 24.07.2019
4705 Clear 29 1015 48 10000 1.5 0 21:43 24.07.2019
4706 Clear 30 1015 38 10000 1.5 0 21:22 24.07.2019
4707 Clear 32 1015 38 10000 1.5 0 20:57 24.07.2019
4708 Clear 32 1014 32 10000 2.1 30 20:38 24.07.2019
4709 Clear 33 1014 24 10000 1.5 30 20:19 24.07.2019
4710 Clear 33 1014 25 10000 2.6 30 19:54 24.07.2019
4711 Clear 33 1014 25 10000 2.6 30 19:36 24.07.2019
4712 Clear 34 1014 25 10000 3.1 20 19:18 24.07.2019
4713 Clear 35 1014 25 10000 2.1 30 18:40 24.07.2019
4714 Clear 36 1014 25 10000 3.1 30 18:22 24.07.2019
4715 Clear 36 1014 27 10000 3.1 40 17:42 24.07.2019
4716 Clear 36 1015 28 10000 2.6 40 17:20 24.07.2019
4717 Clear 36 1015 30 10000 2.1 90 16:42 24.07.2019
4718 Clear 36 1015 28 10000 1.5 0 16:22 24.07.2019
4719 Clear 36 1015 28 10000 1.5 0 15:41 24.07.2019
4720 Clear 36 1015 26 10000 1.5 0 15:23 24.07.2019
4721 Clear 35 1015 30 10000 2.1 70 14:57 24.07.2019
4722 Clear 35 1015 28 10000 2.1 20 14:38 24.07.2019
4723 Clear 35 1015 28 10000 2.1 20 14:38 24.07.2019
4724 Clear 35 1015 28 10000 2.1 20 14:38 24.07.2019
4725 Clear 35 1016 30 10000 1.5 0 14:19 24.07.2019
4726 Clear 36 1016 32 10000 1 0 13:37 24.07.2019
4727 Clear 35 1016 34 10000 1 0 13:19 24.07.2019
4728 Clear 34 1016 38 10000 1 0 12:51 24.07.2019
4729 Clear 33 1016 38 10000 1 0 12:32 24.07.2019
4730 Clear 31 1016 43 10000 2.1 230 11:40 24.07.2019
4731 Clear 30 1016 45 10000 2.1 220 11:20 24.07.2019
4732 Clear 29 1016 48 10000 2.1 210 10:46 24.07.2019
4733 Clear 28 1016 40 10000 3.1 180 10:26 24.07.2019
4734 Clear 27 1016 54 10000 2.1 240 09:52 24.07.2019
4735 -273 0 0 0 0 0 09:26 24.07.2019
4736 Clear 24 1016 54 10000 1.5 0 08:58 24.07.2019
4737 Clear 24 1016 60 10000 0.5 0 08:32 24.07.2019
4738 Clear 22 1016 73 10000 1.5 270 07:52 24.07.2019
4739 Clear 20 1016 64 10000 2.21 206.078 07:31 24.07.2019
4740 Clear 19 1016 77 10000 1 30 06:49 24.07.2019
4741 Clear 18 1016 93 10000 0.5 0 06:23 24.07.2019
4742 Clear 21 1017 82 10000 1.5 240 02:56 24.07.2019
4743 Clear 21 1017 82 10000 1.5 230 01:47 24.07.2019
4744 Clear 22 1016 50 10000 4.6 260 00:57 24.07.2019
4745 Clear 22 1016 50 10000 3.1 280 00:30 24.07.2019
4746 Clear 23 1017 54 10000 4.1 270 23:47 23.07.2019
4747 Clear 24 1017 51 10000 4.6 270 23:26 23.07.2019
4748 Clear 25 1017 48 10000 4.1 280 22:56 23.07.2019
4749 Clear 25 1017 48 10000 4.1 280 22:36 23.07.2019
4750 Clear 26 1016 54 10000 1.5 0 22:18 23.07.2019
4751 Clear 28 1016 51 10000 1.5 300 21:44 23.07.2019
4752 Clear 29 1016 51 10000 1.5 300 21:25 23.07.2019
4753 Clear 30 1016 36 10000 1.5 0 20:49 23.07.2019
4754 Clear 30 1016 36 10000 1.5 0 20:29 23.07.2019
4755 Clear 32 1016 33 10000 3.6 10 19:44 23.07.2019
4756 Clear 33 1016 32 10000 4.6 360 19:24 23.07.2019
4757 Clear 33 1017 34 10000 4.6 360 18:57 23.07.2019
4758 Clear 34 1017 34 10000 4.6 360 18:39 23.07.2019
4759 Clear 34 1017 34 10000 4.6 360 18:19 23.07.2019
4760 Clear 34 1017 34 10000 4.6 10 17:42 23.07.2019
4761 Clear 34 1017 32 10000 3.6 10 17:22 23.07.2019
4762 Clear 34 1017 34 10000 3.6 360 16:44 23.07.2019
4763 Clear 34 1018 34 10000 3.1 10 16:26 23.07.2019
4764 Clear 34 1018 34 10000 3.6 20 15:52 23.07.2019
4765 Clear 34 1018 34 10000 3.6 20 15:34 23.07.2019
4766 Clear 33 1019 31 10000 1.5 80 14:59 23.07.2019
4767 Clear 33 1019 36 10000 3.6 10 14:37 23.07.2019
4768 Clear 32 1019 38 10000 3.6 360 14:18 23.07.2019
4769 Clear 33 1019 40 10000 3.6 20 13:56 23.07.2019
4770 Clear 32 1019 40 10000 3.6 20 13:37 23.07.2019
4771 Clear 32 1020 40 10000 3.1 20 13:19 23.07.2019
4772 Clear 30 1020 45 10000 3.1 20 12:42 23.07.2019
4773 Clear 29 1020 48 10000 2.1 40 12:24 23.07.2019
4774 Clear 28 1020 51 10000 1.5 0 11:42 23.07.2019
4775 Clear 28 1021 54 10000 1 0 11:23 23.07.2019
4776 Clear 26 1021 57 10000 1.5 0 10:51 23.07.2019
4777 Clear 25 1021 64 10000 1 0 10:26 23.07.2019
4778 Clear 24 1021 64 10000 1 0 09:44 23.07.2019
4779 Clear 22 1021 68 10000 1 0 09:22 23.07.2019
4780 Clear 21 1021 56 10000 1.5 0 08:57 23.07.2019
4781 Clear 21 1021 72 10000 1.28 0.982 08:38 23.07.2019
4782 Clear 20 1021 77 10000 0.5 0 08:19 23.07.2019
4783 Clear 19 1021 64 10000 1.5 0 07:51 23.07.2019
4784 Clear 19 1021 64 10000 1.5 0 07:33 23.07.2019
4785 Clear 17 1021 60 10000 3.1 290 06:38 23.07.2019
4786 Clear 17 1021 60 10000 3.6 280 05:34 23.07.2019
4787 Clear 18 1022 88 10000 1.59 351.553 01:57 23.07.2019
4788 Clear 19 1022 60 10000 5.1 270 01:27 23.07.2019
4789 Clear 20 1022 60 10000 4.1 270 00:28 23.07.2019
4790 Clear 21 1022 60 10000 4.1 280 23:41 22.07.2019
4791 Clear 21 1022 60 10000 4.6 280 23:21 22.07.2019
4792 Clear 22 1022 60 10000 4.6 280 22:58 22.07.2019
4793 Clear 22 1022 60 10000 4.6 280 22:40 22.07.2019
4794 Clear 22 1022 60 10000 2.6 290 22:20 22.07.2019
4795 Clear 24 1022 51 10000 0.5 0 21:42 22.07.2019
4796 Clear 26 1022 48 10000 1 0 21:21 22.07.2019
4797 Clear 27 1022 48 10000 1.5 0 20:48 22.07.2019
4798 Clear 27 1022 48 10000 1.5 0 20:29 22.07.2019
4799 Clear 28 1022 33 10000 3.1 20 19:55 22.07.2019
4800 Clear 28 1022 33 10000 3.1 20 19:36 22.07.2019
4801 Clear 29 1022 35 10000 2.1 360 19:18 22.07.2019
4802 Clear 29 1022 33 10000 2.1 20 18:41 22.07.2019
4803 Clear 30 1022 37 10000 2.6 30 18:22 22.07.2019
4804 Clear 30 1022 35 10000 2.1 20 17:43 22.07.2019
4805 Clear 30 1022 37 10000 3.1 10 17:25 22.07.2019
4806 Clear 30 1023 37 10000 2.1 10 16:54 22.07.2019
4807 Clear 30 1023 37 10000 2.1 10 16:36 22.07.2019
4808 Clear 30 1023 40 10000 2.6 30 16:18 22.07.2019
4809 Clear 31 1023 40 10000 3.6 350 15:38 22.07.2019
4810 Clear 30 1023 40 10000 2.6 0 15:19 22.07.2019
4811 Clear 30 1023 40 10000 2.1 0 14:43 22.07.2019
4812 Clear 29 1024 39 10000 2.1 40 14:22 22.07.2019
4813 Clear 29 1024 42 10000 2.1 30 13:50 22.07.2019
4814 Clear 29 1024 47 10000 2.6 60 13:30 22.07.2019
4815 Clear 28 1024 47 10000 2.6 40 12:50 22.07.2019
4816 Clear 28 1024 44 10000 2.1 70 12:31 22.07.2019
4817 Clear 27 1024 54 10000 2.1 350 11:46 22.07.2019
4818 Clear 26 1024 57 10000 1 0 11:27 22.07.2019
4819 Clear 26 1024 47 10000 2.1 0 10:59 22.07.2019
4820 Clear 25 1024 60 10000 1 0 10:34 22.07.2019
4821 Clear 23 1024 64 10000 0.5 0 09:46 22.07.2019
4822 Clear 22 1024 73 10000 0.5 0 09:26 22.07.2019
4823 Clear 21 1024 77 10000 0.5 0 08:59 22.07.2019
4824 Clear 21 1024 77 10000 0.5 0 08:38 22.07.2019
4825 Clear 19 1024 77 10000 0.47 324.788 08:20 22.07.2019
4826 Clear 19 1024 68 10000 2.1 280 07:52 22.07.2019
4827 Clear 18 1024 68 10000 2.1 280 07:27 22.07.2019
4828 Clear 17 1024 93 10000 1 220 05:30 22.07.2019
4829 Clear 17 1023 64 10000 5.1 270 03:44 22.07.2019
4830 Clear 19 1023 68 10000 4.6 270 01:28 22.07.2019
4831 Clear 19 1023 64 10000 4.1 280 00:49 22.07.2019
4832 Clear 20 1023 64 10000 3.1 280 00:21 22.07.2019
4833 Clear 21 1023 73 10000 1.5 310 23:49 21.07.2019
4834 Clear 20 1023 64 10000 1.5 320 22:59 21.07.2019
4835 Clear 21 1022 69 10000 2.6 330 22:40 21.07.2019
4836 Clear 22 1022 64 10000 2.1 350 22:21 21.07.2019
4837 Clear 22 1021 57 10000 1.5 340 21:55 21.07.2019
4838 Clear 23 1021 57 10000 1.5 340 21:36 21.07.2019
4839 Clear 25 1021 51 10000 2.1 20 21:18 21.07.2019
4840 Clear 26 1021 51 10000 3.1 30 20:41 21.07.2019
4841 Clear 27 1021 45 10000 3.1 40 20:23 21.07.2019
4842 Clear 27 1021 40 10000 1 0 19:53 21.07.2019
4843 Clear 27 1021 40 10000 1 0 19:29 21.07.2019
4844 Clear 28 1021 42 10000 1 0 18:56 21.07.2019
4845 Clear 28 1021 42 10000 2.6 50 18:37 21.07.2019
4846 Clear 28 1021 45 10000 2.6 60 18:19 21.07.2019
4847 Clear 28 1021 42 10000 2.1 90 17:40 21.07.2019
4848 Clear 29 1021 45 10000 1.5 80 17:19 21.07.2019
4849 Clear 29 1021 51 10000 2.6 80 16:42 21.07.2019
4850 Clear 29 1021 48 10000 1.5 0 16:24 21.07.2019
4851 Clear 28 1021 45 10000 2.1 0 15:45 21.07.2019
4852 Rain 27 1021 54 10000 2.1 80 15:24 21.07.2019
4853 Rain 27 1021 54 10000 2.1 80 14:58 21.07.2019
4854 Rain 28 1021 42 10000 1.5 270 14:39 21.07.2019
4855 Thunderstorm 27 1021 42 10000 2.1 0 14:18 21.07.2019
4856 Rain 27 1022 57 10000 1 0 13:42 21.07.2019
4857 Clouds 27 1021 61 10000 3.1 20 13:24 21.07.2019
4858 Clouds 26 1021 57 10000 2.1 0 12:42 21.07.2019
4859 Clouds 25 1021 57 10000 3.1 120 12:24 21.07.2019
4860 Clouds 25 1022 65 10000 2.6 150 11:46 21.07.2019
4861 Clouds 24 1022 65 10000 2.6 150 11:28 21.07.2019
4862 Clear 23 1021 73 10000 2.1 150 10:47 21.07.2019
4863 Clear 23 1021 73 10000 2.1 150 10:26 21.07.2019
4864 Clear 23 1021 78 10000 2.6 170 10:26 21.07.2019
4865 Clear 22 1021 78 10000 1.5 200 09:56 21.07.2019
4866 Clear 22 1021 78 10000 1.5 200 09:36 21.07.2019
4867 Clear 22 1021 78 10000 1.5 200 09:36 21.07.2019
4868 Clear 22 1021 78 10000 1.5 200 09:36 21.07.2019
4869 Clear 20 1021 77 10000 1 0 08:52 21.07.2019
4870 Clear 20 1021 77 10000 1 0 08:34 21.07.2019
4871 Clouds 19 1020 88 10000 1.5 240 07:59 21.07.2019
4872 Clouds 19 1020 88 10000 1.5 220 07:32 21.07.2019
4873 Clear 18 1020 88 10000 2.1 240 06:38 21.07.2019
4874 Rain 19 1019 94 10000 1 120 04:21 21.07.2019
4875 Thunderstorm 21 1018 64 10000 6.2 240 01:57 21.07.2019
4876 Rain 21 1016 50 10000 1 220 00:48 21.07.2019
4877 Clear 22 1016 44 10000 2.1 310 00:22 21.07.2019
4878 Clear 22 1016 44 10000 2.1 310 00:22 21.07.2019
4879 Rain 22 1016 44 10000 2.1 280 23:54 20.07.2019
4880 Rain 22 1016 44 10000 2.1 280 23:36 20.07.2019
4881 Clouds 23 1016 60 10000 1.5 0 23:18 20.07.2019
4882 Clear 23 1015 37 10000 3.1 190 22:41 20.07.2019
4883 Rain 23 1015 35 10000 2.6 150 22:19 20.07.2019
4884 Clear 24 1014 35 10000 3.1 280 21:44 20.07.2019
4885 Clear 27 1014 35 10000 2.6 260 21:24 20.07.2019
4886 Clear 27 1014 33 10000 3.6 240 20:44 20.07.2019
4887 Clear 28 1014 33 10000 2.6 260 20:23 20.07.2019
4888 Clear 28 1014 33 10000 4.6 240 19:52 20.07.2019
4889 Clear 28 1014 33 10000 4.6 240 19:33 20.07.2019
4890 Clear 29 1014 29 10000 5.1 230 18:58 20.07.2019
4891 Clear 29 1013 27 10000 7.7 240 18:40 20.07.2019
4892 Clear 30 1013 26 10000 8.2 230 18:19 20.07.2019
4893 Clear 30 1013 27 10000 5.1 200 17:47 20.07.2019
4894 Clear 30 1013 27 10000 4.6 250 17:20 20.07.2019
4895 Clear 30 1013 29 10000 5.7 250 16:42 20.07.2019
4896 Clear 31 1013 25 10000 7.2 250 16:24 20.07.2019
4897 Clear 30 1013 25 10000 7.2 250 15:56 20.07.2019
4898 Clear 30 1013 26 10000 5.1 240 15:37 20.07.2019
4899 Clear 31 1014 27 10000 6.2 250 15:18 20.07.2019
4900 Clear 30 1014 25 10000 5.7 230 14:43 20.07.2019
4901 Clear 31 1013 29 10000 5.1 240 14:20 20.07.2019
4902 Clear 31 1014 31 10000 6.7 230 13:38 20.07.2019
4903 Clear 30 1014 31 10000 6.2 230 13:19 20.07.2019
4904 Clear 30 1014 31 10000 7.7 240 12:52 20.07.2019
4905 Clear 28 1013 39 10000 2.6 130 12:21 20.07.2019
4906 Clear 28 1014 47 10000 2.6 10 11:55 20.07.2019
4907 Clear 27 1014 54 10000 1.5 0 11:23 20.07.2019
4908 Clear 26 1014 53 10000 2.6 90 10:55 20.07.2019
4909 Clear 26 1014 53 10000 2.6 90 10:36 20.07.2019
4910 Clear 25 1014 53 10000 2.6 140 10:18 20.07.2019
4911 Clear 24 1014 53 10000 3.1 180 09:43 20.07.2019
4912 Clear 22 1014 60 10000 1.5 160 09:18 20.07.2019
4913 Clear 22 1014 60 10000 1.5 160 09:18 20.07.2019
4914 Clear 21 1014 64 10000 1 0 08:44 20.07.2019
4915 Clear 19 1014 68 10000 1.5 0 08:20 20.07.2019
4916 Clear 17 1014 72 10000 1.5 180 07:20 20.07.2019
4917 Clear 16 1014 77 10000 1 0 06:41 20.07.2019
4918 Clear 17 1014 68 10000 3.6 270 04:31 20.07.2019
4919 Clear 17 1014 68 10000 2.6 270 03:40 20.07.2019
4920 Clear 18 1015 68 10000 5.1 270 01:21 20.07.2019
4921 Clear 18 1015 68 10000 5.1 270 01:21 20.07.2019
4922 Clear 18 1015 68 10000 4.1 270 00:47 20.07.2019
4923 Clear 19 1015 68 10000 3.1 280 00:21 20.07.2019
4924 Clear 19 1015 68 10000 1 310 23:45 19.07.2019
4925 Clear 21 1015 64 10000 2.6 330 23:26 19.07.2019
4926 Clear 21 1015 64 10000 1.5 330 22:50 19.07.2019
4927 Clear 22 1015 57 10000 2.1 330 22:26 19.07.2019
4928 Clear 22 1014 53 10000 2.6 20 21:52 19.07.2019
4929 Clear 22 1014 53 10000 2.6 20 21:34 19.07.2019
4930 Clear 25 1014 50 10000 2.1 50 20:59 19.07.2019
4931 Clear 25 1014 44 10000 2.6 50 20:40 19.07.2019
4932 Clear 26 1014 50 10000 3.1 20 20:22 19.07.2019
4933 Clear 26 1014 47 10000 2.6 20 19:35 19.07.2019
4934 Clear 26 1015 44 10000 3.6 40 18:47 19.07.2019
4935 Clear 27 1015 44 10000 1.5 20 18:25 19.07.2019
4936 Clear 27 1015 39 10000 2.1 100 17:58 19.07.2019
4937 Clear 27 1015 47 10000 4.1 30 17:40 19.07.2019
4938 Clear 27 1015 47 10000 4.6 350 17:21 19.07.2019
4939 Clear 27 1015 44 10000 3.6 340 16:47 19.07.2019
4940 Clear 27 1015 44 10000 3.6 300 16:24 19.07.2019
4941 Clear 27 1015 42 10000 3.6 310 15:47 19.07.2019
4942 Clear 27 1015 37 10000 2.6 310 15:29 19.07.2019
4943 Clear 27 1015 44 10000 3.6 250 14:55 19.07.2019
4944 Clear 27 1015 44 10000 3.6 250 14:37 19.07.2019
4945 Clear 27 1016 47 10000 3.1 240 14:19 19.07.2019
4946 Clear 27 1016 42 10000 2.1 310 13:42 19.07.2019
4947 Clear 27 1016 42 10000 3.6 260 13:22 19.07.2019
4948 Clear 27 1016 42 10000 3.6 0 12:48 19.07.2019
4949 Clouds 26 1016 44 10000 1 0 12:28 19.07.2019
4950 Clear 26 1016 47 10000 2.6 210 11:47 19.07.2019
4951 Clear 25 1016 50 10000 3.1 200 11:20 19.07.2019
4952 Clear 24 1016 53 10000 3.6 190 10:58 19.07.2019
4953 Clear 24 1016 53 10000 3.6 190 10:39 19.07.2019
4954 Clear 23 1016 53 10000 4.1 190 10:18 19.07.2019
4955 Clear 22 1016 56 10000 4.1 200 09:43 19.07.2019
4956 Clear 20 1016 60 10000 2.6 200 09:22 19.07.2019
4957 Clear 20 1015 60 10000 2.6 180 08:50 19.07.2019
4958 Clear 19 1015 68 10000 1.5 130 08:28 19.07.2019
4959 Clear 18 1015 68 10000 1 200 07:33 19.07.2019
4960 Clear 18 1015 72 10000 2.6 240 06:47 19.07.2019
4961 Clear 17 1015 63 10000 2.1 250 05:26 19.07.2019
4962 Clear 18 1015 60 10000 2.6 250 01:45 19.07.2019
4963 Clear 19 1014 60 10000 4.6 280 00:58 19.07.2019
4964 Clear 20 1014 56 10000 3.6 290 00:21 19.07.2019
4965 Clear 21 1014 56 10000 3.6 280 23:42 18.07.2019
4966 Clear 21 1014 56 10000 1.5 320 23:23 18.07.2019
4967 Clear 21 1014 49 10000 1.5 0 22:58 18.07.2019
4968 Clear 21 1014 49 10000 1.5 0 22:39 18.07.2019
4969 Clear 20 1013 49 10000 2.1 340 22:18 18.07.2019
4970 Rain 23 1013 44 10000 4.6 290 21:40 18.07.2019
4971 Clouds 25 1013 41 10000 3.6 290 21:20 18.07.2019
4972 Clouds 25 1012 39 10000 1 0 20:49 18.07.2019
4973 Clear 25 1012 36 10000 1 130 20:27 18.07.2019
4974 Clear 25 1012 32 10000 0.5 0 19:52 18.07.2019
4975 Clear 25 1012 39 10000 1.5 0 19:30 18.07.2019
4976 Clear 27 1012 37 10000 1.5 0 18:57 18.07.2019
4977 Clear 28 1012 34 10000 2.6 220 18:24 18.07.2019
4978 Clear 28 1012 34 10000 3.1 230 17:58 18.07.2019
4979 Clear 28 1012 34 10000 3.1 230 17:39 18.07.2019
4980 Clear 28 1012 34 10000 3.1 260 17:19 18.07.2019
4981 Clear 29 1012 30 10000 3.1 220 16:53 18.07.2019
4982 Clear 29 1012 32 10000 2.1 170 16:29 18.07.2019
4983 Clear 29 1012 34 10000 3.1 0 15:58 18.07.2019
4984 Clear 29 1012 34 10000 3.1 0 15:37 18.07.2019
4985 Clear 28 1012 30 10000 2.6 210 15:19 18.07.2019
4986 Clear 28 1013 32 10000 2.6 190 14:42 18.07.2019
4987 Clear 28 1013 32 10000 3.6 290 14:23 18.07.2019
4988 Clouds 28 1013 32 10000 2.1 0 13:43 18.07.2019
4989 Clear 27 1013 34 10000 2.6 140 13:22 18.07.2019
4990 Clear 26 1013 34 10000 2.6 140 12:48 18.07.2019
4991 Clear 25 1014 34 10000 1.5 0 12:21 18.07.2019
4992 Clear 25 1014 34 10000 1.5 0 12:21 18.07.2019
4993 Clear 25 1013 44 10000 1.5 0 11:56 18.07.2019
4994 Clear 25 1013 44 10000 1.5 0 11:38 18.07.2019
4995 Clear 23 1013 46 10000 2.6 230 11:19 18.07.2019
4996 Clear 22 1013 49 10000 1.5 0 10:41 18.07.2019
4997 Clear 20 1013 60 10000 2.6 220 09:49 18.07.2019
4998 Clear 19 1013 63 10000 2.6 220 09:26 18.07.2019
4999 Clear 17 1013 72 10000 2.1 210 08:51 18.07.2019
5000 Clear 16 1013 77 10000 1 0 08:22 18.07.2019
5001 Clear 16 1013 72 10000 0.5 0 07:54 18.07.2019
5002 Clear 15 1013 72 10000 0.5 0 07:34 18.07.2019
5003 Clear 14 1013 67 10000 1 0 06:46 18.07.2019
5004 Clear 14 1013 67 10000 2.1 340 05:58 18.07.2019
5005 Clear 15 1013 87 10000 1 0 03:25 18.07.2019
5006 Clear 16 1013 82 10000 1.81 228.671 01:52 18.07.2019
5007 Clear 16 1013 77 10000 1 240 01:33 18.07.2019
5008 Clear 18 1012 49 10000 3.6 260 23:57 17.07.2019
5009 Clear 18 1012 60 10000 3.1 260 23:21 17.07.2019
5010 Clear 19 1012 56 10000 2.6 280 22:59 17.07.2019
5011 Clear 19 1012 56 10000 2.6 280 22:41 17.07.2019
5012 Clear 20 1012 53 10000 1.5 340 22:21 17.07.2019
5013 Clear 21 1012 47 10000 0.5 0 21:56 17.07.2019
5014 Clear 21 1012 47 10000 0.5 0 21:37 17.07.2019
5015 Clear 24 1012 41 10000 1.5 30 21:19 17.07.2019
5016 Clear 25 1012 41 10000 2.6 20 20:41 17.07.2019
5017 Clear 25 1012 29 10000 2.1 260 20:21 17.07.2019
5018 Clear 25 1011 39 10000 3.1 50 19:59 17.07.2019
5019 Clear 25 1011 39 10000 3.1 50 19:40 17.07.2019
5020 Clear 26 1011 39 10000 3.1 50 19:19 17.07.2019
5021 Clear 26 1011 37 10000 3.1 50 18:43 17.07.2019
5022 Clear 27 1012 22 10000 4.1 280 18:21 17.07.2019
5023 Clear 27 1012 37 10000 3.1 50 17:56 17.07.2019
5024 Clear 27 1012 37 10000 3.1 50 17:56 17.07.2019
5025 Clear 27 1012 37 10000 3.1 50 17:38 17.07.2019
5026 Clear 27 1012 37 10000 3.1 50 17:19 17.07.2019
5027 Clear 28 1012 37 10000 2.1 0 16:40 17.07.2019
5028 Clear 28 1012 37 10000 2.1 0 16:19 17.07.2019
5029 Clear 28 1013 37 10000 2.1 110 15:51 17.07.2019
5030 Clear 27 1013 39 10000 3.1 50 15:29 17.07.2019
5031 Clear 27 1013 39 10000 2.6 70 14:56 17.07.2019
5032 Clear 27 1013 42 10000 2.6 0 14:37 17.07.2019
5033 Clear 27 1013 42 10000 2.6 0 14:19 17.07.2019
5034 Clear 26 1014 41 10000 2.1 0 13:45 17.07.2019
5035 Clear 26 1014 41 10000 2.1 0 13:25 17.07.2019
5036 Clear 25 1014 50 10000 2.1 70 12:44 17.07.2019
5037 Clear 24 1014 50 10000 2.1 70 12:23 17.07.2019
5038 Clear 23 1015 53 10000 1.5 0 11:59 17.07.2019
5039 Clear 23 1015 56 10000 1 0 11:39 17.07.2019
5040 Clear 23 1015 56 10000 1 0 11:19 17.07.2019
5041 Clear 21 1015 64 10000 1.5 80 10:43 17.07.2019
5042 Clear 20 1015 64 10000 1.5 80 10:20 17.07.2019
5043 Clear 19 1015 63 10000 3.1 20 09:44 17.07.2019
5044 Clear 18 1015 63 10000 3.1 20 09:26 17.07.2019
5045 Clear 17 1015 72 10000 0.1 253.644 08:44 17.07.2019
5046 Clear 16 1015 72 10000 0.1 253.644 08:23 17.07.2019
5047 Clear 16 1015 77 10000 0.1 253.644 07:55 17.07.2019
5048 Clear 15 1015 77 10000 0.1 253.644 07:36 17.07.2019
5049 Clear 14 1015 77 10000 0.1 253.644 07:18 17.07.2019
5050 Fog 14 1015 77 10000 2.1 240 06:41 17.07.2019
5051 Fog 13 1015 77 10000 2.1 240 06:22 17.07.2019
5052 Fog 13 1015 77 10000 0.11 246.4 05:33 17.07.2019
5053 Fog 13 1015 100 10000 1 140 04:56 17.07.2019
5054 Clear 14 1016 93 10000 0.11 246.4 03:52 17.07.2019
5055 Clear 15 1015 68 10000 3.1 260 02:43 17.07.2019
5056 Clear 15 1016 87 10000 0.89 349.476 01:42 17.07.2019
5057 Clear 16 1016 68 10000 3.6 280 01:22 17.07.2019
5058 Clear 17 1016 68 10000 3.6 260 00:39 17.07.2019
5059 Clear 17 1016 68 10000 3.6 260 00:20 17.07.2019
5060 Clear 18 1016 68 10000 3.6 270 23:45 16.07.2019
5061 Clear 18 1016 68 10000 3.6 270 23:24 16.07.2019
5062 Clear 18 1016 68 10000 3.6 270 23:24 16.07.2019
5063 Clear 19 1016 68 10000 2.1 290 22:57 16.07.2019
5064 Clear 18 1016 72 10000 1 320 22:39 16.07.2019
5065 Clear 19 1016 72 10000 1 320 22:18 16.07.2019
5066 Clear 21 1015 56 10000 1.5 360 21:41 16.07.2019
5067 Clear 22 1015 56 10000 1.5 360 21:20 16.07.2019
5068 Clear 24 1015 47 10000 2.1 50 20:41 16.07.2019
5069 Clear 24 1015 47 10000 2.1 50 20:41 16.07.2019
5070 Clear 24 1015 47 10000 2.1 50 20:23 16.07.2019
5071 Clear 24 1015 47 10000 3.1 50 19:55 16.07.2019
5072 Clear 24 1015 44 10000 3.1 40 19:37 16.07.2019
5073 Clear 24 1015 44 10000 3.1 40 19:19 16.07.2019
5074 Clear 25 1015 44 10000 2.6 60 18:44 16.07.2019
5075 Clear 26 1015 44 10000 2.6 60 18:21 16.07.2019
5076 Clear 26 1015 44 10000 2.6 60 17:55 16.07.2019
5077 Clear 26 1015 44 10000 2.1 80 17:36 16.07.2019
5078 Clear 26 1016 44 10000 2.6 40 16:56 16.07.2019
5079 Clear 26 1016 44 10000 2.1 40 16:38 16.07.2019
5080 Clear 26 1016 44 10000 2.1 40 16:18 16.07.2019
5081 Clear 26 1016 47 10000 2.1 50 15:39 16.07.2019
5082 Clear 25 1016 47 10000 2.1 50 15:20 16.07.2019
5083 Clear 25 1016 47 10000 1 0 14:57 16.07.2019
5084 Clear 25 1017 47 10000 1.5 0 14:38 16.07.2019
5085 Clear 24 1017 47 10000 1.5 0 14:19 16.07.2019
5086 Clear 24 1017 53 10000 2.1 80 13:44 16.07.2019
5087 Clear 23 1017 53 10000 2.1 80 13:20 16.07.2019
5088 Clear 22 1018 56 10000 2.1 40 12:44 16.07.2019
5089 Clear 22 1018 56 10000 2.1 40 12:20 16.07.2019
5090 Clear 21 1018 60 10000 2.1 80 11:58 16.07.2019
5091 Clear 20 1018 63 10000 1.5 90 11:40 16.07.2019
5092 Clear 20 1018 63 10000 1.5 90 11:21 16.07.2019
5093 Clear 19 1018 63 10000 1.5 0 10:45 16.07.2019
5094 Clear 17 1018 63 10000 1.5 0 10:22 16.07.2019
5095 Clear 17 1018 67 10000 1.5 70 09:56 16.07.2019
5096 Clear 15 1018 72 10000 1.5 0 09:36 16.07.2019
5097 Clear 15 1018 67 10000 2.1 30 09:18 16.07.2019
5098 Mist 15 1018 72 10000 3.1 20 08:41 16.07.2019
5099 Mist 14 1018 72 10000 3.1 20 08:19 16.07.2019
5100 Mist 13 1018 82 10000 1.5 0 07:42 16.07.2019
5101 Mist 12 1018 82 10000 1.5 0 07:24 16.07.2019
5102 Mist 12 1019 82 10000 1 0 06:47 16.07.2019
5103 Clear 11 1018 81 9000 1.5 350 06:26 16.07.2019
5104 Clear 12 1018 82 10000 2.6 360 05:36 16.07.2019
5105 Clear 12 1018 82 10000 2.6 360 05:18 16.07.2019
5106 Clear 13 1018 72 10000 3.1 20 03:57 16.07.2019
5107 Clear 13 1018 77 10000 3.1 10 03:21 16.07.2019
5108 Clear 14 1018 72 10000 4.1 360 02:31 16.07.2019
5109 Clear 14 1018 82 10000 2.1 330 01:49 16.07.2019
5110 Clear 15 1018 77 10000 3.6 270 00:47 16.07.2019
5111 Clear 16 1017 72 10000 3.1 280 00:22 16.07.2019
5112 Clear 16 1017 72 10000 1.5 300 23:53 15.07.2019
5113 Clear 16 1017 72 10000 1 0 23:34 15.07.2019
5114 Clear 16 1017 68 10000 2.1 320 22:55 15.07.2019
5115 Clear 16 1017 68 10000 2.1 330 22:36 15.07.2019
5116 Clear 17 1017 68 10000 2.1 330 22:18 15.07.2019
5117 Clear 17 1017 68 10000 2.1 330 22:18 15.07.2019
5118 Clear 18 1016 53 10000 2.6 30 21:42 15.07.2019
5119 Clear 20 1016 53 10000 2.6 30 21:20 15.07.2019
5120 Clear 21 1016 49 10000 3.1 40 20:57 15.07.2019
5121 Clear 21 1016 49 10000 3.1 40 20:57 15.07.2019
5122 Clear 21 1016 49 10000 3.6 30 20:38 15.07.2019
5123 Clear 21 1016 49 10000 3.6 30 20:20 15.07.2019
5124 Clear 22 1016 47 10000 4.6 10 19:43 15.07.2019
5125 Clear 22 1016 47 10000 4.6 10 19:22 15.07.2019
5126 Clear 22 1016 47 10000 4.1 30 18:57 15.07.2019
5127 Clear 22 1016 47 10000 3.6 360 18:38 15.07.2019
5128 Clear 23 1016 47 10000 3.6 360 18:19 15.07.2019
5129 Clear 23 1016 47 10000 4.6 20 17:55 15.07.2019
5130 Clouds 23 1016 49 10000 3.1 20 17:36 15.07.2019
5131 Clouds 23 1016 49 10000 3.1 20 17:18 15.07.2019
5132 Clouds 23 1016 53 10000 1.5 0 16:39 15.07.2019
5133 Clouds 23 1016 53 10000 1.5 0 16:20 15.07.2019
5134 Clouds 23 1016 56 10000 2.6 60 15:57 15.07.2019
5135 Clouds 22 1016 53 10000 4.1 360 15:37 15.07.2019
5136 Clouds 22 1016 53 10000 4.1 360 15:19 15.07.2019
5137 Clouds 21 1017 60 10000 2.6 0 14:45 15.07.2019
5138 Clouds 21 1017 60 10000 2.6 0 14:25 15.07.2019
5139 Clouds 21 1017 56 10000 3.6 30 13:55 15.07.2019
5140 Clouds 20 1017 56 10000 5.1 20 13:36 15.07.2019
5141 Clouds 19 1017 56 10000 5.1 20 13:18 15.07.2019
5142 Clouds 19 1017 60 10000 5.1 360 12:41 15.07.2019
5143 Clouds 18 1017 60 10000 5.1 360 12:21 15.07.2019
5144 Clear 18 1017 63 10000 6.2 30 11:43 15.07.2019
5145 Clear 17 1017 63 10000 6.2 30 11:25 15.07.2019
5146 Clouds 16 1017 67 10000 6.2 30 10:48 15.07.2019
5147 Clouds 16 1017 67 10000 6.2 30 10:29 15.07.2019
5148 Clear 16 1017 67 10000 5.7 20 09:54 15.07.2019
5149 Clouds 15 1017 67 10000 6.7 10 09:36 15.07.2019
5150 Clouds 15 1017 67 10000 6.7 10 09:18 15.07.2019
5151 Clear 14 1017 72 10000 6.7 10 08:41 15.07.2019
5152 Clear 14 1017 72 10000 6.7 10 08:23 15.07.2019
5153 Clear 14 1017 72 10000 6.7 10 08:23 15.07.2019
5154 Rain 13 1016 72 10000 5.7 360 07:41 15.07.2019
5155 Rain 13 1015 93 10000 3.6 320 07:19 15.07.2019
5156 Clouds 13 1016 76 10000 5.1 10 06:39 15.07.2019
5157 Rain 13 1016 72 10000 5.1 350 05:49 15.07.2019
5158 Rain 13 1016 72 10000 5.1 10 05:29 15.07.2019
5159 Rain 13 1016 72 10000 5.7 360 04:43 15.07.2019
5160 Rain 13 1016 77 10000 5.7 350 03:48 15.07.2019
5161 Rain 14 1017 77 10000 4.6 360 02:47 15.07.2019
5162 Rain 14 1017 82 10000 4.1 360 01:45 15.07.2019
5163 Rain 14 1017 82 10000 4.1 360 01:26 15.07.2019
5164 Rain 14 1017 82 10000 4.1 360 00:51 15.07.2019
5165 Rain 15 1017 87 7000 2.6 350 00:22 15.07.2019
5166 Rain 15 1017 87 10000 2.6 330 23:55 14.07.2019
5167 Rain 15 1017 93 10000 2.6 330 23:36 14.07.2019
5168 Rain 15 1017 93 10000 2.6 330 23:18 14.07.2019
5169 Rain 15 1017 93 9000 2.6 340 22:55 14.07.2019
5170 Rain 15 1017 87 9000 2.6 330 22:36 14.07.2019
5171 Rain 15 1017 87 7000 3.6 350 22:18 14.07.2019
5172 Rain 15 1017 87 7000 2.6 10 21:42 14.07.2019
5173 Rain 16 1017 87 7000 2.6 10 21:18 14.07.2019
5174 Rain 16 1016 82 10000 3.1 350 20:57 14.07.2019
5175 Rain 16 1016 82 10000 4.1 360 20:37 14.07.2019
5176 Rain 16 1016 82 10000 4.1 360 20:19 14.07.2019
5177 Rain 17 1016 68 10000 5.1 360 19:44 14.07.2019
5178 Rain 17 1016 68 10000 5.1 360 19:25 14.07.2019
5179 Rain 18 1016 72 10000 6.7 10 18:57 14.07.2019
5180 Rain 18 1016 68 10000 5.7 20 18:38 14.07.2019
5181 Rain 18 1016 68 10000 5.7 20 18:20 14.07.2019
5182 Rain 19 1016 63 10000 5.7 20 17:47 14.07.2019
5183 Rain 19 1016 68 10000 6.2 30 17:21 14.07.2019
5184 Rain 20 1016 68 10000 6.7 30 16:47 14.07.2019
5185 Rain 20 1016 68 10000 6.7 30 16:24 14.07.2019
5186 Rain 21 1016 64 10000 7.2 10 15:56 14.07.2019
5187 Clouds 20 1016 60 10000 7.7 10 15:34 14.07.2019
5188 Rain 21 1016 60 10000 7.7 20 14:55 14.07.2019
5189 Rain 20 1016 60 10000 8.7 10 14:36 14.07.2019
5190 Thunderstorm 20 1015 60 10000 8.7 20 14:18 14.07.2019
5191 Rain 22 1016 56 10000 6.7 10 13:44 14.07.2019
5192 Rain 21 1016 56 10000 6.7 10 13:21 14.07.2019
5193 Rain 21 1016 60 10000 5.7 30 12:43 14.07.2019
5194 Clear 20 1016 60 10000 5.7 30 12:22 14.07.2019
5195 Clear 20 1016 60 10000 5.7 30 12:22 14.07.2019
5196 Clouds 20 1016 60 10000 5.1 20 11:57 14.07.2019
5197 Clouds 19 1016 68 10000 6.2 360 11:38 14.07.2019
5198 Clouds 19 1016 68 10000 6.2 360 11:19 14.07.2019
5199 Clouds 19 1017 72 10000 5.1 20 10:42 14.07.2019
5200 Clouds 19 1017 72 10000 5.1 20 10:19 14.07.2019
5201 Clear 18 1016 72 10000 4.1 20 09:44 14.07.2019
5202 Clear 17 1016 72 10000 4.1 20 09:24 14.07.2019
5203 Clear 16 1016 77 10000 1.5 40 08:45 14.07.2019
5204 Rain 15 1016 77 10000 1.5 40 08:22 14.07.2019
5205 Clear 14 1016 87 10000 0.5 0 07:41 14.07.2019
5206 Clear 13 1016 87 10000 1 290 06:59 14.07.2019
5207 Fog 13 1016 77 10000 2.1 290 05:45 14.07.2019
5208 Clouds 13 1017 77 10000 1.5 0 03:50 14.07.2019
5209 Clouds 13 1017 76 10000 1.5 230 03:32 14.07.2019
5210 Clear 13 1017 72 10000 1 0 02:52 14.07.2019
5211 Clear 14 1017 82 10000 1.5 70 02:22 14.07.2019
5212 Clear 14 1017 63 10000 2.6 270 01:34 14.07.2019
5213 Clear 15 1018 63 10000 3.6 270 00:59 14.07.2019
5214 Clear 15 1018 59 10000 2.6 260 00:40 14.07.2019
5215 Clear 16 1018 59 10000 2.6 260 00:20 14.07.2019
5216 Clear 16 1018 59 10000 2.6 260 00:20 14.07.2019
5217 Clear 16 1018 59 10000 2.6 270 23:56 13.07.2019
5218 Clear 16 1018 63 10000 3.1 270 23:37 13.07.2019
5219 Clear 16 1018 63 10000 3.1 270 23:19 13.07.2019
5220 Clear 16 1018 55 10000 2.6 290 22:40 13.07.2019
5221 Clear 17 1018 55 10000 2.6 290 22:21 13.07.2019
5222 Clear 18 1017 49 10000 1 0 21:45 13.07.2019
5223 Clear 20 1017 49 10000 1 0 21:20 13.07.2019
5224 Clear 21 1017 49 10000 1 0 20:47 13.07.2019
5225 Clear 22 1017 46 10000 2.6 40 20:28 13.07.2019
5226 Clear 22 1017 38 10000 4.1 360 19:48 13.07.2019
5227 Clouds 22 1017 40 10000 3.6 320 19:29 13.07.2019
5228 Clouds 22 1017 44 10000 2.6 110 18:46 13.07.2019
5229 Clouds 23 1017 44 10000 2.6 110 18:23 13.07.2019
5230 Clear 23 1017 43 10000 3.6 10 17:42 13.07.2019
5231 Clear 23 1017 43 10000 3.6 10 17:42 13.07.2019
5232 Clear 23 1017 43 10000 3.6 10 17:22 13.07.2019
5233 Rain 23 1017 44 10000 4.6 360 16:58 13.07.2019
5234 Rain 23 1018 41 10000 2.6 310 16:39 13.07.2019
5235 Rain 23 1018 41 10000 2.6 310 16:21 13.07.2019
5236 Clouds 23 1018 46 10000 3.1 60 15:46 13.07.2019
5237 Clouds 23 1018 46 10000 3.1 60 15:23 13.07.2019
5238 Clouds 22 1018 40 10000 3.6 10 14:46 13.07.2019
5239 Rain 22 1018 40 10000 3.6 10 14:26 13.07.2019
5240 Clouds 22 1018 43 10000 4.1 300 13:58 13.07.2019
5241 Rain 22 1018 38 10000 1.5 0 13:39 13.07.2019
5242 Rain 22 1018 38 10000 1.5 0 13:18 13.07.2019
5243 Clouds 21 1018 52 10000 1 260 12:40 13.07.2019
5244 Rain 20 1018 52 10000 1 260 12:22 13.07.2019
5245 Rain 20 1019 60 10000 3.6 330 11:52 13.07.2019
5246 Rain 20 1019 60 10000 0.5 0 11:20 13.07.2019
5247 Clouds 20 1018 68 10000 1.5 100 10:55 13.07.2019
5248 Clouds 19 1018 72 10000 2.1 110 10:37 13.07.2019
5249 Clouds 19 1018 72 10000 2.1 110 10:18 13.07.2019
5250 Rain 18 1018 68 10000 1.5 120 09:41 13.07.2019
5251 Rain 16 1018 68 10000 1.5 120 09:20 13.07.2019
5252 Rain 16 1018 77 10000 1 0 08:45 13.07.2019
5253 Rain 16 1018 77 10000 1 0 08:26 13.07.2019
5254 Rain 14 1017 82 10000 1.5 0 07:30 13.07.2019
5255 Fog 14 1017 82 10000 1.5 120 06:51 13.07.2019
5256 Rain 14 1017 87 10000 1.5 220 06:27 13.07.2019
5257 Rain 14 1017 87 10000 2.6 210 05:37 13.07.2019
5258 Rain 14 1017 82 10000 0.5 0 04:36 13.07.2019
5259 Rain 14 1017 82 10000 0.5 0 04:18 13.07.2019
5260 Rain 15 1016 82 10000 1.5 210 03:39 13.07.2019
5261 Rain 15 1016 87 10000 1.5 150 02:28 13.07.2019
5262 Rain 16 1016 82 10000 2.1 270 01:44 13.07.2019
5263 Rain 16 1016 82 10000 2.1 270 01:20 13.07.2019
5264 Rain 16 1016 72 10000 2.1 240 00:57 13.07.2019
5265 Rain 17 1016 72 9000 1.5 0 00:20 13.07.2019
5266 Rain 17 1016 68 7000 6.2 340 23:49 12.07.2019
5267 Rain 17 1015 56 10000 4.1 360 23:30 12.07.2019
5268 Rain 17 1015 64 10000 3.1 50 22:56 12.07.2019
5269 Clear 17 1014 43 10000 4.1 260 22:38 12.07.2019
5270 Rain 18 1014 38 10000 4.6 280 22:18 12.07.2019
5271 Rain 19 1013 38 10000 4.1 270 21:41 12.07.2019
5272 Rain 21 1013 38 10000 4.1 270 21:19 12.07.2019
5273 Clear 21 1012 36 10000 5.1 280 20:44 12.07.2019
5274 Clear 21 1012 36 10000 5.1 280 20:22 12.07.2019
5275 Thunderstorm 21 1012 36 10000 4.1 290 19:43 12.07.2019
5276 Thunderstorm 21 1012 36 10000 4.1 290 19:25 12.07.2019
5277 Thunderstorm 22 1012 36 10000 5.7 260 18:56 12.07.2019
5278 Clear 22 1012 36 10000 4.1 270 18:36 12.07.2019
5279 Clear 24 1012 36 10000 4.1 270 18:18 12.07.2019
5280 Clear 23 1012 39 10000 6.7 260 17:42 12.07.2019
5281 Clear 25 1012 39 10000 6.7 260 17:23 12.07.2019
5282 Rain 25 1012 39 10000 5.7 280 16:37 12.07.2019
5283 Clear 25 1012 42 10000 5.7 300 16:19 12.07.2019
5284 Rain 24 1012 39 10000 5.1 290 15:39 12.07.2019
5285 Rain 23 1012 39 10000 5.1 290 15:20 12.07.2019
5286 Rain 23 1012 41 10000 1.5 0 14:46 12.07.2019
5287 Rain 23 1012 41 10000 1.5 0 14:46 12.07.2019
5288 Rain 23 1012 41 10000 1.5 0 14:22 12.07.2019
5289 Rain 23 1012 41 10000 1.5 0 14:22 12.07.2019
5290 Rain 23 1012 41 10000 3.1 310 13:54 12.07.2019
5291 Rain 22 1013 44 10000 4.1 290 13:34 12.07.2019
5292 Rain 22 1013 50 10000 1 0 12:55 12.07.2019
5293 -273 0 0 0 0 0 12:37 12.07.2019
5294 Clear 19 1013 57 10000 1.5 60 12:18 12.07.2019
5295 Clear 19 1013 60 10000 1 0 11:43 12.07.2019
5296 Clear 19 1013 60 10000 1 0 11:20 12.07.2019
5297 Rain 18 1013 68 10000 3.6 190 10:43 12.07.2019
5298 Rain 18 1013 68 10000 3.6 190 10:23 12.07.2019
5299 Rain 17 1013 77 10000 3.1 190 09:54 12.07.2019
5300 Rain 16 1014 88 10000 2.1 240 09:29 12.07.2019
5301 Rain 16 1013 87 10000 2.1 180 08:56 12.07.2019
5302 Rain 16 1014 87 9000 2.6 280 08:26 12.07.2019
5303 Rain 16 1014 87 10000 2.1 280 07:55 12.07.2019
5304 Rain 16 1014 87 10000 1 0 07:32 12.07.2019
5305 Thunderstorm 15 1014 93 10000 3.6 360 06:59 12.07.2019
5306 Rain 15 1013 82 10000 0.5 0 06:28 12.07.2019
5307 Rain 15 1013 82 10000 1.5 10 05:46 12.07.2019
5308 Clear 15 1014 72 10000 1 0 03:22 12.07.2019
5309 Clear 16 1014 72 10000 1.5 220 01:41 12.07.2019
5310 Clear 16 1015 68 10000 2.6 180 00:58 12.07.2019
5311 Clear 17 1015 68 10000 2.1 200 00:20 12.07.2019
5312 Clear 17 1015 68 10000 2.1 200 00:20 12.07.2019
5313 Clouds 17 1015 63 10000 3.1 200 23:49 11.07.2019
5314 Clouds 17 1015 63 10000 3.1 200 23:26 11.07.2019
5315 Clear 17 1015 56 10000 3.6 190 22:58 11.07.2019
5316 Clear 17 1015 52 10000 4.1 170 22:39 11.07.2019
5317 Clear 17 1015 52 10000 4.1 170 22:20 11.07.2019
5318 Clear 18 1015 72 10000 2.1 180 21:41 11.07.2019
5319 Clear 19 1014 46 10000 3.6 170 21:19 11.07.2019
5320 Clear 20 1014 43 10000 5.1 170 20:55 11.07.2019
5321 Clear 20 1014 40 10000 4.6 170 20:36 11.07.2019
5322 Clear 20 1014 40 10000 4.6 170 20:18 11.07.2019
5323 Clear 21 1014 40 10000 4.6 150 19:43 11.07.2019
5324 Clear 21 1014 40 10000 4.6 150 19:23 11.07.2019
5325 Clear 21 1014 43 10000 3.6 130 18:49 11.07.2019
5326 Clear 21 1014 40 10000 3.1 140 18:31 11.07.2019
5327 Clear 21 1015 43 10000 2.1 140 17:58 11.07.2019
5328 Clear 21 1015 46 10000 2.6 140 17:40 11.07.2019
5329 Clear 21 1015 46 10000 2.6 140 17:22 11.07.2019
5330 Rain 20 1015 46 10000 2.1 120 16:45 11.07.2019
5331 Rain 19 1015 46 10000 2.1 120 16:23 11.07.2019
5332 Rain 19 1015 49 10000 2.1 60 15:44 11.07.2019
5333 Rain 19 1015 49 10000 2.1 60 15:25 11.07.2019
5334 Rain 19 1015 60 10000 1.5 40 14:59 11.07.2019
5335 Rain 19 1015 56 10000 1.5 0 14:40 11.07.2019
5336 Rain 19 1015 56 10000 1.5 0 14:20 11.07.2019
5337 Rain 19 1015 56 10000 1 0 13:46 11.07.2019
5338 Rain 19 1016 56 10000 1 0 13:26 11.07.2019
5339 Rain 19 1016 49 10000 2.74 19.514 12:45 11.07.2019
5340 Rain 20 1016 49 10000 1 0 12:26 11.07.2019
5341 Clear 20 1015 52 10000 0.5 0 11:55 11.07.2019
5342 Clear 19 1015 52 10000 0.5 0 11:37 11.07.2019
5343 Clear 19 1015 52 10000 0.5 0 11:18 11.07.2019
5344 Clear 18 1015 48 10000 0.5 0 10:45 11.07.2019
5345 Clear 18 1015 48 10000 0.5 0 10:19 11.07.2019
5346 Rain 17 1015 55 10000 1.5 0 09:44 11.07.2019
5347 Rain 17 1015 55 10000 1.5 0 09:26 11.07.2019
5348 Clear 17 1015 52 10000 2.1 180 08:52 11.07.2019
5349 Rain 16 1015 55 10000 1 0 08:26 11.07.2019
5350 Clear 16 1015 51 10000 1.5 200 07:52 11.07.2019
5351 Clear 15 1015 48 10000 2.1 190 07:34 11.07.2019
5352 Clear 14 1015 51 10000 2.1 230 06:41 11.07.2019
5353 Clear 13 1015 54 10000 1 0 05:51 11.07.2019
5354 Clear 13 1015 87 10000 1.5 220 05:29 11.07.2019
5355 Clear 14 1015 51 10000 3.1 230 04:55 11.07.2019
5356 Clear 14 1017 82 10000 0.6 199.68 02:41 11.07.2019
5357 Clear 14 1017 82 10000 0.5 170 01:38 11.07.2019
5358 Clear 15 1017 45 10000 4.1 260 00:29 11.07.2019
5359 Clear 15 1017 42 10000 4.1 280 23:38 10.07.2019
5360 Clear 16 1017 42 10000 4.1 280 23:20 10.07.2019
5361 Clear 16 1017 45 10000 3.6 260 22:48 10.07.2019
5362 Clear 16 1017 42 10000 3.1 280 22:22 10.07.2019
5363 Clear 18 1017 35 10000 1.5 0 21:48 10.07.2019
5364 Clear 19 1017 35 10000 1.5 0 21:28 10.07.2019
5365 Clear 21 1017 31 10000 2.1 30 20:58 10.07.2019
5366 Clear 22 1017 33 10000 3.1 50 20:39 10.07.2019
5367 Clear 22 1017 33 10000 3.1 50 20:19 10.07.2019
5368 Clear 22 1017 29 10000 2.6 50 19:54 10.07.2019
5369 Clear 23 1017 29 10000 2.6 60 19:22 10.07.2019
5370 Clear 23 1017 25 10000 2.6 60 18:59 10.07.2019
5371 Clear 23 1017 27 10000 2.6 50 18:41 10.07.2019
5372 Clear 24 1017 27 10000 2.6 50 18:22 10.07.2019
5373 Clear 24 1018 29 10000 3.1 60 17:42 10.07.2019
5374 Clear 24 1018 29 10000 3.1 60 17:22 10.07.2019
5375 Clear 24 1018 29 10000 3.1 360 16:38 10.07.2019
5376 Clear 24 1018 29 10000 3.1 360 16:19 10.07.2019
5377 Clear 24 1018 28 10000 3.6 20 15:46 10.07.2019
5378 Clear 23 1018 28 10000 3.6 20 15:22 10.07.2019
5379 Clear 23 1019 33 10000 2.1 290 14:43 10.07.2019
5380 Clear 23 1019 33 10000 2.1 290 14:24 10.07.2019
5381 Clear 23 1019 33 10000 4.1 360 13:52 10.07.2019
5382 Clear 22 1019 33 10000 3.6 40 13:19 10.07.2019
5383 Clear 22 1019 37 10000 2.6 0 12:58 10.07.2019
5384 Clear 21 1020 37 10000 2.6 60 12:38 10.07.2019
5385 Clear 20 1020 37 10000 2.6 60 12:19 10.07.2019
5386 Clear 20 1020 37 10000 3.1 20 11:47 10.07.2019
5387 Clear 19 1020 42 10000 3.1 30 11:21 10.07.2019
5388 Clear 19 1020 39 10000 3.6 50 10:52 10.07.2019
5389 Clear 18 1020 42 10000 3.6 40 10:23 10.07.2019
5390 Clear 16 1020 45 10000 4.1 20 09:45 10.07.2019
5391 Clear 15 1020 45 10000 4.1 20 09:21 10.07.2019
5392 Clear 15 1020 45 10000 4.6 360 08:57 10.07.2019
5393 Clear 14 1020 48 10000 3.6 10 08:38 10.07.2019
5394 Clear 13 1020 48 10000 3.6 10 08:20 10.07.2019
5395 Clear 13 1019 58 10000 2.1 340 07:42 10.07.2019
5396 Clear 12 1019 58 10000 2.1 340 07:22 10.07.2019
5397 Clear 10 1019 66 10000 2.1 330 06:31 10.07.2019
5398 Clear 10 1019 71 10000 2.1 310 05:40 10.07.2019
5399 Clear 10 1019 62 10000 2.1 290 04:30 10.07.2019
5400 Clear 13 1019 51 10000 3.1 360 01:49 10.07.2019
5401 Clear 12 1019 54 10000 2.1 10 01:49 10.07.2019
5402 Clear 13 1019 48 10000 4.1 360 00:43 10.07.2019
5403 Clear 15 1019 45 10000 4.1 350 23:42 09.07.2019
5404 Clear 15 1019 45 10000 4.1 350 23:23 09.07.2019
5405 Clear 16 1019 45 10000 3.6 350 22:57 09.07.2019
5406 Clear 16 1018 48 10000 3.1 350 22:37 09.07.2019
5407 Clear 16 1018 48 10000 3.1 350 22:18 09.07.2019
5408 Clear 17 1018 42 10000 4.6 20 21:45 09.07.2019
5409 Clear 19 1018 42 10000 4.6 20 21:25 09.07.2019
5410 Clear 19 1017 35 10000 6.2 20 20:45 09.07.2019
5411 Clear 20 1017 35 10000 5.1 20 20:26 09.07.2019
5412 Clear 20 1017 35 10000 5.1 30 19:45 09.07.2019
5413 Clear 20 1017 35 10000 5.1 30 19:26 09.07.2019
5414 Clear 21 1016 35 10000 6.7 20 18:58 09.07.2019
5415 Clear 21 1016 35 10000 6.7 20 18:36 09.07.2019
5416 Clear 22 1016 35 10000 6.7 20 18:18 09.07.2019
5417 Clear 22 1017 33 10000 6.7 30 17:42 09.07.2019
5418 Clear 22 1017 33 10000 6.7 30 17:21 09.07.2019
5419 Clear 22 1017 35 10000 6.2 20 16:54 09.07.2019
5420 Clouds 22 1017 37 10000 6.2 20 16:36 09.07.2019
5421 Clear 22 1017 40 10000 5.1 40 16:18 09.07.2019
5422 Clear 22 1018 37 10000 5.7 30 15:40 09.07.2019
5423 Clear 21 1018 37 10000 5.7 30 15:22 09.07.2019
5424 Clear 22 1018 40 10000 5.7 10 14:43 09.07.2019
5425 Clear 22 1018 40 10000 5.7 10 14:22 09.07.2019
5426 Clear 22 1018 43 10000 5.1 10 13:47 09.07.2019
5427 Clear 22 1018 43 10000 5.1 20 13:28 09.07.2019
5428 Clouds 21 1019 45 10000 5.7 360 12:59 09.07.2019
5429 Clear 20 1018 45 10000 5.1 30 12:38 09.07.2019
5430 Clear 20 1018 45 10000 5.1 30 12:19 09.07.2019
5431 Clear 19 1019 55 10000 4.6 40 11:41 09.07.2019
5432 Clear 19 1019 55 10000 4.6 40 11:22 09.07.2019
5433 Clouds 18 1019 52 10000 5.7 20 10:59 09.07.2019
5434 Clear 18 1019 55 10000 5.1 10 10:40 09.07.2019
5435 Clear 17 1019 55 10000 5.1 10 10:21 09.07.2019
5436 Clear 16 1019 59 10000 5.7 20 09:38 09.07.2019
5437 Clear 15 1019 59 10000 5.7 20 09:20 09.07.2019
5438 Clear 14 1019 62 10000 5.7 10 08:44 09.07.2019
5439 Clear 13 1019 62 10000 4.6 10 08:18 09.07.2019
5440 Clear 16 1018 55 10000 3.6 270 03:49 05.07.2019
5441 Clear 16 1018 55 10000 4.6 270 03:21 05.07.2019
5442 Clear 16 1019 55 10000 4.1 270 02:52 05.07.2019
5443 Clear 17 1019 55 10000 4.6 270 02:26 05.07.2019
5444 Clear 17 1019 52 10000 4.1 280 01:36 05.07.2019
5445 Clear 18 1019 52 10000 5.1 270 00:52 05.07.2019
5446 Clear 19 1019 56 10000 3.6 270 00:31 05.07.2019
5447 Clear 19 1019 52 10000 4.1 280 23:47 04.07.2019
5448 Clear 20 1019 52 10000 4.1 280 23:19 04.07.2019
5449 Clear 20 1019 52 10000 2.1 330 22:43 04.07.2019
5450 Clear 20 1019 52 10000 2.1 330 22:24 04.07.2019
5451 Clear 21 1018 44 10000 2.1 330 21:55 04.07.2019
5452 Clear 23 1018 41 10000 2.1 10 21:36 04.07.2019
5453 Clear 25 1018 41 10000 2.1 10 21:18 04.07.2019
5454 Clear 26 1018 32 10000 3.6 30 20:38 04.07.2019
5455 Clear 26 1018 32 10000 3.6 30 20:20 04.07.2019
5456 Clear 26 1018 34 10000 3.1 40 19:42 04.07.2019
5457 Clear 27 1018 34 10000 3.1 40 19:22 04.07.2019
5458 Clear 26 1018 34 10000 3.1 40 18:57 04.07.2019
5459 Clear 26 1018 32 10000 4.1 20 18:38 04.07.2019
5460 Clear 28 1018 32 10000 4.1 20 18:20 04.07.2019
5461 Clear 28 1019 34 10000 2.6 50 17:43 04.07.2019
5462 Clear 28 1019 34 10000 2.6 50 17:19 04.07.2019
5463 Clear 28 1020 34 10000 3.6 40 15:57 04.07.2019
5464 Clear 28 1020 34 10000 3.6 40 15:57 04.07.2019
5465 Clear 28 1020 34 10000 3.1 40 15:39 04.07.2019
5466 Clear 27 1020 34 10000 3.1 40 15:20 04.07.2019
5467 Clear 27 1020 34 10000 3.6 20 14:55 04.07.2019
5468 Clear 27 1021 34 10000 4.1 20 14:36 04.07.2019
5469 Clear 26 1021 36 10000 4.6 10 14:18 04.07.2019
5470 Clear 26 1021 36 10000 3.6 20 13:42 04.07.2019
5471 Clear 26 1021 36 10000 3.6 20 13:23 04.07.2019
5472 Clear 25 1021 38 10000 3.1 40 12:57 04.07.2019
5473 Clear 24 1022 43 10000 3.6 30 12:37 04.07.2019
5474 Clear 24 1022 43 10000 3.6 30 12:19 04.07.2019
5475 Clear 23 1022 43 10000 3.6 30 11:39 04.07.2019
5476 Clear 23 1022 43 10000 3.6 30 11:19 04.07.2019
5477 Clear 21 1022 45 10000 5.1 10 10:40 04.07.2019
5478 Clear 21 1022 45 10000 5.1 10 10:22 04.07.2019
5479 Clear 19 1022 48 10000 4.6 10 09:45 04.07.2019
5480 Clear 19 1022 48 10000 4.6 10 09:26 04.07.2019
5481 Clear 18 1022 48 10000 5.1 20 08:57 04.07.2019
5482 Clear 18 1022 48 10000 5.1 20 08:56 04.07.2019
5483 Clear 17 1022 48 10000 5.1 10 08:28 04.07.2019
5484 Clear 17 1021 55 10000 4.1 360 07:46 04.07.2019
5485 Clear 16 1021 55 10000 4.1 360 07:23 04.07.2019
5486 Clear 15 1021 51 10000 4.6 360 06:55 04.07.2019
5487 Clear 15 1021 51 10000 4.6 360 05:55 04.07.2019
5488 Clear 15 1021 48 10000 5.1 10 05:36 04.07.2019
5489 Clear 17 1021 45 10000 5.7 360 03:30 04.07.2019
5490 Clear 18 1020 40 10000 5.1 360 01:45 04.07.2019
5491 Clear 18 1020 40 10000 5.1 360 01:25 04.07.2019
5492 Clear 19 1020 37 10000 6.2 360 00:37 04.07.2019
5493 Clear 20 1020 35 10000 6.7 360 23:48 03.07.2019
5494 Clear 20 1020 35 10000 5.7 360 23:20 03.07.2019
5495 Clear 20 1020 35 10000 4.6 360 22:56 03.07.2019
5496 Clear 20 1019 37 10000 4.6 360 22:36 03.07.2019
5497 Clear 21 1019 38 10000 4.1 360 22:18 03.07.2019
5498 Clear 22 1019 38 10000 4.6 10 21:47 03.07.2019
5499 Clear 23 1019 38 10000 4.6 10 21:28 03.07.2019
5500 Clear 24 1018 36 10000 6.2 20 20:47 03.07.2019
5501 Clear 24 1018 36 10000 6.2 20 20:28 03.07.2019
5502 Clear 24 1018 36 10000 6.2 20 19:57 03.07.2019
5503 Clear 24 1018 36 10000 5.7 30 19:39 03.07.2019
5504 Clear 25 1018 36 10000 5.1 20 18:56 03.07.2019
5505 Clear 25 1019 39 10000 5.1 30 18:37 03.07.2019
5506 Clear 26 1019 39 10000 6.7 20 18:19 03.07.2019
5507 Clear 26 1019 39 10000 6.7 20 17:49 03.07.2019
5508 Clear 27 1019 34 10000 4.6 30 17:19 03.07.2019
5509 Clear 27 1019 39 10000 5.1 30 16:45 03.07.2019
5510 Clear 27 1019 39 10000 5.1 30 16:45 03.07.2019
5511 Clear 27 1019 39 10000 5.1 30 16:24 03.07.2019
5512 Clear 27 1019 39 10000 5.7 40 15:55 03.07.2019
5513 Clear 27 1019 36 10000 5.1 20 15:37 03.07.2019
5514 Clear 26 1019 36 10000 5.1 20 15:18 03.07.2019
5515 Clear 26 1020 36 10000 5.1 10 14:43 03.07.2019
5516 Clear 25 1020 36 10000 5.1 10 14:20 03.07.2019
5517 Clear 25 1020 41 10000 5.1 20 13:46 03.07.2019
5518 Clear 25 1020 41 10000 5.1 20 13:27 03.07.2019
5519 Clear 25 1020 41 10000 5.7 10 12:51 03.07.2019
5520 Clear 24 1020 44 10000 4.1 30 12:19 03.07.2019
5521 Clear 23 1020 44 10000 5.1 10 11:54 03.07.2019
5522 Clear 22 1020 49 10000 4.6 30 11:36 03.07.2019
5523 Clear 22 1020 49 10000 4.6 30 11:18 03.07.2019
5524 Clear 21 1021 49 10000 5.1 360 10:38 03.07.2019
5525 Clear 20 1021 49 10000 5.1 360 10:20 03.07.2019
5526 Clear 19 1021 55 10000 4.6 360 09:41 03.07.2019
5527 Clear 19 1021 55 10000 4.6 360 09:20 03.07.2019
5528 Clear 18 1021 52 10000 4.6 10 08:52 03.07.2019
5529 Clear 18 1020 59 10000 4.6 10 08:31 03.07.2019
5530 Clear 17 1020 55 10000 4.1 10 07:47 03.07.2019
5531 Clear 16 1020 55 10000 3.6 360 07:28 03.07.2019
5532 Clear 16 1020 59 10000 1.5 350 06:35 03.07.2019
5533 Clear 16 1020 55 10000 1.5 320 05:39 03.07.2019
5534 Clear 16 1019 52 10000 4.1 360 04:50 03.07.2019
5535 Clear 17 1019 48 10000 4.1 360 03:27 03.07.2019
5536 Clear 18 1019 45 10000 4.1 360 02:37 03.07.2019
5537 Clear 19 1020 40 10000 4.6 350 01:22 03.07.2019
5538 Clear 19 1019 43 10000 3.6 340 00:52 03.07.2019
5539 Clear 19 1019 43 10000 3.6 340 00:33 03.07.2019
5540 Clear 21 1019 46 10000 3.6 350 23:39 02.07.2019
5541 Clear 20 1019 49 10000 3.1 350 23:20 02.07.2019
5542 Clear 20 1019 46 10000 3.6 350 23:20 02.07.2019
5543 Clear 19 1019 49 10000 3.1 350 22:59 02.07.2019
5544 Clear 20 1019 56 10000 2.6 340 22:40 02.07.2019
5545 Clear 20 1019 56 10000 2.6 340 22:40 02.07.2019
5546 Clear 20 1019 56 10000 2.6 340 22:22 02.07.2019
5547 Clear 22 1018 44 10000 2.6 20 21:47 02.07.2019
5548 Clear 24 1018 44 10000 2.6 20 21:26 02.07.2019
5549 Clear 25 1018 44 10000 3.1 20 20:59 02.07.2019
5550 Clear 24 1018 39 10000 4.1 30 20:41 02.07.2019
5551 Clear 25 1018 39 10000 5.1 20 20:22 02.07.2019
5552 Clear 24 1017 42 10000 5.7 340 19:44 02.07.2019
5553 Clear 25 1017 42 10000 5.1 350 19:25 02.07.2019
5554 Clear 26 1018 41 10000 5.1 20 18:59 02.07.2019
5555 Clear 26 1018 41 10000 5.1 20 18:41 02.07.2019
5556 Clear 27 1018 42 10000 4.6 20 18:18 02.07.2019
5557 Clear 27 1018 36 10000 6.2 20 17:37 02.07.2019
5558 Clear 27 1018 36 10000 6.2 20 17:19 02.07.2019
5559 Clear 27 1018 39 10000 4.6 30 16:46 02.07.2019
5560 Clear 27 1018 39 10000 4.6 30 16:27 02.07.2019
5561 Clear 27 1019 42 10000 4.6 40 15:44 02.07.2019
5562 Clear 27 1019 42 10000 4.6 40 15:24 02.07.2019
5563 Clear 27 1019 39 10000 5.1 20 14:50 02.07.2019
5564 Clear 26 1019 44 10000 4.1 30 14:32 02.07.2019
5565 Clear 26 1020 47 10000 4.6 350 13:46 02.07.2019
5566 Clear 26 1020 47 10000 4.1 360 13:21 02.07.2019
5567 Clear 25 1020 47 10000 4.1 360 12:59 02.07.2019
5568 Clear 25 1020 50 10000 4.1 20 12:40 02.07.2019
5569 Clear 24 1020 50 10000 4.1 350 12:18 02.07.2019
5570 Clear 23 1020 49 10000 4.6 20 11:42 02.07.2019
5571 Clear 23 1020 49 10000 4.6 20 11:21 02.07.2019
5572 Clear 23 1020 53 10000 5.7 20 10:46 02.07.2019
5573 Clear 22 1020 53 10000 5.7 20 10:25 02.07.2019
5574 Clear 21 1020 52 10000 6.7 20 09:45 02.07.2019
5575 Clear 20 1020 52 10000 6.7 20 09:22 02.07.2019
5576 Clear 20 1020 56 10000 7.2 10 08:42 02.07.2019
5577 Clear 20 1020 56 10000 7.2 10 08:42 02.07.2019
5578 Clear 20 1020 56 10000 7.2 10 08:23 02.07.2019
5579 Clear 19 1020 56 10000 5.1 10 07:54 02.07.2019
5580 Clear 19 1020 63 10000 3.1 10 07:21 02.07.2019
5581 Clear 19 1020 63 10000 1.5 360 06:51 02.07.2019
5582 Clear 19 1020 63 10000 1.5 360 06:30 02.07.2019
5583 Clear 17 1020 72 10000 1 310 04:57 02.07.2019
5584 Rain 20 1019 64 10000 2.6 330 02:26 02.07.2019
5585 Clear 23 1018 47 10000 2.1 330 23:55 01.07.2019
5586 Clear 24 1018 41 10000 4.1 360 23:24 01.07.2019
5587 Clear 23 1018 50 10000 3.7 39.869 22:47 01.07.2019
5588 Clear 23 1018 50 10000 3.7 39.869 22:27 01.07.2019
5589 Clear 24 1017 44 10000 1.5 20 21:48 01.07.2019
5590 Clear 26 1017 44 10000 1.5 20 21:28 01.07.2019
5591 Clear 27 1017 42 10000 2.6 40 20:57 01.07.2019
5592 Clouds 27 1017 45 10000 2.6 50 20:39 01.07.2019
5593 Clear 27 1016 48 10000 2.1 50 20:19 01.07.2019
5594 Clear 28 1016 51 10000 2.1 60 19:42 01.07.2019
5595 Clear 28 1016 51 10000 2.1 60 19:24 01.07.2019
5596 Clear 28 1016 48 10000 2.6 80 18:55 01.07.2019
5597 Clear 28 1016 48 10000 2.1 70 18:37 01.07.2019
5598 Clear 29 1016 48 10000 2.1 50 18:18 01.07.2019
5599 Clear 29 1016 51 10000 2.1 60 17:42 01.07.2019
5600 Clear 29 1017 45 10000 3.6 60 17:22 01.07.2019
5601 Rain 28 1017 48 10000 3.1 70 16:47 01.07.2019
5602 Rain 27 1017 51 10000 2.6 50 16:26 01.07.2019
5603 Rain 27 1017 50 10000 5.1 10 15:55 01.07.2019
5604 Rain 27 1017 50 10000 5.1 10 15:36 01.07.2019
5605 Rain 28 1018 51 10000 4.6 10 15:18 01.07.2019
5606 Rain 27 1018 47 10000 5.1 360 14:42 01.07.2019
5607 Thunderstorm 28 1017 47 10000 6.7 360 14:20 01.07.2019
5608 Clear 30 1018 54 10000 6.2 10 13:42 01.07.2019
5609 Clear 30 1018 54 10000 6.2 10 13:22 01.07.2019
5610 Clear 30 1018 57 10000 5.7 10 12:55 01.07.2019
5611 Clear 29 1018 57 10000 5.7 10 12:36 01.07.2019
5612 Clear 29 1017 58 10000 5.1 20 12:18 01.07.2019
5613 Clear 29 1017 61 10000 5.7 340 11:43 01.07.2019
5614 Clear 29 1017 65 10000 2.1 360 11:20 01.07.2019
5615 Clear 29 1017 65 10000 2.6 100 10:47 01.07.2019
5616 Clear 28 1018 65 10000 3.1 50 10:23 01.07.2019
5617 Clear 28 1018 61 10000 4.6 360 09:58 01.07.2019
5618 Clear 28 1018 61 10000 4.6 360 09:39 01.07.2019
5619 Clear 26 1017 57 10000 2.6 30 09:20 01.07.2019
5620 Clear 26 1017 57 10000 1 0 08:37 01.07.2019
5621 Clear 26 1017 57 10000 1 0 08:37 01.07.2019
5622 Clear 25 1016 78 10000 1 0 07:48 01.07.2019
5623 Clear 24 1017 78 10000 1.5 0 07:27 01.07.2019
5624 Clear 23 1016 83 10000 1 0 06:20 01.07.2019
5625 Clear 25 1015 61 10000 3.1 250 01:42 01.07.2019
5626 Clear 25 1015 61 10000 3.1 260 00:48 01.07.2019
5627 Clear 25 1015 61 10000 3.1 260 00:29 01.07.2019
5628 Clear 26 1015 58 10000 4.1 270 23:56 30.06.2019
5629 Clouds 26 1015 58 10000 3.1 240 23:21 30.06.2019
5630 Clear 27 1015 55 10000 1 220 22:52 30.06.2019
5631 Clear 27 1015 58 10000 1.5 240 22:21 30.06.2019
5632 Clear 29 1015 52 10000 1 0 21:42 30.06.2019
5633 Clear 31 1015 46 10000 1.5 300 21:22 30.06.2019
5634 Clear 31 1015 46 10000 1.5 300 20:57 30.06.2019
5635 Clear 32 1014 44 10000 1.5 310 20:39 30.06.2019
5636 Clear 33 1014 39 10000 2.1 320 20:21 30.06.2019
5637 Clear 33 1014 39 10000 4.1 290 19:45 30.06.2019
5638 Clear 34 1014 27 10000 3.6 230 19:25 30.06.2019
5639 Clear 34 1014 27 10000 2.1 220 18:39 30.06.2019
5640 Clear 35 1015 27 10000 2.6 250 18:20 30.06.2019
5641 Clear 35 1015 27 10000 2.6 250 18:20 30.06.2019
5642 Clear 35 1015 33 10000 1.5 0 17:40 30.06.2019
5643 Clear 35 1015 31 10000 2.1 0 17:19 30.06.2019
5644 Clear 36 1015 33 10000 4.6 250 16:51 30.06.2019
5645 Clear 36 1015 33 10000 4.6 250 16:32 30.06.2019
5646 Clear 35 1016 30 10000 1.5 0 15:38 30.06.2019
5647 Clear 35 1016 32 10000 2.6 90 15:19 30.06.2019
5648 -273 0 0 0 0 0 14:57 30.06.2019
5649 -273 0 0 0 0 0 14:57 30.06.2019
5650 -273 0 0 0 0 0 14:57 30.06.2019
5651 Clear 35 1016 32 10000 3.1 120 14:38 30.06.2019
5652 Clear 34 1016 38 10000 4.1 200 13:57 30.06.2019
5653 Clear 34 1016 38 10000 4.1 200 13:38 30.06.2019
5654 Clear 34 1016 41 10000 4.6 180 13:19 30.06.2019
5655 Clear 33 1016 43 10000 1.5 0 12:45 30.06.2019
5656 Clear 33 1016 43 10000 1.5 0 12:45 30.06.2019
5657 Clear 32 1016 48 10000 1.5 0 12:23 30.06.2019
5658 Clear 31 1016 48 10000 1.5 0 11:47 30.06.2019
5659 Clear 30 1016 48 10000 1 0 11:22 30.06.2019
5660 Clear 29 1017 51 10000 1.5 190 10:56 30.06.2019
5661 Clear 29 1017 51 10000 1.5 190 10:38 30.06.2019
5662 Clear 28 1016 54 10000 2.1 170 10:18 30.06.2019
5663 Clear 28 1016 54 10000 2.1 170 10:18 30.06.2019
5664 Clear 27 1016 57 10000 1.5 170 09:43 30.06.2019
5665 Clear 25 1016 64 10000 1.5 170 09:23 30.06.2019
5666 Clear 24 1016 64 10000 1.5 0 08:58 30.06.2019
5667 Clear 23 1016 64 10000 1.5 0 08:32 30.06.2019
5668 Clear 22 1016 68 10000 2.1 210 07:58 30.06.2019
5669 Clear 20 1016 68 10000 2.1 210 07:29 30.06.2019
5670 Clear 19 1016 77 10000 2.6 200 06:51 30.06.2019
5671 Clear 19 1015 72 10000 0.5 230 05:34 30.06.2019
5672 Clear 20 1015 56 10000 3.1 270 02:53 30.06.2019
5673 Clear 21 1015 53 10000 3.6 270 01:30 30.06.2019
5674 Clear 22 1016 53 10000 3.1 270 00:32 30.06.2019
5675 Clear 23 1016 53 10000 3.6 270 23:56 29.06.2019
5676 Clear 23 1016 53 10000 4.1 270 23:25 29.06.2019
5677 Clear 23 1016 53 10000 4.1 270 22:59 29.06.2019
5678 Clear 23 1016 54 10000 4.1 280 22:40 29.06.2019
5679 Clear 24 1015 54 10000 2.1 300 22:21 29.06.2019
5680 Clear 26 1015 54 10000 1.5 310 21:51 29.06.2019
5681 Clear 27 1015 40 10000 1.5 360 21:23 29.06.2019
5682 Clear 29 1015 40 10000 1 0 20:45 29.06.2019
5683 Clear 29 1015 38 10000 1.5 60 20:26 29.06.2019
5684 Clear 30 1015 35 10000 2.1 20 19:48 29.06.2019
5685 Clear 31 1015 35 10000 2.6 10 19:25 29.06.2019
5686 Clear 32 1016 38 10000 2.1 50 18:54 29.06.2019
5687 Clear 32 1016 33 10000 2.6 60 18:27 29.06.2019
5688 Clear 32 1016 33 10000 3.1 20 17:57 29.06.2019
5689 Clear 32 1016 33 10000 3.1 20 17:37 29.06.2019
5690 Clear 32 1016 35 10000 3.1 40 17:19 29.06.2019
5691 Clear 32 1016 38 10000 2.6 50 16:42 29.06.2019
5692 Clear 32 1017 35 10000 3.1 30 15:56 29.06.2019
5693 Clear 32 1017 35 10000 3.1 30 15:31 29.06.2019
5694 Clear 31 1017 37 10000 2.6 40 14:45 29.06.2019
5695 Clear 31 1017 37 10000 3.1 30 14:26 29.06.2019
5696 Clear 31 1018 37 10000 2.6 60 13:51 29.06.2019
5697 Clear 30 1018 42 10000 3.1 10 13:27 29.06.2019
5698 Clear 29 1018 42 10000 3.1 10 12:59 29.06.2019
5699 Clear 29 1018 39 10000 4.1 50 12:38 29.06.2019
5700 Clear 28 1018 39 10000 4.1 360 12:20 29.06.2019
5701 Clear 27 1018 44 10000 3.1 360 11:42 29.06.2019
5702 Clear 26 1018 47 10000 2.1 0 11:23 29.06.2019
5703 Clear 25 1019 50 10000 3.1 30 10:49 29.06.2019
5704 Clear 24 1019 49 10000 3.6 20 10:21 29.06.2019
5705 Clear 23 1019 56 10000 3.6 10 09:55 29.06.2019
5706 Clear 21 1019 56 10000 2.1 30 08:55 29.06.2019
5707 Clear 20 1019 56 10000 2.1 30 08:31 29.06.2019
5708 Clear 18 1019 68 10000 1 0 07:45 29.06.2019
5709 Clear 17 1019 72 10000 1.5 0 06:49 29.06.2019
5710 Clear 16 1019 72 10000 1 0 06:26 29.06.2019
5711 Clear 17 1019 68 10000 1.5 0 05:18 29.06.2019
5712 Clear 19 1020 56 10000 3.6 280 01:43 29.06.2019
5713 Clear 20 1020 68 10000 1 330 00:49 29.06.2019
5714 Clear 21 1020 64 10000 1 340 23:53 28.06.2019
5715 Clear 22 1020 56 10000 1 40 23:21 28.06.2019
5716 Clear 22 1020 53 10000 1.5 300 22:47 28.06.2019
5717 Clear 23 1020 47 10000 2.6 350 22:21 28.06.2019
5718 Clear 25 1020 44 10000 3.6 360 21:45 28.06.2019
5719 Clear 27 1020 37 10000 4.6 10 21:20 28.06.2019
5720 Clear 27 1020 37 10000 4.1 10 20:43 28.06.2019
5721 Clear 28 1019 42 10000 5.1 360 20:20 28.06.2019
5722 Clear 29 1019 42 10000 5.7 10 19:42 28.06.2019
5723 Clear 29 1019 42 10000 5.7 10 19:24 28.06.2019
5724 Clear 29 1020 39 10000 5.7 360 18:42 28.06.2019
5725 Clear 29 1020 39 10000 6.7 360 18:22 28.06.2019
5726 Clear 30 1020 39 10000 6.2 350 17:54 28.06.2019
5727 Clear 30 1020 37 10000 6.2 360 17:29 28.06.2019
5728 Clear 30 1020 40 10000 4.6 20 16:47 28.06.2019
5729 Clear 30 1020 42 10000 5.1 360 16:23 28.06.2019
5730 Clear 30 1020 42 10000 5.1 10 15:48 28.06.2019
5731 Clear 29 1021 42 10000 5.1 350 15:19 28.06.2019
5732 Clear 29 1021 45 10000 4.6 360 14:42 28.06.2019
5733 Clear 29 1021 45 10000 4.1 10 14:22 28.06.2019
5734 Clear 29 1021 47 10000 4.1 360 13:50 28.06.2019
5735 Clear 28 1021 50 10000 4.6 360 13:30 28.06.2019
5736 Clear 28 1022 50 10000 4.1 350 12:54 28.06.2019
5737 Clear 27 1021 39 10000 4.1 40 12:36 28.06.2019
5738 Clear 26 1022 50 10000 4.6 10 11:47 28.06.2019
5739 Clear 25 1022 50 10000 4.1 360 11:19 28.06.2019
5740 Clear 25 1022 53 10000 3.6 10 10:44 28.06.2019
5741 Clear 23 1022 56 10000 3.6 360 10:21 28.06.2019
5742 Clear 23 1022 60 10000 3.1 360 09:47 28.06.2019
5743 Clear 22 1022 46 10000 4.6 10 09:29 28.06.2019
5744 Clear 21 1022 63 10000 3.6 360 08:45 28.06.2019
5745 Clear 20 1022 68 10000 3.6 10 08:25 28.06.2019
5746 Clear 20 1022 52 10000 1.5 0 07:46 28.06.2019
5747 Clear 19 1022 68 10000 1.5 340 06:57 28.06.2019
5748 Clear 18 1022 59 10000 1.5 320 05:42 28.06.2019
5749 Clear 22 1022 44 10000 3.1 330 01:22 28.06.2019
5750 Clear 23 1022 41 10000 3.6 320 00:33 28.06.2019
5751 Clear 24 1022 47 10000 3.6 340 23:49 27.06.2019
5752 Clear 24 1022 53 10000 2.1 350 23:25 27.06.2019
5753 Clear 25 1022 50 10000 2.1 50 22:56 27.06.2019
5754 Clear 25 1022 50 10000 2.1 50 22:37 27.06.2019
5755 Clear 25 1021 50 10000 3.6 30 22:18 27.06.2019
5756 Clear 25 1021 50 10000 3.6 30 22:18 27.06.2019
5757 Clear 26 1021 47 10000 4.6 360 21:48 27.06.2019
5758 Clear 28 1021 45 10000 4.6 360 21:29 27.06.2019
5759 Clear 29 1021 48 10000 4.6 10 20:57 27.06.2019
5760 Clear 29 1021 48 10000 4.6 10 20:39 27.06.2019
5761 Clear 29 1021 48 10000 5.1 10 20:19 27.06.2019
5762 Clear 30 1021 48 10000 5.1 10 19:44 27.06.2019
5763 Clear 30 1021 45 10000 6.7 10 19:25 27.06.2019
5764 Clear 31 1021 45 10000 5.7 10 18:43 27.06.2019
5765 Clear 32 1021 52 10000 5.1 10 18:21 27.06.2019
5766 Clear 32 1021 52 10000 6.7 20 17:44 27.06.2019
5767 Clear 33 1021 49 10000 6.2 10 17:22 27.06.2019
5768 Clear 33 1021 49 10000 6.2 10 17:22 27.06.2019
5769 Clear 33 1021 55 10000 6.7 360 16:40 27.06.2019
5770 Clear 33 1021 55 10000 5.1 10 16:20 27.06.2019
5771 Clear 33 1022 52 10000 5.1 30 15:58 27.06.2019
5772 Clear 33 1022 55 10000 5.1 10 15:40 27.06.2019
5773 Clear 33 1022 52 10000 5.7 20 14:59 27.06.2019
5774 Clear 33 1022 62 10000 4.6 10 14:40 27.06.2019
5775 Clear 33 1022 58 10000 3.6 10 14:22 27.06.2019
5776 Clear 32 1023 62 10000 4.1 20 13:44 27.06.2019
5777 Clear 32 1023 66 10000 4.1 10 13:26 27.06.2019
5778 Clear 31 1023 62 10000 4.6 350 12:49 27.06.2019
5779 Clear 30 1023 62 10000 4.1 20 12:31 27.06.2019
5780 Clear 30 1023 69 10000 3.6 360 11:55 27.06.2019
5781 Clear 29 1023 65 10000 3.1 50 11:36 27.06.2019
5782 Clear 29 1023 69 10000 3.6 360 11:18 27.06.2019
5783 Clear 28 1023 69 10000 3.6 360 10:42 27.06.2019
5784 Clear 27 1023 74 10000 3.1 20 10:20 27.06.2019
5785 Clear 27 1023 74 10000 3.1 10 09:49 27.06.2019
5786 Clear 26 1023 73 10000 3.1 360 09:21 27.06.2019
5787 Clear 25 1023 73 10000 2.6 360 08:51 27.06.2019
5788 Clear 25 1023 65 10000 2.1 20 08:30 27.06.2019
5789 Clear 23 1023 73 10000 1.5 320 07:49 27.06.2019
5790 Clear 23 1023 73 10000 1.5 320 07:49 27.06.2019
5791 Clear 22 1023 78 10000 2.1 330 07:25 27.06.2019
5792 Clear 22 1023 78 10000 1.5 290 06:39 27.06.2019
5793 Clear 22 1022 73 10000 1 0 04:24 27.06.2019
5794 Clear 23 1021 65 10000 4.6 270 02:44 27.06.2019
5795 Clear 23 1022 94 10000 0.5 0 01:48 27.06.2019
5796 Clear 24 1021 65 10000 4.6 270 00:56 27.06.2019
5797 Clear 24 1021 65 10000 4.6 270 00:36 27.06.2019
5798 Clear 25 1022 88 10000 1 0 00:18 27.06.2019
5799 Clear 26 1021 65 10000 5.1 270 23:38 26.06.2019
5800 Clear 26 1021 65 10000 4.6 280 23:19 26.06.2019
5801 Clear 26 1021 66 10000 3.6 280 22:41 26.06.2019
5802 Clear 28 1021 70 10000 2.1 300 22:23 26.06.2019
5803 Clear 28 1021 66 10000 1.5 330 21:55 26.06.2019
5804 Clear 29 1021 66 10000 1.5 330 21:37 26.06.2019
5805 Clear 30 1020 55 10000 1.5 10 21:19 26.06.2019
5806 Clear 31 1020 52 10000 2.1 20 20:43 26.06.2019
5807 Clear 32 1020 46 10000 2.6 20 20:25 26.06.2019
5808 Clear 32 1020 46 10000 3.1 20 19:48 26.06.2019
5809 Clear 33 1020 41 10000 4.1 360 19:30 26.06.2019
5810 Clear 34 1020 46 10000 3.1 10 18:55 26.06.2019
5811 Clear 34 1021 44 10000 2.1 60 18:37 26.06.2019
5812 Clear 35 1020 39 10000 2.6 20 18:18 26.06.2019
5813 Clear 35 1021 44 10000 3.1 40 17:41 26.06.2019
5814 Clear 35 1021 44 10000 2.6 40 17:23 26.06.2019
5815 Clear 35 1021 36 10000 2.6 30 16:50 26.06.2019
5816 Clear 35 1022 36 10000 2.1 60 16:28 26.06.2019
5817 Clear 35 1022 41 10000 3.1 30 15:51 26.06.2019
5818 Clear 35 1022 41 10000 3.1 30 15:28 26.06.2019
5819 Clear 35 1022 46 10000 3.1 20 14:42 26.06.2019
5820 Clear 34 1022 49 10000 3.6 20 14:21 26.06.2019
5821 Clear 34 1023 49 10000 3.1 10 13:45 26.06.2019
5822 Clear 33 1023 52 10000 2.6 10 13:21 26.06.2019
5823 Clear 33 1023 52 10000 2.6 10 12:54 26.06.2019
5824 Clear 33 1023 49 10000 2.1 70 12:36 26.06.2019
5825 Clear 32 1023 55 10000 2.6 320 12:18 26.06.2019
5826 Clear 30 1023 62 10000 1 0 11:25 26.06.2019
5827 Clear 29 1023 66 10000 1 0 10:51 26.06.2019
5828 Clear 29 1023 66 10000 1 0 10:51 26.06.2019
5829 Clear 28 1023 69 10000 1.5 240 10:31 26.06.2019
5830 Clear 27 1023 74 10000 1.5 0 09:59 26.06.2019
5831 Clear 26 1023 58 10000 1 0 09:30 26.06.2019
5832 Clear 25 1022 73 10000 1.5 0 08:55 26.06.2019
5833 Clear 24 1022 73 10000 2.1 170 08:22 26.06.2019
5834 Clear 23 1022 78 10000 2.1 160 07:59 26.06.2019
5835 Clear 23 1022 78 10000 2.1 160 07:40 26.06.2019
5836 Clear 21 1022 69 10000 2.6 240 06:33 26.06.2019
5837 Clear 22 1022 88 10000 1 100 02:18 26.06.2019
5838 Clear 23 1021 69 10000 3.6 270 00:36 26.06.2019
5839 Clear 24 1020 74 10000 3.1 280 23:58 25.06.2019
5840 Clear 24 1020 74 10000 3.1 280 23:39 25.06.2019
5841 Clear 25 1020 69 10000 3.6 270 23:20 25.06.2019
5842 Clear 25 1020 69 10000 3.1 280 22:42 25.06.2019
5843 Clear 26 1019 69 10000 2.6 290 22:23 25.06.2019
5844 Clear 27 1019 62 10000 1.5 330 21:47 25.06.2019
5845 Clear 29 1019 58 10000 2.1 350 21:27 25.06.2019
5846 Clear 30 1019 55 10000 2.1 350 20:59 25.06.2019
5847 Clear 31 1019 55 10000 2.1 350 20:37 25.06.2019
5848 Clear 31 1019 58 10000 2.6 360 20:18 25.06.2019
5849 Clear 31 1018 52 10000 2.6 20 19:44 25.06.2019
5850 Clear 32 1018 55 10000 2.1 10 19:22 25.06.2019
5851 Clear 33 1018 49 10000 3.6 350 18:42 25.06.2019
5852 Clear 33 1018 44 10000 2.6 360 18:24 25.06.2019
5853 -273 0 0 0 0 0 17:46 25.06.2019
5854 -273 0 0 0 0 0 17:27 25.06.2019
5855 -273 0 0 0 0 0 17:27 25.06.2019
5856 -273 0 0 0 0 0 17:27 25.06.2019
5857 Clear 34 1019 43 10000 2.6 10 16:55 25.06.2019
5858 Clear 34 1019 43 10000 2.6 10 16:55 25.06.2019
5859 Clear 34 1019 43 10000 2.6 10 16:37 25.06.2019
5860 Clear 34 1019 49 10000 2.6 20 16:18 25.06.2019
5861 Clear 34 1019 46 10000 2.6 360 15:39 25.06.2019
5862 Clear 34 1019 46 10000 2.1 340 15:20 25.06.2019
5863 Clear 34 1019 46 10000 2.1 340 15:20 25.06.2019
5864 Clear 34 1019 46 10000 2.1 340 15:20 25.06.2019
5865 Clear 33 1019 46 10000 1.5 0 14:50 25.06.2019
5866 Clear 33 1019 52 10000 1 0 14:31 25.06.2019
5867 Clear 32 1019 52 10000 1 0 13:43 25.06.2019
5868 Clear 31 1019 55 10000 1.5 240 13:24 25.06.2019
5869 Clear 31 1019 58 10000 1.5 220 12:43 25.06.2019
5870 Clear 30 1019 55 10000 2.1 200 12:24 25.06.2019
5871 Clear 29 1019 58 10000 1.5 0 11:46 25.06.2019
5872 Clear 28 1019 58 10000 1.5 220 11:25 25.06.2019
5873 Clear 28 1019 61 10000 1.5 210 10:59 25.06.2019
5874 Clear 27 1019 61 10000 1.5 210 10:38 25.06.2019
5875 Clear 26 1019 69 10000 1 0 10:19 25.06.2019
5876 Clear 25 1019 69 10000 1.5 220 09:40 25.06.2019
5877 Clear 24 1019 69 10000 1 0 09:22 25.06.2019
5878 Clear 24 1019 69 10000 1 0 09:22 25.06.2019
5879 Clear 23 1018 69 10000 2.1 150 08:59 25.06.2019
5880 Clear 22 1018 83 10000 1 0 08:31 25.06.2019
5881 Clear 21 1018 77 10000 1.48 205.181 07:52 25.06.2019
5882 Clear 20 1018 77 10000 1.48 205.181 07:31 25.06.2019
5883 Clear 19 1018 77 10000 1 0 06:51 25.06.2019
5884 Clear 19 1017 77 10000 1.5 190 06:24 25.06.2019
5885 Clear 20 1017 69 10000 4.1 270 02:45 25.06.2019
5886 Clear 21 1017 64 10000 3.1 270 01:26 25.06.2019
5887 Clear 22 1017 64 10000 3.1 260 00:28 25.06.2019
5888 Clear 22 1017 61 10000 3.1 260 23:53 24.06.2019
5889 Clear 22 1017 61 10000 3.1 260 23:33 24.06.2019
5890 Clear 23 1017 65 10000 4.1 280 22:59 24.06.2019
5891 Clear 24 1017 65 10000 4.1 280 22:38 24.06.2019
5892 Clear 24 1017 61 10000 3.6 280 22:18 24.06.2019
5893 Clear 25 1017 65 10000 2.6 280 21:38 24.06.2019
5894 Clear 27 1017 54 10000 1 0 21:19 24.06.2019
5895 Clear 28 1017 48 10000 2.1 20 20:55 24.06.2019
5896 Clear 28 1017 48 10000 2.1 20 20:37 24.06.2019
5897 Clear 28 1016 55 10000 3.1 10 20:18 24.06.2019
5898 Clear 29 1017 55 10000 3.1 360 19:41 24.06.2019
5899 Clear 29 1017 51 10000 3.1 360 19:21 24.06.2019
5900 Clear 30 1017 51 10000 3.1 360 18:44 24.06.2019
5901 Clear 30 1017 45 10000 3.1 10 18:25 24.06.2019
5902 Clear 30 1017 45 10000 3.6 10 17:46 24.06.2019
5903 Clear 30 1017 51 10000 3.6 360 17:25 24.06.2019
5904 Clear 31 1017 51 10000 3.6 20 16:46 24.06.2019
5905 Clear 31 1017 51 10000 3.1 10 16:20 24.06.2019
5906 Clear 30 1017 55 10000 3.1 330 15:49 24.06.2019
5907 Clear 30 1017 55 10000 3.6 330 15:30 24.06.2019
5908 Clear 30 1017 55 10000 3.6 340 14:55 24.06.2019
5909 Clear 30 1018 48 10000 2.1 80 14:31 24.06.2019
5910 Clear 30 1017 61 10000 2.6 360 13:49 24.06.2019
5911 Clear 29 1018 65 10000 2.1 360 13:24 24.06.2019
5912 Clear 28 1018 61 10000 2.1 10 12:44 24.06.2019
5913 Clear 27 1018 65 10000 2.1 0 12:21 24.06.2019
5914 Clear 26 1018 65 10000 2.1 350 11:55 24.06.2019
5915 Clear 26 1018 65 10000 2.1 350 11:37 24.06.2019
5916 Clear 26 1018 69 10000 1.5 0 11:18 24.06.2019
5917 Clear 25 1018 69 10000 2.1 310 10:41 24.06.2019
5918 Clear 24 1018 73 10000 1 0 10:20 24.06.2019
5919 Clear 23 1018 73 10000 1.5 0 09:48 24.06.2019
5920 Clear 22 1018 78 10000 1.5 0 09:19 24.06.2019
5921 Clear 21 1018 77 10000 1.5 350 08:51 24.06.2019
5922 Clear 20 1018 83 10000 1 0 08:22 24.06.2019
5923 Clear 18 1018 82 10000 1 0 07:44 24.06.2019
5924 Clear 17 1018 88 10000 1 0 07:24 24.06.2019
5925 Fog 16 1018 82 10000 0.5 0 06:27 24.06.2019
5926 Fog 16 1018 82 10000 3.6 280 05:57 24.06.2019
5927 Clear 16 1018 88 10000 3.6 270 04:59 24.06.2019
5928 Fog 17 1018 82 10000 3.6 270 04:21 24.06.2019
5929 Clear 17 1018 77 10000 3.6 270 02:53 24.06.2019
5930 Clear 18 1018 77 10000 4.1 270 01:59 24.06.2019
5931 Clear 18 1018 77 10000 4.1 270 01:41 24.06.2019
5932 Clear 18 1018 77 10000 3.6 270 01:21 24.06.2019
5933 Clear 18 1018 73 10000 3.6 270 00:38 24.06.2019
5934 Clear 19 1018 77 10000 2.6 260 00:18 24.06.2019
5935 Clouds 19 1017 77 10000 3.1 280 23:43 23.06.2019
5936 Clear 20 1017 73 10000 4.1 270 23:21 23.06.2019
5937 Clear 20 1017 73 10000 3.6 270 22:42 23.06.2019
5938 Clear 21 1017 73 10000 3.1 280 22:20 23.06.2019
5939 Clear 22 1016 61 10000 2.1 310 21:44 23.06.2019
5940 Clear 24 1016 65 10000 1.5 330 21:25 23.06.2019
5941 Clear 24 1016 57 10000 2.1 340 20:58 23.06.2019
5942 Clear 24 1016 57 10000 2.1 340 20:40 23.06.2019
5943 Clear 25 1016 54 10000 2.1 80 20:21 23.06.2019
5944 Clear 25 1016 51 10000 2.1 0 19:43 23.06.2019
5945 Clear 25 1016 51 10000 3.6 90 19:20 23.06.2019
5946 Clear 26 1016 51 10000 2.1 40 18:52 23.06.2019
5947 Clouds 26 1016 57 10000 1.5 30 18:22 23.06.2019
5948 Clouds 26 1017 57 10000 1.5 30 17:50 23.06.2019
5949 Clouds 26 1017 57 10000 1.5 30 17:25 23.06.2019
5950 Clear 26 1017 61 10000 3.6 30 16:55 23.06.2019
5951 Clear 26 1017 61 10000 3.6 30 16:36 23.06.2019
5952 Clouds 26 1017 61 10000 4.1 10 16:18 23.06.2019
5953 Clouds 26 1017 64 10000 2.6 30 15:40 23.06.2019
5954 Clouds 25 1017 61 10000 2.1 0 15:20 23.06.2019
5955 Clouds 25 1017 64 10000 1.5 0 14:40 23.06.2019
5956 Clouds 24 1017 64 10000 2.1 60 14:22 23.06.2019
5957 Clouds 24 1017 64 10000 2.1 80 13:58 23.06.2019
5958 Clouds 24 1017 64 10000 2.1 80 13:39 23.06.2019
5959 Clouds 24 1017 64 10000 3.6 30 13:19 23.06.2019
5960 Clouds 23 1017 68 10000 2.1 0 12:43 23.06.2019
5961 Clouds 22 1017 68 10000 2.6 40 12:22 23.06.2019
5962 Clouds 22 1017 68 10000 2.6 40 12:22 23.06.2019
5963 Clouds 22 1017 68 10000 2.6 40 11:55 23.06.2019
5964 Clouds 22 1017 68 10000 2.6 40 11:37 23.06.2019
5965 Clouds 21 1017 73 10000 2.1 40 11:19 23.06.2019
5966 Clouds 20 1018 72 10000 2.1 30 10:43 23.06.2019
5967 Clouds 19 1018 82 10000 1.5 70 10:18 23.06.2019
5968 Rain 18 1018 88 10000 1 0 09:42 23.06.2019
5969 Rain 18 1018 88 10000 1 0 09:21 23.06.2019
5970 Fog 17 1018 82 10000 0.5 0 08:45 23.06.2019
5971 Fog 17 1018 82 10000 0.5 0 08:27 23.06.2019
5972 Drizzle 16 1018 82 10000 1.1 355.985 07:54 23.06.2019
5973 Fog 16 1018 87 10000 1 0 07:21 23.06.2019
5974 Fog 16 1018 87 10000 1 350 06:54 23.06.2019
5975 Fog 15 1017 100 250 1.5 0 05:55 23.06.2019
5976 Mist 15 1017 87 10000 2.6 280 04:38 23.06.2019
5977 Clear 15 1017 88 10000 1.5 0 01:57 23.06.2019
5978 Clear 16 1017 88 10000 1.5 0 01:36 23.06.2019
5979 Clear 16 1017 82 10000 3.6 10 00:36 23.06.2019
5980 Clouds 16 1017 88 10000 1.5 360 23:57 22.06.2019
5981 Clouds 16 1017 88 10000 1.5 360 23:38 22.06.2019
5982 Clear 17 1017 82 10000 2.6 270 23:19 22.06.2019
5983 Clear 17 1017 88 10000 1.5 270 22:44 22.06.2019
5984 Clouds 17 1017 77 10000 1 330 22:19 22.06.2019
5985 Clouds 17 1017 73 10000 1 0 21:39 22.06.2019
5986 Rain 19 1017 73 10000 1 0 21:20 22.06.2019
5987 Clouds 19 1016 68 10000 3.1 30 20:50 22.06.2019
5988 Rain 19 1016 68 10000 3.1 20 20:25 22.06.2019
5989 Clouds 19 1016 68 10000 2.6 50 19:50 22.06.2019
5990 Clouds 19 1016 68 10000 2.6 50 19:28 22.06.2019
5991 Clear 19 1016 73 10000 2.6 30 18:56 22.06.2019
5992 Clear 20 1016 73 10000 2.6 30 18:36 22.06.2019
5993 Rain 20 1016 73 10000 3.1 40 18:18 22.06.2019
5994 Rain 19 1017 77 10000 2.6 60 17:38 22.06.2019
5995 Clouds 20 1017 77 10000 2.6 60 17:19 22.06.2019
5996 Clear 20 1017 82 10000 1 0 16:39 22.06.2019
5997 Clear 20 1017 82 10000 1.5 320 16:21 22.06.2019
5998 Rain 19 1017 88 10000 1 0 15:41 22.06.2019
5999 Rain 19 1017 88 10000 1.5 0 15:23 22.06.2019
6000 Rain 19 1017 68 10000 3.6 20 14:50 22.06.2019
6001 Rain 19 1017 68 10000 3.6 20 14:29 22.06.2019
6002 Clouds 18 1017 64 10000 3.6 20 13:45 22.06.2019
6003 Clouds 18 1017 68 10000 2.6 20 13:27 22.06.2019
6004 Rain 18 1018 82 10000 0.5 0 12:54 22.06.2019
6005 Rain 18 1018 82 10000 0.5 0 12:36 22.06.2019
6006 Rain 17 1017 64 10000 3.6 360 11:59 22.06.2019
6007 Rain 17 1017 72 10000 3.6 30 11:40 22.06.2019
6008 Rain 17 1017 77 10000 4.1 30 10:54 22.06.2019
6009 Drizzle 16 1018 77 10000 2.6 40 10:22 22.06.2019
6010 Rain 16 1018 82 10000 2.6 30 09:56 22.06.2019
6011 Rain 16 1018 82 10000 3.1 20 09:28 22.06.2019
6012 Rain 15 1018 93 10000 2.1 330 08:45 22.06.2019
6013 Rain 15 1018 93 10000 2.1 330 08:45 22.06.2019
6014 Rain 15 1018 93 10000 2.1 340 08:26 22.06.2019
6015 Rain 15 1018 87 10000 2.6 10 07:44 22.06.2019
6016 Rain 15 1017 87 10000 2.1 10 07:18 22.06.2019
6017 Rain 15 1017 87 7000 3.1 330 06:33 22.06.2019
6018 Rain 16 1018 72 7000 4.1 360 03:42 22.06.2019
6019 Rain 17 1018 52 10000 2.6 30 02:21 22.06.2019
6020 Rain 18 1018 56 10000 2.1 340 00:48 22.06.2019
6021 Rain 18 1018 56 10000 2.1 310 00:24 22.06.2019
6022 Clouds 18 1018 56 10000 2.1 330 23:49 21.06.2019
6023 Clouds 18 1018 60 10000 2.1 340 23:23 21.06.2019
6024 Clear 19 1018 52 10000 2.6 20 22:56 21.06.2019
6025 Clear 19 1018 52 10000 2.6 20 22:32 21.06.2019
6026 Clear 20 1018 56 10000 2.1 10 21:58 21.06.2019
6027 Clear 20 1017 53 10000 2.6 340 21:38 21.06.2019
6028 Clear 21 1017 53 10000 3.1 360 21:19 21.06.2019
6029 Clear 21 1017 49 10000 3.6 10 20:47 21.06.2019
6030 Clear 22 1017 47 10000 4.1 10 20:25 21.06.2019
6031 Clear 22 1016 47 10000 4.1 10 19:45 21.06.2019
6032 Rain 22 1017 44 10000 4.6 340 18:59 21.06.2019
6033 Rain 22 1017 44 10000 4.6 340 18:40 21.06.2019
6034 Rain 23 1017 44 10000 4.6 360 18:22 21.06.2019
6035 Clear 23 1017 50 10000 4.1 360 17:31 21.06.2019
6036 Clear 24 1017 50 10000 4.1 20 16:43 21.06.2019
6037 Clear 24 1017 47 10000 3.1 360 16:24 21.06.2019
6038 Clear 24 1017 53 10000 4.6 360 15:58 21.06.2019
6039 Clear 22 1017 44 10000 3.6 340 15:36 21.06.2019
6040 Clear 22 1018 53 10000 3.6 10 14:57 21.06.2019
6041 Clear 23 1018 53 10000 3.6 10 14:38 21.06.2019
6042 Clear 23 1018 57 10000 3.6 30 14:20 21.06.2019
6043 Clear 23 1018 60 10000 3.6 30 13:39 21.06.2019
6044 Clear 24 1018 60 10000 3.6 20 13:21 21.06.2019
6045 Clear 23 1018 64 10000 3.6 20 12:49 21.06.2019
6046 Clear 22 1018 64 10000 2.6 20 12:23 21.06.2019
6047 Clear 22 1018 68 10000 2.1 40 11:55 21.06.2019
6048 Clear 22 1018 68 10000 2.1 40 11:37 21.06.2019
6049 Clear 21 1018 64 10000 2.6 20 11:19 21.06.2019
6050 Clear 20 1018 77 10000 2.6 30 10:42 21.06.2019
6051 Clear 20 1018 77 10000 2.1 30 10:20 21.06.2019
6052 Clear 20 1018 77 10000 2.1 30 10:20 21.06.2019
6053 Clear 19 1018 72 10000 2.1 30 09:43 21.06.2019
6054 Clear 18 1018 77 10000 2.1 10 09:23 21.06.2019
6055 Clear 18 1018 77 10000 2.6 20 08:56 21.06.2019
6056 Clear 17 1018 77 10000 2.6 20 08:37 21.06.2019
6057 Clear 17 1018 88 10000 1 0 08:19 21.06.2019
6058 Fog 16 1017 77 10000 0.5 0 07:44 21.06.2019
6059 Fog 15 1017 88 10000 1 0 07:19 21.06.2019
6060 Fog 15 1017 82 10000 0.5 0 06:29 21.06.2019
6061 Fog 14 1017 82 10000 1.5 260 05:48 21.06.2019
6062 Clouds 15 1017 100 10000 2.07 1.548 04:49 21.06.2019
6063 Clouds 15 1017 88 10000 1 0 03:48 21.06.2019
6064 Clear 15 1017 82 10000 1 0 03:28 21.06.2019
6065 Clear 15 1017 82 10000 1.5 40 02:34 21.06.2019
6066 Clear 16 1017 72 10000 2.1 40 01:32 21.06.2019
6067 Clear 16 1017 72 10000 2.1 60 00:46 21.06.2019
6068 Clear 17 1016 68 10000 1 0 23:59 20.06.2019
6069 Clear 17 1016 68 10000 1 0 23:40 20.06.2019
6070 Clear 17 1016 68 10000 1.5 0 23:20 20.06.2019
6071 Clouds 17 1016 88 10000 3.1 150 22:44 20.06.2019
6072 Clouds 17 1016 82 10000 3.6 120 22:23 20.06.2019
6073 Rain 18 1015 56 10000 2.6 320 21:56 20.06.2019
6074 Rain 18 1015 56 10000 2.6 320 21:38 20.06.2019
6075 Rain 19 1014 56 10000 1.5 310 21:19 20.06.2019
6076 Clear 19 1014 50 10000 2.6 300 20:44 20.06.2019
6077 Clouds 20 1015 73 10000 2.1 150 20:25 20.06.2019
6078 Clouds 20 1015 73 10000 2.1 150 20:25 20.06.2019
6079 Thunderstorm 20 1013 47 10000 4.6 290 19:55 20.06.2019
6080 Thunderstorm 20 1013 47 10000 4.6 290 19:36 20.06.2019
6081 Thunderstorm 20 1013 47 10000 5.7 300 19:18 20.06.2019
6082 Thunderstorm 20 1013 47 10000 5.7 300 18:41 20.06.2019
6083 Thunderstorm 22 1013 44 10000 4.1 290 18:21 20.06.2019
6084 Thunderstorm 22 1013 47 10000 2.1 260 17:48 20.06.2019
6085 Thunderstorm 22 1013 47 10000 2.1 260 17:29 20.06.2019
6086 Thunderstorm 22 1013 50 10000 3.6 210 16:47 20.06.2019
6087 Thunderstorm 22 1013 47 10000 4.1 190 16:20 20.06.2019
6088 Thunderstorm 22 1013 47 10000 4.1 190 15:58 20.06.2019
6089 Thunderstorm 22 1013 56 10000 6.7 210 15:40 20.06.2019
6090 Thunderstorm 22 1013 53 10000 6.2 180 15:21 20.06.2019
6091 Thunderstorm 22 1013 57 10000 7.7 190 14:44 20.06.2019
6092 Thunderstorm 21 1013 53 10000 6.2 170 14:22 20.06.2019
6093 Rain 20 1016 88 10000 2.1 240 13:41 20.06.2019
6094 Rain 21 1014 57 10000 4.6 170 13:20 20.06.2019
6095 Rain 21 1014 56 10000 4.1 150 12:47 20.06.2019
6096 Clear 21 1014 60 10000 4.1 150 12:23 20.06.2019
6097 Rain 21 1014 64 10000 3.1 150 11:48 20.06.2019
6098 Clouds 21 1014 64 10000 2.6 170 11:29 20.06.2019
6099 Clear 21 1014 73 10000 3.6 190 10:58 20.06.2019
6100 Clear 21 1014 73 10000 3.6 190 10:39 20.06.2019
6101 Clear 20 1014 77 10000 3.6 190 10:20 20.06.2019
6102 Clouds 19 1014 77 10000 3.6 180 09:40 20.06.2019
6103 Clouds 18 1014 82 10000 3.1 170 09:22 20.06.2019
6104 Rain 18 1014 82 10000 3.1 180 08:46 20.06.2019
6105 Rain 18 1014 77 10000 2.47 198.882 08:27 20.06.2019
6106 Rain 17 1013 82 10000 1 0 07:54 20.06.2019
6107 Rain 17 1013 82 10000 1.5 230 07:28 20.06.2019
6108 Rain 16 1013 82 10000 4.1 170 06:30 20.06.2019
6109 Rain 17 1013 77 10000 2.6 130 05:41 20.06.2019
6110 Rain 18 1013 64 10000 4.1 250 03:37 20.06.2019
6111 Rain 20 1011 60 10000 2.6 290 00:34 20.06.2019
6112 Thunderstorm 21 1011 50 10000 3.1 270 23:59 19.06.2019
6113 Thunderstorm 21 1011 50 10000 3.1 270 23:41 19.06.2019
6114 Clouds 21 1011 47 10000 2.1 260 23:23 19.06.2019
6115 Clear 21 1010 41 10000 2.1 250 22:47 19.06.2019
6116 Clear 21 1010 41 10000 2.1 250 22:47 19.06.2019
6117 Clear 22 1010 41 10000 3.6 220 22:20 19.06.2019
6118 Clear 23 1009 39 10000 3.1 230 21:47 19.06.2019
6119 Clear 24 1009 37 10000 3.6 230 21:26 19.06.2019
6120 Clear 26 1009 34 10000 4.1 240 20:56 19.06.2019
6121 Clear 26 1009 34 10000 4.1 240 20:37 19.06.2019
6122 Clear 27 1009 37 10000 3.1 280 20:19 19.06.2019
6123 Clear 27 1008 35 10000 3.6 280 19:41 19.06.2019
6124 Clear 28 1008 37 10000 3.1 270 19:21 19.06.2019
6125 Clear 28 1008 35 10000 3.6 220 18:49 19.06.2019
6126 Clear 29 1008 35 10000 4.1 230 18:21 19.06.2019
6127 Clear 29 1009 33 10000 4.6 230 17:38 19.06.2019
6128 Clear 29 1009 33 10000 6.2 200 17:18 19.06.2019
6129 Clear 29 1009 48 10000 3.6 200 16:40 19.06.2019
6130 Clear 30 1009 45 10000 4.6 210 16:21 19.06.2019
6131 Clear 29 1010 42 10000 4.6 220 15:54 19.06.2019
6132 Clear 28 1010 35 10000 6.7 210 15:28 19.06.2019
6133 Clear 29 1010 35 10000 6.7 210 14:57 19.06.2019
6134 Clear 29 1010 35 10000 6.7 210 14:39 19.06.2019
6135 Clear 29 1010 35 10000 6.2 200 14:21 19.06.2019
6136 Clear 29 1010 32 10000 6.7 210 13:43 19.06.2019
6137 Clear 29 1010 37 10000 7.2 210 13:24 19.06.2019
6138 Clear 29 1010 37 10000 6.7 190 12:44 19.06.2019
6139 Clear 27 1011 45 10000 5.1 180 12:22 19.06.2019
6140 Clear 27 1011 51 10000 3.6 210 11:56 19.06.2019
6141 Clear 27 1011 51 10000 3.6 210 11:38 19.06.2019
6142 Clear 26 1011 57 10000 1.5 210 11:19 19.06.2019
6143 Clear 26 1011 64 10000 2.1 180 10:45 19.06.2019
6144 Clear 25 1011 64 10000 2.1 210 10:26 19.06.2019
6145 Clear 24 1011 69 10000 1.5 210 09:43 19.06.2019
6146 Clear 22 1011 68 10000 2.1 200 09:22 19.06.2019
6147 Clear 21 1011 68 10000 2.1 210 08:51 19.06.2019
6148 Clear 21 1011 64 10000 1 0 08:29 19.06.2019
6149 Clear 19 1011 72 10000 1 0 07:52 19.06.2019
6150 Clear 19 1011 72 10000 1 0 07:34 19.06.2019
6151 Clear 17 1011 87 10000 0.5 0 06:59 19.06.2019
6152 Clear 17 1011 87 10000 0.5 0 06:35 19.06.2019
6153 Clear 16 1011 77 10000 1 0 05:50 19.06.2019
6154 Clear 17 1011 72 10000 1.5 220 04:47 19.06.2019
6155 Clear 17 1011 68 10000 1.5 0 03:48 19.06.2019
6156 Clear 18 1012 77 10000 2.1 150 02:35 19.06.2019
6157 Clear 18 1012 60 10000 3.6 250 01:36 19.06.2019
6158 Clear 19 1012 49 10000 3.1 270 00:53 19.06.2019
6159 Clear 19 1012 49 10000 3.1 270 00:35 19.06.2019
6160 Clear 20 1012 49 10000 3.1 260 23:58 18.06.2019
6161 Clear 20 1012 49 10000 3.1 260 23:30 18.06.2019
6162 Clear 20 1012 56 10000 3.6 280 22:56 18.06.2019
6163 Clear 20 1012 56 10000 3.6 280 22:37 18.06.2019
6164 Clear 21 1012 57 10000 2.1 280 22:19 18.06.2019
6165 Clear 23 1012 50 10000 0.5 0 21:44 18.06.2019
6166 Clear 24 1012 42 10000 1 0 21:21 18.06.2019
6167 Clear 25 1012 42 10000 1.5 0 20:58 18.06.2019
6168 Clear 25 1012 42 10000 1.5 0 20:38 18.06.2019
6169 Clear 26 1012 54 10000 1.5 220 20:18 18.06.2019
6170 Clear 26 1012 45 10000 2.1 260 19:39 18.06.2019
6171 Clear 27 1012 42 10000 1.5 270 19:21 18.06.2019
6172 Clear 27 1012 42 10000 2.6 230 18:48 18.06.2019
6173 Clear 28 1012 39 10000 3.1 220 18:25 18.06.2019
6174 Clear 27 1013 35 10000 2.6 220 17:46 18.06.2019
6175 Clear 28 1013 42 10000 2.1 240 17:22 18.06.2019
6176 Clear 28 1013 51 10000 2.1 250 16:57 18.06.2019
6177 Clear 28 1013 51 10000 2.1 250 16:39 18.06.2019
6178 Clear 28 1013 48 10000 2.6 240 16:21 18.06.2019
6179 Clear 28 1013 48 10000 3.1 200 15:39 18.06.2019
6180 Clear 28 1013 45 10000 2.6 0 15:20 18.06.2019
6181 Clear 28 1013 51 10000 1.5 0 14:56 18.06.2019
6182 Clear 28 1013 51 10000 1.5 0 14:37 18.06.2019
6183 Clear 28 1014 51 10000 1 0 14:18 18.06.2019
6184 Clear 28 1014 48 10000 1 0 13:46 18.06.2019
6185 Clear 28 1014 51 10000 1.5 0 13:28 18.06.2019
6186 Clear 27 1014 61 10000 2.1 360 12:46 18.06.2019
6187 Clear 27 1014 61 10000 2.1 360 12:46 18.06.2019
6188 Clear 26 1014 57 10000 1 0 12:27 18.06.2019
6189 Clear 25 1015 61 10000 1.5 0 11:50 18.06.2019
6190 Clear 25 1015 64 10000 1 0 11:23 18.06.2019
6191 Clear 24 1015 64 10000 1 0 10:58 18.06.2019
6192 Clear 24 1015 64 10000 1 0 10:39 18.06.2019
6193 Clear 23 1015 68 10000 1.5 0 10:20 18.06.2019
6194 Clear 22 1016 73 10000 1.5 230 09:51 18.06.2019
6195 Clear 21 1016 77 10000 1.5 230 09:24 18.06.2019
6196 Clear 19 1016 77 10000 2.6 210 08:50 18.06.2019
6197 Clear 19 1016 77 10000 2.1 190 08:23 18.06.2019
6198 Clear 18 1016 88 10000 1.5 220 07:56 18.06.2019
6199 Clear 16 1015 87 10000 1 0 07:26 18.06.2019
6200 Clear 16 1015 82 10000 2.1 240 06:55 18.06.2019
6201 Clear 15 1016 82 10000 2.6 260 05:27 18.06.2019
6202 Clear 15 1016 72 10000 3.1 270 04:21 18.06.2019
6203 Clear 16 1016 68 10000 3.1 270 02:48 18.06.2019
6204 Clear 17 1016 64 10000 3.1 270 01:28 18.06.2019
6205 Clear 17 1016 68 10000 3.1 270 00:58 18.06.2019
6206 Clear 18 1016 68 10000 3.1 270 00:39 18.06.2019
6207 Clear 18 1016 68 10000 3.6 270 00:18 18.06.2019
6208 Clear 18 1016 68 10000 3.6 270 23:38 17.06.2019
6209 Clear 18 1016 68 10000 3.6 270 23:38 17.06.2019
6210 Clear 18 1016 64 10000 4.1 270 23:18 17.06.2019
6211 Clear 19 1016 64 10000 3.1 280 22:41 17.06.2019
6212 Clear 19 1016 60 10000 2.1 300 22:21 17.06.2019
6213 Clear 21 1016 53 10000 2.6 20 21:46 17.06.2019
6214 Clear 23 1016 50 10000 3.6 30 21:24 17.06.2019
6215 Clear 23 1016 50 10000 3.6 30 21:24 17.06.2019
6216 Clear 24 1015 57 10000 3.6 360 20:44 17.06.2019
6217 Clear 24 1015 57 10000 3.6 360 20:26 17.06.2019
6218 Clear 24 1015 50 10000 4.6 360 19:58 17.06.2019
6219 Clear 24 1015 50 10000 4.6 360 19:40 17.06.2019
6220 Clear 25 1016 50 10000 5.7 10 19:21 17.06.2019
6221 Clouds 25 1016 50 10000 3.6 360 18:55 17.06.2019
6222 Clouds 25 1016 50 10000 3.6 360 18:36 17.06.2019
6223 Clouds 26 1016 54 10000 3.1 350 18:18 17.06.2019
6224 Clear 26 1016 42 10000 4.1 30 17:41 17.06.2019
6225 Clear 26 1016 42 10000 4.1 30 17:23 17.06.2019
6226 Clear 26 1017 42 10000 4.6 20 16:45 17.06.2019
6227 Clear 26 1017 42 10000 4.6 20 16:27 17.06.2019
6228 Clear 26 1017 42 10000 3.6 360 15:56 17.06.2019
6229 Clear 26 1017 44 10000 5.1 360 15:37 17.06.2019
6230 Clear 25 1018 44 10000 3.6 360 15:18 17.06.2019
6231 Clear 26 1018 44 10000 3.6 360 14:47 17.06.2019
6232 Clear 25 1018 47 10000 3.6 20 14:26 17.06.2019
6233 Clear 25 1018 47 10000 3.1 40 13:50 17.06.2019
6234 Clear 25 1018 47 10000 3.1 40 13:23 17.06.2019
6235 Clear 25 1019 47 10000 3.6 10 12:51 17.06.2019
6236 Clear 24 1019 53 10000 3.1 60 12:31 17.06.2019
6237 Clear 22 1019 56 10000 3.6 50 11:49 17.06.2019
6238 Clear 22 1019 56 10000 3.6 50 11:26 17.06.2019
6239 Clear 21 1020 56 10000 4.1 30 10:59 17.06.2019
6240 Clear 21 1020 64 10000 3.6 360 10:40 17.06.2019
6241 Clear 20 1020 64 10000 3.6 360 10:22 17.06.2019
6242 Clear 19 1020 68 10000 3.6 360 09:55 17.06.2019
6243 Clear 17 1020 68 10000 3.1 360 09:30 17.06.2019
6244 Clear 16 1020 72 10000 2.1 40 08:42 17.06.2019
6245 Clear 16 1020 72 10000 2.1 40 08:23 17.06.2019
6246 Clear 15 1020 82 10000 2.1 290 07:46 17.06.2019
6247 Clear 14 1020 82 10000 2.1 290 07:28 17.06.2019
6248 Fog 13 1020 82 10000 2.1 290 06:46 17.06.2019
6249 Fog 12 1020 82 10000 1.5 0 05:53 17.06.2019
6250 Clear 13 1021 82 10000 2.1 300 04:52 17.06.2019
6251 Clouds 13 1021 77 10000 2.6 280 03:50 17.06.2019
6252 Clouds 13 1021 82 10000 4.1 270 03:25 17.06.2019
6253 Clear 14 1021 82 10000 5.1 270 02:42 17.06.2019
6254 Clouds 14 1021 82 10000 4.1 270 02:19 17.06.2019
6255 Clear 14 1021 77 10000 5.1 270 01:35 17.06.2019
6256 Clear 14 1021 77 10000 4.1 270 00:48 17.06.2019
6257 Clear 15 1021 82 10000 3.6 270 00:27 17.06.2019
6258 Clear 15 1021 82 10000 4.1 270 23:58 16.06.2019
6259 Clear 15 1021 77 10000 4.6 270 23:37 16.06.2019
6260 Clear 16 1021 77 10000 4.6 270 23:19 16.06.2019
6261 Clear 16 1021 82 10000 3.1 280 22:44 16.06.2019
6262 Clear 16 1021 82 10000 3.1 280 22:20 16.06.2019
6263 Clear 16 1021 82 10000 3.1 280 22:20 16.06.2019
6264 Clear 17 1021 77 10000 1 0 21:57 16.06.2019
6265 Clear 18 1021 72 10000 2.1 330 21:39 16.06.2019
6266 Clear 19 1021 60 10000 3.1 20 21:20 16.06.2019
6267 Clear 19 1021 72 10000 2.1 330 21:20 16.06.2019
6268 Clear 20 1021 53 10000 2.1 10 20:39 16.06.2019
6269 Clear 21 1021 53 10000 2.1 10 20:19 16.06.2019
6270 Clear 21 1021 53 10000 2.1 10 20:19 16.06.2019
6271 Clear 21 1021 49 10000 1.5 20 19:58 16.06.2019
6272 Clear 21 1021 49 10000 1.5 20 19:58 16.06.2019
6273 Clear 20 1021 49 10000 2.1 50 19:39 16.06.2019
6274 Clear 21 1021 49 10000 2.1 50 19:21 16.06.2019
6275 Clear 21 1021 49 10000 1 0 18:42 16.06.2019
6276 Clear 22 1021 49 10000 1 0 18:21 16.06.2019
6277 Clear 22 1021 49 10000 1 0 18:21 16.06.2019
6278 Clear 22 1021 49 10000 1.5 0 17:57 16.06.2019
6279 Clear 21 1021 53 10000 1.5 0 17:38 16.06.2019
6280 Clear 22 1021 56 10000 1 0 17:20 16.06.2019
6281 Clear 22 1021 56 10000 1 0 16:55 16.06.2019
6282 Clear 22 1022 53 10000 1.5 70 16:36 16.06.2019
6283 Clear 22 1022 53 10000 1.5 70 16:36 16.06.2019
6284 Clear 22 1022 53 10000 1.5 70 16:18 16.06.2019
6285 Clouds 22 1022 53 10000 2.1 80 15:39 16.06.2019
6286 Clouds 21 1022 53 10000 2.1 80 15:21 16.06.2019
6287 Clear 21 1022 53 10000 2.1 0 14:41 16.06.2019
6288 Clear 21 1022 53 10000 2.1 0 14:22 16.06.2019
6289 Rain 21 1022 60 10000 1.5 0 13:51 16.06.2019
6290 Rain 21 1022 60 10000 1.5 0 13:51 16.06.2019
6291 Rain 21 1022 60 10000 1.5 0 13:51 16.06.2019
6292 Clouds 21 1022 64 10000 2.1 170 13:26 16.06.2019
6293 Clouds 20 1023 64 10000 2.1 160 12:56 16.06.2019
6294 Clouds 20 1022 68 10000 4.1 180 12:37 16.06.2019
6295 Clouds 19 1022 68 10000 4.1 180 12:18 16.06.2019
6296 Clouds 18 1022 77 10000 2.6 120 11:40 16.06.2019
6297 Clouds 18 1022 82 10000 3.6 140 11:19 16.06.2019
6298 Clouds 17 1022 77 10000 3.1 170 10:45 16.06.2019
6299 Clouds 17 1022 77 10000 3.1 170 10:20 16.06.2019
6300 Clouds 16 1022 77 10000 3.1 170 10:20 16.06.2019
6301 Rain 16 1022 82 10000 1.5 140 09:48 16.06.2019
6302 Rain 15 1022 82 10000 1.5 140 09:26 16.06.2019
6303 Rain 15 1022 87 10000 1.5 0 08:57 16.06.2019
6304 Rain 15 1022 87 10000 1.5 260 08:38 16.06.2019
6305 Rain 15 1022 87 10000 1.5 260 08:18 16.06.2019
6306 Rain 14 1021 93 10000 1.5 0 07:43 16.06.2019
6307 Rain 14 1021 93 10000 2.1 260 06:57 16.06.2019
6308 Rain 14 1021 93 10000 1.5 0 06:37 16.06.2019
6309 Rain 14 1021 93 10000 1.5 0 05:47 16.06.2019
6310 Rain 14 1020 100 10000 1 230 04:49 16.06.2019
6311 Rain 15 1020 93 10000 2.1 230 03:57 16.06.2019
6312 Rain 15 1020 93 10000 2.1 230 03:57 16.06.2019
6313 Rain 15 1020 93 10000 2.1 230 03:57 16.06.2019
6314 Rain 15 1020 93 10000 2.1 140 03:32 16.06.2019
6315 Rain 15 1020 93 9000 1.5 150 02:31 16.06.2019
6316 Rain 15 1020 93 8000 2.1 190 01:44 16.06.2019
6317 Rain 15 1020 93 8000 2.1 190 01:26 16.06.2019
6318 Rain 15 1020 87 10000 1.5 210 00:40 16.06.2019
6319 Rain 15 1020 87 10000 1.5 210 00:21 16.06.2019
6320 Rain 16 1019 82 10000 2.6 300 23:44 15.06.2019
6321 Rain 16 1019 82 10000 2.6 300 23:25 15.06.2019
6322 Rain 16 1018 93 10000 2.6 260 22:50 15.06.2019
6323 Rain 16 1018 87 7000 3.6 310 22:27 15.06.2019
6324 Rain 17 1018 93 6000 4.6 260 21:57 15.06.2019
6325 Rain 17 1017 82 10000 4.1 250 21:39 15.06.2019
6326 Thunderstorm 18 1017 82 10000 4.1 250 21:18 15.06.2019
6327 Rain 19 1016 56 10000 1.5 60 20:42 15.06.2019
6328 Rain 19 1016 56 10000 1.5 60 20:22 15.06.2019
6329 Clouds 20 1015 56 10000 2.6 50 19:46 15.06.2019
6330 Clouds 21 1015 56 10000 2.6 50 19:24 15.06.2019
6331 Thunderstorm 22 1016 50 10000 0.5 0 18:42 15.06.2019
6332 Thunderstorm 23 1016 50 10000 0.5 0 18:23 15.06.2019
6333 Clouds 23 1016 47 10000 1.5 0 17:44 15.06.2019
6334 Clouds 23 1016 47 10000 1.5 0 17:26 15.06.2019
6335 Clear 23 1016 47 10000 1.5 0 16:49 15.06.2019
6336 Clear 23 1016 47 10000 1.5 0 16:49 15.06.2019
6337 Clear 23 1016 47 10000 1.5 0 16:49 15.06.2019
6338 Clouds 23 1017 60 10000 2.6 290 16:21 15.06.2019
6339 Clouds 22 1017 60 10000 3.1 310 15:55 15.06.2019
6340 Clear 23 1016 49 10000 1.5 30 15:37 15.06.2019
6341 Clouds 23 1016 50 10000 2.6 0 15:18 15.06.2019
6342 Clouds 22 1017 47 10000 2.1 280 14:37 15.06.2019
6343 Clouds 22 1017 47 10000 2.1 270 14:18 15.06.2019
6344 Clouds 22 1017 49 10000 2.1 230 13:42 15.06.2019
6345 Clouds 21 1017 49 10000 2.1 230 13:20 15.06.2019
6346 Clouds 21 1017 53 10000 3.1 210 12:57 15.06.2019
6347 Clouds 21 1017 53 10000 3.1 260 12:37 15.06.2019
6348 Clouds 20 1017 53 10000 4.1 270 12:19 15.06.2019
6349 Clouds 19 1016 56 10000 5.7 230 11:41 15.06.2019
6350 Clouds 19 1016 56 10000 5.7 230 11:41 15.06.2019
6351 Clouds 19 1016 56 10000 5.1 220 11:23 15.06.2019
6352 Clouds 19 1016 53 10000 5.1 220 10:42 15.06.2019
6353 Clouds 19 1015 56 10000 5.7 220 10:24 15.06.2019
6354 Clouds 19 1015 68 10000 4.1 180 09:47 15.06.2019
6355 Clouds 18 1015 68 10000 4.1 180 09:25 15.06.2019
6356 Clouds 18 1015 72 10000 4.1 140 08:54 15.06.2019
6357 Clouds 18 1014 77 10000 1.5 0 08:33 15.06.2019
6358 Clouds 18 1014 82 10000 1 0 07:52 15.06.2019
6359 Rain 17 1014 82 10000 1.5 130 07:25 15.06.2019
6360 Clear 17 1013 88 10000 1.5 0 06:44 15.06.2019
6361 Clear 16 1013 88 10000 1.5 0 06:20 15.06.2019
6362 Clouds 17 1012 72 10000 1.5 0 05:28 15.06.2019
6363 Clouds 17 1012 72 10000 5.1 220 04:46 15.06.2019
6364 Clear 16 1010 82 10000 1.5 210 03:49 15.06.2019
6365 Clear 16 1010 82 10000 1.5 190 02:58 15.06.2019
6366 Clear 16 1009 82 10000 3.1 270 02:23 15.06.2019
6367 Clear 16 1009 82 10000 1 0 01:50 15.06.2019
6368 Clear 17 1009 77 10000 1.5 290 01:18 15.06.2019
6369 Clear 17 1010 77 10000 2.6 330 00:40 15.06.2019
6370 Clear 18 1010 88 10000 2.1 320 23:55 14.06.2019
6371 Clear 18 1011 88 10000 3.1 20 23:37 14.06.2019
6372 Clear 18 1011 88 10000 3.1 20 23:18 14.06.2019
6373 Clear 18 1011 82 10000 2.1 10 22:40 14.06.2019
6374 Clear 18 1011 82 10000 2.1 10 22:21 14.06.2019
6375 Clear 19 1011 77 10000 2.1 320 21:48 14.06.2019
6376 Clear 20 1011 77 10000 2.1 320 21:27 14.06.2019
6377 Clear 21 1011 77 10000 1.5 350 20:55 14.06.2019
6378 Clear 21 1012 73 10000 2.1 330 20:36 14.06.2019
6379 Clear 21 1012 73 10000 2.1 330 20:18 14.06.2019
6380 Clear 22 1012 73 10000 2.1 340 19:39 14.06.2019
6381 Clear 22 1012 73 10000 2.1 340 19:19 14.06.2019
6382 Clear 23 1013 73 10000 3.1 330 18:54 14.06.2019
6383 Clear 23 1014 68 10000 1 0 18:36 14.06.2019
6384 Clear 23 1014 73 10000 1.5 0 18:18 14.06.2019
6385 Clear 23 1015 77 10000 1.5 20 17:44 14.06.2019
6386 Clear 23 1015 77 10000 1.5 20 17:23 14.06.2019
6387 Rain 22 1015 82 10000 2.1 350 16:48 14.06.2019
6388 Rain 22 1015 82 10000 2.1 330 16:24 14.06.2019
6389 Rain 22 1015 82 10000 2.1 330 16:24 14.06.2019
6390 Rain 21 1016 88 10000 1.5 280 15:59 14.06.2019
6391 Clouds 21 1016 82 10000 0.5 0 15:39 14.06.2019
6392 Clouds 22 1016 82 10000 0.5 0 15:19 14.06.2019
6393 Clouds 22 1017 72 10000 1 0 14:46 14.06.2019
6394 Clouds 22 1017 72 10000 1 0 14:27 14.06.2019
6395 Rain 21 1017 77 10000 1.5 240 13:46 14.06.2019
6396 Rain 21 1017 77 10000 2.1 230 13:28 14.06.2019
6397 Rain 21 1017 82 10000 1 0 12:59 14.06.2019
6398 Rain 21 1017 82 10000 1 0 12:59 14.06.2019
6399 Rain 20 1018 77 10000 0.5 0 12:39 14.06.2019
6400 Rain 20 1018 77 10000 0.5 0 12:21 14.06.2019
6401 Rain 20 1018 77 10000 0.5 0 12:21 14.06.2019
6402 Rain 20 1017 72 10000 2.1 190 11:42 14.06.2019
6403 Rain 20 1017 72 10000 2.1 190 11:23 14.06.2019
6404 Clear 20 1015 63 10000 2.1 100 10:48 14.06.2019
6405 Clear 20 1015 63 10000 2.1 100 10:22 14.06.2019
6406 Clear 19 1015 55 10000 1.5 0 09:55 14.06.2019
6407 Clear 18 1015 63 10000 2.1 180 09:34 14.06.2019
6408 Rain 17 1016 67 10000 3.1 160 08:56 14.06.2019
6409 Rain 17 1015 63 10000 1.5 140 08:38 14.06.2019
6410 Clear 17 1015 63 10000 1.5 140 08:18 14.06.2019
6411 Clear 16 1015 67 10000 3.6 200 07:43 14.06.2019
6412 Clear 15 1015 67 10000 3.6 200 07:19 14.06.2019
6413 Clear 13 1014 71 10000 1 0 06:27 14.06.2019
6414 Clear 13 1014 71 10000 1 0 06:27 14.06.2019
6415 -273 0 0 0 0 0 05:53 14.06.2019
6416 Clear 12 1014 76 10000 1.5 210 04:56 14.06.2019
6417 Clear 12 1014 71 10000 2.1 220 04:32 14.06.2019
6418 Clear 13 1015 67 10000 1.5 210 03:46 14.06.2019
6419 Clear 13 1015 67 10000 1.5 210 03:23 14.06.2019
6420 Clear 13 1015 55 10000 3.6 260 02:43 14.06.2019
6421 Clear 14 1015 59 10000 3.1 260 01:54 14.06.2019
6422 Clear 15 1015 59 10000 3.1 270 00:46 14.06.2019
6423 Clear 15 1015 59 10000 3.1 270 00:22 14.06.2019
6424 Clear 15 1015 55 10000 3.6 270 23:53 13.06.2019
6425 Clear 16 1015 55 10000 3.1 270 23:27 13.06.2019
6426 Clear 17 1015 55 10000 3.1 260 22:59 13.06.2019
6427 Clear 17 1014 55 10000 1 0 22:39 13.06.2019
6428 Clear 17 1014 55 10000 1 0 22:20 13.06.2019
6429 Clear 19 1014 33 10000 2.1 150 21:39 13.06.2019
6430 Clear 21 1014 33 10000 2.1 150 21:20 13.06.2019
6431 Clear 22 1013 25 10000 3.1 140 20:45 13.06.2019
6432 Clear 22 1013 25 10000 3.1 140 20:22 13.06.2019
6433 Clear 23 1013 22 10000 2.1 190 19:59 13.06.2019
6434 Clear 23 1013 25 10000 1.5 0 19:41 13.06.2019
6435 Clear 23 1013 25 10000 1.5 0 19:21 13.06.2019
6436 Clear 24 1013 22 10000 1.5 0 18:56 13.06.2019
6437 Clear 24 1013 24 10000 2.6 240 18:38 13.06.2019
6438 Clear 24 1013 24 10000 2.6 240 18:20 13.06.2019
6439 Clear 24 1014 27 10000 4.6 200 17:41 13.06.2019
6440 Clear 24 1014 27 10000 4.6 200 17:20 13.06.2019
6441 Clear 24 1013 29 10000 4.6 170 16:48 13.06.2019
6442 Clear 24 1014 25 10000 4.6 200 16:22 13.06.2019
6443 Clear 24 1014 23 10000 7.2 200 15:57 13.06.2019
6444 Clear 24 1014 23 10000 7.2 200 15:57 13.06.2019
6445 Clear 24 1014 29 10000 4.1 180 15:38 13.06.2019
6446 Clear 24 1014 29 10000 4.1 180 15:19 13.06.2019
6447 Clear 24 1014 31 10000 6.2 170 14:46 13.06.2019
6448 Clear 23 1014 31 10000 6.2 170 14:27 13.06.2019
6449 Clear 23 1014 31 10000 6.2 180 13:46 13.06.2019
6450 Clear 22 1014 31 10000 6.2 180 13:21 13.06.2019
6451 Clear 22 1015 35 10000 6.2 180 12:58 13.06.2019
6452 Clear 21 1015 37 10000 6.2 180 12:38 13.06.2019
6453 Clear 21 1015 46 10000 5.1 170 12:19 13.06.2019
6454 Clear 20 1015 46 10000 4.6 180 11:43 13.06.2019
6455 Clear 20 1015 46 10000 4.6 180 11:24 13.06.2019
6456 Clear 19 1015 48 10000 2.6 160 10:47 13.06.2019
6457 Clear 18 1015 48 10000 2.6 160 10:28 13.06.2019
6458 Clear 17 1015 55 10000 3.1 190 09:50 13.06.2019
6459 -273 0 0 0 0 0 09:28 13.06.2019
6460 Clear 16 1015 67 10000 1.5 0 08:55 13.06.2019
6461 Clear 15 1015 72 10000 1.5 0 08:37 13.06.2019
6462 Clear 15 1015 72 10000 1.5 0 08:19 13.06.2019
6463 Clear 14 1015 76 10000 1 170 07:37 13.06.2019
6464 Clear 13 1015 76 10000 1 170 07:18 13.06.2019
6465 Clear 12 1015 81 10000 1.5 230 06:38 13.06.2019
6466 Clear 12 1015 81 10000 1.5 230 06:20 13.06.2019
6467 Clear 13 1015 71 10000 1.5 240 05:39 13.06.2019
6468 Clear 13 1015 71 10000 3.6 260 05:18 13.06.2019
6469 Clear 13 1014 76 10000 2.1 250 03:49 13.06.2019
6470 Rain 13 1014 71 10000 1.5 240 01:59 13.06.2019
6471 Rain 14 1014 71 10000 3.6 250 00:32 13.06.2019
6472 Clear 15 1013 67 10000 3.6 270 23:38 12.06.2019
6473 Clear 14 1013 67 10000 3.6 270 23:20 12.06.2019
6474 Clear 14 1013 67 10000 2.1 270 22:41 12.06.2019
6475 Clear 15 1013 67 10000 2.1 270 22:22 12.06.2019
6476 Clear 16 1012 55 10000 3.6 200 21:47 12.06.2019
6477 Clear 18 1012 55 10000 3.6 200 21:28 12.06.2019
6478 Clear 19 1012 49 10000 4.1 190 20:49 12.06.2019
6479 Clear 19 1012 49 10000 5.1 190 20:31 12.06.2019
6480 Clear 19 1012 49 10000 4.6 180 19:59 12.06.2019
6481 Clear 20 1011 43 10000 4.6 180 19:41 12.06.2019
6482 Clear 20 1011 43 10000 4.6 180 19:22 12.06.2019
6483 Clear 20 1011 40 10000 2.6 110 18:51 12.06.2019
6484 Clear 20 1011 43 10000 1.5 0 18:29 12.06.2019
6485 Clear 20 1011 43 10000 1.5 0 18:29 12.06.2019
6486 Clouds 20 1011 46 10000 2.6 130 17:58 12.06.2019
6487 Rain 20 1011 46 10000 3.6 160 17:40 12.06.2019
6488 Rain 20 1012 49 10000 3.1 160 17:19 12.06.2019
6489 Rain 20 1012 49 10000 3.1 150 16:42 12.06.2019
6490 Clouds 20 1012 49 10000 3.1 150 16:23 12.06.2019
6491 Clear 20 1012 52 10000 3.1 170 15:48 12.06.2019
6492 Rain 19 1012 52 10000 3.1 170 15:29 12.06.2019
6493 Clouds 18 1012 55 10000 3.6 150 14:45 12.06.2019
6494 Clouds 18 1012 55 10000 3.6 150 14:45 12.06.2019
6495 Clouds 18 1012 55 10000 3.6 150 14:26 12.06.2019
6496 Clouds 17 1012 63 10000 5.1 190 13:43 12.06.2019
6497 Rain 17 1012 63 10000 5.1 190 13:20 12.06.2019
6498 Clouds 17 1012 59 10000 3.6 220 12:59 12.06.2019
6499 Rain 17 1012 72 10000 1.5 0 12:38 12.06.2019
6500 Rain 17 1012 72 10000 1.5 0 12:38 12.06.2019
6501 Rain 17 1012 72 10000 1.5 0 12:38 12.06.2019
6502 Clouds 15 1012 72 10000 1.5 0 12:19 12.06.2019
6503 Clouds 15 1012 72 10000 1.5 0 12:19 12.06.2019
6504 Clouds 15 1012 72 10000 1.5 0 12:19 12.06.2019
6505 Clouds 15 1012 72 10000 1.5 0 12:19 12.06.2019
6506 Clouds 15 1012 72 10000 1.5 0 11:46 12.06.2019
6507 Clouds 14 1012 82 10000 2.6 180 11:28 12.06.2019
6508 Rain 13 1012 87 10000 3.6 190 10:51 12.06.2019
6509 Rain 13 1012 87 10000 4.1 180 10:31 12.06.2019
6510 Rain 12 1011 87 10000 2.6 130 09:55 12.06.2019
6511 Rain 12 1011 82 10000 3.1 170 09:37 12.06.2019
6512 Rain 12 1011 87 10000 4.1 180 09:18 12.06.2019
6513 Rain 12 1010 87 10000 1.5 160 08:25 12.06.2019
6514 Rain 13 1010 87 10000 2.1 190 07:52 12.06.2019
6515 Rain 13 1009 82 10000 2.6 250 06:55 12.06.2019
6516 Rain 13 1009 87 10000 1.5 300 05:54 12.06.2019
6517 Rain 13 1009 87 10000 1 0 05:24 12.06.2019
6518 Clouds 14 1010 82 10000 1 0 02:20 12.06.2019
6519 Clear 14 1011 82 10000 2.1 260 00:41 12.06.2019
6520 Clear 14 1011 82 10000 2.1 240 23:53 11.06.2019
6521 Clear 14 1010 82 10000 2.6 290 23:35 11.06.2019
6522 Clouds 14 1011 87 10000 2.1 270 22:57 11.06.2019
6523 Clear 14 1011 87 10000 1 0 22:38 11.06.2019
6524 Clear 14 1011 82 10000 0.99 38.369 22:18 11.06.2019
6525 Clear 14 1011 82 10000 0.99 38.369 22:18 11.06.2019
6526 Clouds 15 1011 82 10000 1 0 21:41 11.06.2019
6527 Clouds 16 1011 82 10000 1 0 21:23 11.06.2019
6528 Clouds 16 1011 72 10000 1 0 20:58 11.06.2019
6529 Clouds 16 1011 72 10000 1 0 20:58 11.06.2019
6530 Clouds 16 1012 72 10000 1.5 0 20:39 11.06.2019
6531 Clouds 16 1012 72 10000 1.5 0 20:21 11.06.2019
6532 Clouds 16 1011 77 10000 1.5 0 19:51 11.06.2019
6533 Rain 17 1011 77 10000 1.5 0 19:28 11.06.2019
6534 Rain 17 1011 77 10000 1.5 0 19:28 11.06.2019
6535 -273 0 0 0 0 0 18:49 11.06.2019
6536 Rain 17 1011 77 10000 1.15 312.991 18:49 11.06.2019
6537 Rain 16 1011 77 10000 4.02 305.168 18:20 11.06.2019
6538 Rain 16 1011 72 10000 2.1 210 17:41 11.06.2019
6539 Rain 16 1011 72 10000 2.1 210 17:21 11.06.2019
6540 Rain 16 1011 72 10000 0.5 0 16:46 11.06.2019
6541 Rain 16 1011 72 10000 0.5 0 16:24 11.06.2019
6542 Rain 16 1011 68 10000 1 0 15:59 11.06.2019
6543 Rain 15 1012 67 10000 1.5 0 15:41 11.06.2019
6544 Rain 15 1012 67 10000 1.5 0 15:19 11.06.2019
6545 Rain 15 1012 67 10000 1.5 0 14:41 11.06.2019
6546 Rain 15 1012 67 10000 1.5 0 14:20 11.06.2019
6547 Rain 15 1011 72 10000 1.5 40 13:50 11.06.2019
6548 Rain 15 1011 67 10000 3.1 30 13:23 11.06.2019
6549 Rain 15 1012 72 10000 2.1 10 12:43 11.06.2019
6550 Rain 15 1012 72 10000 2.1 10 12:43 11.06.2019
6551 Rain 15 1012 72 10000 2.1 10 12:22 11.06.2019
6552 Rain 15 1012 72 10000 2.6 0 11:58 11.06.2019
6553 Rain 15 1012 77 10000 2.6 10 11:36 11.06.2019
6554 Rain 15 1012 82 10000 1 0 11:18 11.06.2019
6555 Rain 15 1012 82 10000 1.5 10 10:43 11.06.2019
6556 Rain 15 1012 82 10000 1.5 10 10:24 11.06.2019
6557 Rain 14 1012 93 10000 2.1 350 09:46 11.06.2019
6558 Rain 14 1012 93 10000 2.1 350 09:23 11.06.2019
6559 Rain 13 1012 93 10000 3.1 10 08:44 11.06.2019
6560 Rain 13 1012 93 10000 3.1 10 08:24 11.06.2019
6561 Rain 12 1012 87 10000 2.1 10 07:37 11.06.2019
6562 Rain 12 1012 93 10000 2.1 10 06:55 11.06.2019
6563 Rain 12 1012 93 10000 1 0 06:25 11.06.2019
6564 Rain 12 1013 93 10000 1 0 04:52 11.06.2019
6565 Rain 13 1013 87 10000 2.1 280 02:54 11.06.2019
6566 Rain 13 1013 93 10000 2.1 260 01:25 11.06.2019
6567 Rain 14 1013 93 10000 1.5 240 00:46 11.06.2019
6568 Rain 14 1013 93 10000 1 0 23:47 10.06.2019
6569 Rain 14 1013 93 10000 1 0 23:25 10.06.2019
6570 Rain 14 1013 93 10000 2.1 270 22:55 10.06.2019
6571 Rain 14 1013 93 10000 0.5 0 22:37 10.06.2019
6572 Rain 14 1013 93 9000 0.5 0 22:19 10.06.2019
6573 Rain 15 1012 93 10000 1 0 21:40 10.06.2019
6574 Rain 15 1012 93 10000 1 0 21:22 10.06.2019
6575 Rain 15 1013 93 10000 2.1 160 20:46 10.06.2019
6576 Rain 16 1013 93 10000 2.1 160 20:25 10.06.2019
6577 Rain 16 1012 93 10000 2.1 150 19:56 10.06.2019
6578 Rain 16 1012 93 10000 1 0 19:36 10.06.2019
6579 Rain 16 1012 93 10000 1 0 19:18 10.06.2019
6580 Rain 16 1013 93 10000 2.1 210 18:55 10.06.2019
6581 Rain 16 1012 88 10000 2.1 140 18:36 10.06.2019
6582 Rain 17 1012 88 10000 2.1 140 18:18 10.06.2019
6583 Rain 16 1013 93 10000 2.6 180 17:39 10.06.2019
6584 Rain 16 1013 93 10000 2.6 180 17:20 10.06.2019
6585 Rain 17 1013 88 10000 2.6 190 16:44 10.06.2019
6586 Rain 17 1013 88 10000 2.6 190 16:25 10.06.2019
6587 Rain 17 1013 82 10000 1.5 170 15:42 10.06.2019
6588 Rain 17 1013 82 10000 1.5 170 15:24 10.06.2019
6589 Rain 17 1014 82 10000 2.1 140 14:59 10.06.2019
6590 Rain 17 1015 88 10000 2.1 120 14:38 10.06.2019
6591 Rain 17 1015 88 10000 2.1 120 14:20 10.06.2019
6592 Rain 17 1013 93 10000 2.1 10 13:43 10.06.2019
6593 Rain 17 1013 93 10000 2.1 10 13:22 10.06.2019
6594 Rain 17 1015 87 10000 2.1 280 12:45 10.06.2019
6595 Rain 18 1015 87 10000 2.1 280 12:26 10.06.2019
6596 Rain 17 1016 87 10000 2.1 140 11:46 10.06.2019
6597 Rain 17 1016 87 10000 2.1 140 11:46 10.06.2019
6598 Rain 17 1016 87 10000 2.1 140 11:28 10.06.2019
6599 Rain 16 1015 93 10000 2.6 340 10:57 10.06.2019
6600 Rain 16 1015 87 10000 1.5 10 10:38 10.06.2019
6601 Rain 16 1015 87 10000 1.5 10 10:18 10.06.2019
6602 Rain 16 1015 87 10000 0.5 0 09:45 10.06.2019
6603 Rain 15 1015 87 10000 0.5 0 09:26 10.06.2019
6604 Rain 15 1016 93 10000 1 0 08:45 10.06.2019
6605 Rain 15 1016 93 10000 1 0 08:25 10.06.2019
6606 Rain 14 1015 93 10000 1.5 0 07:26 10.06.2019
6607 Rain 14 1016 93 9000 3.1 160 04:41 10.06.2019
6608 Rain 14 1017 87 10000 1 0 02:18 10.06.2019
6609 Rain 14 1017 93 9000 2.1 230 01:28 10.06.2019
6610 Rain 14 1018 93 7000 2.1 210 00:59 10.06.2019
6611 Rain 14 1017 87 10000 1.5 200 00:31 10.06.2019
6612 Rain 15 1018 87 9000 2.1 220 23:45 09.06.2019
6613 Rain 15 1018 87 9000 2.1 220 23:21 09.06.2019
6614 Rain 15 1018 87 10000 3.6 200 22:45 09.06.2019
6615 Rain 15 1018 87 10000 3.6 200 22:26 09.06.2019
6616 Rain 15 1018 87 7000 5.1 190 21:47 09.06.2019
6617 Rain 16 1018 77 10000 4.1 190 21:28 09.06.2019
6618 Rain 16 1017 72 10000 4.1 190 20:58 09.06.2019
6619 Rain 16 1017 63 10000 4.6 200 20:40 09.06.2019
6620 Rain 16 1017 63 10000 4.6 200 20:21 09.06.2019
6621 Rain 17 1017 59 10000 3.1 200 19:42 09.06.2019
6622 Rain 17 1017 60 10000 2.6 190 19:18 09.06.2019
6623 Rain 18 1018 60 10000 3.1 180 18:43 09.06.2019
6624 Rain 18 1018 60 10000 3.1 180 18:25 09.06.2019
6625 Clear 18 1018 56 10000 3.1 170 17:53 09.06.2019
6626 Rain 18 1019 52 10000 4.1 180 17:30 09.06.2019
6627 Rain 18 1019 52 10000 4.1 170 16:58 09.06.2019
6628 Rain 18 1020 49 10000 5.1 170 16:39 09.06.2019
6629 Rain 18 1020 49 10000 5.1 170 16:20 09.06.2019
6630 Rain 18 1020 49 10000 4.1 160 15:50 09.06.2019
6631 Rain 18 1020 45 10000 4.6 180 15:29 09.06.2019
6632 Rain 18 1021 42 10000 3.1 170 14:54 09.06.2019
6633 Rain 19 1021 43 10000 2.1 150 14:36 09.06.2019
6634 Rain 19 1021 43 10000 2.1 150 14:18 09.06.2019
6635 Clear 19 1021 43 10000 1.5 0 13:44 09.06.2019
6636 Clear 19 1021 42 10000 1.5 60 12:56 09.06.2019
6637 Clear 20 1021 42 10000 1.5 0 12:34 09.06.2019
6638 Clear 19 1022 42 10000 1.5 80 11:58 09.06.2019
6639 Clear 19 1022 37 10000 2.1 0 11:36 09.06.2019
6640 Clear 19 1022 40 10000 2.1 0 11:18 09.06.2019
6641 Clear 19 1022 45 10000 2.6 350 10:43 09.06.2019
6642 Clear 18 1022 45 10000 2.6 350 10:43 09.06.2019
6643 Clear 18 1022 45 10000 2.6 350 10:20 09.06.2019
6644 Clear 16 1022 51 10000 2.6 350 09:39 09.06.2019
6645 Clear 15 1022 51 10000 2.6 350 09:20 09.06.2019
6646 Clear 14 1023 51 10000 1.5 20 08:45 09.06.2019
6647 Clear 12 1023 62 10000 1.5 290 07:57 09.06.2019
6648 Clear 11 1023 66 10000 3.6 270 06:48 09.06.2019
6649 Clear 10 1023 71 10000 2.1 290 06:29 09.06.2019
6650 Clear 11 1024 62 10000 4.1 280 03:25 09.06.2019
6651 Clear 11 1024 62 10000 2.1 270 01:38 09.06.2019
6652 Clear 12 1024 54 10000 2.6 280 01:19 09.06.2019
6653 Clear 12 1024 58 10000 1.5 0 00:42 09.06.2019
6654 Clear 14 1024 51 10000 2.1 0 23:42 08.06.2019
6655 Clear 14 1024 51 10000 2.1 0 23:23 08.06.2019
6656 Clear 14 1024 48 10000 3.1 270 22:56 08.06.2019
6657 Clear 14 1024 42 10000 3.1 310 22:38 08.06.2019
6658 Clear 15 1024 42 10000 3.1 310 22:19 08.06.2019
6659 Clear 15 1023 45 10000 1 0 21:49 08.06.2019
6660 Clear 18 1023 45 10000 1.5 330 21:25 08.06.2019
6661 Clear 19 1022 35 10000 1.5 360 20:46 08.06.2019
6662 Clear 20 1022 35 10000 1.5 360 20:25 08.06.2019
6663 Clear 20 1022 56 10000 2.6 260 19:58 08.06.2019
6664 Clear 21 1022 18 10000 3.1 240 19:39 08.06.2019
6665 Clear 21 1022 18 10000 3.1 240 19:19 08.06.2019
6666 Clear 21 1022 55 10000 3.1 260 18:51 08.06.2019
6667 Clear 22 1022 55 10000 3.6 240 18:33 08.06.2019
6668 Clear 21 1023 19 10000 5.1 250 17:49 08.06.2019
6669 Clear 22 1023 19 10000 5.1 250 17:23 08.06.2019
6670 Clear 22 1023 22 10000 3.1 0 16:57 08.06.2019
6671 Clear 22 1023 22 10000 5.1 250 16:38 08.06.2019
6672 Clear 22 1023 25 10000 4.1 260 15:57 08.06.2019
6673 Clear 22 1023 23 10000 4.6 260 15:36 08.06.2019
6674 Clear 21 1023 40 10000 4.1 0 14:50 08.06.2019
6675 Clear 21 1023 27 10000 4.6 240 14:31 08.06.2019
6676 Clear 21 1024 26 10000 5.7 250 13:54 08.06.2019
6677 Clear 21 1024 28 10000 5.7 240 13:24 08.06.2019
6678 Clear 20 1024 32 10000 5.7 250 12:45 08.06.2019
6679 Clear 18 1024 32 10000 5.7 250 12:19 08.06.2019
6680 Clear 17 1024 28 10000 6.2 230 11:40 08.06.2019
6681 Clear 17 1024 28 10000 6.2 230 11:21 08.06.2019
6682 Clear 17 1024 34 10000 5.7 230 10:44 08.06.2019
6683 Clear 16 1024 34 10000 5.7 230 10:22 08.06.2019
6684 Clear 16 1024 39 10000 7.2 220 09:43 08.06.2019
6685 Clear 15 1024 39 10000 7.2 220 09:21 08.06.2019
6686 Clear 14 1023 44 10000 4.1 220 08:29 08.06.2019
6687 Clear 13 1022 47 10000 2.6 210 07:47 08.06.2019
6688 Clear 13 1022 47 10000 2.6 210 07:47 08.06.2019
6689 Clouds 12 1022 50 10000 5.7 210 06:48 08.06.2019
6690 Clear 13 1021 47 10000 6.2 230 05:42 08.06.2019
6691 Rain 14 1020 51 10000 4.1 220 02:57 08.06.2019
6692 Clear 13 1018 62 10000 4.6 160 01:25 08.06.2019
6693 Clear 13 1018 62 10000 5.7 170 00:25 08.06.2019
6694 Rain 13 1017 62 10000 5.1 170 23:41 07.06.2019
6695 Rain 13 1017 62 10000 5.1 170 23:20 07.06.2019
6696 Rain 13 1017 59 10000 4.6 160 22:39 07.06.2019
6697 Rain 14 1017 59 10000 4.6 160 22:20 07.06.2019
6698 Rain 14 1017 59 10000 4.1 150 21:52 07.06.2019
6699 Rain 15 1016 45 10000 5.1 200 21:29 07.06.2019
6700 Rain 15 1016 55 10000 5.7 220 20:57 07.06.2019
6701 Rain 16 1015 42 10000 6.2 180 20:36 07.06.2019
6702 Rain 17 1014 45 10000 4.6 270 19:48 07.06.2019
6703 Clear 18 1013 48 10000 8.2 280 19:23 07.06.2019
6704 Clear 18 1012 45 10000 9.3 270 18:57 07.06.2019
6705 Clear 21 1011 49 10000 11.3 280 18:29 07.06.2019
6706 Clear 24 1010 43 10000 8.7 280 17:48 07.06.2019
6707 Clear 24 1009 27 10000 6.2 260 17:27 07.06.2019
6708 Clear 25 1009 27 10000 5.7 240 16:58 07.06.2019
6709 Clear 25 1008 32 10000 3.1 210 16:3